ÖsterreichEUDeutschland (aktiv)Geizhals (Deutschland) » Neue Bestpreise (2 Stunden)

Neue Bestpreise

Stunden: 1 2 4 8 12 24

Änderung mind. in Prozent: 0 0.2 0.5 1 2 3 5 10 20

Preistendenz: egal steigend fallend

Kategorien:

02.09.2014, 16:03 -12.06% Roces RFG Glamour um €29,90 (statt: €34,--) bei Der Knaller-Markt
02.09.2014, 16:03 -20.01% AustriAlpin hard rock Einfachseil 9.8mm um €119,90 (statt: €149,90) bei campz.de
02.09.2014, 16:03 -12.52% Grivel Mago 14 um €34,95 (statt: €39,95) bei campz.de
02.09.2014, 16:03 -22.23% Salewa Base Einfachseil 9.8mm (445) um €69,95 (statt: €89,95) bei campz.de
02.09.2014, 16:03 -3.63% Edelrid Satellite 20 Ultralight (72108) um €74,95 (statt: €77,77) bei campz.de
02.09.2014, 16:03 -0.69% Edelrid Satellite 20 (72109) um €84,95 (statt: €85,54) bei campz.de
02.09.2014, 16:03 -9.92% Millet Rock Up Einfachseil 10.2mm um €99,90 (statt: €110,90) bei campz.de
02.09.2014, 16:03 -11.04% Arc'teryx Cierzo 18 um €39,95 (statt: €44,91) bei campz.de
02.09.2014, 15:59 -2.72% Intel Core i5-3570K, 4x 3.40GHz, boxed (BX80637I53570K) um €190,85 (statt: €196,18) bei Home of Hardware
02.09.2014, 15:59 -2.28% Continental Conti.eContact 145/80 R13 75M um €31,71 (statt: €32,45) bei ReifenSuche.com
02.09.2014, 15:59 -5.19% Pirelli Scorpion Verde 265/45 R20 104Y um €234,60 (statt: €247,43) bei ReifenSuche.com
02.09.2014, 15:59 -2.02% EP-Tyres Accelera Phi 235/50 R18 101Y um €77,78 (statt: €79,38) bei ReifenSuche.com
02.09.2014, 15:59 -3.38% Bridgestone Potenza RE050A 245/45 R17 95Y RFT um €137,21 (statt: €142,01) bei ReifenSuche.com
02.09.2014, 15:59 -3.62% Kumho Ecsta SPT KU31 255/50 R17 101W um €113,34 (statt: €117,60) bei ReifenSuche.com
02.09.2014, 15:59 -2.91% Kumho Ecsta SPT KU31 245/35 R20 95Y XL um €142,15 (statt: €146,41) bei ReifenSuche.com
02.09.2014, 15:59 -3.18% Kumho Road Venture AT KL78 215/75 R15 100S um €76,20 (statt: €78,70) bei ReifenSuche.com
02.09.2014, 15:59 -3.00% Kumho Ecsta SPT KU31 205/45 R17 88W XL um €69,83 (statt: €71,99) bei ReifenSuche.com
02.09.2014, 15:59 -4.30% Toyo NanoEnergy 2 195/55 R16 87V um €66,81 (statt: €69,81) bei ReifenSuche.com
02.09.2014, 15:59 -3.14% Dunlop Grandtrek AT 3 215/75 R15 100/97S um €91,89 (statt: €94,87) bei ReifenSuche.com
02.09.2014, 15:59 -4.64% Bridgestone Dueler H/P Sport 255/60 R18 112V XL um €141,90 (statt: €148,80) bei ReifenSuche.com
02.09.2014, 15:59 -7.40% Goodyear Excellence 205/55 R16 91V um €83,80 (statt: €90,50) bei ReifenSuche.com
02.09.2014, 15:59 -7.38% Fulda EcoControl HP 205/55 R16 94V XL um €64,93 (statt: €70,10) bei ReifenSuche.com
02.09.2014, 15:59 -0.73% Michelin Latitude Tour HP 225/65 R17 102H um €112,80 (statt: €113,63) bei ReifenSuche.com
02.09.2014, 15:59 -3.84% Pirelli PZero Nero 225/45 ZR17 94W XL um €91,22 (statt: €94,86) bei ReifenSuche.com
02.09.2014, 15:59 -4.28% Sailun Ice Blazer WSL2 225/45 R17 94H XL um €52,36 (statt: €54,70) bei ReifenSuche.com
02.09.2014, 15:59 -4.81% Sailun Ice Blazer WSL2 165/70 R14 81T XL um €33,24 (statt: €34,92) bei ReifenSuche.com
02.09.2014, 15:59 -4.79% Sailun Ice Blazer WSL2 155/80 R13 79T um €29,81 (statt: €31,31) bei ReifenSuche.com
02.09.2014, 15:59 -9.23% Goodyear EfficientGrip SUV 225/55 R18 98V um €145,05 (statt: €159,80) bei ReifenSuche.com
02.09.2014, 15:59 -1.34% Riken Maystorm 2 B2 205/50 R16 87V um €45,07 (statt: €45,68) bei ReifenSuche.com
02.09.2014, 15:59 -3.22% Goodyear Eagle F1 Supercar 255/35 R22 99W um €246,97 (statt: €255,20) bei ReifenSuche.com
02.09.2014, 15:59 -1.04% Goodyear Eagle F1 Supercar 285/35 R22 102W um €303,03 (statt: €306,22) bei ReifenSuche.com
02.09.2014, 15:59 -2.66% Debica Furio 205/65 R15 94H um €50,83 (statt: €52,22) bei ReifenSuche.com
02.09.2014, 15:59 -7.20% Achilles Winter 101 215/65 R16 98H um €49,73 (statt: €53,59) bei ReifenSuche.com
02.09.2014, 15:59 -4.83% General Tire Snow Grabber 235/55 R17 103H XL um €111,25 (statt: €116,90) bei ReifenSuche.com
02.09.2014, 15:59 -5.76% Nexen Roadian HT 235/60 R17 102S um €72,28 (statt: €76,70) bei ReifenSuche.com
02.09.2014, 15:59 -3.31% Nokian HT SUV 245/70 R16 111T um €89,44 (statt: €92,50) bei ReifenSuche.com
02.09.2014, 15:59 -1.62% Sava Eskimo HP 225/40 R18 92V XL um €122,78 (statt: €124,80) bei ReifenSuche.com
02.09.2014, 15:59 -5.69% Kormoran Impulser B2 195/65 R15 91T um €39,15 (statt: €41,51) bei ReifenSuche.com
02.09.2014, 15:59 -2.13% Michelin Latitude Diamaris 255/50 R19 103W um €194,28 (statt: €198,50) bei ReifenSuche.com
02.09.2014, 15:59 -2.02% Riken Snowtime 185/65 R15 88T um €34,90 (statt: €35,62) bei ReifenSuche.com
02.09.2014, 15:59 -5.78% Sailun Ice Blazer WSL2 205/55 R16 91H um €45,13 (statt: €47,90) bei ReifenSuche.com
02.09.2014, 15:59 -2.04% Pirelli PZero Nero 235/45 ZR17 97Y XL um €92,57 (statt: €94,50) bei ReifenSuche.com
02.09.2014, 15:59 -2.53% Pirelli Scorpion STR 235/60 R16 100H um €96,86 (statt: €99,37) bei ReifenSuche.com
02.09.2014, 15:59 -1.89% Goodyear EfficientGrip 245/45 R17 95Y um €127,25 (statt: €129,70) bei ReifenSuche.com
02.09.2014, 15:59 -3.38% Minerva RF09 215/70 R15 109R um €64,25 (statt: €66,50) bei ReifenSuche.com
02.09.2014, 15:59 -0.56% Minerva S110 185/60 R14 82T um €50,05 (statt: €50,33) bei ReifenSuche.com
02.09.2014, 15:59 -0.50% Minerva S110 175/65 R14 86T XL um €47,57 (statt: €47,81) bei ReifenSuche.com
02.09.2014, 15:59 -2.22% Yokohama W.drive V903 175/65 R14 88T RF M+S um €72,28 (statt: €73,92) bei ReifenSuche.com
02.09.2014, 15:59 -1.35% Yokohama W.drive WY01 215/70 R15 109/107R um €84,54 (statt: €85,70) bei ReifenSuche.com
02.09.2014, 15:59 -0.82% Yokohama W.drive V902A 225/65 R17 102H M+S um €108,01 (statt: €108,90) bei ReifenSuche.com
02.09.2014, 15:59 -1.18% Yokohama Advan S.T. V802 235/60 R18 107W RF um €127,44 (statt: €128,96) bei ReifenSuche.com
02.09.2014, 15:59 -6.15% Nankang NS-20 225/45 R16 89W um €58,19 (statt: €62,--) bei ReifenSuche.com
02.09.2014, 15:59 -1.06% Falken Azenis FK453CC 295/40 R20 110W XL um €171,37 (statt: €173,20) bei ReifenSuche.com
02.09.2014, 15:59 -1.35% Semperit Speed-Life 255/35 ZR19 96Y XL FR um €151,83 (statt: €153,90) bei ReifenSuche.com
02.09.2014, 15:59 -1.87% BFGoodrich g-Grip 205/60 R16 96W um €86,99 (statt: €88,65) bei ReifenSuche.com
02.09.2014, 15:59 -4.41% Bridgestone Exedra G702 170/80 B15 77H TL um €144,12 (statt: €150,77) bei ReifenSuche.com
02.09.2014, 15:59 -5.81% Nankang NS-20 235/40 R17 90V um €60,94 (statt: €64,70) bei ReifenSuche.com
02.09.2014, 15:59 -0.89% Michelin Latitude Tour HP 265/60 R18 109H um €171,67 (statt: €173,22) bei ReifenSuche.com
02.09.2014, 15:59 -3.95% EP-Tyres Accelera Snow 225/55 R16 99V um €56,-- (statt: €58,30) bei ReifenSuche.com
02.09.2014, 15:59 -2.37% Hankook Kinergy eco K425 165/65 R15 81T um €46,54 (statt: €47,67) bei ReifenSuche.com
02.09.2014, 15:59 -0.74% Vredestein Sprint Classic WSW 205/70 R15 96W um €254,48 (statt: €256,39) bei ReifenSuche.com
02.09.2014, 15:59 -0.68% Toyo Proxes R32 205/50 R17 89W um €121,32 (statt: €122,15) bei ReifenSuche.com
02.09.2014, 15:59 -3.81% General Tire Grabber AT 245/70 R16 107S um €98,02 (statt: €101,90) bei ReifenSuche.com
02.09.2014, 15:59 -5.22% Fulda SportControl 215/40 R17 87Y XL um €86,99 (statt: €91,78) bei ReifenSuche.com
02.09.2014, 15:59 -3.49% Fulda Carat Progresso 205/50 R15 86V um €61,07 (statt: €63,28) bei ReifenSuche.com
02.09.2014, 15:59 -0.50% Toyo Teo+ 175/70 R13 82H um €51,26 (statt: €51,52) bei ReifenSuche.com
02.09.2014, 15:59 -0.79% Toyo Proxes CF2 195/50 R15 82H um €43,92 (statt: €44,27) bei ReifenSuche.com
02.09.2014, 15:59 -4.92% Kleber Dynaxer HP3 225/50 R17 98V XL um €99,36 (statt: €104,50) bei ReifenSuche.com
02.09.2014, 15:59 -4.04% Sportiva Super Z 225/50 R16 92W um €49,61 (statt: €51,70) bei ReifenSuche.com
02.09.2014, 15:59 -4.61% Sailun Ice Blazer WSL2 175/70 R13 82T um €35,20 (statt: €36,90) bei ReifenSuche.com
02.09.2014, 15:59 -14.98% Minerva RF09 195 R14 106/104Q um €53,14 (statt: €62,50) bei ReifenSuche.com
02.09.2014, 15:59 -4.13% Minerva RF09 195/60 R16 99H um €58,49 (statt: €61,01) bei ReifenSuche.com
02.09.2014, 15:59 -10.02% Stahlfelge 6.5x15 4/108 (verschiedene Hersteller/Modelle) um €36,53 (statt: €40,60) bei ReifenSuche.com
02.09.2014, 15:59 -1.42% Stahlfelge 6.5x15 5/114.3 (verschiedene Hersteller/Modelle) um €37,37 (statt: €37,91) bei ReifenSuche.com
02.09.2014, 15:59 -15.12% Stahlfelge 6.5x16 5/120 (verschiedene Hersteller/Modelle) um €35,88 (statt: €42,27) bei ReifenSuche.com
02.09.2014, 15:59 -4.15% Stahlfelge 6x16 4/100 (verschiedene Hersteller/Modelle) um €40,14 (statt: €41,88) bei ReifenSuche.com
02.09.2014, 15:59 -5.11% Stahlfelge 7x16 5/120 (verschiedene Hersteller/Modelle) um €41,06 (statt: €43,27) bei ReifenSuche.com
02.09.2014, 15:59 -10.70% Stahlfelge 6.5x16 5/127 (verschiedene Hersteller/Modelle) um €42,66 (statt: €47,77) bei ReifenSuche.com
02.09.2014, 15:59 -2.23% Stahlfelge 6x16 5/112 (verschiedene Hersteller/Modelle) um €36,41 (statt: €37,24) bei ReifenSuche.com
02.09.2014, 15:59 -0.73% Stahlfelge 6x15 4/100 (verschiedene Hersteller/Modelle) um €32,75 (statt: €32,99) bei ReifenSuche.com
02.09.2014, 15:59 -6.09% EP-Tyres Accelera Snow 235/45 R18 98V um €67,99 (statt: €72,40) bei ReifenSuche.com
02.09.2014, 15:59 -2.58% Achilles Winter 101 185/65 R15 88T um €40,35 (statt: €41,42) bei ReifenSuche.com
02.09.2014, 15:59 -4.15% Achilles Desert Hawk A/T 235/70 R15 103S um €63,70 (statt: €66,46) bei ReifenSuche.com
02.09.2014, 15:59 -3.91% GT-Radial Champiro HPY 205/40 ZR18 86Y XL um €82,05 (statt: €85,39) bei ReifenSuche.com
02.09.2014, 15:59 -0.61% GT-Radial Champiro HPY 225/65 R17 102V um €81,17 (statt: €81,67) bei ReifenSuche.com
02.09.2014, 15:59 -1.50% GT-Radial Champiro ECO 195/65 R14 89H um €44,64 (statt: €45,32) bei ReifenSuche.com
02.09.2014, 15:59 -1.56% GT-Radial Champiro VP1 175/60 R13 77H um €37,96 (statt: €38,56) bei ReifenSuche.com
02.09.2014, 15:59 -3.66% GT-Radial Champiro ECO 205/70 R15 96T um €58,72 (statt: €60,95) bei ReifenSuche.com
02.09.2014, 15:59 -1.25% GT-Radial Champiro Winterpro HP 245/45 R18 100V XL um €96,71 (statt: €97,93) bei ReifenSuche.com
02.09.2014, 15:59 -0.57% GT-Radial Champiro Winterpro HP 235/60 R16 100H um €74,67 (statt: €75,10) bei ReifenSuche.com
02.09.2014, 15:59 -1.58% GT-Radial Champiro Winterpro HP 215/60 R17 96H um €90,05 (statt: €91,50) bei ReifenSuche.com
02.09.2014, 15:59 -1.05% GT-Radial Champiro Winterpro HP 255/55 R19 111H XL um €126,82 (statt: €128,16) bei ReifenSuche.com
02.09.2014, 15:59 -1.57% GT-Radial Champiro Winterpro HP 235/55 R17 103V XL um €90,91 (statt: €92,36) bei ReifenSuche.com
02.09.2014, 15:59 -0.86% GT-Radial Champiro Winterpro HP 225/55 R17 101V XL um €84,22 (statt: €84,95) bei ReifenSuche.com
02.09.2014, 15:59 -1.91% GT-Radial Champiro Winterpro HP 215/55 R17 98V XL um €76,57 (statt: €78,06) bei ReifenSuche.com
02.09.2014, 15:59 -1.13% GT-Radial Champiro Winterpro HP 235/50 R18 101V XL um €108,75 (statt: €109,99) bei ReifenSuche.com
02.09.2014, 15:59 -2.13% GT-Radial Champiro Winterpro HP 205/50 R17 93V XL um €72,89 (statt: €74,48) bei ReifenSuche.com
02.09.2014, 15:59 -1.58% GT-Radial Champiro Winterpro HP 235/40 R18 95V XL um €95,26 (statt: €96,79) bei ReifenSuche.com
02.09.2014, 15:59 -1.45% GT-Radial Champiro Winterpro HP 245/40 R18 97V XL um €86,99 (statt: €88,27) bei ReifenSuche.com
02.09.2014, 15:59 -1.00% GT-Radial Champiro Winterpro HP 255/50 R19 107V XL um €130,75 (statt: €132,07) bei ReifenSuche.com
02.09.2014, 15:59 -2.66% Kumho Ecowing ES01 KH27 205/60 R15 91V um €50,83 (statt: €52,22) bei ReifenSuche.com
02.09.2014, 15:59 -1.72% Kumho Ecowing ES01 KH27 175/60 R14 79H um €42,75 (statt: €43,50) bei ReifenSuche.com
02.09.2014, 15:59 -1.10% Kumho Ecowing ES01 KH27 195/70 R14 91H um €56,64 (statt: €57,27) bei ReifenSuche.com
02.09.2014, 15:59 -0.93% Kumho Ecowing ES01 KH27 145/65 R15 72T um €41,64 (statt: €42,03) bei ReifenSuche.com
02.09.2014, 15:59 -3.15% Kumho Ecowing ES01 KH27 235/60 R16 100H um €81,40 (statt: €84,05) bei ReifenSuche.com
02.09.2014, 15:59 -0.87% Kumho Solus KH17 205/60 R15 91H um €52,67 (statt: €53,13) bei ReifenSuche.com
02.09.2014, 15:59 -0.65% Kumho Radial 857 215/75 R16 113R um €89,32 (statt: €89,90) bei ReifenSuche.com
02.09.2014, 15:59 -1.13% Kumho Solus KH17 175/70 R13 82T um €33,24 (statt: €33,62) bei ReifenSuche.com
02.09.2014, 15:59 -3.12% Kumho Ecsta HM KH31 185/55 R15 82H um €48,69 (statt: €50,26) bei ReifenSuche.com
02.09.2014, 15:59 -3.05% Kumho Ecsta SPT KU31 225/50 R16 92V um €72,89 (statt: €75,18) bei ReifenSuche.com
02.09.2014, 15:59 -2.05% Hankook Dynapro HP2 255/55 R18 109V XL um €129,28 (statt: €131,99) bei ReifenSuche.com
02.09.2014, 15:59 -1.26% Hankook Dynapro HP2 265/70 R15 112H um €96,32 (statt: €97,55) bei ReifenSuche.com
02.09.2014, 15:59 -2.20% Hankook Dynapro HP 235/65 R17 104V um €109,05 (statt: €111,50) bei ReifenSuche.com
02.09.2014, 15:59 -1.63% Hankook Ventus V12 evo K110 205/50 R15 86W um €70,44 (statt: €71,61) bei ReifenSuche.com
02.09.2014, 15:59 -3.46% Nexen Roadian HT 245/70 R17 108S um €85,46 (statt: €88,52) bei ReifenSuche.com
02.09.2014, 15:59 -0.84% Nexen N'Fera SU1 245/40 R17 95W um €78,95 (statt: €79,62) bei ReifenSuche.com
02.09.2014, 15:59 -2.30% Nexen N'Fera SU1 275/30 R20 97Y um €152,56 (statt: €156,15) bei ReifenSuche.com
02.09.2014, 15:59 -1.90% Nexen N'Fera RU1 235/65 R17 108V XL um €82,09 (statt: €83,68) bei ReifenSuche.com
02.09.2014, 15:59 -1.29% Nexen N'Fera RU1 255/60 R17 106V um €92,49 (statt: €93,70) bei ReifenSuche.com
02.09.2014, 15:59 -2.31% Nexen N'Fera RU1 235/55 R19 105V XL um €94,31 (statt: €96,54) bei ReifenSuche.com
02.09.2014, 15:59 -9.99% Nexen N9000 245/45 ZR18 100Y XL um €64,93 (statt: €72,14) bei ReifenSuche.com
02.09.2014, 15:59 -1.69% Vredestein Sportrac 5 215/35 R17 83V um €119,80 (statt: €121,86) bei ReifenSuche.com
02.09.2014, 15:59 +15.60% Vredestein Ultrac Vorti 265/30 ZR19 93Y XL um €187,50 (statt: €162,20) bei ReifenSuche.com
02.09.2014, 15:59 -8.66% Vredestein Sportrac 5 225/60 R15 96V um €81,53 (statt: €89,26) bei ReifenSuche.com
02.09.2014, 15:59 -0.81% Vredestein Sportrac 5 195/65 R14 89H um €66,10 (statt: €66,64) bei ReifenSuche.com
02.09.2014, 15:59 -3.22% Vredestein Sportrac 5 175/65 R14 82H um €48,15 (statt: €49,75) bei ReifenSuche.com
02.09.2014, 15:59 -1.78% Pirelli PZero Nero GT 255/30 ZR19 91Y um €184,26 (statt: €187,60) bei ReifenSuche.com
02.09.2014, 15:59 -1.77% Pirelli Carrier Winter 225/70 R15 112/110R um €93,02 (statt: €94,70) bei ReifenSuche.com
02.09.2014, 15:59 -1.05% Pirelli PZero 255/35 ZR19 96Y XL um €162,87 (statt: €164,60) bei ReifenSuche.com
02.09.2014, 15:59 -1.08% Pirelli PZero Nero GT 205/45 ZR17 88W um €101,27 (statt: €102,38) bei ReifenSuche.com
02.09.2014, 15:59 -2.82% Pirelli Cinturato P1 Verde 215/65 R15 96H um €80,98 (statt: €83,33) bei ReifenSuche.com
02.09.2014, 15:59 -2.13% Pirelli Cinturato P1 Verde 145/65 R15 72H um €57,33 (statt: €58,58) bei ReifenSuche.com
02.09.2014, 15:59 -1.61% Pirelli Scorpion Verde All Season 285/65 R17 116H XL um €170,51 (statt: €173,30) bei ReifenSuche.com
02.09.2014, 15:59 -1.02% Pirelli PZero 285/40 ZR19 103Y um €213,69 (statt: €215,90) bei ReifenSuche.com
02.09.2014, 15:59 -1.55% Pirelli Cinturato P7 225/45 R17 94W XL um €90,-- (statt: €91,42) bei ReifenSuche.com
02.09.2014, 15:59 -2.71% Pirelli Scorpion Verde All Season 265/60 R18 110H um €165,84 (statt: €170,46) bei ReifenSuche.com
02.09.2014, 15:59 -1.16% Pirelli Chrono 195/65 R15 95T XL um €62,11 (statt: €62,84) bei ReifenSuche.com
02.09.2014, 15:59 -1.95% Pirelli Carrier 225/70 R15 112/110S um €85,79 (statt: €87,50) bei ReifenSuche.com
02.09.2014, 15:59 -1.34% Pirelli Cinturato P7 All Season 285/40 R19 103V XL um €267,23 (statt: €270,87) bei ReifenSuche.com
02.09.2014, 15:59 -1.30% Pirelli Scorpion Verde All Season 275/50 R20 109H um €177,45 (statt: €179,79) bei ReifenSuche.com
02.09.2014, 15:59 -2.91% Pirelli Cinturato P7 All Season 295/35 R20 105V XL um €231,03 (statt: €237,96) bei ReifenSuche.com
02.09.2014, 15:59 -1.62% Ovation Tires W586 165/70 R14 81T um €32,14 (statt: €32,67) bei ReifenSuche.com
02.09.2014, 15:59 -2.66% Ovation Tires W586 215/65 R16 98H um €51,63 (statt: €53,04) bei ReifenSuche.com
02.09.2014, 15:59 -3.71% Ovation Tires W586 175/65 R14 82T um €32,45 (statt: €33,70) bei ReifenSuche.com
02.09.2014, 15:59 -0.73% Ovation Tires W586 205/60 R16 92H um €46,42 (statt: €46,76) bei ReifenSuche.com
02.09.2014, 15:59 -3.32% Ovation Tires W586 185/60 R14 82T um €36,74 (statt: €38,--) bei ReifenSuche.com
02.09.2014, 15:59 -2.55% Ovation Tires W586 185/55 R15 86H um €37,84 (statt: €38,83) bei ReifenSuche.com
02.09.2014, 15:59 -6.60% Ovation Tires V-02 215/70 R15 109/107R um €58,19 (statt: €62,30) bei ReifenSuche.com
02.09.2014, 15:59 -1.87% Ovation Tires V-02 165/70 R14 89/87R um €38,27 (statt: €39,--) bei ReifenSuche.com
02.09.2014, 15:59 -1.15% Ovation Tires Ecovision VI-682 185/80 R15 93T um €47,15 (statt: €47,70) bei ReifenSuche.com
02.09.2014, 15:59 -1.27% Ovation Tires Ecovision VI-682 215/70 R15 98H um €48,38 (statt: €49,--) bei ReifenSuche.com
02.09.2014, 15:59 -5.42% Ovation Tires Ecovision VI-682 165/65 R15 81T um €34,90 (statt: €36,90) bei ReifenSuche.com
02.09.2014, 15:59 -4.74% Ovation Tires Ecovision VI-682 155/65 R13 73T um €28,77 (statt: €30,20) bei ReifenSuche.com
02.09.2014, 15:59 -2.33% Ovation Tires VI-388 225/55 R17 101W um €55,73 (statt: €57,06) bei ReifenSuche.com
02.09.2014, 15:59 -1.85% Ovation Tires VI-388 225/55 R16 99V um €52,06 (statt: €53,04) bei ReifenSuche.com
02.09.2014, 15:59 -6.60% Ovation Tires VI-388 195/55 R16 91V um €41,88 (statt: €44,84) bei ReifenSuche.com
02.09.2014, 15:59 -3.09% Ovation Tires VI-388 225/50 R17 98W um €49,61 (statt: €51,19) bei ReifenSuche.com
02.09.2014, 15:59 -2.04% Ovation Tires VI-388 215/50 R17 95W um €53,28 (statt: €54,39) bei ReifenSuche.com
02.09.2014, 15:59 -1.68% Ovation Tires VI-388 225/50 R16 92V um €50,83 (statt: €51,70) bei ReifenSuche.com
02.09.2014, 15:59 -1.36% Ovation Tires VI-388 195/45 R16 84V um €43,48 (statt: €44,08) bei ReifenSuche.com
02.09.2014, 15:59 -9.47% Ovation Tires VI-388 245/40 R18 97W um €56,41 (statt: €62,31) bei ReifenSuche.com
02.09.2014, 15:59 -3.06% Ovation Tires VI-388 225/40 R18 92W um €52,52 (statt: €54,18) bei ReifenSuche.com
02.09.2014, 15:59 -1.55% Nexen N'blue ECO 185/70 R14 88T um €35,50 (statt: €36,06) bei ReifenSuche.com
02.09.2014, 15:59 -3.69% Nexen N'blue ECO 165/70 R13 79T um €28,16 (statt: €29,24) bei ReifenSuche.com
02.09.2014, 15:59 -1.31% Nexen N'Fera SU4 215/55 R17 94W um €61,79 (statt: €62,61) bei ReifenSuche.com
02.09.2014, 15:59 -0.84% Nexen N'Fera SU4 195/55 R16 87V um €51,69 (statt: €52,13) bei ReifenSuche.com
02.09.2014, 15:59 -1.05% Nexen Roadian AT 245/75 R16 120Q um €92,32 (statt: €93,30) bei ReifenSuche.com
02.09.2014, 15:59 -4.81% Westlake SW612 205/65 R16 107/105T um €59,78 (statt: €62,80) bei ReifenSuche.com
02.09.2014, 15:59 -1.58% Nokian i3 215/65 R16 98H um €70,44 (statt: €71,57) bei ReifenSuche.com
02.09.2014, 15:59 -0.53% Nokian HT SUV 285/65 R17 116H um €152,78 (statt: €153,60) bei ReifenSuche.com
02.09.2014, 15:59 -0.83% Goodyear Eagle F1 Asymmetric 255/55 R20 110Y XL um €213,71 (statt: €215,50) bei ReifenSuche.com
02.09.2014, 15:59 -4.36% Sava Trenta M+S 195/75 R16 107/105Q um €71,09 (statt: €74,33) bei ReifenSuche.com
02.09.2014, 15:59 -0.55% Dunlop SP Sport Maxx GT 325/25 ZR20 um €294,62 (statt: €296,24) bei ReifenSuche.com
02.09.2014, 15:59 -2.11% Sava Trenta 195/65 R16 104R um €71,90 (statt: €73,45) bei ReifenSuche.com
02.09.2014, 15:59 -1.66% Dunlop SP Quattro Maxx 285/45 R19 111W um €209,07 (statt: €212,59) bei ReifenSuche.com
02.09.2014, 15:59 -1.61% Sava intensa hp 205/60 R15 91H um €48,98 (statt: €49,78) bei ReifenSuche.com
02.09.2014, 15:59 -0.75% Sava intensa hp 205/60 R16 92H um €60,55 (statt: €61,01) bei ReifenSuche.com
02.09.2014, 15:59 -1.79% Sava intensa hp 195/55 R16 87V um €65,13 (statt: €66,32) bei ReifenSuche.com
02.09.2014, 15:59 -1.21% Sava intensa hp 185/60 R15 88H XL um €53,22 (statt: €53,87) bei ReifenSuche.com
02.09.2014, 15:59 -1.24% Wanli S-1097 215/40 R17 87W XL um €42,25 (statt: €42,78) bei ReifenSuche.com
02.09.2014, 15:59 -2.90% Wanli S-1063 235/55 R17 103W XL um €57,51 (statt: €59,23) bei ReifenSuche.com
02.09.2014, 15:59 -1.88% Wanli S-1200 175/55 R15 77T um €35,45 (statt: €36,13) bei ReifenSuche.com
02.09.2014, 15:59 -3.15% Wanli S-1023 225/60 R16 102V XL um €48,93 (statt: €50,52) bei ReifenSuche.com
02.09.2014, 15:59 -1.82% Wanli S-1023 205/60 R16 96V um €45,25 (statt: €46,09) bei ReifenSuche.com
02.09.2014, 15:59 -0.84% Wanli S-1023 205/60 R16 92H um €43,48 (statt: €43,85) bei ReifenSuche.com
02.09.2014, 15:59 -0.86% Wanli S-1015 155/65 R14 75T um €28,77 (statt: €29,02) bei ReifenSuche.com
02.09.2014, 15:59 -6.16% Minerva Eco Winter SUV 275/40 R20 106V um €106,23 (statt: €113,20) bei ReifenSuche.com
02.09.2014, 15:59 -9.47% Minerva Eco Winter SUV 255/55 R18 109V um €85,46 (statt: €94,40) bei ReifenSuche.com
02.09.2014, 15:59 -6.96% Minerva S110 205/70 R15 106R um €60,94 (statt: €65,50) bei ReifenSuche.com
02.09.2014, 15:59 -6.95% Minerva S210 215/50 R17 95V um €60,02 (statt: €64,50) bei ReifenSuche.com
02.09.2014, 15:59 -7.59% Minerva S310 225/55 R18 98V um €93,98 (statt: €101,70) bei ReifenSuche.com
02.09.2014, 15:59 -6.78% Minerva Eco Winter 205/55 R16 94V um €54,45 (statt: €58,41) bei ReifenSuche.com
02.09.2014, 15:59 -3.81% Minerva S110 165/65 R15 81T um €41,12 (statt: €42,75) bei ReifenSuche.com
02.09.2014, 15:59 -2.42% Minerva EcoSpeed 255/50 R19 107W um €106,85 (statt: €109,50) bei ReifenSuche.com
02.09.2014, 15:59 -0.70% Minerva EcoSpeed 275/55 R17 113V um €107,52 (statt: €108,28) bei ReifenSuche.com
02.09.2014, 15:59 -12.10% Minerva EcoSpeed 235/60 R18 107V um €93,36 (statt: €106,21) bei ReifenSuche.com
02.09.2014, 15:59 -8.76% Minerva F105 235/55 R17 103W um €61,68 (statt: €67,60) bei ReifenSuche.com
02.09.2014, 15:59 -0.73% Infinity INF-200 235/65 R17 108V um €60,04 (statt: €60,48) bei ReifenSuche.com
02.09.2014, 15:59 -0.56% Infinity INF-200 215/70 R16 100H um €49,47 (statt: €49,75) bei ReifenSuche.com
02.09.2014, 15:59 -4.50% Infinity INF-049 215/60 R16 95H um €47,77 (statt: €50,02) bei ReifenSuche.com
02.09.2014, 15:59 -13.42% Infinity INF-200 205 R16 104T um €51,27 (statt: €59,22) bei ReifenSuche.com
02.09.2014, 15:59 -1.53% Toyo Open Country W/T 275/40 R20 106V XL um €164,65 (statt: €167,21) bei ReifenSuche.com
02.09.2014, 15:59 -3.18% Toyo Open Country H/T 225/70 R16 102T um €85,76 (statt: €88,58) bei ReifenSuche.com
02.09.2014, 15:59 -27.43% Toyo Proxes R888 215/45 ZR17 91W um €143,98 (statt: €198,40) bei ReifenSuche.com
02.09.2014, 15:59 -0.69% Toyo Snowprox S943 195/60 R15 88H um €54,91 (statt: €55,29) bei ReifenSuche.com
02.09.2014, 15:59 -0.68% Toyo Proxes T1 Sport SUV 255/55 R18 109Y XL um €112,99 (statt: €113,76) bei ReifenSuche.com
02.09.2014, 15:59 -0.62% Toyo Proxes T1 Sport SUV 235/65 R17 108V XL um €96,33 (statt: €96,93) bei ReifenSuche.com
02.09.2014, 15:59 -2.23% Toyo NanoEnergy 3 165/70 R13 79T um €30,21 (statt: €30,90) bei ReifenSuche.com
02.09.2014, 15:59 -0.85% Toyo Proxes CF2 205/60 R16 92V um €69,71 (statt: €70,31) bei ReifenSuche.com
02.09.2014, 15:59 -2.47% Toyo Proxes CF2 195/60 R16 89H um €83,39 (statt: €85,50) bei ReifenSuche.com
02.09.2014, 15:59 -2.35% Toyo Proxes CF2 215/45 R16 90V XL um €83,92 (statt: €85,94) bei ReifenSuche.com
02.09.2014, 15:59 -1.01% Toyo Proxes CF2 205/60 R15 91V um €67,50 (statt: €68,19) bei ReifenSuche.com
02.09.2014, 15:59 -2.98% Toyo Proxes CF2 195/45 R16 84V XL um €65,54 (statt: €67,55) bei ReifenSuche.com
02.09.2014, 15:59 -3.18% Toyo Proxes CF2 195/60 R15 88V um €59,28 (statt: €61,23) bei ReifenSuche.com
02.09.2014, 15:59 -2.47% Toyo Proxes T1 Sport 245/35 ZR20 95Y XL um €155,32 (statt: €159,25) bei ReifenSuche.com
02.09.2014, 15:59 -11.03% Toyo Proxes T1 Sport 205/50 ZR17 93Y XL um €93,04 (statt: €104,58) bei ReifenSuche.com
02.09.2014, 15:59 -0.69% Toyo Proxes CF2 205/60 R16 96V XL um €81,04 (statt: €81,60) bei ReifenSuche.com
02.09.2014, 15:59 -6.42% Toyo Proxes CF2 185/60 R15 88H XL um €49,69 (statt: €53,10) bei ReifenSuche.com
02.09.2014, 15:59 -1.61% Toyo Proxes CF2 195/60 R15 88H um €49,54 (statt: €50,35) bei ReifenSuche.com
02.09.2014, 15:59 -1.37% Toyo NanoEnergy 2 205/60 R16 96V XL um €89,26 (statt: €90,50) bei ReifenSuche.com
02.09.2014, 15:59 -2.80% Toyo Proxes C1S 245/50 R18 100Y XL um €113,34 (statt: €116,60) bei ReifenSuche.com
02.09.2014, 15:59 -1.61% Yokohama Advan Sport V105 225/40 ZR19 93Y XL um €175,73 (statt: €178,60) bei ReifenSuche.com
02.09.2014, 15:59 -3.34% Yokohama BluEarth AE-01 145/65 R15 72T um €52,39 (statt: €54,20) bei ReifenSuche.com
02.09.2014, 15:59 -0.51% Yokohama Advan Sport V105 275/35 ZR20 102Y XL um €192,91 (statt: €193,89) bei ReifenSuche.com
02.09.2014, 15:59 -0.66% Yokohama W.drive WY01 225/65 R16 112/110R um €99,-- (statt: €99,66) bei ReifenSuche.com
02.09.2014, 15:59 -0.85% Yokohama W.drive WY01 205/65 R15 102/100T um €68,60 (statt: €69,19) bei ReifenSuche.com
02.09.2014, 15:59 -3.14% Yokohama W.drive WY01 225/75 R16 121/120R um €109,03 (statt: €112,56) bei ReifenSuche.com
02.09.2014, 15:59 -1.27% Yokohama W.drive WY01 205/75 R16 110/108R um €83,13 (statt: €84,20) bei ReifenSuche.com
02.09.2014, 15:59 -0.61% Yokohama Advan Sport V105 285/30 ZR19 98Y XL um €221,74 (statt: €223,09) bei ReifenSuche.com
02.09.2014, 15:59 -1.11% Yokohama Advan Sport V105 245/45 ZR19 98Y um €175,53 (statt: €177,50) bei ReifenSuche.com
02.09.2014, 15:59 -1.70% Yokohama Advan Sport V105 225/40 ZR18 92Y XL um €92,74 (statt: €94,34) bei ReifenSuche.com
02.09.2014, 15:59 -1.72% Yokohama Advan Sport V105 235/45 ZR17 97Y XL um €92,23 (statt: €93,84) bei ReifenSuche.com
02.09.2014, 15:59 -1.64% Yokohama Advan Sport V105 235/35 ZR19 91Y XL um €147,05 (statt: €149,50) bei ReifenSuche.com
02.09.2014, 15:59 -3.35% Yokohama Advan Sport V105 225/50 R16 92W um €108,44 (statt: €112,20) bei ReifenSuche.com
02.09.2014, 15:59 -1.46% Yokohama W.drive V902B 285/35 R21 105V XL M+S um €267,84 (statt: €271,80) bei ReifenSuche.com
02.09.2014, 15:59 -1.96% Nankang NS-20 225/55 R16 99Y XL um €64,62 (statt: €65,91) bei ReifenSuche.com
02.09.2014, 15:59 -5.15% Nankang NS-2R 255/40 R17 94W um €113,34 (statt: €119,50) bei ReifenSuche.com
02.09.2014, 15:59 -5.60% Nankang NS-2R 255/35 R18 94Y XL um €120,08 (statt: €127,20) bei ReifenSuche.com
02.09.2014, 15:59 -2.36% Nankang FT-7 275/60 R20 115T um €140,31 (statt: €143,70) bei ReifenSuche.com
02.09.2014, 15:59 -3.50% Nankang SP-7 295/40 R20 110Y um €128,05 (statt: €132,70) bei ReifenSuche.com
02.09.2014, 15:59 -11.69% Nankang FT-7 265/75 R16 116T um €108,44 (statt: €122,80) bei ReifenSuche.com
02.09.2014, 15:59 -4.65% Nankang SP-7 235/70 R17 111H XL um €89,44 (statt: €93,80) bei ReifenSuche.com
02.09.2014, 15:59 -2.47% Nankang NS-20 195/55 R15 85V um €46,54 (statt: €47,72) bei ReifenSuche.com
02.09.2014, 15:59 -0.75% Nankang NS-20 185/45 R15 75V um €44,70 (statt: €45,04) bei ReifenSuche.com
02.09.2014, 15:59 -5.99% Nankang SP-7 275/60 R16 109H um €96,79 (statt: €102,96) bei ReifenSuche.com
02.09.2014, 15:59 -5.17% Nankang FT-7 255/60 R18 112H um €99,86 (statt: €105,30) bei ReifenSuche.com
02.09.2014, 15:59 -5.49% Nankang SP-7 255/60 R17 110V XL um €86,38 (statt: €91,40) bei ReifenSuche.com
02.09.2014, 15:59 -4.59% Nankang NS-20 245/35 R20 95Y XL um €97,41 (statt: €102,10) bei ReifenSuche.com
02.09.2014, 15:59 -3.69% Nankang NS-20 205/40 R17 84V XL um €47,77 (statt: €49,60) bei ReifenSuche.com
02.09.2014, 15:59 -4.52% Nankang SP-7 225/65 R18 103H um €92,50 (statt: €96,88) bei ReifenSuche.com
02.09.2014, 15:59 -4.56% Nankang FT-7 255/65 R17 110H um €94,96 (statt: €99,50) bei ReifenSuche.com
02.09.2014, 15:59 -3.14% Sonar SX-9 255/65 R17 110H um €83,31 (statt: €86,01) bei ReifenSuche.com
02.09.2014, 15:59 -1.14% Nankang NS-20 285/30 R20 99Y XL um €114,48 (statt: €115,80) bei ReifenSuche.com
02.09.2014, 15:59 -11.67% Nankang FT-7 255/70 R15 112/110S um €94,34 (statt: €106,80) bei ReifenSuche.com
02.09.2014, 15:59 -1.78% Nankang NS-20 165/40 R16 73V XL um €45,93 (statt: €46,76) bei ReifenSuche.com
02.09.2014, 15:59 -1.79% Nankang NS-20 225/50 R16 96V XL um €57,57 (statt: €58,62) bei ReifenSuche.com
02.09.2014, 15:59 -0.77% Federal Formoza AZ01 215/50 R17 95W XL um €62,11 (statt: €62,59) bei ReifenSuche.com
02.09.2014, 15:59 -1.81% Atturo AZ800 275/55 R20 117V XL um €102,56 (statt: €104,45) bei ReifenSuche.com
02.09.2014, 15:59 -2.53% Atturo AZ800 285/60 R18 116V um €99,98 (statt: €102,57) bei ReifenSuche.com
02.09.2014, 15:59 -0.66% Federal Formoza AZ01 215/45 R17 91W XL um €56,89 (statt: €57,27) bei ReifenSuche.com
02.09.2014, 15:59 -0.71% Federal Formoza AZ01 205/50 R17 93W XL um €58,47 (statt: €58,89) bei ReifenSuche.com
02.09.2014, 15:59 -1.82% Atturo AZ800 285/50 R20 112V XL um €108,68 (statt: €110,69) bei ReifenSuche.com
02.09.2014, 15:59 -5.08% Federal Formoza AZ01 245/45 R17 95W um €68,24 (statt: €71,89) bei ReifenSuche.com
02.09.2014, 15:59 -4.06% Federal Formoza AZ01 245/45 R18 100W XL um €76,73 (statt: €79,98) bei ReifenSuche.com
02.09.2014, 15:59 -2.12% Federal Formoza AZ01 185/55 R16 83V um €45,61 (statt: €46,60) bei ReifenSuche.com
02.09.2014, 15:59 -1.55% Atturo AZ800 235/60 R17 102V um €76,33 (statt: €77,53) bei ReifenSuche.com
02.09.2014, 15:59 -4.47% Nankang FT-7 265/65 R17 112S um €94,96 (statt: €99,40) bei ReifenSuche.com
02.09.2014, 15:59 -0.68% Nankang SP-7 275/45 R20 110V XL um €121,92 (statt: €122,75) bei ReifenSuche.com
02.09.2014, 15:59 -5.50% Nankang RX-615 205/65 R16 95V um €60,94 (statt: €64,49) bei ReifenSuche.com
02.09.2014, 15:59 -11.31% Syron Everest 1 175/70 R14 88H XL um €44,70 (statt: €50,40) bei ReifenSuche.com
02.09.2014, 15:59 -2.37% Matador MP 92 Sibir Snow 195/55 R16 87H um €61,76 (statt: €63,26) bei ReifenSuche.com
02.09.2014, 15:59 -4.71% Matador MP 92 Sibir Snow 225/55 R16 95H um €80,13 (statt: €84,09) bei ReifenSuche.com
02.09.2014, 15:59 -5.87% Matador MP 92 Sibir Snow 225/55 R16 99H XL um €81,52 (statt: €86,60) bei ReifenSuche.com
02.09.2014, 15:59 -1.39% Matador MP 92 Sibir Snow 225/55 R17 101V XL um €100,47 (statt: €101,89) bei ReifenSuche.com
02.09.2014, 15:59 -6.01% Matador MP 92 Sibir Snow 205/65 R15 94T um €59,12 (statt: €62,90) bei ReifenSuche.com
02.09.2014, 15:59 -0.97% Matador MP 92 Sibir Snow 185/60 R15 84T um €40,74 (statt: €41,14) bei ReifenSuche.com
02.09.2014, 15:59 -1.90% Matador MP 92 Sibir Snow 205/65 R15 94H um €64,93 (statt: €66,19) bei ReifenSuche.com
02.09.2014, 15:59 -1.38% Matador MP 92 Sibir Snow 195/50 R15 82T um €44,27 (statt: €44,89) bei ReifenSuche.com
02.09.2014, 15:59 -1.71% General Tire Grabber AT 265/65 R17 112H um €138,19 (statt: €140,59) bei ReifenSuche.com
02.09.2014, 15:59 -3.19% Uniroyal RainSport 3 305/30 R19 102Y XL FR um €195,75 (statt: €202,20) bei ReifenSuche.com
02.09.2014, 15:59 -1.84% Semperit Speed-Life 215/55 ZR16 93W um €94,82 (statt: €96,60) bei ReifenSuche.com
02.09.2014, 15:59 -0.89% Barum Bravuris 3HM 185/55 R14 80H um €51,14 (statt: €51,60) bei ReifenSuche.com
02.09.2014, 15:59 -2.43% Continental ContiEcoContact 5 225/55 R16 95Y um €120,21 (statt: €123,21) bei ReifenSuche.com
02.09.2014, 15:59 -0.84% Continental ContiSportContact 5P 235/40 ZR20 96Y XL FR um €219,56 (statt: €221,41) bei ReifenSuche.com
02.09.2014, 15:59 -0.60% Sportiva Van 2 235/65 R16 115/113R um €105,76 (statt: €106,40) bei ReifenSuche.com
02.09.2014, 15:59 -0.94% Continental ContiEcoContact 5 165/60 R15 77H um €65,09 (statt: €65,71) bei ReifenSuche.com
02.09.2014, 15:59 -2.78% Sportiva Super Z 245/35 R19 93Y XL um €123,75 (statt: €127,29) bei ReifenSuche.com
02.09.2014, 15:59 -2.52% Sportiva Super Z 205/55 R16 91W um €53,71 (statt: €55,10) bei ReifenSuche.com
02.09.2014, 15:59 -3.07% Sportiva Super Z 215/40 R17 87W XL um €75,90 (statt: €78,30) bei ReifenSuche.com
02.09.2014, 15:59 -1.60% Riken Allstar 2 B2 135/80 R13 70T um €26,44 (statt: €26,87) bei ReifenSuche.com
02.09.2014, 15:59 -6.00% Riken Maystorm 2 B 185/65 R15 88H um €41,64 (statt: €44,30) bei ReifenSuche.com
02.09.2014, 15:59 -1.03% Riken Allstar 2 B2 145/70 R13 71T um €27,79 (statt: €28,08) bei ReifenSuche.com
02.09.2014, 15:59 -1.85% Michelin Latitude Sport 3 255/55 R17 104V um €144,19 (statt: €146,91) bei ReifenSuche.com
02.09.2014, 15:59 -2.88% Riken Cargo Winter 195/70 R15 104/102R um €52,30 (statt: €53,85) bei ReifenSuche.com
02.09.2014, 15:59 -5.03% Riken Cargo Winter 215/75 R16 113/111R um €69,71 (statt: €73,40) bei ReifenSuche.com
02.09.2014, 15:59 -2.30% Kormoran Gamma b2 195/45 R16 84V XL um €50,51 (statt: €51,70) bei ReifenSuche.com
02.09.2014, 15:59 -0.71% Michelin Pilot Sport Cup 2 265/35 R19 98Y um €300,19 (statt: €302,34) bei ReifenSuche.com
02.09.2014, 15:59 -5.27% Riken Allstar 2 B 185/60 R14 82H um €33,06 (statt: €34,90) bei ReifenSuche.com
02.09.2014, 15:59 -5.56% Riken Allstar 2 B2 185/65 R14 86H um €34,28 (statt: €36,30) bei ReifenSuche.com
02.09.2014, 15:59 -0.56% Kleber Dynaxer HP3 255/40 R19 100Y XL um €155,27 (statt: €156,15) bei ReifenSuche.com
02.09.2014, 15:59 -2.67% Riken Cargo 195/65 R16 104/102R um €53,65 (statt: €55,12) bei ReifenSuche.com
02.09.2014, 15:59 -1.76% Michelin Pilot Super Sport 305/25 ZR21 um €212,93 (statt: €216,75) bei ReifenSuche.com
02.09.2014, 15:59 -2.17% Riken Cargo 225/70 R15 112/110R um €58,55 (statt: €59,85) bei ReifenSuche.com
02.09.2014, 15:59 -2.33% Riken Cargo Winter 175/65 R14 90/88R um €41,52 (statt: €42,51) bei ReifenSuche.com
02.09.2014, 15:59 -2.63% Riken Cargo 235/65 R16 115/113R um €74,49 (statt: €76,50) bei ReifenSuche.com
02.09.2014, 15:59 -4.99% Riken Allstar 2 B2 165/65 R14 79T um €31,83 (statt: €33,50) bei ReifenSuche.com
02.09.2014, 15:59 -1.41% Riken Allstar 2 B2 165/70 R13 79T um €29,99 (statt: €30,42) bei ReifenSuche.com
02.09.2014, 15:59 -2.30% Riken Snowtime B2 205/60 R16 92H um €48,38 (statt: €49,52) bei ReifenSuche.com
02.09.2014, 15:59 -1.44% Riken Maystorm 2 B2 245/45 R17 99W um €56,71 (statt: €57,54) bei ReifenSuche.com
02.09.2014, 15:59 -7.15% Kormoran Snowpro b2 225/50 R17 98H XL um €70,47 (statt: €75,90) bei ReifenSuche.com
02.09.2014, 15:59 -2.64% Kleber Dynaxer HP3 235/45 R18 98Y um €122,29 (statt: €125,60) bei ReifenSuche.com
02.09.2014, 15:59 -1.60% Riken Maystorm 2 B2 245/40 R17 95W um €57,94 (statt: €58,88) bei ReifenSuche.com
02.09.2014, 15:59 -0.54% Michelin Pilot Sport Cup 2 235/40 R19 96Y XL um €219,29 (statt: €220,48) bei ReifenSuche.com
02.09.2014, 15:59 -1.00% Riken Snowtime B2 195/65 R15 95T um €38,45 (statt: €38,84) bei ReifenSuche.com
02.09.2014, 15:59 -1.48% Riken Cargo 175/65 R14 90/88R um €41,88 (statt: €42,51) bei ReifenSuche.com
02.09.2014, 15:59 -1.55% Kleber Dynaxer HP3 195/50 R16 88V um €82,70 (statt: €84,--) bei ReifenSuche.com
02.09.2014, 15:59 -2.54% Riken Maystorm 2 B2 205/50 R17 93W um €47,89 (statt: €49,14) bei ReifenSuche.com
02.09.2014, 15:59 -4.31% Kormoran Snowpro b2 175/65 R15 84T um €37,95 (statt: €39,66) bei ReifenSuche.com
02.09.2014, 15:59 -2.14% Riken Snowtime B2 185/60 R15 88T um €38,33 (statt: €39,17) bei ReifenSuche.com
02.09.2014, 15:59 -2.54% Riken Snowtime 145/80 R13 75Q um €29,14 (statt: €29,90) bei ReifenSuche.com
02.09.2014, 15:59 -0.80% Riken Allstar 2 B2 175/65 R14 82H um €34,53 (statt: €34,81) bei ReifenSuche.com
02.09.2014, 15:59 -2.85% Kleber Dynaxer HP3 245/45 R18 100W um €132,46 (statt: €136,35) bei ReifenSuche.com
02.09.2014, 15:59 -3.23% Kormoran Snowpro b2 215/60 R16 99H XL um €55,12 (statt: €56,96) bei ReifenSuche.com
02.09.2014, 15:59 -2.78% Bridgestone Turanza ER300 185/60 R14 82H um €44,09 (statt: €45,35) bei ReifenSuche.com
02.09.2014, 15:59 -2.33% Bridgestone Potenza S001 245/40 R18 93Y um €131,36 (statt: €134,50) bei ReifenSuche.com
02.09.2014, 15:59 -0.92% Bridgestone Potenza S001 285/35 R19 99Y um €237,15 (statt: €239,36) bei ReifenSuche.com
02.09.2014, 15:59 -2.63% Bridgestone Blizzak LM-80 235/55 R17 99H um €150,73 (statt: €154,80) bei ReifenSuche.com
02.09.2014, 15:59 -0.81% Firestone Firehawk TZ300α 205/65 R15 94V um €63,85 (statt: €64,37) bei ReifenSuche.com
02.09.2014, 15:59 -3.41% Cooper Discoverer A/T3 265/65 R17 112T um €110,89 (statt: €114,80) bei ReifenSuche.com
02.09.2014, 15:59 -12.91% Apollo Alnac Winter 205/55 R16 91T um €47,77 (statt: €54,85) bei ReifenSuche.com
02.09.2014, 15:59 -2.69% Apollo Acelere 205/60 R16 92H um €59,41 (statt: €61,05) bei ReifenSuche.com
02.09.2014, 15:59 -3.96% EP-Tyres Accelera Phi 2 275/35 ZR20 102Y um €118,80 (statt: €123,70) bei ReifenSuche.com
02.09.2014, 15:59 -0.60% Kumho Power Grip KC11 265/75 R16 123/120Q LT um €132,69 (statt: €133,49) bei ReifenSuche.com
02.09.2014, 15:59 -4.08% Nexen Euro-Win 550 185/55 R15 82H um €44,70 (statt: €46,60) bei ReifenSuche.com
02.09.2014, 15:59 -2.07% Nexen N'blue HD 195/60 R15 88H um €42,17 (statt: €43,06) bei ReifenSuche.com
02.09.2014, 15:59 -0.91% Firestone Winterhawk 2 EVO 185/60 R15 84T um €44,70 (statt: €45,11) bei ReifenSuche.com
02.09.2014, 15:59 -2.07% Falken Eurowinter HS439 185/60 R14 82T um €41,64 (statt: €42,52) bei ReifenSuche.com
02.09.2014, 15:59 -0.97% EP-Tyres Accelera Snow 225/50 R17 98V um €58,19 (statt: €58,76) bei ReifenSuche.com
02.09.2014, 15:59 -5.41% Kumho Ecsta SPT KU31 245/40 R18 97Y XL um €122,30 (statt: €129,30) bei ReifenSuche.com
02.09.2014, 15:59 -3.25% Marangoni E-Logic 165/65 R13 77T um €31,83 (statt: €32,90) bei ReifenSuche.com
02.09.2014, 15:59 -2.41% Bridgestone Turanza T001 205/55 R16 94V XL um €70,07 (statt: €71,80) bei ReifenSuche.com
02.09.2014, 15:59 -3.35% Achilles Winter 101 215/65 R16 98H um €53,59 (statt: €55,45) bei ReifenSuche.com
02.09.2014, 15:59 -4.87% Pirelli Winter Sottozero Serie II 245/45 R17 99H XL um €128,05 (statt: €134,60) bei ReifenSuche.com
02.09.2014, 15:59 -1.36% Toyo Proxes S/T 255/60 R18 112V XL um €116,39 (statt: €118,--) bei ReifenSuche.com
02.09.2014, 15:59 -2.26% GT-Radial Champiro ECO 185/60 R15 88H XL um €47,50 (statt: €48,60) bei ReifenSuche.com
02.09.2014, 15:59 -1.25% Achilles Desert Hawk H/T 215/70 R16 100H um €62,18 (statt: €62,97) bei ReifenSuche.com
02.09.2014, 15:59 -1.50% Hankook Dynapro ATM RF10 33x12.50 R15 108R um €130,61 (statt: €132,60) bei ReifenSuche.com
02.09.2014, 15:59 -0.89% Hankook Ventus S1 evo K107 235/40 R18 95Y XL um €119,70 (statt: €120,77) bei ReifenSuche.com
02.09.2014, 15:59 -0.82% Dunlop SP Winter Sport 3D 255/40 R20 97V um €265,94 (statt: €268,14) bei ReifenSuche.com
02.09.2014, 15:59 -1.17% Pirelli PZero 255/40 ZR19 96W um €163,17 (statt: €165,10) bei ReifenSuche.com
02.09.2014, 15:59 -0.62% Dunlop SP Winter Sport 3D 245/35 R19 93W um €192,40 (statt: €193,60) bei ReifenSuche.com
02.09.2014, 15:59 -2.34% Goodyear Excellence 235/45 R17 94Y um €101,76 (statt: €104,20) bei ReifenSuche.com
02.09.2014, 15:59 -0.72% Pirelli Cinturato P7 255/40 R18 95V um €239,86 (statt: €241,61) bei ReifenSuche.com
02.09.2014, 15:59 -0.92% Continental VanContact 200 215/60 R16 99H Reinforced um €109,66 (statt: €110,68) bei ReifenSuche.com
02.09.2014, 15:59 -0.78% Apollo Aspire 245/40 R18 97Y XL um €86,93 (statt: €87,61) bei ReifenSuche.com
02.09.2014, 15:59 -1.52% Hankook Dynapro ATM RF10 245/75 R16 120/116S um €105,68 (statt: €107,31) bei ReifenSuche.com
02.09.2014, 15:59 -1.87% Pirelli PZero Nero 245/30 ZR20 90Y XL um €215,60 (statt: €219,70) bei ReifenSuche.com
02.09.2014, 15:59 -0.92% EP-Tyres Accelera Alpha 225/60 R15 96V um €54,-- (statt: €54,50) bei ReifenSuche.com
02.09.2014, 15:59 -10.48% Nexen Roadian MT 235/75 R15 104/101Q um €83,25 (statt: €93,--) bei ReifenSuche.com
02.09.2014, 15:59 -5.44% Kumho Road Venture 798 215/70 R16 100T um €92,-- (statt: €97,29) bei ReifenSuche.com
02.09.2014, 15:59 -3.24% Federal 595EVO 225/30 R20 85Y um €91,49 (statt: €94,55) bei ReifenSuche.com
02.09.2014, 15:59 -2.10% Federal 595EVO 205/40 R18 86Y um €67,56 (statt: €69,01) bei ReifenSuche.com
02.09.2014, 15:59 -3.22% Nankang RX-615 185/55 R16 83V um €49,05 (statt: €50,68) bei ReifenSuche.com
02.09.2014, 15:59 -7.47% General Tire Altimax HP/UHP 175/60 R14 79H um €37,29 (statt: €40,30) bei ReifenSuche.com
02.09.2014, 15:59 -0.86% Continental ContiEcoContact 3 185/70 R13 86T um €67,12 (statt: €67,70) bei ReifenSuche.com
02.09.2014, 15:59 -4.12% Dunlop Sportmax D211 GP Racer 190/55 R17 75W TL (verschiedene Gummimischungen) um €177,85 (statt: €185,50) bei ReifenSuche.com
02.09.2014, 15:59 -2.22% Continental ContiSportContact 5 235/45 R17 94W um €104,82 (statt: €107,20) bei ReifenSuche.com
02.09.2014, 15:59 -1.30% Continental ContiSportContact 5 255/55 R18 105W FR um €151,95 (statt: €153,95) bei ReifenSuche.com
02.09.2014, 15:59 -0.55% Michelin Alpin A4 225/60 R16 98H um €123,64 (statt: €124,33) bei ReifenSuche.com
02.09.2014, 15:59 -1.36% Ovation Tires Ecovision VI-682 195/65 R15 95H XL um €43,48 (statt: €44,08) bei ReifenSuche.com
02.09.2014, 15:59 -0.92% Hankook Ventus S1 evo² K117 225/35 ZR19 88Y XL um €134,55 (statt: €135,80) bei ReifenSuche.com
02.09.2014, 15:59 -5.40% Nankang SP-7 255/65 R17 110H um €88,83 (statt: €93,90) bei ReifenSuche.com
02.09.2014, 15:59 -12.80% General Tire Altimax HP/UHP 235/40 R18 95Y um €75,25 (statt: €86,30) bei ReifenSuche.com
02.09.2014, 15:59 -2.93% Heidenau K60 Silica 90/90 21 54T TT um €50,39 (statt: €51,91) bei ReifenSuche.com
02.09.2014, 15:59 -4.09% General Tire Grabber HTS 235/65 R16 103T um €86,13 (statt: €89,80) bei ReifenSuche.com
02.09.2014, 15:59 -0.69% Nexen Roadian MT 265/75 R16 119/116Q um €104,87 (statt: €105,60) bei ReifenSuche.com
02.09.2014, 15:59 -1.41% Hankook Ventus ST RH06 285/60 R18 116V um €155,64 (statt: €157,87) bei ReifenSuche.com
02.09.2014, 15:59 -0.82% Pirelli Scorpion Ice&Snow 295/40 R20 110V XL um €234,43 (statt: €236,38) bei ReifenSuche.com
02.09.2014, 15:59 -1.08% Fulda 4x4 Road 255/60 R17 106H um €101,60 (statt: €102,71) bei ReifenSuche.com
02.09.2014, 15:59 -1.31% Dunlop SP Sport Maxx GT 245/45 R17 99Y XL um €133,04 (statt: €134,80) bei ReifenSuche.com
02.09.2014, 15:59 -0.93% Dunlop Geomax MX71 70/100 17 40M TT um €50,27 (statt: €50,74) bei ReifenSuche.com
02.09.2014, 15:59 -0.91% Michelin Latitude Diamaris 275/40 R20 102W * um €206,26 (statt: €208,15) bei ReifenSuche.com
02.09.2014, 15:59 -3.07% Achilles ATR Sport 205/55 R16 94W XL um €46,48 (statt: €47,95) bei ReifenSuche.com
02.09.2014, 15:59 -6.29% Dunlop Geomax MX51 60/100 14 30M TT um €46,33 (statt: €49,44) bei ReifenSuche.com
02.09.2014, 15:59 -0.54% General Tire Altimax HP/UHP 185/60 R15 84H um €47,95 (statt: €48,21) bei ReifenSuche.com
02.09.2014, 15:59 -1.02% Nexen N'Fera SU1 225/35 R18 87Y um €90,40 (statt: €91,33) bei ReifenSuche.com
02.09.2014, 15:59 -0.89% Pirelli PZero Rosso 265/35 ZR18 um €156,24 (statt: €157,65) bei ReifenSuche.com
02.09.2014, 15:59 -3.28% Toyo Open Country H/T 265/60 R18 110H um €133,57 (statt: €138,10) bei ReifenSuche.com
02.09.2014, 15:59 -0.67% Toyo Open Country W/T 215/65 R16 98H um €82,74 (statt: €83,30) bei ReifenSuche.com
02.09.2014, 15:59 -3.74% Yokohama Geolandar SUV G055 235/70 R16 106H um €81,28 (statt: €84,44) bei ReifenSuche.com
02.09.2014, 15:59 -4.01% Nankang CW-20 235/65 R16 115/113R um €74,68 (statt: €77,80) bei ReifenSuche.com
02.09.2014, 15:59 -0.88% Nankang FT-4 275/70 R16 114H um €90,23 (statt: €91,03) bei ReifenSuche.com
02.09.2014, 15:59 -2.96% EP-Tyres Accelera Iota 265/45 R20 104Y um €115,79 (statt: €119,32) bei ReifenSuche.com
02.09.2014, 15:59 -2.46% EP-Tyres Accelera Alpha 225/60 R16 102W um €55,-- (statt: €56,39) bei ReifenSuche.com
02.09.2014, 15:59 -0.95% Toyo Proxes T1-R 275/40 ZR19 101Y um €223,04 (statt: €225,18) bei ReifenSuche.com
02.09.2014, 15:59 -0.99% Toyo Snowprox S953 205/45 R16 87H XL um €83,21 (statt: €84,04) bei ReifenSuche.com
02.09.2014, 15:59 -0.62% Yokohama Advan Sport V105+ 245/40 R17 91W MO um €95,54 (statt: €96,14) bei ReifenSuche.com
02.09.2014, 15:59 -5.28% General Tire Grabber AT 255/70 R16 111S um €100,59 (statt: €106,20) bei ReifenSuche.com
02.09.2014, 15:59 -3.29% General Tire Grabber HTS 245/75 R16 111S um €96,72 (statt: €100,01) bei ReifenSuche.com
02.09.2014, 15:59 -1.18% Toyo Snowprox S942 225/60 R15 96H um €88,80 (statt: €89,86) bei ReifenSuche.com
02.09.2014, 15:59 -1.39% Toyo Proxes CF1 235/45 R17 94W um €95,74 (statt: €97,09) bei ReifenSuche.com
02.09.2014, 15:59 -1.81% Toyo Proxes S/T 265/70 R16 112V um €100,84 (statt: €102,70) bei ReifenSuche.com
02.09.2014, 15:59 -2.80% Toyo Proxes CF1 195/60 R14 86H um €52,06 (statt: €53,56) bei ReifenSuche.com
02.09.2014, 15:59 -3.21% General Tire Snow Grabber 235/60 R18 107H um €117,02 (statt: €120,90) bei ReifenSuche.com
02.09.2014, 15:59 -0.69% EP-Tyres Accelera Snow 215/55 R16 97V um €48,99 (statt: €49,33) bei ReifenSuche.com
02.09.2014, 15:59 -2.88% EP-Tyres Accelera Iota 265/40 R22 106V um €118,24 (statt: €121,75) bei ReifenSuche.com
02.09.2014, 15:59 -0.66% Pirelli PZero 235/40 ZR19 92Y um €180,76 (statt: €181,97) bei ReifenSuche.com
02.09.2014, 15:59 -1.68% Ovation Tires Ecovision VI-682 215/60 R16 95V um €50,83 (statt: €51,70) bei ReifenSuche.com
02.09.2014, 15:59 -1.38% Dunlop Sport Maxx RT 285/30 R20 99Y um €216,93 (statt: €219,97) bei ReifenSuche.com
02.09.2014, 15:59 -3.26% Falken Linam R51 225/65 R16 112/110T um €83,68 (statt: €86,50) bei ReifenSuche.com
02.09.2014, 15:59 -1.40% Michelin Pilot Sport PS2 285/30 ZR21 um €287,40 (statt: €291,49) bei ReifenSuche.com
02.09.2014, 15:59 -0.84% Wanli S-1086 165/70 R13 79T um €31,82 (statt: €32,09) bei ReifenSuche.com
02.09.2014, 15:59 -1.14% Minerva S110 175/65 R15 84T um €38,27 (statt: €38,71) bei ReifenSuche.com
02.09.2014, 15:59 -12.01% Minerva Eco Winter SUV 235/75 R15 105T um €70,14 (statt: €79,71) bei ReifenSuche.com
02.09.2014, 15:59 -6.77% Minerva Eco Winter SUV 225/70 R16 103H um €65,85 (statt: €70,63) bei ReifenSuche.com
02.09.2014, 15:59 -0.68% Goodride SP06 155/65 R13 73T um €30,69 (statt: €30,90) bei ReifenSuche.com
02.09.2014, 15:59 -6.61% Fortuna Winter Challenger 205/50 R17 93V um €53,-- (statt: €56,75) bei ReifenSuche.com
02.09.2014, 15:59 -2.15% GT-Radial Savero WT 255/70 R16 111T um €95,81 (statt: €97,92) bei ReifenSuche.com
02.09.2014, 15:59 -1.27% Fortuna FV500 225/65 R16 112R um €62,72 (statt: €63,53) bei ReifenSuche.com
02.09.2014, 15:59 -1.49% Fortuna FV500 185 R15 103R um €47,71 (statt: €48,43) bei ReifenSuche.com
02.09.2014, 15:59 -1.85% Fortuna F2900 195/45 R16 84V XL um €40,35 (statt: €41,11) bei ReifenSuche.com
02.09.2014, 15:59 -1.83% Fortuna F3000 205/50 R16 87V um €41,33 (statt: €42,10) bei ReifenSuche.com
02.09.2014, 15:59 -1.80% Fortuna F2900 215/55 R17 98W XL um €49,61 (statt: €50,52) bei ReifenSuche.com
02.09.2014, 15:59 -1.87% Fortuna F2900 205/55 R16 91H um €39,80 (statt: €40,56) bei ReifenSuche.com
02.09.2014, 15:59 -0.92% Fortuna F1400 195/55 R16 87V um €41,03 (statt: €41,41) bei ReifenSuche.com
02.09.2014, 15:59 -1.90% Fortuna F1500 185/55 R15 82H um €36,67 (statt: €37,38) bei ReifenSuche.com
02.09.2014, 15:59 -1.09% Fortuna F1500 185/60 R15 88H XL um €36,43 (statt: €36,83) bei ReifenSuche.com
02.09.2014, 15:59 -1.02% Fortuna F1000 195/65 R15 95T XL um €37,90 (statt: €38,29) bei ReifenSuche.com
02.09.2014, 15:59 -0.91% Fortuna F1500 185/65 R15 92T XL um €37,04 (statt: €37,38) bei ReifenSuche.com
02.09.2014, 15:59 -1.20% Fortuna F1500 185/65 R15 88T um €35,45 (statt: €35,88) bei ReifenSuche.com
02.09.2014, 15:59 -0.53% Fortuna F1000 175/65 R14 86T XL um €31,77 (statt: €31,94) bei ReifenSuche.com
02.09.2014, 15:59 -0.86% Fortuna F1000 155/65 R14 75T um €28,77 (statt: €29,02) bei ReifenSuche.com
02.09.2014, 15:59 -0.86% Fortuna F1000 165/65 R13 77T um €28,77 (statt: €29,02) bei ReifenSuche.com
02.09.2014, 15:59 -1.00% Fortuna F1000 185/70 R14 88T um €33,67 (statt: €34,01) bei ReifenSuche.com
02.09.2014, 15:59 -2.14% Minerva F109 185/65 R14 86H um €39,73 (statt: €40,60) bei ReifenSuche.com
02.09.2014, 15:59 -5.63% Kleber Krisalp HP 235/45 R17 94H um €118,24 (statt: €125,30) bei ReifenSuche.com
02.09.2014, 15:59 -5.17% Nexen CP641 165/60 R14 75H um €40,73 (statt: €42,95) bei ReifenSuche.com
02.09.2014, 15:59 -2.70% Yokohama Geolandar H/T-S G051 235/55 R17 99H M+S um €107,21 (statt: €110,19) bei ReifenSuche.com
02.09.2014, 15:59 -0.55% Yokohama Advan S.T. V802 305/40 R22 114W RF um €294,14 (statt: €295,77) bei ReifenSuche.com
02.09.2014, 15:59 -14.26% Maxxis Victra MA510N 165/80 R13 87T XL um €36,74 (statt: €42,85) bei ReifenSuche.com
02.09.2014, 15:59 -0.73% Maxxis Victra MA510E 205/60 R15 91H um €50,01 (statt: €50,38) bei ReifenSuche.com
02.09.2014, 15:59 -1.27% Maxxis Victra MA510E 205/60 R14 88H um €52,67 (statt: €53,35) bei ReifenSuche.com
02.09.2014, 15:59 -0.97% Maxxis Victra MA510N 175/65 R15 88H um €43,72 (statt: €44,15) bei ReifenSuche.com
02.09.2014, 15:59 -1.36% Maxxis Victra MA510E 185/55 R15 82V um €48,48 (statt: €49,15) bei ReifenSuche.com
02.09.2014, 15:59 -1.79% GT-Radial Savero WT 235/75 R15 105T um €81,11 (statt: €82,59) bei ReifenSuche.com
02.09.2014, 15:59 -1.20% Bridgestone B250 175/60 R16 82H um €99,65 (statt: €100,86) bei ReifenSuche.com
02.09.2014, 15:59 -3.86% General Tire Grabber TR 235/70 R16 106H um €100,96 (statt: €105,01) bei ReifenSuche.com
02.09.2014, 15:59 -0.56% Michelin Energy Saver 185/60 R14 82H um €85,49 (statt: €85,97) bei ReifenSuche.com
02.09.2014, 15:59 -2.19% Dunlop SP Sport 01 195/50 R16 88V XL um €97,30 (statt: €99,48) bei ReifenSuche.com
02.09.2014, 15:59 -2.71% Federal Formoza FD2 215/65 R15 96V um €53,07 (statt: €54,55) bei ReifenSuche.com
02.09.2014, 15:59 -5.62% Federal Formoza FD2 205/60 R15 91V um €48,70 (statt: €51,60) bei ReifenSuche.com
02.09.2014, 15:59 -3.15% Federal Formoza FD2 205/60 R16 92V um €52,89 (statt: €54,61) bei ReifenSuche.com
02.09.2014, 15:59 -3.02% Federal 595 215/55 R16 93W um €56,59 (statt: €58,35) bei ReifenSuche.com
02.09.2014, 15:59 -5.64% Nankang NS-2 275/30 ZR19 92Y um €103,23 (statt: €109,40) bei ReifenSuche.com
02.09.2014, 15:59 -2.27% Bridgestone Turanza ER300 215/55 R17 94V um €119,04 (statt: €121,80) bei ReifenSuche.com
02.09.2014, 15:59 -0.51% Bridgestone Turanza T001 225/45 R17 91V um €87,57 (statt: €88,02) bei ReifenSuche.com
02.09.2014, 15:59 -0.50% Federal 595 215/40 R16 86W um €55,19 (statt: €55,47) bei ReifenSuche.com
02.09.2014, 15:59 -0.50% Federal 595 195/45 R16 84V um €47,30 (statt: €47,54) bei ReifenSuche.com
02.09.2014, 15:59 -4.90% Federal 595EVO 205/40 R17 84Y um €55,73 (statt: €58,60) bei ReifenSuche.com
02.09.2014, 15:59 -1.00% Federal 595 255/40 R19 96W um €86,25 (statt: €87,12) bei ReifenSuche.com
02.09.2014, 15:59 -0.88% Federal 595 245/45 R18 96W um €71,81 (statt: €72,45) bei ReifenSuche.com
02.09.2014, 15:59 -5.08% Federal 595 225/50 R17 94W um €64,53 (statt: €67,98) bei ReifenSuche.com
02.09.2014, 15:59 -0.72% Federal 595 225/45 R17 91W um €58,16 (statt: €58,58) bei ReifenSuche.com
02.09.2014, 15:59 -1.04% Federal Formoza FD2 245/30 R20 90W XL um €92,50 (statt: €93,47) bei ReifenSuche.com
02.09.2014, 15:59 -0.83% Federal Formoza FD2 225/55 R17 101W XL um €67,02 (statt: €67,58) bei ReifenSuche.com
02.09.2014, 15:59 -1.46% Toyo Proxes T1 Sport SUV 265/50 R19 110W XL um €161,-- (statt: €163,38) bei ReifenSuche.com
02.09.2014, 15:59 -1.47% Federal Formoza FD2 195/65 R15 91V um €42,75 (statt: €43,39) bei ReifenSuche.com
02.09.2014, 15:59 -0.94% Federal Formoza FD2 245/40 R19 98W XL um €80,37 (statt: €81,13) bei ReifenSuche.com
02.09.2014, 15:59 -0.53% Bridgestone Potenza S001 245/45 R19 102Y XL um €193,93 (statt: €194,97) bei ReifenSuche.com
02.09.2014, 15:59 -1.19% Dunlop SP Sport FastResponse 215/45 R16 90V Runflat um €95,42 (statt: €96,57) bei ReifenSuche.com
02.09.2014, 15:59 -2.41% Sailun Atrezzo SH402 175/55 R15 77T um €34,41 (statt: €35,26) bei ReifenSuche.com
02.09.2014, 15:59 -1.19% Continental ContiCrossContact Winter 255/50 R20 109V XL FR um €247,42 (statt: €250,40) bei ReifenSuche.com
02.09.2014, 15:59 -2.98% Nexen CP661 215/60 R16 95H um €60,66 (statt: €62,52) bei ReifenSuche.com
02.09.2014, 15:59 -6.74% Minerva RF09 215/60 R16 103T um €68,54 (statt: €73,49) bei ReifenSuche.com
02.09.2014, 15:59 -10.56% Minerva Eco Winter 215/50 R17 95V um €58,80 (statt: €65,74) bei ReifenSuche.com
02.09.2014, 15:59 -2.63% Nexen N3000 245/40 ZR17 91W um €66,-- (statt: €67,78) bei ReifenSuche.com
02.09.2014, 15:59 -4.94% Nexen Roadian 541 235/75 R16 108H um €93,36 (statt: €98,21) bei ReifenSuche.com
02.09.2014, 15:59 -1.56% Wanli S-1083 195/55 R16 87H um €44,87 (statt: €45,58) bei ReifenSuche.com
02.09.2014, 15:59 -0.82% Fortuna Winter Challenger 185/70 R14 88T um €37,50 (statt: €37,81) bei ReifenSuche.com
02.09.2014, 15:59 -5.63% Fortuna F2900 205/45 R17 84V XL um €86,93 (statt: €92,12) bei ReifenSuche.com
02.09.2014, 15:59 -4.40% Fortuna F2900 205/45 R17 88W XL um €43,23 (statt: €45,22) bei ReifenSuche.com
02.09.2014, 15:59 -1.84% Fortuna F2000 205/45 R16 87W XL um €41,58 (statt: €42,36) bei ReifenSuche.com
02.09.2014, 15:59 -1.90% Fortuna F3000 195/45 R15 78V um €35,20 (statt: €35,88) bei ReifenSuche.com
02.09.2014, 15:59 -3.15% Fortuna F2900 225/50 R17 98W XL um €48,93 (statt: €50,52) bei ReifenSuche.com
02.09.2014, 15:59 -3.21% Fortuna F2900 215/50 R17 95W XL um €46,48 (statt: €48,02) bei ReifenSuche.com
02.09.2014, 15:59 -0.78% Fortuna F2900 225/50 R16 92V um €47,15 (statt: €47,52) bei ReifenSuche.com
02.09.2014, 15:59 -1.82% Fortuna F2900 225/55 R17 101W XL um €50,83 (statt: €51,77) bei ReifenSuche.com
02.09.2014, 15:59 -1.86% Fortuna F1500 195/55 R15 89H XL um €37,90 (statt: €38,62) bei ReifenSuche.com
02.09.2014, 15:59 -1.03% Fortuna F1500 185/55 R15 82V um €37,65 (statt: €38,04) bei ReifenSuche.com
02.09.2014, 15:59 -0.99% Fortuna F1500 185/55 R14 80H um €33,98 (statt: €34,32) bei ReifenSuche.com
02.09.2014, 15:59 -1.79% Fortuna F1400 215/65 R16 98H um €47,71 (statt: €48,58) bei ReifenSuche.com
02.09.2014, 15:59 -0.56% Fortuna F1500 205/65 R15 94V um €40,78 (statt: €41,01) bei ReifenSuche.com
02.09.2014, 15:59 -1.00% Fortuna F1000 175/80 R14 88T um €33,67 (statt: €34,01) bei ReifenSuche.com
02.09.2014, 15:59 -3.95% Wanli S-1063 245/35 R19 93W XL um €62,72 (statt: €65,30) bei ReifenSuche.com
02.09.2014, 15:59 -3.45% Wanli S-1088 275/40 R20 106W XL um €78,-- (statt: €80,79) bei ReifenSuche.com
02.09.2014, 15:59 -1.81% Wanli S-1097 235/45 R17 97W XL um €48,93 (statt: €49,83) bei ReifenSuche.com
02.09.2014, 15:59 -1.03% Wanli S-1063 215/45 R17 91W XL um €45,37 (statt: €45,84) bei ReifenSuche.com
02.09.2014, 15:59 -7.00% Wanli S-1063 205/45 R17 84V um €86,93 (statt: €93,47) bei ReifenSuche.com
02.09.2014, 15:59 -3.21% Wanli S-1063 215/50 R17 95W XL um €46,48 (statt: €48,02) bei ReifenSuche.com
02.09.2014, 15:59 -1.79% Wanli S-1063 225/50 R16 96W XL um €47,71 (statt: €48,58) bei ReifenSuche.com
02.09.2014, 15:59 -1.04% Wanli S-1063 225/50 R16 92V um €47,52 (statt: €48,02) bei ReifenSuche.com
02.09.2014, 15:59 -5.05% Wanli S-1088 205/50 R16 87W um €41,58 (statt: €43,79) bei ReifenSuche.com
02.09.2014, 15:59 -1.11% Wanli S-1063 215/55 R17 98W XL um €49,96 (statt: €50,52) bei ReifenSuche.com
02.09.2014, 15:59 -0.98% Wanli S-1063 225/55 R16 99V XL um €48,58 (statt: €49,06) bei ReifenSuche.com
02.09.2014, 15:59 -0.79% Wanli S-1088 215/55 R16 93V um €45,01 (statt: €45,37) bei ReifenSuche.com
02.09.2014, 15:59 -0.85% Wanli S-1200 195/55 R15 85V um €38,29 (statt: €38,62) bei ReifenSuche.com
02.09.2014, 15:59 -5.39% Wanli S-1200 195/55 R15 89H XL um €37,90 (statt: €40,06) bei ReifenSuche.com
02.09.2014, 15:59 -2.85% Wanli S-1088 235/60 R16 100V um €50,83 (statt: €52,32) bei ReifenSuche.com
02.09.2014, 15:59 -1.81% Wanli S-1023 215/60 R16 99V um €48,38 (statt: €49,27) bei ReifenSuche.com
02.09.2014, 15:59 -2.34% Wanli S-1023 215/60 R16 95H um €47,14 (statt: €48,27) bei ReifenSuche.com
02.09.2014, 15:59 -2.32% Wanli S-1023 225/60 R15 96V um €45,93 (statt: €47,02) bei ReifenSuche.com
02.09.2014, 15:59 -1.02% Wanli S-1023 195/65 R15 95T XL um €37,90 (statt: €38,29) bei ReifenSuche.com
02.09.2014, 15:59 -1.82% Wanli S-1023 215/70 R15 98T um €45,93 (statt: €46,78) bei ReifenSuche.com
02.09.2014, 15:59 -1.29% Wanli S-1023 205/70 R15 96H um €45,25 (statt: €45,84) bei ReifenSuche.com
02.09.2014, 15:59 -5.88% Minerva F109 175/65 R14 90T um €40,66 (statt: €43,20) bei ReifenSuche.com
02.09.2014, 15:59 -4.76% Minerva F105 225/35 R19 88W um €71,05 (statt: €74,60) bei ReifenSuche.com
02.09.2014, 15:59 -3.64% Minerva F105 215/35 R18 84W um €58,49 (statt: €60,70) bei ReifenSuche.com
02.09.2014, 15:59 -1.43% Minerva F105 215/40 R17 87W um €51,-- (statt: €51,74) bei ReifenSuche.com
02.09.2014, 15:59 -3.37% Minerva F105 215/40 R16 86W um €49,-- (statt: €50,71) bei ReifenSuche.com
02.09.2014, 15:59 -1.24% Minerva F105 245/45 R17 99W um €61,31 (statt: €62,08) bei ReifenSuche.com
02.09.2014, 15:59 -6.37% Minerva F105 205/45 R16 87W um €48,69 (statt: €52,--) bei ReifenSuche.com
02.09.2014, 15:59 -6.41% Minerva F105 195/45 R16 84V um €47,46 (statt: €50,71) bei ReifenSuche.com
02.09.2014, 15:59 -0.97% Minerva F105 235/50 R18 97W um €76,20 (statt: €76,95) bei ReifenSuche.com
02.09.2014, 15:59 -4.20% Minerva F105 205/50 R16 87W um €49,30 (statt: €51,46) bei ReifenSuche.com
02.09.2014, 15:59 -3.85% Minerva F105 205/50 R16 87V um €50,-- (statt: €52,--) bei ReifenSuche.com
02.09.2014, 15:59 -6.42% Minerva F109 195/50 R16 84V um €46,23 (statt: €49,40) bei ReifenSuche.com
02.09.2014, 15:59 -6.35% Minerva F105 215/55 R17 98W um €56,-- (statt: €59,80) bei ReifenSuche.com
02.09.2014, 15:59 -3.39% Minerva F105 225/55 R16 99W um €57,-- (statt: €59,--) bei ReifenSuche.com
02.09.2014, 15:59 -2.26% Minerva F105 215/55 R16 97W um €54,-- (statt: €55,25) bei ReifenSuche.com
02.09.2014, 15:59 -6.42% Minerva F109 195/55 R16 87V um €46,23 (statt: €49,40) bei ReifenSuche.com
02.09.2014, 15:59 -6.31% Minerva F109 195/55 R16 87H um €45,25 (statt: €48,30) bei ReifenSuche.com
02.09.2014, 15:59 -4.27% Minerva F109 225/60 R16 98H um €54,-- (statt: €56,41) bei ReifenSuche.com
02.09.2014, 15:59 -5.80% Minerva F109 215/60 R16 95V um €53,59 (statt: €56,89) bei ReifenSuche.com
02.09.2014, 15:59 -5.43% Minerva F109 215/60 R16 95H um €54,-- (statt: €57,10) bei ReifenSuche.com
02.09.2014, 15:59 -4.18% Minerva F109 205/60 R16 92V um €53,-- (statt: €55,31) bei ReifenSuche.com
02.09.2014, 15:59 -1.29% Minerva F109 195/60 R15 88V um €45,01 (statt: €45,60) bei ReifenSuche.com
02.09.2014, 15:59 -2.89% Minerva F109 195/65 R15 91V um €43,99 (statt: €45,30) bei ReifenSuche.com
02.09.2014, 15:59 -2.42% Minerva F109 195/65 R15 95T XL um €42,25 (statt: €43,30) bei ReifenSuche.com
02.09.2014, 15:59 -0.51% Minerva F109 175/65 R15 84H um €39,-- (statt: €39,20) bei ReifenSuche.com
02.09.2014, 15:59 -2.33% Bridgestone Ecopia EP150 205/60 R15 91H um €65,29 (statt: €66,85) bei ReifenSuche.com
02.09.2014, 15:59 -6.73% Nokian V 195/65 R15 95V XL um €47,01 (statt: €50,40) bei ReifenSuche.com
02.09.2014, 15:59 -1.98% Federal 595 225/55 R17 97W um €65,22 (statt: €66,54) bei ReifenSuche.com
02.09.2014, 15:59 -4.81% Kumho Ecsta X3 KL17 275/45 R20 110Y XL um €158,69 (statt: €166,70) bei ReifenSuche.com
02.09.2014, 15:59 -12.33% EP-Tyres Accelera Alpha 205/55 R16 94W um €39,80 (statt: €45,40) bei ReifenSuche.com
02.09.2014, 15:59 -4.53% Achilles Desert Hawk H/T 215/60 R17 96H um €69,58 (statt: €72,88) bei ReifenSuche.com
02.09.2014, 15:59 -2.65% Nokian Rotiiva AT 225/75 R16 115/112S um €103,58 (statt: €106,40) bei ReifenSuche.com
02.09.2014, 15:59 -5.10% Wanli S-1063 195/65 R15 91V um €36,12 (statt: €38,06) bei ReifenSuche.com
02.09.2014, 15:59 -3.79% General Tire Grabber GT 235/55 R18 100V um €105,25 (statt: €109,40) bei ReifenSuche.com
02.09.2014, 15:59 -2.21% General Tire Grabber GT 235/50 R18 97V um €101,70 (statt: €104,--) bei ReifenSuche.com
02.09.2014, 15:59 -4.00% General Tire Grabber GT 235/65 R17 108V um €92,26 (statt: €96,10) bei ReifenSuche.com
02.09.2014, 15:59 -3.68% General Tire Grabber GT 235/55 R17 99H um €109,42 (statt: €113,60) bei ReifenSuche.com
02.09.2014, 15:59 -4.05% General Tire Grabber GT 255/65 R16 109H um €87,60 (statt: €91,30) bei ReifenSuche.com
02.09.2014, 15:59 -4.27% General Tire Grabber GT 215/70 R16 100H um €81,47 (statt: €85,10) bei ReifenSuche.com
02.09.2014, 15:59 -4.14% General Tire Grabber GT 235/75 R15 109T um €85,03 (statt: €88,70) bei ReifenSuche.com
02.09.2014, 15:59 -12.39% General Tire Eurovan 2 195/65 R16 104/102T um €65,29 (statt: €74,52) bei ReifenSuche.com
02.09.2014, 15:59 -0.97% General Tire Eurovan 2 205/65 R16 107/105T um €75,34 (statt: €76,08) bei ReifenSuche.com
02.09.2014, 15:59 -2.62% General Tire Eurovan 2 195/70 R15 104/102R um €55,73 (statt: €57,23) bei ReifenSuche.com
02.09.2014, 15:59 -3.71% General Tire Grabber AT 265/70 R16 112T um €103,90 (statt: €107,90) bei ReifenSuche.com
02.09.2014, 15:59 -3.77% General Tire Grabber HTS 245/65 R17 111T XL um €102,68 (statt: €106,70) bei ReifenSuche.com
02.09.2014, 15:59 -1.56% General Tire Snow Grabber 215/60 R17 96H um €93,98 (statt: €95,47) bei ReifenSuche.com
02.09.2014, 15:59 -5.80% General Tire Grabber AT 235/70 R16 106S um €91,65 (statt: €97,29) bei ReifenSuche.com
02.09.2014, 15:59 -5.51% General Tire Grabber AT 255/65 R16 109T um €89,20 (statt: €94,40) bei ReifenSuche.com
02.09.2014, 15:59 -5.52% General Tire Grabber AT 215/65 R16 98T um €78,04 (statt: €82,60) bei ReifenSuche.com
02.09.2014, 15:59 -5.64% General Tire Grabber AT 265/70 R15 112S um €93,98 (statt: €99,60) bei ReifenSuche.com
02.09.2014, 15:59 -5.91% General Tire Grabber AT 225/70 R15 100S um €82,33 (statt: €87,50) bei ReifenSuche.com
02.09.2014, 15:59 -1.87% General Tire Snow Grabber 215/65 R16 98T um €76,20 (statt: €77,65) bei ReifenSuche.com
02.09.2014, 15:59 -1.79% General Tire Snow Grabber 205/70 R15 96T um €68,97 (statt: €70,23) bei ReifenSuche.com
02.09.2014, 15:59 -3.57% General Tire Grabber HTS 245/75 R16 120/116S um €106,36 (statt: €110,30) bei ReifenSuche.com
02.09.2014, 15:59 -5.36% General Tire Grabber HTS 225/75 R16 115/112S XL um €99,37 (statt: €105,--) bei ReifenSuche.com
02.09.2014, 15:59 -4.11% General Tire Grabber HTS 225/75 R16 104S um €84,78 (statt: €88,41) bei ReifenSuche.com
02.09.2014, 15:59 -4.32% General Tire Grabber HTS 225/70 R15 100T um €76,45 (statt: €79,90) bei ReifenSuche.com
02.09.2014, 15:59 -3.76% General Tire Grabber HTS 265/75 R15 112S um €99,12 (statt: €102,99) bei ReifenSuche.com
02.09.2014, 15:59 -4.71% General Tire Grabber UHP 295/45 R20 114V um €186,39 (statt: €195,60) bei ReifenSuche.com
02.09.2014, 15:59 -1.67% Continental VanContact 100 205/65 R15 102/100T um €98,88 (statt: €100,56) bei ReifenSuche.com
02.09.2014, 15:59 -7.65% Michelin Latitude Cross 235/75 R15 109T XL um €116,08 (statt: €125,70) bei ReifenSuche.com
02.09.2014, 15:59 -1.16% Bridgestone B250 195/65 R15 91T um €50,16 (statt: €50,75) bei ReifenSuche.com
02.09.2014, 15:59 -1.69% Ovation Tires Ecovision VI-682 175/70 R14 84T um €32,60 (statt: €33,16) bei ReifenSuche.com
02.09.2014, 15:59 -0.79% Nexen Winguard SUV 205/70 R15 96T um €52,94 (statt: €53,36) bei ReifenSuche.com
02.09.2014, 15:59 -1.26% Kleber Viaxer 165/60 R14 75T um €47,15 (statt: €47,75) bei ReifenSuche.com
02.09.2014, 15:59 -13.60% Dunlop Sport BluResponse 215/60 R16 95V um €97,80 (statt: €113,20) bei ReifenSuche.com
02.09.2014, 15:59 -1.68% Kleber Transpro 215/60 R16 103/101T um €107,96 (statt: €109,80) bei ReifenSuche.com
02.09.2014, 15:59 -3.82% Kumho Road Venture ST KL16 225/75 R16 104H um €88,21 (statt: €91,71) bei ReifenSuche.com
02.09.2014, 15:59 -4.77% Nokian V 225/55 R16 99V XL um €72,49 (statt: €76,12) bei ReifenSuche.com
02.09.2014, 15:59 -2.55% EP-Tyres Accelera Iota 295/30 R22 103Y XL um €120,84 (statt: €124,--) bei ReifenSuche.com
02.09.2014, 15:59 -0.89% Fulda Carat Progresso 205/60 R15 91W um €72,77 (statt: €73,42) bei ReifenSuche.com
02.09.2014, 15:59 -1.18% Vredestein Quatrac 3 SUV 225/70 R16 103H um €109,80 (statt: €111,11) bei ReifenSuche.com
02.09.2014, 15:59 -4.69% Sailun Ice Blazer WSL2 195/65 R15 95T XL um €40,84 (statt: €42,85) bei ReifenSuche.com
02.09.2014, 15:59 -4.20% Nexen Euro-Win 700 185/70 R14 88T um €37,59 (statt: €39,24) bei ReifenSuche.com
02.09.2014, 15:59 -2.24% Marangoni 4 Winter Comm 235/65 R16 115/113R um €81,53 (statt: €83,40) bei ReifenSuche.com
02.09.2014, 15:59 -0.85% GT-Radial Champiro WT-AX 205/60 R15 95H XL um €53,93 (statt: €54,39) bei ReifenSuche.com
02.09.2014, 15:59 -4.52% EP-Tyres Accelera Iota 275/40 R20 110Y XL um €98,63 (statt: €103,30) bei ReifenSuche.com
02.09.2014, 15:59 -6.93% EP-Tyres Accelera Iota 215/55 R18 99V um €81,47 (statt: €87,54) bei ReifenSuche.com
02.09.2014, 15:59 -0.79% EP-Tyres Accelera Phi 265/35 R19 98Y um €93,72 (statt: €94,47) bei ReifenSuche.com
02.09.2014, 15:59 -6.57% EP-Tyres Accelera Phi 225/45 R17 94W um €49,61 (statt: €53,10) bei ReifenSuche.com
02.09.2014, 15:59 -5.45% EP-Tyres Accelera Phi 255/40 R17 98W XL um €71,67 (statt: €75,80) bei ReifenSuche.com
02.09.2014, 15:59 -9.08% EP-Tyres Accelera Alpha 205/35 R18 81Y um €58,37 (statt: €64,20) bei ReifenSuche.com
02.09.2014, 15:59 -8.31% EP-Tyres Accelera Phi 245/45 R20 103Y um €107,83 (statt: €117,60) bei ReifenSuche.com
02.09.2014, 15:59 -0.67% EP-Tyres Accelera Phi 2 275/35 ZR19 96Y um €93,83 (statt: €94,46) bei ReifenSuche.com
02.09.2014, 15:59 -3.89% EP-Tyres Accelera Iota 275/55 R20 117V um €99,86 (statt: €103,90) bei ReifenSuche.com
02.09.2014, 15:59 -6.79% EP-Tyres Accelera Snow 195/55 R16 91H um €39,80 (statt: €42,70) bei ReifenSuche.com
02.09.2014, 15:59 -0.81% EP-Tyres Accelera Phi 2 275/40 ZR19 105Y um €101,07 (statt: €101,90) bei ReifenSuche.com
02.09.2014, 15:59 -4.89% EP-Tyres Accelera Phi 215/50 R17 95W um €54,47 (statt: €57,27) bei ReifenSuche.com
02.09.2014, 15:59 -3.60% EP-Tyres Accelera Phi 255/35 R20 97Y um €90,36 (statt: €93,73) bei ReifenSuche.com
02.09.2014, 15:59 -2.95% EP-Tyres Accelera Iota 215/60 R17 100V um €79,57 (statt: €81,99) bei ReifenSuche.com
02.09.2014, 15:59 -4.25% EP-Tyres Accelera Iota 265/70 R16 116H um €81,74 (statt: €85,37) bei ReifenSuche.com
02.09.2014, 15:59 -5.38% EP-Tyres Accelera Snow 225/55 R17 101V XL um €58,19 (statt: €61,50) bei ReifenSuche.com
02.09.2014, 15:59 -5.36% EP-Tyres Accelera Snow 205/50 R17 93V um €53,28 (statt: €56,30) bei ReifenSuche.com
02.09.2014, 15:59 -3.69% EP-Tyres Accelera Phi 205/50 R17 93W um €55,06 (statt: €57,17) bei ReifenSuche.com
02.09.2014, 15:59 -12.19% EP-Tyres Accelera Phi 195/45 R16 84W um €46,54 (statt: €53,--) bei ReifenSuche.com
02.09.2014, 15:59 -1.39% EP-Tyres Accelera Iota 315/35 R20 110W um €130,26 (statt: €132,10) bei ReifenSuche.com
02.09.2014, 15:59 -6.24% EP-Tyres Accelera Iota 225/65 R17 106V um €66,76 (statt: €71,20) bei ReifenSuche.com
02.09.2014, 15:59 -14.23% EP-Tyres Accelera Phi 255/30 R22 95Y um €94,96 (statt: €110,71) bei ReifenSuche.com
02.09.2014, 15:59 -2.25% EP-Tyres Accelera Iota 235/55 R18 104W um €90,67 (statt: €92,76) bei ReifenSuche.com
02.09.2014, 15:59 -0.97% EP-Tyres Accelera Iota 275/45 R19 108W um €105,99 (statt: €107,03) bei ReifenSuche.com
02.09.2014, 15:59 -2.74% EP-Tyres Accelera Phi 235/60 R16 104W um €64,-- (statt: €65,80) bei ReifenSuche.com
02.09.2014, 15:59 -0.83% EP-Tyres Accelera Alpha 185/60 R15 88V um €39,57 (statt: €39,90) bei ReifenSuche.com
02.09.2014, 15:59 -2.97% EP-Tyres Accelera Phi 235/45 R18 98Y XL um €68,96 (statt: €71,07) bei ReifenSuche.com
02.09.2014, 15:59 -1.53% EP-Tyres Accelera Iota 285/45 R19 111V um €111,04 (statt: €112,76) bei ReifenSuche.com
02.09.2014, 15:59 -4.08% EP-Tyres Accelera Alpha 225/50 R18 99Y um €80,86 (statt: €84,30) bei ReifenSuche.com
02.09.2014, 15:59 -4.10% EP-Tyres Accelera Phi 275/30 R20 97Y um €112,12 (statt: €116,91) bei ReifenSuche.com
02.09.2014, 15:59 -5.34% EP-Tyres Accelera Iota 255/55 R19 111W um €97,41 (statt: €102,90) bei ReifenSuche.com
02.09.2014, 15:59 -1.02% EP-Tyres Accelera Iota 235/60 R18 107V um €87,23 (statt: €88,13) bei ReifenSuche.com
02.09.2014, 15:59 -11.19% EP-Tyres Accelera Iota 305/40 R22 114V um €108,44 (statt: €122,10) bei ReifenSuche.com
02.09.2014, 15:59 -0.64% EP-Tyres Accelera Phi 265/30 R19 93Y um €81,35 (statt: €81,87) bei ReifenSuche.com
02.09.2014, 15:59 -0.51% EP-Tyres Accelera Phi 245/30 R20 93Y um €95,55 (statt: €96,04) bei ReifenSuche.com
02.09.2014, 15:59 -1.85% EP-Tyres Accelera Phi 225/30 R20 85Y um €85,-- (statt: €86,60) bei ReifenSuche.com
02.09.2014, 15:59 -1.47% EP-Tyres Accelera Iota 265/35 R22 102W um €114,-- (statt: €115,70) bei ReifenSuche.com
02.09.2014, 15:59 -4.41% EP-Tyres Accelera Iota 265/60 R18 114V um €100,47 (statt: €105,10) bei ReifenSuche.com
02.09.2014, 15:59 -2.83% EP-Tyres Accelera Phi 255/40 R18 99Y XL um €80,55 (statt: €82,90) bei ReifenSuche.com
02.09.2014, 15:59 -6.03% EP-Tyres Accelera Phi 245/35 R20 95Y um €92,-- (statt: €97,90) bei ReifenSuche.com
02.09.2014, 15:59 -0.84% EP-Tyres Accelera Phi 215/40 R18 89Y um €59,-- (statt: €59,50) bei ReifenSuche.com
02.09.2014, 15:59 -3.65% EP-Tyres Accelera Alpha 205/50 R16 91W um €44,66 (statt: €46,35) bei ReifenSuche.com
02.09.2014, 15:59 -8.47% EP-Tyres Accelera Epsilon 205/65 R15 94V um €42,99 (statt: €46,97) bei ReifenSuche.com
02.09.2014, 15:59 -2.20% EP-Tyres Accelera Snow 225/40 R18 92V um €59,23 (statt: €60,56) bei ReifenSuche.com
02.09.2014, 15:59 -2.78% EP-Tyres Accelera Snow 205/60 R16 96H um €49,-- (statt: €50,40) bei ReifenSuche.com
02.09.2014, 15:59 -1.60% EP-Tyres Accelera Snow 185/65 R14 86H um €37,-- (statt: €37,60) bei ReifenSuche.com
02.09.2014, 15:59 -2.33% EP-Tyres Accelera Phi 245/35 R19 93Y um €84,-- (statt: €86,--) bei ReifenSuche.com
02.09.2014, 15:59 -0.69% EP-Tyres Accelera Phi 225/35 R19 88Y um €75,24 (statt: €75,76) bei ReifenSuche.com
02.09.2014, 15:59 -1.12% EP-Tyres Accelera Phi 245/40 R18 97Y um €72,28 (statt: €73,10) bei ReifenSuche.com
02.09.2014, 15:59 -5.60% EP-Tyres Accelera Phi 225/35 R20 90Y um €85,15 (statt: €90,20) bei ReifenSuche.com
02.09.2014, 15:59 -1.90% EP-Tyres Accelera Alpha 195/45 R15 78V um €40,81 (statt: €41,60) bei ReifenSuche.com
02.09.2014, 15:59 -2.30% EP-Tyres Accelera Alpha 185/55 R14 80V um €37,73 (statt: €38,62) bei ReifenSuche.com
02.09.2014, 15:59 -2.96% EP-Tyres Accelera Phi 235/40 R18 95Y um €55,37 (statt: €57,06) bei ReifenSuche.com
02.09.2014, 15:59 -3.40% EP-Tyres Accelera Delta 195/45 R16 84W um €48,-- (statt: €49,69) bei ReifenSuche.com
02.09.2014, 15:59 -1.93% EP-Tyres Accelera Phi 225/40 R18 92Y um €54,43 (statt: €55,50) bei ReifenSuche.com
02.09.2014, 15:59 -3.54% EP-Tyres Accelera Alpha 205/45 R17 88W um €45,51 (statt: €47,18) bei ReifenSuche.com
02.09.2014, 15:59 -6.55% EP-Tyres Accelera Alpha 215/55 R16 97W um €52,61 (statt: €56,30) bei ReifenSuche.com
02.09.2014, 15:59 -3.58% EP-Tyres Accelera 651 195/65 R15 91V um €40,11 (statt: €41,60) bei ReifenSuche.com
02.09.2014, 15:59 -4.86% EP-Tyres Accelera Alpha 205/60 R15 91V um €42,25 (statt: €44,41) bei ReifenSuche.com
02.09.2014, 15:59 -4.00% EP-Tyres Accelera Alpha 235/45 R17 97W um €52,61 (statt: €54,80) bei ReifenSuche.com
02.09.2014, 15:59 -5.17% EP-Tyres Accelera Alpha 225/45 R17 94W um €51,38 (statt: €54,18) bei ReifenSuche.com
02.09.2014, 15:59 -6.80% EP-Tyres Accelera Beta 195/70 R14 91H um €41,-- (statt: €43,99) bei ReifenSuche.com
02.09.2014, 15:59 -1.59% EP-Tyres Accelera Alpha 195/50 R16 84V um €42,71 (statt: €43,40) bei ReifenSuche.com
02.09.2014, 15:59 -2.95% EP-Tyres Accelera A/T 235/75 R15 105S um €69,-- (statt: €71,10) bei ReifenSuche.com
02.09.2014, 15:59 -4.66% Achilles Desert Hawk A/T 265/65 R17 112S um €85,76 (statt: €89,95) bei ReifenSuche.com
02.09.2014, 15:59 -1.67% Achilles Desert Hawk UHP 275/55 R20 117V um €84,61 (statt: €86,05) bei ReifenSuche.com
02.09.2014, 15:59 -1.67% Achilles Desert Hawk H/T 265/70 R17 115H um €86,11 (statt: €87,57) bei ReifenSuche.com
02.09.2014, 15:59 -2.39% Achilles Desert Hawk H/T 245/70 R16 111H um €69,-- (statt: €70,69) bei ReifenSuche.com
02.09.2014, 15:59 -2.19% Achilles Desert Hawk H/T 225/70 R16 107H um €67,93 (statt: €69,45) bei ReifenSuche.com
02.09.2014, 15:59 -5.71% GT-Radial Champiro HPY 205/50 ZR17 93W XL um €73,26 (statt: €77,70) bei ReifenSuche.com
02.09.2014, 15:59 -2.71% GT-Radial Champiro HPY 205/45 ZR17 88W XL um €63,58 (statt: €65,35) bei ReifenSuche.com
02.09.2014, 15:59 -1.31% GT-Radial Champiro HPY 255/55 ZR18 109Y XL um €106,29 (statt: €107,70) bei ReifenSuche.com
02.09.2014, 15:59 -1.55% GT-Radial Champiro ECO 175/65 R14 82T um €39,38 (statt: €40,--) bei ReifenSuche.com
02.09.2014, 15:59 -21.34% GT-Radial Champiro ECO 135/80 R13 70T um €29,82 (statt: €37,91) bei ReifenSuche.com
02.09.2014, 15:59 -2.13% GT-Radial Champiro ECO 145/70 R13 71T um €28,93 (statt: €29,56) bei ReifenSuche.com
02.09.2014, 15:59 -6.66% GT-Radial Champiro ECO 185/65 R15 88H um €38,27 (statt: €41,--) bei ReifenSuche.com
02.09.2014, 15:59 -3.52% GT-Radial Champiro ECO 175/65 R13 80T um €36,21 (statt: €37,53) bei ReifenSuche.com
02.09.2014, 15:59 -0.96% GT-Radial Champiro ECO 185/60 R13 80H um €39,19 (statt: €39,57) bei ReifenSuche.com
02.09.2014, 15:59 -1.31% GT-Radial Champiro BAX 2 205/55 R16 91V um €49,61 (statt: €50,27) bei ReifenSuche.com
02.09.2014, 15:59 -0.90% GT-Radial Champiro BAX 2 225/60 R16 98V um €68,33 (statt: €68,95) bei ReifenSuche.com
02.09.2014, 15:59 -6.20% GT-Radial Champiro BAX 2 215/60 R16 95V um €60,02 (statt: €63,99) bei ReifenSuche.com
02.09.2014, 15:59 -1.54% GT-Radial Champiro BAX 2 185/55 R14 80H um €43,42 (statt: €44,10) bei ReifenSuche.com
02.09.2014, 15:59 -0.56% GT-Radial Champiro BAX 2 195/50 R15 82V um €40,78 (statt: €41,01) bei ReifenSuche.com
02.09.2014, 15:59 -2.97% GT-Radial Champiro HPY 225/45 ZR17 94Y XL um €68,-- (statt: €70,08) bei ReifenSuche.com
02.09.2014, 15:59 -0.74% GT-Radial Champiro HPY 255/40 ZR19 96Y um €125,10 (statt: €126,03) bei ReifenSuche.com
02.09.2014, 15:59 -1.04% GT-Radial Champiro HPY 255/35 ZR19 96Y XL um €126,21 (statt: €127,54) bei ReifenSuche.com
02.09.2014, 15:59 -4.44% GT-Radial Champiro HPY 265/35 ZR18 97Y XL um €111,38 (statt: €116,55) bei ReifenSuche.com
02.09.2014, 15:59 -0.99% GT-Radial Champiro HPY 235/45 ZR17 97Y XL um €75,01 (statt: €75,76) bei ReifenSuche.com
02.09.2014, 15:59 -1.37% GT-Radial Champiro HPY 245/45 ZR17 99Y XL um €81,84 (statt: €82,98) bei ReifenSuche.com
02.09.2014, 15:59 -1.27% GT-Radial Champiro HPY 255/35 ZR18 94Y XL um €108,38 (statt: €109,77) bei ReifenSuche.com
02.09.2014, 15:59 -2.31% GT-Radial Champiro HPY 235/50 ZR17 100W XL um €89,99 (statt: €92,12) bei ReifenSuche.com
02.09.2014, 15:59 -1.00% GT-Radial Champiro HPY 225/50 ZR17 98Y XL um €84,84 (statt: €85,70) bei ReifenSuche.com
02.09.2014, 15:59 -1.44% GT-Radial Champiro HPY 255/40 ZR17 98Y XL um €97,35 (statt: €98,77) bei ReifenSuche.com
02.09.2014, 15:59 -3.05% GT-Radial Champiro HPY 245/40 ZR18 97Y XL um €98,13 (statt: €101,22) bei ReifenSuche.com
02.09.2014, 15:59 -1.83% GT-Radial Champiro HPY 225/40 ZR18 92Y XL um €79,57 (statt: €81,05) bei ReifenSuche.com
02.09.2014, 15:59 -0.75% GT-Radial Maxmiler WT 195/75 R16 107/105R um €65,91 (statt: €66,41) bei ReifenSuche.com
02.09.2014, 15:59 -1.60% GT-Radial Maxmiler WT 175/75 R16 101/99R um €64,42 (statt: €65,47) bei ReifenSuche.com
02.09.2014, 15:59 -1.84% GT-Radial Maxmiler WT 205/65 R15 102/100T um €61,25 (statt: €62,40) bei ReifenSuche.com
02.09.2014, 15:59 -1.15% GT-Radial Champiro Winterpro 215/60 R16 99H XL um €65,17 (statt: €65,93) bei ReifenSuche.com
02.09.2014, 15:59 -1.92% GT-Radial Champiro Winterpro 225/55 R16 95H um €68,85 (statt: €70,20) bei ReifenSuche.com
02.09.2014, 15:59 -0.55% GT-Radial Maxmiler CX 175/80 R14 99/98R um €52,67 (statt: €52,96) bei ReifenSuche.com
02.09.2014, 15:59 -2.61% GT-Radial Maxmiler CX 165/80 R13 94/92R um €47,77 (statt: €49,05) bei ReifenSuche.com
02.09.2014, 15:59 -0.64% GT-Radial Maxmiler CX 175/75 R16 101/99R um €58,74 (statt: €59,12) bei ReifenSuche.com
02.09.2014, 15:59 -7.23% Apollo Alnac 4G 195/50 R16 88V XL um €68,60 (statt: €73,95) bei ReifenSuche.com
02.09.2014, 15:59 -0.59% Apollo Alnac 4G 185/55 R15 82V um €49,10 (statt: €49,39) bei ReifenSuche.com
02.09.2014, 15:59 -3.00% Apollo Alnac 4G 205/60 R15 91H um €47,46 (statt: €48,93) bei ReifenSuche.com
02.09.2014, 15:59 -1.73% Apollo Alnac 4G 195/60 R15 88V um €48,92 (statt: €49,78) bei ReifenSuche.com
02.09.2014, 15:59 -3.12% Apollo Alnac 4G 195/60 R15 88H um €46,30 (statt: €47,79) bei ReifenSuche.com
02.09.2014, 15:59 -1.21% Apollo Alnac Winter 195/55 R16 87H um €62,68 (statt: €63,45) bei ReifenSuche.com
02.09.2014, 15:59 -0.62% Apollo Alnac Winter 195/55 R15 85H um €52,93 (statt: €53,26) bei ReifenSuche.com
02.09.2014, 15:59 -1.64% Apollo Alnac Winter 185/65 R15 88T um €40,82 (statt: €41,50) bei ReifenSuche.com
02.09.2014, 15:59 -0.76% Apollo Alnac Winter 175/70 R13 82T um €33,87 (statt: €34,13) bei ReifenSuche.com
02.09.2014, 15:59 -0.74% Apollo Alnac Winter 225/45 R17 94V XL um €60,42 (statt: €60,87) bei ReifenSuche.com
02.09.2014, 15:59 -4.01% Apollo Alnac Winter 215/55 R16 97H XL um €60,26 (statt: €62,78) bei ReifenSuche.com
02.09.2014, 15:59 -2.85% Apollo Aspire 4G 235/45 R17 97W XL um €77,75 (statt: €80,03) bei ReifenSuche.com
02.09.2014, 15:59 -2.23% Apollo Aspire 4G 225/55 R16 95W um €74,52 (statt: €76,22) bei ReifenSuche.com
02.09.2014, 15:59 -3.00% Apollo Hawkz R/Ts 235/65 R17 104S um €98,02 (statt: €101,05) bei ReifenSuche.com
02.09.2014, 15:59 -7.63% Apollo Acelere Winter 185/65 R14 86T um €35,84 (statt: €38,80) bei ReifenSuche.com
02.09.2014, 15:59 -2.23% Hankook Vantra LT RA18 215 R14 112/110Q um €76,26 (statt: €78,--) bei ReifenSuche.com
02.09.2014, 15:59 -0.96% Hankook Kinergy eco K425 195/55 R15 85V um €68,30 (statt: €68,96) bei ReifenSuche.com
02.09.2014, 15:59 -1.93% Hankook Ventus S1 evo² K117 205/60 R16 92W um €75,65 (statt: €77,14) bei ReifenSuche.com
02.09.2014, 15:59 -1.08% Hankook Optimo 4S H730 215/60 R16 95V um €96,43 (statt: €97,48) bei ReifenSuche.com
02.09.2014, 15:59 -1.50% Hankook Ventus Prime2 K115 185/55 R15 82H um €57,89 (statt: €58,77) bei ReifenSuche.com
02.09.2014, 15:59 -0.85% Hankook Ventus Prime2 K115 195/50 R15 82V um €43,11 (statt: €43,48) bei ReifenSuche.com
02.09.2014, 15:59 -1.71% Hankook Dynapro HP 225/65 R17 102H um €105,22 (statt: €107,05) bei ReifenSuche.com
02.09.2014, 15:59 -3.77% Hankook Dynapro HP 225/65 R16 104T XL um €91,28 (statt: €94,86) bei ReifenSuche.com
02.09.2014, 15:59 -7.07% Hankook Radial RA08 195 R15 106/104R um €50,83 (statt: €54,70) bei ReifenSuche.com
02.09.2014, 15:59 -6.16% Hankook Radial RA08 195/75 R14 106/104Q um €58,93 (statt: €62,80) bei ReifenSuche.com
02.09.2014, 15:59 -1.09% Hankook Ventus S1 evo K107 305/25 R20 97Y XL um €230,75 (statt: €233,30) bei ReifenSuche.com
02.09.2014, 15:59 -0.59% Hankook Ventus S1 evo K107 255/40 R19 100Y XL um €177,75 (statt: €178,80) bei ReifenSuche.com
02.09.2014, 15:59 -1.32% Hankook Optimo K715 175/65 R14 82T um €37,99 (statt: €38,50) bei ReifenSuche.com
02.09.2014, 15:59 -1.55% Hankook Ventus R-S2 225/45 R17 94Y XL um €107,58 (statt: €109,27) bei ReifenSuche.com
02.09.2014, 15:59 -1.65% Hankook Ventus R-S2 205/55 R16 91W um €74,73 (statt: €75,98) bei ReifenSuche.com
02.09.2014, 15:59 -1.68% Hankook Ventus R-S2 205/50 R15 86W um €86,01 (statt: €87,48) bei ReifenSuche.com
02.09.2014, 15:59 -9.14% Hankook Dynapro HP 215/70 R16 100H um €80,86 (statt: €88,99) bei ReifenSuche.com
02.09.2014, 15:59 -0.77% Hankook Radial RA08 215/75 R14 112/110Q um €73,29 (statt: €73,86) bei ReifenSuche.com
02.09.2014, 15:59 -3.07% Nexen Winguard SUV 255/55 R18 109V XL um €82,20 (statt: €84,80) bei ReifenSuche.com
02.09.2014, 15:59 -1.05% Nexen Winguard SUV 235/75 R15 109T XL um €66,-- (statt: €66,70) bei ReifenSuche.com
02.09.2014, 15:59 -1.09% Nexen Roadian HP 285/50 R20 116V XL um €122,90 (statt: €124,25) bei ReifenSuche.com
02.09.2014, 15:59 -1.10% Nexen Roadian HP 285/45 R22 114V XL um €147,76 (statt: €149,40) bei ReifenSuche.com
02.09.2014, 15:59 -1.16% Nexen Roadian HP 305/40 R22 114V XL um €136,01 (statt: €137,60) bei ReifenSuche.com
02.09.2014, 15:59 -1.22% Nexen N'Fera SU1 245/35 R18 92Y um €99,42 (statt: €100,65) bei ReifenSuche.com
02.09.2014, 15:59 -3.53% Nexen NPriz 4S 225/55 R16 95H um €58,80 (statt: €60,95) bei ReifenSuche.com
02.09.2014, 15:59 -1.36% Nexen Winguard Snow G (WH1) 165/70 R14 85T XL um €32,75 (statt: €33,20) bei ReifenSuche.com
02.09.2014, 15:59 -1.87% Nexen Winguard Snow G (WH1) 185/55 R16 87T XL um €46,30 (statt: €47,18) bei ReifenSuche.com
02.09.2014, 15:59 -2.08% Nexen Winguard Snow G (WH1) 195/55 R15 85H um €46,03 (statt: €47,01) bei ReifenSuche.com
02.09.2014, 15:59 -2.90% Nexen Winguard Snow G (WH1) 175/65 R14 86T XL um €34,87 (statt: €35,91) bei ReifenSuche.com
02.09.2014, 15:59 -1.62% Nexen Winguard Snow G (WH1) 175/65 R14 82T um €32,20 (statt: €32,73) bei ReifenSuche.com
02.09.2014, 15:59 -1.62% Nexen N'blue HD 215/60 R15 94H um €49,29 (statt: €50,10) bei ReifenSuche.com
02.09.2014, 15:59 -1.15% Nexen N'blue HD 205/65 R16 95H um €55,66 (statt: €56,31) bei ReifenSuche.com
02.09.2014, 15:59 -0.57% Nexen N'blue HD 195/55 R15 85V um €48,99 (statt: €49,27) bei ReifenSuche.com
02.09.2014, 15:59 -1.63% Nexen Winguard Sport 195/60 R15 88H um €41,03 (statt: €41,71) bei ReifenSuche.com
02.09.2014, 15:59 -0.94% Nexen Winguard 255/65 R16 106T um €85,67 (statt: €86,48) bei ReifenSuche.com
02.09.2014, 15:59 -3.05% Nexen Winguard 205/65 R15 99S XL um €47,64 (statt: €49,14) bei ReifenSuche.com
02.09.2014, 15:59 -2.03% Nexen Winguard 205/65 R15 94T um €49,19 (statt: €50,21) bei ReifenSuche.com
02.09.2014, 15:59 -0.79% Nexen Roadian MT 235/85 R16 120/116Q um €113,59 (statt: €114,50) bei ReifenSuche.com
02.09.2014, 15:59 -1.97% Nexen Roadian 542 245/70 R17 110H um €94,93 (statt: €96,84) bei ReifenSuche.com
02.09.2014, 15:59 -2.10% Vredestein Ultrac SUV Sessanta 255/55 R19 111Y XL um €133,91 (statt: €136,78) bei ReifenSuche.com
02.09.2014, 15:59 -7.44% Vredestein Sportrac 5 215/55 R16 97V XL um €83,52 (statt: €90,23) bei ReifenSuche.com
02.09.2014, 15:59 +1.38% Vredestein Wintrac Nextreme SUV 295/40 R20 110Y XL um €227,80 (statt: €224,70) bei ReifenSuche.com
02.09.2014, 15:59 -1.25% Vredestein Hi-Trac 2 175/50 R16 81H XL um €79,08 (statt: €80,08) bei ReifenSuche.com
02.09.2014, 15:59 -1.30% Vredestein Ultrac Cento 215/55 R16 97Y XL um €87,92 (statt: €89,08) bei ReifenSuche.com
02.09.2014, 15:59 -1.60% Vredestein Sportrac 3 205/60 R16 92V um €89,44 (statt: €90,89) bei ReifenSuche.com
02.09.2014, 15:59 -1.13% Vredestein Ultrac Sessanta 285/25 R20 93Y XL um €193,87 (statt: €196,09) bei ReifenSuche.com
02.09.2014, 15:59 -0.54% Vredestein Sprint Classic 165 R15 86H um €90,60 (statt: €91,09) bei ReifenSuche.com
02.09.2014, 15:59 -3.40% Vredestein Comtrac 205/65 R15 102T um €87,14 (statt: €90,21) bei ReifenSuche.com
02.09.2014, 15:59 -2.49% Vredestein T-Trac 165/65 R14 79T um €39,49 (statt: €40,50) bei ReifenSuche.com
02.09.2014, 15:59 -2.82% Vredestein T-Trac 175/65 R13 80T um €41,64 (statt: €42,85) bei ReifenSuche.com
02.09.2014, 15:59 -0.76% Lassa Transway 195/75 R16 107/105R um €68,85 (statt: €69,38) bei ReifenSuche.com
02.09.2014, 15:59 -3.39% Petlas Snow Master W651 195/50 R15 82H um €41,04 (statt: €42,48) bei ReifenSuche.com
02.09.2014, 15:59 -2.10% Marangoni Meteo HP SUV 275/40 R20 106W XL um €119,53 (statt: €122,10) bei ReifenSuche.com
02.09.2014, 15:59 -3.86% Marangoni M-Power SUV 255/50 R19 107W XL um €157,28 (statt: €163,60) bei ReifenSuche.com
02.09.2014, 15:59 -0.92% Marangoni Meteo HP SUV 215/60 R17 100H XL um €78,27 (statt: €79,--) bei ReifenSuche.com
02.09.2014, 15:59 -1.85% Marangoni E-Comm 195/65 R16 104/102T um €57,91 (statt: €59,--) bei ReifenSuche.com
02.09.2014, 15:59 -2.97% Marangoni 4 Winter 175/70 R13 82T um €38,87 (statt: €40,06) bei ReifenSuche.com
02.09.2014, 15:59 -5.24% Marangoni E-Logic 175/70 R14 88T XL um €43,58 (statt: €45,99) bei ReifenSuche.com
02.09.2014, 15:59 -8.55% Marangoni E-Logic 165/70 R13 79T um €42,25 (statt: €46,20) bei ReifenSuche.com
02.09.2014, 15:59 -2.31% Marangoni E-Logic 175/65 R14 82T um €34,31 (statt: €35,12) bei ReifenSuche.com
02.09.2014, 15:59 -2.44% Marangoni 4 Winter 185/65 R14 86T um €42,80 (statt: €43,87) bei ReifenSuche.com
02.09.2014, 15:59 -3.02% Marangoni Meteo HP 195/60 R15 88T um €47,15 (statt: €48,62) bei ReifenSuche.com
02.09.2014, 15:59 -1.02% Marangoni Meteo HP 225/55 R17 101V XL um €89,44 (statt: €90,36) bei ReifenSuche.com
02.09.2014, 15:59 -1.64% Pirelli Scorpion Winter 235/55 R19 105H um €181,37 (statt: €184,40) bei ReifenSuche.com
02.09.2014, 15:59 -4.55% Pirelli Winter Sottozero Serie II 245/40 R18 93V Runflat um €167,89 (statt: €175,90) bei ReifenSuche.com
02.09.2014, 15:59 -1.23% Pirelli Winter Sottozero Serie II 245/45 R18 100V um €195,01 (statt: €197,43) bei ReifenSuche.com
02.09.2014, 15:59 -1.72% Pirelli Cinturato P1 195/55 R16 87V um €76,57 (statt: €77,91) bei ReifenSuche.com
02.09.2014, 15:59 -2.55% Pirelli Chrono 195/80 R14 106R um €73,38 (statt: €75,30) bei ReifenSuche.com
02.09.2014, 15:59 -0.74% Pirelli Scorpion Ice&Snow 235/55 R19 105H um €175,12 (statt: €176,42) bei ReifenSuche.com
02.09.2014, 15:59 -4.02% Pirelli Winter Sottozero Serie II 245/40 R18 97H XL um €131,11 (statt: €136,60) bei ReifenSuche.com
02.09.2014, 15:59 -1.01% Pirelli Cinturato P1 195/50 R16 84H um €77,18 (statt: €77,97) bei ReifenSuche.com
02.09.2014, 15:59 -3.60% Pirelli Cinturato P1 165/65 R15 81T um €53,90 (statt: €55,91) bei ReifenSuche.com
02.09.2014, 15:59 -2.33% Ceat Formula 185/55 R15 82V um €62,11 (statt: €63,59) bei ReifenSuche.com
02.09.2014, 15:59 -2.19% Ceat Formula 185/65 R15 88H um €56,84 (statt: €58,11) bei ReifenSuche.com
02.09.2014, 15:59 -1.85% Ceat Formula 175/70 R14 84T um €42,01 (statt: €42,80) bei ReifenSuche.com
02.09.2014, 15:59 -0.80% Ceat Formula 165/65 R14 79T um €34,90 (statt: €35,18) bei ReifenSuche.com
02.09.2014, 15:59 -1.54% Pirelli PZero 225/40 R19 89Y Runflat um €194,85 (statt: €197,90) bei ReifenSuche.com
02.09.2014, 15:59 -2.61% Ceat Formula 225/45 R17 94W um €80,98 (statt: €83,15) bei ReifenSuche.com
02.09.2014, 15:59 -2.26% Ceat Formula 195/65 R15 91V um €50,22 (statt: €51,38) bei ReifenSuche.com
02.09.2014, 15:59 -1.52% Ceat Formula 195/65 R15 91H um €49,11 (statt: €49,87) bei ReifenSuche.com
02.09.2014, 15:59 -2.05% Ceat Formula 195/65 R15 91T um €47,28 (statt: €48,27) bei ReifenSuche.com
02.09.2014, 15:59 -1.55% Ceat Formula 175/70 R13 82T um €36,12 (statt: €36,69) bei ReifenSuche.com
02.09.2014, 15:59 -10.84% Pirelli Cinturato P6 215/65 R15 96H um €86,85 (statt: €97,41) bei ReifenSuche.com
02.09.2014, 15:59 -0.75% Pirelli PZero 305/30 ZR20 99Y um €248,17 (statt: €250,04) bei ReifenSuche.com
02.09.2014, 15:59 -0.93% Pirelli Winter Sottozero Serie II 275/40 R19 105V XL um €256,72 (statt: €259,12) bei ReifenSuche.com
02.09.2014, 15:59 -4.17% Pirelli PZero 275/35 ZR21 103Y XL um €322,94 (statt: €337,--) bei ReifenSuche.com
02.09.2014, 15:59 +10.18% Metzeler Racetec K2 Interact 180/55 ZR17 73W TL um €131,66 (statt: €119,50) bei ReifenSuche.com
02.09.2014, 15:59 -1.49% Pirelli PZero Nero 305/30 ZR20 99Y um €256,-- (statt: €259,86) bei ReifenSuche.com
02.09.2014, 15:59 -12.88% Pirelli Night Dragon 140/75 R17 67V TL um €108,98 (statt: €125,09) bei ReifenSuche.com
02.09.2014, 15:59 -0.75% Metzeler Sportec M3 190/55 ZR17 75W TL um €111,85 (statt: €112,70) bei ReifenSuche.com
02.09.2014, 15:59 -2.43% Pirelli PZero Nero 295/25 ZR20 XL um €237,-- (statt: €242,90) bei ReifenSuche.com
02.09.2014, 15:59 -7.87% Pirelli PZero Nero 275/30 ZR20 97Y XL um €239,75 (statt: €260,23) bei ReifenSuche.com
02.09.2014, 15:59 -1.19% Pirelli Scorpion Ice&Snow 265/55 R19 109V um €239,34 (statt: €242,22) bei ReifenSuche.com
02.09.2014, 15:59 -1.55% Pirelli PZero Nero 215/35 ZR19 85Y XL um €163,36 (statt: €165,93) bei ReifenSuche.com
02.09.2014, 15:59 -3.49% Pirelli Scorpion Ice&Snow 285/45 R19 107V um €243,88 (statt: €252,70) bei ReifenSuche.com
02.09.2014, 15:59 -8.51% Pirelli Chrono 215/65 R16C 109R um €90,69 (statt: €99,13) bei ReifenSuche.com
02.09.2014, 15:59 -0.78% Pirelli Winter Sottozero 265/35 R20 99V um €370,13 (statt: €373,03) bei ReifenSuche.com
02.09.2014, 15:59 -1.77% Pirelli Scorpion Zero Asimmetrico 305/35 ZR24 112W XL um €266,61 (statt: €271,42) bei ReifenSuche.com
02.09.2014, 15:59 -4.76% Pirelli PZero Rosso 245/35 ZR18 92Y XL um €138,47 (statt: €145,39) bei ReifenSuche.com
02.09.2014, 15:59 -0.71% Pirelli PZero Nero 265/30 ZR22 97Y XL um €281,03 (statt: €283,03) bei ReifenSuche.com
02.09.2014, 15:59 -1.28% Pirelli Scorpion Zero Asimmetrico 305/40 ZR22 114W XL um €191,68 (statt: €194,16) bei ReifenSuche.com
02.09.2014, 15:59 -2.73% Pirelli Winter Carving 185/70 R14 88T um €50,50 (statt: €51,92) bei ReifenSuche.com
02.09.2014, 15:59 -3.46% Pirelli Scorpion Ice&Snow 255/60 R17 106H um €139,69 (statt: €144,70) bei ReifenSuche.com
02.09.2014, 15:59 -3.15% Pirelli PZero Nero 255/30 ZR20 92Y XL um €189,21 (statt: €195,36) bei ReifenSuche.com
02.09.2014, 15:59 -1.65% Pirelli Scorpion STR 265/70 R16 112H um €114,57 (statt: €116,49) bei ReifenSuche.com
02.09.2014, 15:59 -0.98% Pirelli PZero Rosso SUV 315/35 ZR20 106Y um €282,61 (statt: €285,41) bei ReifenSuche.com
02.09.2014, 15:59 -0.75% Pirelli PZero System 225/50 ZR16 um €136,45 (statt: €137,48) bei ReifenSuche.com
02.09.2014, 15:59 -0.91% Ceat Spider 175/65 R13 80T um €41,16 (statt: €41,54) bei ReifenSuche.com
02.09.2014, 15:59 -4.30% Ovation Tires V-02 215/75 R16 116/114R um €64,31 (statt: €67,20) bei ReifenSuche.com
02.09.2014, 15:59 -3.32% Ovation Tires V-02 195/75 R16 107/105R um €53,59 (statt: €55,43) bei ReifenSuche.com
02.09.2014, 15:59 -2.19% Ovation Tires V-02 225/70 R15 112/110R um €60,64 (statt: €62,--) bei ReifenSuche.com
02.09.2014, 15:59 -1.50% Ovation Tires V-02 195/70 R15 104/102R um €52,01 (statt: €52,80) bei ReifenSuche.com
02.09.2014, 15:59 -0.54% Ovation Tires V-02 235/65 R16 115/113T um €66,76 (statt: €67,12) bei ReifenSuche.com
02.09.2014, 15:59 -0.63% Ovation Tires V-02 195/65 R16 104/102T um €53,28 (statt: €53,62) bei ReifenSuche.com
02.09.2014, 15:59 -7.55% Ovation Tires V-02 185/80 R14 102/100R um €47,15 (statt: €51,--) bei ReifenSuche.com
02.09.2014, 15:59 -4.29% Ovation Tires V-02 165 R13 94/92R um €38,57 (statt: €40,30) bei ReifenSuche.com
02.09.2014, 15:59 -8.06% Ovation Tires V-02 155 R13 90/88Q um €34,90 (statt: €37,96) bei ReifenSuche.com
02.09.2014, 15:59 -0.94% Nexen CP661 175/65 R14 86T XL um €32,83 (statt: €33,14) bei ReifenSuche.com
02.09.2014, 15:59 -4.19% Nexen N'blue ECO 175/60 R16 82H um €34,28 (statt: €35,78) bei ReifenSuche.com
02.09.2014, 15:59 -4.34% GT-Radial Champiro VP1 175/65 R15 84H um €43,16 (statt: €45,12) bei ReifenSuche.com
02.09.2014, 15:59 -1.51% GT-Radial Champiro VP1 195/50 R15 82V um €41,76 (statt: €42,40) bei ReifenSuche.com
02.09.2014, 15:59 -3.67% GT-Radial Champiro VP1 145/70 R13 71T um €30,73 (statt: €31,90) bei ReifenSuche.com
02.09.2014, 15:59 -0.99% GT-Radial Champiro VP1 205/55 R16 91V um €50,22 (statt: €50,72) bei ReifenSuche.com
02.09.2014, 15:59 -4.53% GT-Radial Champiro UHP1 255/45 ZR18 103W um €105,99 (statt: €111,02) bei ReifenSuche.com
02.09.2014, 15:59 -3.69% GT-Radial Champiro UHP1 255/40 ZR19 96W um €117,75 (statt: €122,26) bei ReifenSuche.com
02.09.2014, 15:59 -4.10% GT-Radial Champiro UHP1 225/45 ZR18 95W um €89,32 (statt: €93,14) bei ReifenSuche.com
02.09.2014, 15:59 -1.88% GT-Radial Champiro UHP1 215/50 ZR17 95W um €77,62 (statt: €79,11) bei ReifenSuche.com
02.09.2014, 15:59 -2.47% GT-Radial Champiro UHP1 225/50 ZR16 96W um €69,22 (statt: €70,97) bei ReifenSuche.com
02.09.2014, 15:59 -2.76% GT-Radial Champiro UHP1 195/55 R16 91V XL um €53,16 (statt: €54,67) bei ReifenSuche.com
02.09.2014, 15:59 -5.93% GT-Radial Champiro VP1 175/65 R14 82T um €37,29 (statt: €39,64) bei ReifenSuche.com
02.09.2014, 15:59 -5.62% GT-Radial Champiro VP1 225/60 R16 98H um €63,46 (statt: €67,24) bei ReifenSuche.com
02.09.2014, 15:59 -6.13% GT-Radial Champiro UHP1 215/40 R17 87W um €68,24 (statt: €72,70) bei ReifenSuche.com
02.09.2014, 15:59 -1.76% GT-Radial Champiro UHP1 245/45 ZR17 99W um €76,52 (statt: €77,89) bei ReifenSuche.com
02.09.2014, 15:59 -5.59% GT-Radial Champiro UHP1 245/40 R17 91W um €74,49 (statt: €78,90) bei ReifenSuche.com
02.09.2014, 15:59 -9.41% GT-Radial Champiro UHP1 205/45 R16 87W um €58,31 (statt: €64,37) bei ReifenSuche.com
02.09.2014, 15:59 -5.90% GT-Radial Champiro UHP1 205/50 R16 91W um €58,06 (statt: €61,70) bei ReifenSuche.com
02.09.2014, 15:59 -4.98% GT-Radial Champiro UHP1 205/50 R17 93W um €71,79 (statt: €75,55) bei ReifenSuche.com
02.09.2014, 15:59 -1.17% GT-Radial Champiro UHP1 195/55 R15 85V um €53,90 (statt: €54,54) bei ReifenSuche.com
02.09.2014, 15:59 -1.72% GT-Radial Champiro UHP1 215/55 ZR16 97W um €66,15 (statt: €67,31) bei ReifenSuche.com
02.09.2014, 15:59 -4.10% GT-Radial Champiro UHP1 225/45 ZR17 94W um €63,21 (statt: €65,91) bei ReifenSuche.com
02.09.2014, 15:59 -5.58% GT-Radial Savero HT Plus 225/70 R16 103T um €70,07 (statt: €74,21) bei ReifenSuche.com
02.09.2014, 15:59 -0.88% GT-Radial Champiro 228 225/60 R16 98V um €67,38 (statt: €67,98) bei ReifenSuche.com
02.09.2014, 15:59 -0.97% GT-Radial Champiro 228 215/55 R16 93V um €61,98 (statt: €62,59) bei ReifenSuche.com
02.09.2014, 15:59 -4.34% GT-Radial Champiro 228 205/50 R16 87V um €59,12 (statt: €61,80) bei ReifenSuche.com
02.09.2014, 15:59 -1.82% GT-Radial Champiro 228 235/55 R17 99H um €92,44 (statt: €94,15) bei ReifenSuche.com
02.09.2014, 15:59 -2.57% GT-Radial Adventuro M/T 235/75 R15 104/101S LT um €88,-- (statt: €90,32) bei ReifenSuche.com
02.09.2014, 15:59 -1.73% GT-Radial Savero WT 225/70 R16 103T um €75,96 (statt: €77,30) bei ReifenSuche.com
02.09.2014, 15:59 -1.74% GT-Radial Savero HT Plus 225/75 R16 115/112R LT um €83,43 (statt: €84,91) bei ReifenSuche.com
02.09.2014, 15:59 -3.23% GT-Radial Adventuro A/T 235/75 R15 105S um €80,80 (statt: €83,50) bei ReifenSuche.com
02.09.2014, 15:59 -2.23% GT-Radial Savero WT 265/70 R17 115T um €136,38 (statt: €139,49) bei ReifenSuche.com
02.09.2014, 15:59 -2.09% GT-Radial Savero HT Plus 235/65 R18 104T um €88,21 (statt: €90,09) bei ReifenSuche.com
02.09.2014, 15:59 -2.05% GT-Radial Savero HT Plus 265/70 R16 112T um €91,59 (statt: €93,51) bei ReifenSuche.com
02.09.2014, 15:59 -3.98% GT-Radial Champiro UHP1 215/55 ZR17 94W um €74,07 (statt: €77,14) bei ReifenSuche.com
02.09.2014, 15:59 -6.28% GT-Radial Champiro VP1 215/65 R16 98T um €56,84 (statt: €60,65) bei ReifenSuche.com
02.09.2014, 15:59 -0.83% GT-Radial Champiro UHP1 245/45 ZR18 100W um €101,45 (statt: €102,30) bei ReifenSuche.com
02.09.2014, 15:59 -0.99% GT-Radial Champiro UHP1 245/40 ZR18 97W um €94,22 (statt: €95,16) bei ReifenSuche.com
02.09.2014, 15:59 -3.49% GT-Radial Champiro UHP1 225/50 ZR17 98W um €81,96 (statt: €84,92) bei ReifenSuche.com
02.09.2014, 15:59 -2.78% GT-Radial Champiro UHP1 235/45 ZR17 97W um €69,71 (statt: €71,70) bei ReifenSuche.com
02.09.2014, 15:59 -1.63% GT-Radial Champiro 328 265/30 ZR19 93W um €136,24 (statt: €138,50) bei ReifenSuche.com
02.09.2014, 15:59 -1.34% GT-Radial Kargomax ST-4000 155/80 R13 84N um €36,70 (statt: €37,20) bei ReifenSuche.com
02.09.2014, 15:59 -5.30% Nokian zLine 225/50 R17 94W Flat Run um €124,99 (statt: €131,99) bei ReifenSuche.com
02.09.2014, 15:59 -0.64% Nokian zLine 245/45 ZR18 100Y XL um €119,32 (statt: €120,09) bei ReifenSuche.com
02.09.2014, 15:59 -0.85% Nokian zLine 235/45 ZR17 97Y XL um €88,68 (statt: €89,44) bei ReifenSuche.com
02.09.2014, 15:59 -1.29% Nokian Rotiiva AT 275/65 R18 116T um €159,31 (statt: €161,40) bei ReifenSuche.com
02.09.2014, 15:59 -1.77% Nokian Rotiiva AT 245/70 R17 119/116S um €147,54 (statt: €150,20) bei ReifenSuche.com
02.09.2014, 15:59 -1.01% Nokian Line 195/50 R16 88V XL um €84,61 (statt: €85,47) bei ReifenSuche.com
02.09.2014, 15:59 -6.45% Nokian Line 195/65 R15 95H XL um €47,15 (statt: €50,40) bei ReifenSuche.com
02.09.2014, 15:59 -0.71% Nokian Rotiiva AT 265/70 R18 124/121S um €177,24 (statt: €178,50) bei ReifenSuche.com
02.09.2014, 15:59 -2.41% Nokian Rotiiva AT 31x10.5 R15 109S um €106,23 (statt: €108,85) bei ReifenSuche.com
02.09.2014, 15:59 -1.00% Nordexx Tamaro 215/75 R16 113/111R um €57,34 (statt: €57,92) bei ReifenSuche.com
02.09.2014, 15:59 -3.04% Nordexx Tamaro 205/65 R15 102/100R um €55,46 (statt: €57,20) bei ReifenSuche.com
02.09.2014, 15:59 -1.00% Nordexx Tamaro 195/75 R16 107/105R um €56,69 (statt: €57,26) bei ReifenSuche.com
02.09.2014, 15:59 -4.03% Goodyear EfficientGrip 215/55 R16 97H um €109,69 (statt: €114,30) bei ReifenSuche.com
02.09.2014, 15:59 -2.47% Goodyear Cargo G24 195/80 R14 106/104P um €75,34 (statt: €77,25) bei ReifenSuche.com
02.09.2014, 15:59 -2.97% Goodyear OptiGrip 205/50 R16 87V um €71,75 (statt: €73,95) bei ReifenSuche.com
02.09.2014, 15:59 -0.79% Goodyear Wrangler AT/SA 245/75 R15 109S um €90,42 (statt: €91,14) bei ReifenSuche.com
02.09.2014, 15:59 -0.52% Goodyear Eagle F1 Asymmetric 295/30 R20 101Y XL um €155,79 (statt: €156,60) bei ReifenSuche.com
02.09.2014, 15:59 -0.56% Goodyear Wrangler HP All Weather 275/65 R17 115H um €146,18 (statt: €147,--) bei ReifenSuche.com
02.09.2014, 15:59 -4.05% Goodyear Excellence 215/55 R17 94W um €101,70 (statt: €105,99) bei ReifenSuche.com
02.09.2014, 15:59 -1.73% Goodyear Eagle F1 Supercar 285/35 ZR19 90Y um €336,71 (statt: €342,65) bei ReifenSuche.com
02.09.2014, 15:59 -1.11% Goodyear EfficientGrip Performance 195/60 R16 89V um €95,20 (statt: €96,27) bei ReifenSuche.com
02.09.2014, 15:59 -0.64% Sava intensa uhp 245/40 R18 97Y XL um €117,88 (statt: €118,64) bei ReifenSuche.com
02.09.2014, 15:59 -1.16% Sava perfecta 185/70 R14 88T um €37,35 (statt: €37,79) bei ReifenSuche.com
02.09.2014, 15:59 -1.20% Sava perfecta 165/70 R14 81T um €31,22 (statt: €31,60) bei ReifenSuche.com
02.09.2014, 15:59 -3.60% Sava Trenta 215/75 R16 113Q um €84,11 (statt: €87,25) bei ReifenSuche.com
02.09.2014, 15:59 -2.30% Debica Presto 205/60 R16 92H um €60,82 (statt: €62,25) bei ReifenSuche.com
02.09.2014, 15:59 -3.87% Goodyear EfficientGrip 255/40 R18 95Y um €187,50 (statt: €195,05) bei ReifenSuche.com
02.09.2014, 15:59 -0.51% Goodyear Eagle F1 Asymmetric 285/40 R19 103Y um €211,47 (statt: €212,55) bei ReifenSuche.com
02.09.2014, 15:59 -4.88% Goodyear EfficientGrip SUV 235/55 R17 99V um €130,50 (statt: €137,20) bei ReifenSuche.com
02.09.2014, 15:59 -0.92% Goodyear Excellence SUV 255/50 R19 107W XL um €262,88 (statt: €265,33) bei ReifenSuche.com
02.09.2014, 15:59 -1.17% Goodyear Eagle F1 Asymmetric 2 275/35 R19 96Y um €208,95 (statt: €211,43) bei ReifenSuche.com
02.09.2014, 15:59 -0.78% Goodyear Eagle F1 Asymmetric 2 265/40 R18 101Y um €161,14 (statt: €162,40) bei ReifenSuche.com
02.09.2014, 15:59 -1.07% Fulda 4x4 Road 275/65 R17 115H um €97,47 (statt: €98,52) bei ReifenSuche.com
02.09.2014, 15:59 -0.87% Fulda 4x4 Road 255/65 R17 110H um €121,93 (statt: €123,--) bei ReifenSuche.com
02.09.2014, 15:59 -1.78% Fulda 4x4 Road 255/55 R18 109V um €125,23 (statt: €127,50) bei ReifenSuche.com
02.09.2014, 15:59 -2.15% Toyo Proxes T1 Sport 225/35 ZR18 87Y XL um €104,76 (statt: €107,06) bei ReifenSuche.com
02.09.2014, 15:59 -1.82% Toyo Proxes T1 Sport 235/40 ZR18 95Y XL um €105,37 (statt: €107,32) bei ReifenSuche.com
02.09.2014, 15:59 -1.25% Toyo Proxes C1S 225/50 ZR17 98W XL um €95,05 (statt: €96,25) bei ReifenSuche.com
02.09.2014, 15:59 -0.93% Toyo Open Country A/T 235/70 R15 102S um €77,44 (statt: €78,17) bei ReifenSuche.com
02.09.2014, 15:59 -0.87% Toyo Open Country A/T 225/70 R15 100T um €70,99 (statt: €71,61) bei ReifenSuche.com
02.09.2014, 15:59 -2.25% Toyo Proxes NE 145/65 R15 72T um €40,41 (statt: €41,34) bei ReifenSuche.com
02.09.2014, 15:59 -0.78% Toyo Proxes C1S 225/50 R16 96W XL um €77,80 (statt: €78,41) bei ReifenSuche.com
02.09.2014, 15:59 -0.54% Toyo Proxes T1-R 305/30 ZR20 103Y XL um €306,-- (statt: €307,66) bei ReifenSuche.com
02.09.2014, 15:59 -1.91% Toyo Proxes T1-R 235/50 ZR16 95W um €132,92 (statt: €135,51) bei ReifenSuche.com
02.09.2014, 15:59 -1.81% Toyo Open Country W/T 275/55 R17 109H um €138,16 (statt: €140,70) bei ReifenSuche.com
02.09.2014, 15:59 -0.82% Toyo Proxes CF1 225/55 R17 101W XL um €116,55 (statt: €117,51) bei ReifenSuche.com
02.09.2014, 15:59 -3.83% Toyo Proxes T1-R 215/50 ZR17 91Y um €80,25 (statt: €83,45) bei ReifenSuche.com
02.09.2014, 15:59 -8.34% Toyo Proxes T1-R 265/35 ZR18 97Y um €141,53 (statt: €154,40) bei ReifenSuche.com
02.09.2014, 15:59 -1.86% Toyo Proxes R32 225/45 R17 90W um €75,81 (statt: €77,25) bei ReifenSuche.com
02.09.2014, 15:59 -3.56% Toyo Proxes S/T 245/70 R16 107V um €85,16 (statt: €88,30) bei ReifenSuche.com
02.09.2014, 15:59 -0.53% Toyo Proxes CF1 225/60 ZR15 96W um €85,68 (statt: €86,14) bei ReifenSuche.com
02.09.2014, 15:59 -1.02% Toyo Open Country A/T 235/75 R15 104/101S um €91,-- (statt: €91,94) bei ReifenSuche.com
02.09.2014, 15:59 -0.72% Toyo Proxes CF1 185/65 R14 86V um €58,90 (statt: €59,33) bei ReifenSuche.com
02.09.2014, 15:59 -0.78% Toyo Proxes CF1 185/60 R14 82H um €39,19 (statt: €39,50) bei ReifenSuche.com
02.09.2014, 15:59 -17.38% Toyo Proxes T1 Sport 275/35 ZR19 100Y XL um €150,11 (statt: €181,69) bei ReifenSuche.com
02.09.2014, 15:59 -1.06% Toyo Proxes T1 Sport SUV 255/55 R19 111V XL um €116,58 (statt: €117,83) bei ReifenSuche.com
02.09.2014, 15:59 -6.75% Toyo Snowprox S953 225/60 R17 99V um €96,50 (statt: €103,49) bei ReifenSuche.com
02.09.2014, 15:59 -8.21% Toyo Proxes T1-R 245/35 ZR18 88Y um €118,24 (statt: €128,81) bei ReifenSuche.com
02.09.2014, 15:59 -1.81% Toyo Proxes T1-R 225/45 ZR16 93W XL um €100,35 (statt: €102,20) bei ReifenSuche.com
02.09.2014, 15:59 -1.68% Toyo Proxes T1-R 295/25 ZR21 96Y XL um €229,78 (statt: €233,70) bei ReifenSuche.com
02.09.2014, 15:59 -1.69% Toyo Proxes T1-R 245/40 ZR17 95Y um €116,31 (statt: €118,31) bei ReifenSuche.com
02.09.2014, 15:59 -3.55% Toyo Proxes T1-R 235/50 ZR18 101Y XL um €176,70 (statt: €183,20) bei ReifenSuche.com
02.09.2014, 15:59 -2.12% Yokohama Geolandar SUV G055 215/65 R16 98H um €77,70 (statt: €79,38) bei ReifenSuche.com
02.09.2014, 15:59 -1.88% Yokohama Advan Sport V105+ 225/45 R17 91W MO um €81,35 (statt: €82,91) bei ReifenSuche.com
02.09.2014, 15:59 -3.81% Yokohama C.drive2 AC02 205/65 R15 99H XL um €71,73 (statt: €74,57) bei ReifenSuche.com
02.09.2014, 15:59 -1.33% Yokohama W.drive V902A 235/60 R17 102H M+S um €107,26 (statt: €108,71) bei ReifenSuche.com
02.09.2014, 15:59 -1.37% Yokohama Geolandar H/T-S G051 255/60 R18 112V RF M+S um €130,95 (statt: €132,77) bei ReifenSuche.com
02.09.2014, 15:59 -0.87% Yokohama W.drive V902A 205/45 R17 88V RF M+S um €91,89 (statt: €92,70) bei ReifenSuche.com
02.09.2014, 15:59 -2.29% Yokohama A.drive AA01 205/55 R16 91H um €49,99 (statt: €51,16) bei ReifenSuche.com
02.09.2014, 15:59 -0.57% Yokohama A.drive AA01 205/65 R15 94H um €69,22 (statt: €69,62) bei ReifenSuche.com
02.09.2014, 15:59 -0.80% Yokohama Advan S.T. V802 285/55 R18 113W um €186,90 (statt: €188,40) bei ReifenSuche.com
02.09.2014, 15:59 -5.20% Nankang ECO-2 195/55 R16 87V um €50,83 (statt: €53,62) bei ReifenSuche.com
02.09.2014, 15:59 -9.85% Nankang ECO-2 225/60 R16 98V um €60,58 (statt: €67,20) bei ReifenSuche.com
02.09.2014, 15:59 -0.78% Nankang ECO-2 215/55 R17 98V XL um €62,35 (statt: €62,84) bei ReifenSuche.com
02.09.2014, 15:59 -2.34% Nankang XR-611 195/65 R15 95H XL um €47,15 (statt: €48,28) bei ReifenSuche.com
02.09.2014, 15:59 -2.23% Nankang XR-611 225/60 R16 98V um €60,02 (statt: €61,39) bei ReifenSuche.com
02.09.2014, 15:59 -0.77% Nankang XR-611 235/60 R16 100V um €64,62 (statt: €65,12) bei ReifenSuche.com
02.09.2014, 15:59 -0.80% Falken WILDPEAK A/T AT01 215/70 R16 100T um €63,44 (statt: €63,95) bei ReifenSuche.com
02.09.2014, 15:59 -5.31% Falken Ziex ZE912 225/55 R18 98H um €110,12 (statt: €116,30) bei ReifenSuche.com
02.09.2014, 15:59 -1.82% Falken Ziex ZE912 195/45 R17 85W XL um €80,51 (statt: €82,--) bei ReifenSuche.com
02.09.2014, 15:59 -2.12% Falken Ziex ZE912 215/45 ZR18 93W XL um €113,34 (statt: €115,80) bei ReifenSuche.com
02.09.2014, 15:59 -2.32% Falken Ziex ZE912 205/65 R15 94H um €50,21 (statt: €51,40) bei ReifenSuche.com
02.09.2014, 15:59 -1.00% Matador MP 92 Sibir Snow SUV 235/70 R16 106T um €82,17 (statt: €83,--) bei ReifenSuche.com
02.09.2014, 15:59 -0.64% Matador MPS 530 Sibir Snow Van 185 R14 102/100Q um €52,38 (statt: €52,72) bei ReifenSuche.com
02.09.2014, 15:59 -4.30% Matador MP 92 Sibir Snow SUV 225/70 R16 103T um €78,18 (statt: €81,69) bei ReifenSuche.com
02.09.2014, 15:59 -1.99% Matador MP 92 Sibir Snow SUV 205/70 R15 96H um €66,34 (statt: €67,69) bei ReifenSuche.com
02.09.2014, 15:59 -2.64% Matador MPS 330 Maxilla 2 205/75 R16 110/108R um €75,65 (statt: €77,70) bei ReifenSuche.com
02.09.2014, 15:59 -1.52% Matador MPS 330 Maxilla 2 165/70 R14 89/87R um €50,03 (statt: €50,80) bei ReifenSuche.com
02.09.2014, 15:59 -2.17% Matador MPS 330 Maxilla 2 215/75 R16 113/111R um €79,83 (statt: €81,60) bei ReifenSuche.com
02.09.2014, 15:59 -1.52% Matador MPS 330 Maxilla 2 175/65 R14 90/88T um €51,82 (statt: €52,62) bei ReifenSuche.com
02.09.2014, 15:59 -2.70% Matador MPS 320 Maxilla 195/65 R16 104/102R um €68,11 (statt: €70,--) bei ReifenSuche.com
02.09.2014, 15:59 -2.22% Matador MP 81 Conquerra 255/55 R18 109V XL um €93,47 (statt: €95,59) bei ReifenSuche.com
02.09.2014, 15:59 -3.94% Matador MPS 320 Maxilla 205/65 R15 102/100T um €68,30 (statt: €71,10) bei ReifenSuche.com
02.09.2014, 15:59 -3.58% Dunlop Sportmax Roadsmart G 160/60 ZR17 69W TL um €137,-- (statt: €142,09) bei ReifenSuche.com
02.09.2014, 15:59 -1.25% Dunlop SP Sport Maxx TT 215/55 ZR17 94Y um €131,63 (statt: €133,30) bei ReifenSuche.com
02.09.2014, 15:59 -2.50% Dunlop Sportmax Qualifier II 120/60 ZR17 55W TL um €88,24 (statt: €90,50) bei ReifenSuche.com
02.09.2014, 15:59 -0.52% Dunlop Trailmax TR91 110/80 R19 59V TL um €92,02 (statt: €92,50) bei ReifenSuche.com
02.09.2014, 15:59 -3.51% Dunlop SP Sport FastResponse 185/55 R15 82H um €71,46 (statt: €74,06) bei ReifenSuche.com
02.09.2014, 15:59 -1.19% Dunlop SP Sport Maxx 235/50 R19 99V um €165,91 (statt: €167,90) bei ReifenSuche.com
02.09.2014, 15:59 -11.79% Dunlop SP Sport FastResponse 195/55 R15 85H um €87,33 (statt: €99,--) bei ReifenSuche.com
02.09.2014, 15:59 -0.64% Dunlop Grandtrek SJ6 275/70 R16 114Q um €147,51 (statt: €148,46) bei ReifenSuche.com
02.09.2014, 15:59 -0.50% Dunlop SP Winter Sport 3D 265/45 R18 101V um €215,48 (statt: €216,57) bei ReifenSuche.com
02.09.2014, 15:59 -3.46% General Tire Grabber AT 235/85 R16 120/116S um €106,97 (statt: €110,80) bei ReifenSuche.com
02.09.2014, 15:59 -4.96% General Tire Grabber GT 205/70 R15 96H um €63,58 (statt: €66,90) bei ReifenSuche.com
02.09.2014, 15:59 -1.13% General Tire Grabber GT 275/45 R20 110Y um €135,85 (statt: €137,40) bei ReifenSuche.com
02.09.2014, 15:59 -5.07% General Tire Grabber GT 255/60 R18 112V um €106,80 (statt: €112,50) bei ReifenSuche.com
02.09.2014, 15:59 -3.52% General Tire Grabber GT 235/60 R18 107W um €119,35 (statt: €123,70) bei ReifenSuche.com
02.09.2014, 15:59 -5.46% General Tire Grabber GT 225/65 R17 102V um €88,21 (statt: €93,30) bei ReifenSuche.com
02.09.2014, 15:59 -4.21% General Tire Grabber GT 235/60 R16 100V um €82,09 (statt: €85,70) bei ReifenSuche.com
02.09.2014, 15:59 -0.85% General Tire Grabber GT 215/65 R16 98H um €68,66 (statt: €69,25) bei ReifenSuche.com
02.09.2014, 15:59 -2.68% General Tire Grabber GT 195/80 R15 96H um €68,16 (statt: €70,04) bei ReifenSuche.com
02.09.2014, 15:59 -5.81% General Tire Altimax RT 195/65 R15 91T um €37,30 (statt: €39,60) bei ReifenSuche.com
02.09.2014, 15:59 -1.26% General Tire Altimax HP/UHP 205/60 R16 92V um €59,72 (statt: €60,48) bei ReifenSuche.com
02.09.2014, 15:59 -2.26% General Tire Eurovan 2 225/65 R16 112/110R um €88,78 (statt: €90,83) bei ReifenSuche.com
02.09.2014, 15:59 -6.45% General Tire Eurovan 2 185/75 R16 104/102R um €61,09 (statt: €65,30) bei ReifenSuche.com
02.09.2014, 15:59 -2.25% General Tire Eurovan 2 195 R14 106/104Q um €60,02 (statt: €61,40) bei ReifenSuche.com
02.09.2014, 15:59 -3.11% General Tire Eurovan 2 235/65 R16 115/113R um €95,47 (statt: €98,53) bei ReifenSuche.com
02.09.2014, 15:59 -1.77% General Tire Eurovan 2 195/75 R16 107/105R um €59,41 (statt: €60,48) bei ReifenSuche.com
02.09.2014, 15:59 -4.42% General Tire Eurovan 2 225/70 R15 112/110R um €68,63 (statt: €71,80) bei ReifenSuche.com
02.09.2014, 15:59 -5.39% General Tire Grabber AT 235/75 R15 109S um €82,05 (statt: €86,72) bei ReifenSuche.com
02.09.2014, 15:59 -1.81% General Tire Grabber AT 265/70 R17 121/118Q um €145,52 (statt: €148,21) bei ReifenSuche.com
02.09.2014, 15:59 -5.86% General Tire Grabber AT 265/75 R16 123/120Q um €114,57 (statt: €121,70) bei ReifenSuche.com
02.09.2014, 15:59 -1.80% General Tire Grabber AT 275/40 R20 106H um €146,50 (statt: €149,19) bei ReifenSuche.com
02.09.2014, 15:59 -0.78% General Tire Grabber AT 275/45 R20 110H um €160,98 (statt: €162,24) bei ReifenSuche.com
02.09.2014, 15:59 -4.03% General Tire Grabber AT 215/70 R16 100T um €89,44 (statt: €93,20) bei ReifenSuche.com
02.09.2014, 15:59 -4.16% General Tire Grabber AT 225/75 R15 102S um €83,19 (statt: €86,80) bei ReifenSuche.com
02.09.2014, 15:59 -6.99% General Tire Altimax HP/UHP 225/55 R16 95V um €65,11 (statt: €70,--) bei ReifenSuche.com
02.09.2014, 15:59 -6.53% General Tire Altimax HP/UHP 175/60 R15 81H um €50,10 (statt: €53,60) bei ReifenSuche.com
02.09.2014, 15:59 -3.78% General Tire Altimax HP/UHP 255/35 R19 96Y um €97,41 (statt: €101,24) bei ReifenSuche.com
02.09.2014, 15:59 -5.93% General Tire Altimax HP/UHP 245/40 R17 91W um €70,74 (statt: €75,20) bei ReifenSuche.com
02.09.2014, 15:59 -3.57% General Tire Altimax HP/UHP 225/50 R17 98W um €84,84 (statt: €87,98) bei ReifenSuche.com
02.09.2014, 15:59 -1.56% General Tire Altimax HP/UHP 235/35 R19 91Y um €84,54 (statt: €85,88) bei ReifenSuche.com
02.09.2014, 15:59 -1.05% General Tire Snow Grabber 245/70 R16 107T um €95,99 (statt: €97,01) bei ReifenSuche.com
02.09.2014, 15:59 -0.57% General Tire Snow Grabber 225/70 R16 102T um €86,18 (statt: €86,67) bei ReifenSuche.com
02.09.2014, 15:59 -1.36% General Tire Snow Grabber 225/65 R17 102H um €109,84 (statt: €111,35) bei ReifenSuche.com
02.09.2014, 15:59 -0.86% General Tire Altimax HP/UHP 205/50 R16 87H um €50,62 (statt: €51,06) bei ReifenSuche.com
02.09.2014, 15:59 -1.14% General Tire Altimax HP/UHP 225/55 R16 95W um €67,40 (statt: €68,18) bei ReifenSuche.com
02.09.2014, 15:59 -1.24% General Tire Altimax HP/UHP 215/55 R16 93W um €76,63 (statt: €77,59) bei ReifenSuche.com
02.09.2014, 15:59 -1.12% General Tire Altimax HP/UHP 205/60 R15 91H um €47,46 (statt: €48,--) bei ReifenSuche.com
02.09.2014, 15:59 -2.54% General Tire Altimax HP/UHP 205/55 R16 91H um €46,78 (statt: €48,--) bei ReifenSuche.com
02.09.2014, 15:59 -0.98% General Tire Altimax HP/UHP 205/50 R16 87W um €57,87 (statt: €58,44) bei ReifenSuche.com
02.09.2014, 15:59 -2.56% General Tire Altimax HP/UHP 195/65 R15 91V um €41,15 (statt: €42,23) bei ReifenSuche.com
02.09.2014, 15:59 -0.62% General Tire Altimax HP/UHP 195/60 R14 86H um €39,96 (statt: €40,21) bei ReifenSuche.com
02.09.2014, 15:59 -0.99% General Tire Altimax HP/UHP 185/55 R14 80H um €45,02 (statt: €45,47) bei ReifenSuche.com
02.09.2014, 15:59 -1.09% General Tire Grabber AT2 315/75 R16 121Q um €165,48 (statt: €167,30) bei ReifenSuche.com
02.09.2014, 15:59 -1.89% General Tire Grabber TR 235/85 R16 120/116Q um €124,74 (statt: €127,14) bei ReifenSuche.com
02.09.2014, 15:59 -1.93% General Tire Grabber TR 225/70 R16 102H um €97,28 (statt: €99,19) bei ReifenSuche.com
02.09.2014, 15:59 -4.18% General Tire Grabber TR 215/80 R15 102T um €80,49 (statt: €84,--) bei ReifenSuche.com
02.09.2014, 15:59 -2.81% General Tire Eurovan 2 175/75 R16 101/99R um €57,47 (statt: €59,13) bei ReifenSuche.com
02.09.2014, 15:59 -1.08% Uniroyal RainSport 2 205/50 R17 89Y FR um €96,92 (statt: €97,98) bei ReifenSuche.com
02.09.2014, 15:59 -4.43% Uniroyal RainSport 2 245/40 ZR19 98Y XL FR um €148,89 (statt: €155,79) bei ReifenSuche.com
02.09.2014, 15:59 -1.51% Uniroyal RainSport 2 225/55 ZR17 97W um €105,85 (statt: €107,47) bei ReifenSuche.com
02.09.2014, 15:59 -1.94% Uniroyal RainSport 2 195/45 R16 84V XL FR um €70,10 (statt: €71,49) bei ReifenSuche.com
02.09.2014, 15:59 -0.54% Uniroyal MS plus 66 195/65 R15 91H um €49,61 (statt: €49,88) bei ReifenSuche.com
02.09.2014, 15:59 -2.25% Uniroyal MS plus 66 175/65 R15 84T um €76,43 (statt: €78,19) bei ReifenSuche.com
02.09.2014, 15:59 -5.29% Semperit Speed-Life 215/40 ZR17 87W XL FR um €99,07 (statt: €104,60) bei ReifenSuche.com
02.09.2014, 15:59 -2.42% Semperit Van-Grip 175/65 R14 90/88T um €68,60 (statt: €70,30) bei ReifenSuche.com
02.09.2014, 15:59 -1.56% Barum SnoVanis 2 215/75 R16 113/111R um €102,42 (statt: €104,04) bei ReifenSuche.com
02.09.2014, 15:59 -0.57% Barum Vanis 2 215/75 R16 113/111R um €85,15 (statt: €85,64) bei ReifenSuche.com
02.09.2014, 15:59 -0.77% Barum Brillantis 2 175/70 R13 82H um €43,95 (statt: €44,29) bei ReifenSuche.com
02.09.2014, 15:59 -0.73% Barum Brillantis 2 175/60 R14 79H um €47,55 (statt: €47,90) bei ReifenSuche.com
02.09.2014, 15:59 -1.98% Barum Bravuris 4x4 235/60 R18 107V XL FR um €109,68 (statt: €111,90) bei ReifenSuche.com
02.09.2014, 15:59 -5.64% Barum SnoVanis 205/65 R16 107/105T um €92,38 (statt: €97,90) bei ReifenSuche.com
02.09.2014, 15:59 -1.62% Barum SnoVanis 225/70 R15 112/110R um €86,87 (statt: €88,30) bei ReifenSuche.com
02.09.2014, 15:59 -1.51% Continental ContiEcoContact 5 235/55 R19 105V um €165,56 (statt: €168,10) bei ReifenSuche.com
02.09.2014, 15:59 -1.58% Continental ContiSportContact 5 255/40 R21 102Y XL FR um €295,05 (statt: €299,80) bei ReifenSuche.com
02.09.2014, 15:59 -0.54% Continental ContiSportContact 5 255/40 R20 101Y XL FR um €216,20 (statt: €217,38) bei ReifenSuche.com
02.09.2014, 15:59 -1.66% Continental ContiTrailAttack 110/80 R19 59V TL um €82,46 (statt: €83,85) bei ReifenSuche.com
02.09.2014, 15:59 -1.50% Continental ContiSportContact 5P 235/35 ZR19 XL FR MO um €151,-- (statt: €153,30) bei ReifenSuche.com
02.09.2014, 15:59 -1.17% Continental ContiRoadAttack 2 190/55 ZR17 75W TL um €127,-- (statt: €128,50) bei ReifenSuche.com
02.09.2014, 15:59 -1.38% Continental ContiRoadAttack 2 160/60 ZR18 70W TL um €123,57 (statt: €125,30) bei ReifenSuche.com
02.09.2014, 15:59 -0.54% Continental ContiRoadAttack 2 150/70 R17 69V TL um €110,-- (statt: €110,60) bei ReifenSuche.com
02.09.2014, 15:59 -0.69% Continental ContiTrailAttack 150/70 R17 69V TL um €79,24 (statt: €79,79) bei ReifenSuche.com
02.09.2014, 15:59 -4.37% Sportiva Snow Win 205/60 R15 91H um €62,16 (statt: €65,--) bei ReifenSuche.com
02.09.2014, 15:59 -1.16% Continental ContiCrossContact LX 255/60 R17 106H um €114,57 (statt: €115,91) bei ReifenSuche.com
02.09.2014, 15:59 -4.17% Continental ContiCrossContact LX 225/70 R16 102H um €96,79 (statt: €101,--) bei ReifenSuche.com
02.09.2014, 15:59 -5.61% BFGoodrich g-Force Profiler 245/40 R17 91Y um €128,66 (statt: €136,30) bei ReifenSuche.com
02.09.2014, 15:59 -0.65% Michelin Pilot Sport PS2 335/25 ZR20 94Y ZP um €411,-- (statt: €413,70) bei ReifenSuche.com
02.09.2014, 15:59 -0.79% Kormoran Snowpro b2 185/70 R14 88T um €40,34 (statt: €40,66) bei ReifenSuche.com
02.09.2014, 15:59 -1.90% BFGoodrich g-Grip 205/50 R16 87W um €74,85 (statt: €76,30) bei ReifenSuche.com
02.09.2014, 15:59 -1.13% Kleber Krisalp HP2 225/55 R17 101H um €111,01 (statt: €112,28) bei ReifenSuche.com
02.09.2014, 15:59 -3.32% Kormoran Impulser B2 185/60 R14 82T um €37,04 (statt: €38,31) bei ReifenSuche.com
02.09.2014, 15:59 -1.26% Riken Snowtime B2 185/65 R14 86T um €36,82 (statt: €37,29) bei ReifenSuche.com
02.09.2014, 15:59 -0.74% BFGoodrich g-Grip 215/55 R16 97W um €100,75 (statt: €101,50) bei ReifenSuche.com
02.09.2014, 15:59 -0.60% Michelin Pilot Alpin PA2 265/35 R19 98W um €325,75 (statt: €327,71) bei ReifenSuche.com
02.09.2014, 15:59 -1.55% Michelin Agilis 205/65 R16 107T um €114,26 (statt: €116,06) bei ReifenSuche.com
02.09.2014, 15:59 -1.11% Kleber Dynaxer HP2 205/60 R16 92V um €78,65 (statt: €79,53) bei ReifenSuche.com
02.09.2014, 15:59 -1.90% BFGoodrich All Terrain T/A KO 33x12.50 R15 108R um €152,83 (statt: €155,79) bei ReifenSuche.com
02.09.2014, 15:59 -1.10% BFGoodrich g-Grip 205/45 R17 88V um €87,92 (statt: €88,90) bei ReifenSuche.com
02.09.2014, 15:59 -0.79% Michelin Energy Saver+ 185/55 R16 83H um €93,89 (statt: €94,64) bei ReifenSuche.com
02.09.2014, 15:59 -2.07% Michelin Energy Saver 195/65 R15 95T XL um €70,91 (statt: €72,41) bei ReifenSuche.com
02.09.2014, 15:59 -1.13% Michelin Agilis 215/75 R16 113R um €136,64 (statt: €138,20) bei ReifenSuche.com
02.09.2014, 15:59 -1.63% BFGoodrich g-Grip 225/50 R17 94V um €108,01 (statt: €109,80) bei ReifenSuche.com
02.09.2014, 15:59 -0.79% BFGoodrich g-Grip 215/50 R17 95W um €111,23 (statt: €112,12) bei ReifenSuche.com
02.09.2014, 15:59 -3.69% Michelin Pilot Activ 130/80 18 66V TL/TT um €87,73 (statt: €91,09) bei ReifenSuche.com
02.09.2014, 15:59 -0.90% Kleber Dynaxer HP3 205/50 R17 93Y XL um €95,57 (statt: €96,44) bei ReifenSuche.com
02.09.2014, 15:59 -0.53% Michelin Pilot Super Sport 285/30 R21 100Y um €298,20 (statt: €299,80) bei ReifenSuche.com
02.09.2014, 15:59 -0.85% Michelin Pilot Activ 110/90 18 61V TL/TT um €81,29 (statt: €81,99) bei ReifenSuche.com
02.09.2014, 15:59 -0.62% Kleber Transpro 195/65 R16 104/102R um €81,19 (statt: €81,70) bei ReifenSuche.com
02.09.2014, 15:59 -9.98% Kleber Dynaxer HP3 225/50 R16 92V um €96,05 (statt: €106,70) bei ReifenSuche.com
02.09.2014, 15:59 -2.53% BFGoodrich g-Grip 225/50 R17 98W um €111,50 (statt: €114,40) bei ReifenSuche.com
02.09.2014, 15:59 -0.98% BFGoodrich g-Grip 225/50 R17 94W um €109,32 (statt: €110,40) bei ReifenSuche.com
02.09.2014, 15:59 -3.93% Michelin Latitude Tour 205/65 R15 94T um €65,-- (statt: €67,66) bei ReifenSuche.com
02.09.2014, 15:59 -0.86% BFGoodrich Winter Slalom KSI 245/70 R16 107S um €113,75 (statt: €114,74) bei ReifenSuche.com
02.09.2014, 15:59 -0.52% Riken Maystorm 2 B2 205/65 R15 94H um €47,64 (statt: €47,89) bei ReifenSuche.com
02.09.2014, 15:59 -16.98% Michelin Energy E3A 195/60 R14 86H um €67,75 (statt: €81,61) bei ReifenSuche.com
02.09.2014, 15:59 -2.57% Michelin Energy Saver 175/70 R14 88T XL um €89,-- (statt: €91,35) bei ReifenSuche.com
02.09.2014, 15:59 -2.14% BFGoodrich g-Grip 195/50 R15 82V um €44,82 (statt: €45,80) bei ReifenSuche.com
02.09.2014, 15:59 -1.42% BFGoodrich g-Grip 215/45 R17 87V um €84,67 (statt: €85,89) bei ReifenSuche.com
02.09.2014, 15:59 -1.42% Michelin Latitude Alpin 255/55 R18 109V XL um €150,96 (statt: €153,14) bei ReifenSuche.com
02.09.2014, 15:59 -0.75% Michelin Pilot Super Sport 225/35 ZR20 90Y um €184,89 (statt: €186,29) bei ReifenSuche.com
02.09.2014, 15:59 -20.79% BFGoodrich g-Force Profiler 235/60 R16 100W um €91,07 (statt: €114,98) bei ReifenSuche.com
02.09.2014, 15:59 -4.78% Kleber Hydraxer 225/55 R16 95V um €88,58 (statt: €93,03) bei ReifenSuche.com
02.09.2014, 15:59 -5.33% Kormoran Impulser B2 175/65 R14 82T um €33,06 (statt: €34,92) bei ReifenSuche.com
02.09.2014, 15:59 -2.80% Kormoran Gamma b2 225/40 R18 92Y um €64,29 (statt: €66,14) bei ReifenSuche.com
02.09.2014, 15:59 -1.22% BFGoodrich g-Grip 245/45 R17 95Y um €113,30 (statt: €114,70) bei ReifenSuche.com
02.09.2014, 15:59 -1.86% Kleber Dynaxer HP2 185/55 R14 80H um €59,46 (statt: €60,59) bei ReifenSuche.com
02.09.2014, 15:59 -2.50% BFGoodrich g-Grip 205/45 R16 83W um €80,10 (statt: €82,15) bei ReifenSuche.com
02.09.2014, 15:59 -0.95% Michelin Pilot Activ 130/90 17 68V TL/TT um €94,-- (statt: €94,90) bei ReifenSuche.com
02.09.2014, 15:59 -0.79% BFGoodrich All Terrain T/A KO 295/75 R16 123/120R um €173,11 (statt: €174,49) bei ReifenSuche.com
02.09.2014, 15:59 -1.75% Michelin Agilis 215/65 R16 109T um €138,43 (statt: €140,90) bei ReifenSuche.com
02.09.2014, 15:59 -1.78% Michelin Pilot Sport Cup+ 325/30 ZR19 101Y N2 um €365,58 (statt: €372,20) bei ReifenSuche.com
02.09.2014, 15:59 -4.74% Michelin Latitude Alpin 215/60 R17 96T um €132,70 (statt: €139,30) bei ReifenSuche.com
02.09.2014, 15:59 -0.97% Riken Maystorm 2 B2 205/60 R15 91V um €43,73 (statt: €44,16) bei ReifenSuche.com
02.09.2014, 15:59 -0.55% Kormoran Snowpro 175/80 R14 88T um €37,89 (statt: €38,10) bei ReifenSuche.com
02.09.2014, 15:59 -1.13% Kormoran Snowpro 145/80 R13 75Q um €27,91 (statt: €28,23) bei ReifenSuche.com
02.09.2014, 15:59 -1.52% Riken Snowtime 195/60 R15 88T um €40,90 (statt: €41,53) bei ReifenSuche.com
02.09.2014, 15:59 -1.20% Riken Snowtime 175/70 R14 84T um €33,06 (statt: €33,46) bei ReifenSuche.com
02.09.2014, 15:59 -4.70% Riken Snowtime 175/80 R14 88T um €33,06 (statt: €34,69) bei ReifenSuche.com
02.09.2014, 15:59 -1.08% BFGoodrich g-Grip 195/50 R15 82H um €48,32 (statt: €48,85) bei ReifenSuche.com
02.09.2014, 15:59 -1.18% Kleber Hydraxer 235/40 R18 95Y um €108,-- (statt: €109,29) bei ReifenSuche.com
02.09.2014, 15:59 -0.92% BFGoodrich g-Grip 225/45 R17 91W um €76,79 (statt: €77,50) bei ReifenSuche.com
02.09.2014, 15:59 -1.88% BFGoodrich Long Trail T/A Tour 265/65 R17 110T um €131,48 (statt: €134,--) bei ReifenSuche.com
02.09.2014, 15:59 -0.55% Riken Snowtime B2 155/70 R13 75Q um €29,19 (statt: €29,35) bei ReifenSuche.com
02.09.2014, 15:59 -2.10% Michelin Agilis 185/75 R16 104R um €103,29 (statt: €105,51) bei ReifenSuche.com
02.09.2014, 15:59 -0.65% Riken Allstar 2 165/80 R13 83T um €32,12 (statt: €32,33) bei ReifenSuche.com
02.09.2014, 15:59 -2.66% Riken Snowtime 145/70 R13 71Q um €26,68 (statt: €27,41) bei ReifenSuche.com
02.09.2014, 15:59 -14.38% Michelin Primacy HP 215/55 R16 93Y um €141,42 (statt: €165,17) bei ReifenSuche.com
02.09.2014, 15:59 -6.87% Riken Allstar 2 185/60 R14 82T um €38,88 (statt: €41,75) bei ReifenSuche.com
02.09.2014, 15:59 -2.26% BFGoodrich g-Grip 195/45 R15 78V um €55,32 (statt: €56,60) bei ReifenSuche.com
02.09.2014, 15:59 -2.17% Bridgestone Dueler H/P Sport 255/60 R17 106H um €115,34 (statt: €117,90) bei ReifenSuche.com
02.09.2014, 15:59 -2.44% Firestone Vanhawk 175/75 R16 101/99R um €70,44 (statt: €72,20) bei ReifenSuche.com
02.09.2014, 15:59 -1.60% Bridgestone Potenza RE050 225/45 R17 91Y um €88,83 (statt: €90,27) bei ReifenSuche.com
02.09.2014, 15:59 -1.29% Bridgestone Ecopia EP150 195/55 R15 85H um €75,61 (statt: €76,60) bei ReifenSuche.com
02.09.2014, 15:59 -1.14% Bridgestone Ecopia EP150 195/60 R15 88H um €59,66 (statt: €60,35) bei ReifenSuche.com
02.09.2014, 15:59 -0.85% Bridgestone Potenza S001 275/35 R20 102Y XL um €211,77 (statt: €213,59) bei ReifenSuche.com
02.09.2014, 15:59 -5.53% Bridgestone Ecopia EP150 225/45 R17 91W um €85,68 (statt: €90,70) bei ReifenSuche.com
02.09.2014, 15:59 -3.97% Bridgestone Turanza T001 205/55 R17 95V um €112,24 (statt: €116,88) bei ReifenSuche.com
02.09.2014, 15:59 -1.64% Bridgestone Ecopia EP150 175/65 R14 86T XL um €52,94 (statt: €53,82) bei ReifenSuche.com
02.09.2014, 15:59 -2.12% Bridgestone Ecopia EP150 205/50 R17 89W um €114,25 (statt: €116,72) bei ReifenSuche.com
02.09.2014, 15:59 -1.40% Bridgestone Ecopia EP150 205/50 R17 93V XL um €126,55 (statt: €128,35) bei ReifenSuche.com
02.09.2014, 15:59 -1.66% Bridgestone Turanza T001 195/45 R16 80V um €69,92 (statt: €71,10) bei ReifenSuche.com
02.09.2014, 15:59 -2.63% Bridgestone Potenza Adrenalin RE002 205/50 R15 86W um €74,12 (statt: €76,12) bei ReifenSuche.com
02.09.2014, 15:59 -3.00% Bridgestone Blizzak LM-80 235/60 R18 107V XL um €147,35 (statt: €151,90) bei ReifenSuche.com
02.09.2014, 15:59 -1.01% Bridgestone Dueler H/P Sport 225/55 R17 97W um €120,63 (statt: €121,86) bei ReifenSuche.com
02.09.2014, 15:59 -1.05% Bridgestone Potenza RE050A 265/35 R19 98Y XL um €209,30 (statt: €211,53) bei ReifenSuche.com
02.09.2014, 15:59 -1.58% Firestone Winterhawk 2V EVO 205/55 R16 94V XL um €64,80 (statt: €65,84) bei ReifenSuche.com
02.09.2014, 15:59 -0.92% Firestone Winterhawk 2 EVO 205/55 R16 91T um €60,27 (statt: €60,83) bei ReifenSuche.com
02.09.2014, 15:59 -2.86% Firestone Winterhawk 2 EVO 195/55 R15 85H um €54,39 (statt: €55,99) bei ReifenSuche.com
02.09.2014, 15:59 -1.03% Firestone Winterhawk 2 EVO 195/60 R15 88T um €47,28 (statt: €47,77) bei ReifenSuche.com
02.09.2014, 15:59 -0.97% Firestone Winterhawk 2 EVO 165/70 R14 81T um €39,68 (statt: €40,07) bei ReifenSuche.com
02.09.2014, 15:59 -3.84% Bridgestone Weather Control A001 195/60 R15 88H um €68,16 (statt: €70,88) bei ReifenSuche.com
02.09.2014, 15:59 -1.29% Bridgestone Turanza ER300 195/55 R16 87H um €74,73 (statt: €75,71) bei ReifenSuche.com
02.09.2014, 15:59 -0.66% Firestone Firehawk SZ90µ 255/35 R18 94Y XL um €126,63 (statt: €127,47) bei ReifenSuche.com
02.09.2014, 15:59 -0.68% Bridgestone Blizzak LM-35 225/50 R16 96V XL um €120,45 (statt: €121,28) bei ReifenSuche.com
02.09.2014, 15:59 -0.99% Bridgestone Potenza RE050A 225/40 R19 89W um €206,79 (statt: €208,85) bei ReifenSuche.com
02.09.2014, 15:59 -2.04% Bridgestone Dueler H/P Sport 215/65 R16 98H um €80,48 (statt: €82,16) bei ReifenSuche.com
02.09.2014, 15:59 -1.42% Dunlop Sport BluResponse 195/60 R15 88H um €56,96 (statt: €57,78) bei ReifenSuche.com
02.09.2014, 15:59 -7.52% Dunlop Sport Maxx Race 245/35 ZR19 93Y XL um €314,60 (statt: €340,20) bei ReifenSuche.com
02.09.2014, 15:59 -0.56% Dunlop SP Sport Maxx GT 255/30 R20 92Y XL um €197,91 (statt: €199,02) bei ReifenSuche.com
02.09.2014, 15:59 -0.74% Dunlop SP Sport Maxx GT 275/35 ZR21 103Y um €258,55 (statt: €260,47) bei ReifenSuche.com
02.09.2014, 15:59 -1.65% Cooper Zeon XSTa 235/55 R18 100V um €109,17 (statt: €111,--) bei ReifenSuche.com
02.09.2014, 15:59 -1.01% Cooper Zeon XSTa 235/55 R17 99V um €104,53 (statt: €105,60) bei ReifenSuche.com
02.09.2014, 15:59 -2.00% Avon Ranger TSE 205/70 R15 96T um €69,73 (statt: €71,15) bei ReifenSuche.com
02.09.2014, 15:59 -1.88% Cooper Zeon 4XS 285/45 R19 107V um €142,30 (statt: €145,03) bei ReifenSuche.com
02.09.2014, 15:59 -0.60% Avon Cobra AV71 150/80 R17 72V TL um €135,01 (statt: €135,83) bei ReifenSuche.com
02.09.2014, 15:59 -3.01% Avon Cobra AV71 120/70 ZR19 60W TL um €128,21 (statt: €132,19) bei ReifenSuche.com
02.09.2014, 15:59 -2.23% Cooper Zeon XTC 205/65 R15 94H um €73,82 (statt: €75,50) bei ReifenSuche.com
02.09.2014, 15:59 -0.64% Cooper Discoverer ATR 215/70 R16 100S um €62,11 (statt: €62,51) bei ReifenSuche.com
02.09.2014, 15:59 -1.27% Cooper Discoverer STT 285/70 R17 121/118Q um €162,96 (statt: €165,05) bei ReifenSuche.com
02.09.2014, 15:59 -1.50% Cooper Discoverer M+S 245/70 R17 119/116Q um €117,83 (statt: €119,63) bei ReifenSuche.com
02.09.2014, 15:59 -0.61% Avon Ranger 235/60 R16 100H um €85,87 (statt: €86,40) bei ReifenSuche.com
02.09.2014, 15:59 -1.02% Avon Ranger 255/65 R16 109H um €91,59 (statt: €92,53) bei ReifenSuche.com
02.09.2014, 15:59 -2.97% Avon Ranger 275/70 R16 114H um €113,33 (statt: €116,80) bei ReifenSuche.com
02.09.2014, 15:59 -3.11% Avon Turbosteel 70 235/70 R15 101V um €141,56 (statt: €146,10) bei ReifenSuche.com
02.09.2014, 15:59 -0.76% Continental ContiCrossContact LX Sport 275/45 R21 111W XL um €252,41 (statt: €254,34) bei ReifenSuche.com
02.09.2014, 15:59 -2.26% Avon Vanmaster M+S 195/65 R16 104/102R um €75,36 (statt: €77,10) bei ReifenSuche.com
02.09.2014, 15:59 -0.66% Achilles Winter 101 225/40 R18 92V um €65,17 (statt: €65,60) bei ReifenSuche.com
02.09.2014, 15:59 -3.64% Achilles Winter 101 215/60 R17 96H um €61,86 (statt: €64,20) bei ReifenSuche.com
02.09.2014, 15:59 -2.54% Achilles Winter 101 215/55 R18 95H um €61,86 (statt: €63,47) bei ReifenSuche.com
02.09.2014, 15:59 -1.79% Achilles Desert Hawk UHP 275/45 R20 110V um €81,23 (statt: €82,71) bei ReifenSuche.com
02.09.2014, 15:59 -7.37% Sailun Atrezzo SH402 165/70 R13 79T um €26,13 (statt: €28,21) bei ReifenSuche.com
02.09.2014, 15:59 -2.03% Sailun Atrezzo SH402 165/65 R13 77T um €29,44 (statt: €30,05) bei ReifenSuche.com
02.09.2014, 15:59 -2.18% Sailun Atrezzo SH402 155/80 R13 79T um €27,36 (statt: €27,97) bei ReifenSuche.com
02.09.2014, 15:59 -7.02% Hifly HF201 175/60 R13 77H um €32,45 (statt: €34,90) bei ReifenSuche.com
02.09.2014, 15:59 -6.64% Goodride SW608 205/55 R16 91H um €45,13 (statt: €48,34) bei ReifenSuche.com
02.09.2014, 15:59 -0.70% Federal 595EVO 205/45 R17 88Y um €56,59 (statt: €56,99) bei ReifenSuche.com
02.09.2014, 15:59 -3.65% Achilles LTR 80 195/80 R14 106/104Q um €58,-- (statt: €60,20) bei ReifenSuche.com
02.09.2014, 15:59 -0.57% Kumho Ecowing ES01 KH27 195/65 R15 91V um €43,59 (statt: €43,84) bei ReifenSuche.com
02.09.2014, 15:59 -1.37% Kumho Ecowing ES01 KH27 195/60 R15 88H um €48,17 (statt: €48,84) bei ReifenSuche.com
02.09.2014, 15:59 -1.47% Kumho Ecsta LE Sport KU39 215/40 R17 87Y XL um €78,20 (statt: €79,37) bei ReifenSuche.com
02.09.2014, 15:59 -1.63% Kumho Ecsta X3 KL17 275/40 R20 106Y XL um €172,45 (statt: €175,30) bei ReifenSuche.com
02.09.2014, 15:59 -1.67% Kumho Ecsta X3 KL17 255/55 R18 109W XL um €109,05 (statt: €110,90) bei ReifenSuche.com
02.09.2014, 15:59 -1.30% Kumho Ecsta X3 KL17 255/65 R17 110V um €116,47 (statt: €118,01) bei ReifenSuche.com
02.09.2014, 15:59 -0.68% Kumho Ecsta SPT KU31 225/55 R17 101W XL um €88,21 (statt: €88,81) bei ReifenSuche.com
02.09.2014, 15:59 -0.69% Kumho Ecsta SPT KU31 195/45 R15 78V um €54,32 (statt: €54,70) bei ReifenSuche.com
02.09.2014, 15:59 -1.11% Kumho Power Grip KC11 235/75 R15 104Q um €77,49 (statt: €78,36) bei ReifenSuche.com
02.09.2014, 15:59 -0.63% Kumho Power Grip KC11 31x10.50 R15 109Q LT um €114,87 (statt: €115,60) bei ReifenSuche.com
02.09.2014, 15:59 -0.76% Kumho Road Venture APT KL51 245/75 R16 120S LT um €107,68 (statt: €108,50) bei ReifenSuche.com
02.09.2014, 15:59 -1.76% Kumho Solus KH17 225/60 R15 96W um €67,99 (statt: €69,21) bei ReifenSuche.com
02.09.2014, 15:59 -0.79% Kumho Solus KH17 205/65 R16 95H um €67,84 (statt: €68,38) bei ReifenSuche.com
02.09.2014, 15:59 -0.70% Kumho Road Venture APT KL51 235/75 R15 104S LT um €79,78 (statt: €80,34) bei ReifenSuche.com
02.09.2014, 15:59 -3.40% Kumho Ecsta SPT KU31 255/40 R17 94W um €155,69 (statt: €161,17) bei ReifenSuche.com
02.09.2014, 15:59 -0.79% Kumho Ecsta SPT KU31 285/35 R19 99Y um €136,71 (statt: €137,80) bei ReifenSuche.com
02.09.2014, 15:59 -3.06% Kumho Road Venture MT KL71 35x12.50 R15 113Q LT um €168,68 (statt: €174,--) bei ReifenSuche.com
02.09.2014, 15:59 -1.24% Kumho Ecsta SPT KU31 215/55 R16 97W XL um €78,20 (statt: €79,18) bei ReifenSuche.com
02.09.2014, 15:59 -1.09% Kumho Road Venture MT KL71 215/75 R15 106Q LT um €96,85 (statt: €97,92) bei ReifenSuche.com
02.09.2014, 15:59 -1.00% Kumho Solus Vier KH21 145/80 R13 75T um €30,74 (statt: €31,05) bei ReifenSuche.com
02.09.2014, 15:59 -2.80% Kumho Solus Vier KH21 165/70 R14 81T um €37,48 (statt: €38,56) bei ReifenSuche.com
02.09.2014, 15:59 -2.76% Kumho Solus Vier KH21 205/60 R15 91V um €56,68 (statt: €58,29) bei ReifenSuche.com
02.09.2014, 15:59 -3.22% Kumho Solus Vier KH21 165/65 R14 79T um €37,26 (statt: €38,50) bei ReifenSuche.com
02.09.2014, 15:59 -0.67% Kumho Solus Vier KH21 185/60 R14 82H um €39,90 (statt: €40,17) bei ReifenSuche.com
02.09.2014, 15:59 -1.53% Kumho Solus Vier KH21 155/70 R13 75T um €30,28 (statt: €30,75) bei ReifenSuche.com
02.09.2014, 15:59 -3.14% Kumho Solus Vier KH21 175/65 R14 86T Reinforced um €40,11 (statt: €41,41) bei ReifenSuche.com
02.09.2014, 15:59 -1.19% Kumho Road Venture APT KL51 235/60 R17 102V um €100,-- (statt: €101,20) bei ReifenSuche.com
02.09.2014, 15:59 -1.42% Kumho Road Venture MT KL71 265/75 R16 119Q LT um €164,13 (statt: €166,50) bei ReifenSuche.com
02.09.2014, 15:59 -3.19% Kumho I`ZEN XW KW17 225/55 R17 97V um €89,44 (statt: €92,39) bei ReifenSuche.com
02.09.2014, 15:59 -3.14% Kumho Ecsta SPT KU31 245/35 R18 92Y XL um €101,70 (statt: €105,--) bei ReifenSuche.com
02.09.2014, 15:59 -0.60% Kumho Road Venture AT KL78 305/70 R16 124Q um €172,73 (statt: €173,78) bei ReifenSuche.com
02.09.2014, 15:59 -1.48% Kumho Road Venture AT KL78 225/75 R16 110Q um €96,06 (statt: €97,50) bei ReifenSuche.com
02.09.2014, 15:59 -2.27% Marshal Road Venture AT-KL78 205/80 R16 104S um €77,22 (statt: €79,01) bei ReifenSuche.com
02.09.2014, 15:59 -14.19% Kumho Road Venture AT KL78 215 R15 105S Reinforced um €79,63 (statt: €92,80) bei ReifenSuche.com
02.09.2014, 15:59 -3.37% Kumho Road Venture AT KL78 265/75 R16 112S um €109,-- (statt: €112,80) bei ReifenSuche.com
02.09.2014, 15:59 -1.73% Kumho Road Venture AT KL78 30x9.50 R15 104S um €103,68 (statt: €105,50) bei ReifenSuche.com
02.09.2014, 15:59 -1.86% Kumho Road Venture AT KL78 205/75 R15 97S um €75,10 (statt: €76,52) bei ReifenSuche.com
02.09.2014, 15:59 -1.42% Kumho Ecsta SPT KU31 215/50 R17 95W XL um €77,12 (statt: €78,23) bei ReifenSuche.com
02.09.2014, 15:59 -3.17% Kumho KW7400 165/80 R13 83Q um €37,85 (statt: €39,09) bei ReifenSuche.com
02.09.2014, 15:59 -2.91% Kumho KW7400 155/70 R13 75T um €29,70 (statt: €30,59) bei ReifenSuche.com
02.09.2014, 15:59 -1.45% Kumho Ecsta SPT KU31 235/40 R17 94Y um €75,32 (statt: €76,43) bei ReifenSuche.com
02.09.2014, 15:59 -1.83% Kumho Solus KH15 215/60 R16 95V um €76,63 (statt: €78,06) bei ReifenSuche.com
02.09.2014, 15:59 -0.82% Kumho Ecsta STX KL12 235/65 R17 104V um €97,84 (statt: €98,65) bei ReifenSuche.com
02.09.2014, 15:59 -1.23% Kumho Ecsta STX KL12 295/40 R20 106V um €181,34 (statt: €183,60) bei ReifenSuche.com
02.09.2014, 15:59 -2.47% Kumho Ecsta STX KL12 265/70 R15 112H um €115,23 (statt: €118,15) bei ReifenSuche.com
02.09.2014, 15:59 -1.21% Kumho Ecsta KH11 215/55 R16 93W um €74,38 (statt: €75,29) bei ReifenSuche.com
02.09.2014, 15:59 -2.35% Kumho Ecsta KH11 225/50 R17 94W um €96,92 (statt: €99,25) bei ReifenSuche.com
02.09.2014, 15:59 -2.12% Kumho Ecsta STX KL12 285/60 R18 116V um €129,68 (statt: €132,49) bei ReifenSuche.com
02.09.2014, 15:59 -8.73% Nexen N3000 255/35 ZR20 97Y XL um €85,46 (statt: €93,63) bei ReifenSuche.com
02.09.2014, 15:59 -1.33% Nexen CP641 235/55 R17 99V um €71,27 (statt: €72,23) bei ReifenSuche.com
02.09.2014, 15:59 -1.23% Nexen CP641 225/55 R16 95V um €59,55 (statt: €60,29) bei ReifenSuche.com
02.09.2014, 15:59 -0.70% Nexen N6000 205/40 ZR17 84W XL um €47,09 (statt: €47,42) bei ReifenSuche.com
02.09.2014, 15:59 -3.52% Nexen CP672a 215/55 R17 94V um €56,16 (statt: €58,21) bei ReifenSuche.com
02.09.2014, 15:59 -11.02% Nexen N3000 215/55 ZR16 97W XL um €57,19 (statt: €64,27) bei ReifenSuche.com
02.09.2014, 15:59 -0.97% Nexen N8000 195/55 ZR16 91V XL um €55,33 (statt: €55,87) bei ReifenSuche.com
02.09.2014, 15:59 -2.29% Nexen N3000 205/45 ZR16 87W XL um €49,48 (statt: €50,64) bei ReifenSuche.com
02.09.2014, 15:59 -2.72% Nexen CP641 205/60 R15 91V um €52,31 (statt: €53,77) bei ReifenSuche.com
02.09.2014, 15:59 -1.83% Nexen CP641 195/65 R15 91V um €42,97 (statt: €43,77) bei ReifenSuche.com
02.09.2014, 15:59 -1.36% Nexen N6000 215/50 ZR17 95W XL um €66,52 (statt: €67,44) bei ReifenSuche.com
02.09.2014, 15:59 -0.73% Nexen N8000 225/55 ZR16 99W XL um €65,11 (statt: €65,59) bei ReifenSuche.com
02.09.2014, 15:59 -1.02% Nexen N6000 225/55 ZR16 99W XL um €59,07 (statt: €59,68) bei ReifenSuche.com
02.09.2014, 15:59 -1.02% Nexen N6000 205/40 ZR16 83W XL um €59,19 (statt: €59,80) bei ReifenSuche.com
02.09.2014, 15:59 -0.67% Nexen CP641 215/55 R17 94V um €51,58 (statt: €51,93) bei ReifenSuche.com
02.09.2014, 15:59 -0.84% Nexen N6000 205/50 ZR17 93W XL um €67,38 (statt: €67,95) bei ReifenSuche.com
02.09.2014, 15:59 -1.24% Nexen N8000 235/45 ZR17 97W XL um €58,27 (statt: €59,--) bei ReifenSuche.com
02.09.2014, 15:59 -1.21% Nexen N8000 205/40 ZR17 84W XL um €56,29 (statt: €56,98) bei ReifenSuche.com
02.09.2014, 15:59 -6.50% Nexen N8000 225/35 ZR20 90Y XL um €54,51 (statt: €58,30) bei ReifenSuche.com
02.09.2014, 15:59 -8.78% Nexen N9000 235/40 ZR18 95Y XL um €65,54 (statt: €71,85) bei ReifenSuche.com
02.09.2014, 15:59 -1.32% Nexen N9000 235/45 ZR17 97W XL um €65,74 (statt: €66,62) bei ReifenSuche.com
02.09.2014, 15:59 -1.08% Metzeler ME 880 Marathon 170/60 R17 78V TL XL um €163,72 (statt: €165,51) bei ReifenSuche.com
02.09.2014, 15:59 -1.73% Pirelli Cinturato P7 225/50 R17 98Y XL um €115,12 (statt: €117,15) bei ReifenSuche.com
02.09.2014, 15:59 -1.93% Ovation Tires Ecovision VI-682 205/70 R15 96H um €48,38 (statt: €49,33) bei ReifenSuche.com
02.09.2014, 15:59 -1.01% Ovation Tires Ecovision VI-682 205/70 R14 95H um €45,93 (statt: €46,40) bei ReifenSuche.com
02.09.2014, 15:59 -3.37% Ovation Tires Ecovision VI-682 185/70 R14 88H um €36,43 (statt: €37,70) bei ReifenSuche.com
02.09.2014, 15:59 -3.23% Ovation Tires Ecovision VI-682 165/70 R14 81T um €30,30 (statt: €31,31) bei ReifenSuche.com
02.09.2014, 15:59 -3.26% Ovation Tires Ecovision VI-682 175/70 R13 82T um €29,99 (statt: €31,--) bei ReifenSuche.com
02.09.2014, 15:59 -3.00% Ovation Tires Ecovision VI-682 165/70 R13 79T um €29,07 (statt: €29,97) bei ReifenSuche.com
02.09.2014, 15:59 -4.74% Ovation Tires Ecovision VI-682 155/70 R12 73T um €25,70 (statt: €26,98) bei ReifenSuche.com
02.09.2014, 15:59 -1.27% Ovation Tires Ecovision VI-682 215/65 R15 96H um €48,38 (statt: €49,--) bei ReifenSuche.com
02.09.2014, 15:59 -2.50% Ovation Tires Ecovision VI-682 185/65 R14 86H um €34,65 (statt: €35,54) bei ReifenSuche.com
02.09.2014, 15:59 -3.11% Ovation Tires Ecovision VI-682 175/65 R14 82H um €31,83 (statt: €32,85) bei ReifenSuche.com
02.09.2014, 15:59 -5.11% Ovation Tires Ecovision VI-682 155/65 R14 75T um €31,22 (statt: €32,90) bei ReifenSuche.com
02.09.2014, 15:59 -5.93% Ovation Tires Ecovision VI-682 185/60 R15 88H XL um €38,57 (statt: €41,--) bei ReifenSuche.com
02.09.2014, 15:59 -2.79% Ovation Tires VI-388 215/55 R17 98W um €53,67 (statt: €55,21) bei ReifenSuche.com
02.09.2014, 15:59 -6.55% Ovation Tires VI-388 215/55 R16 97W um €50,83 (statt: €54,39) bei ReifenSuche.com
02.09.2014, 15:59 -1.70% Ovation Tires VI-388 205/50 R17 93W um €49,61 (statt: €50,47) bei ReifenSuche.com
02.09.2014, 15:59 -1.15% Ovation Tires VI-388 205/50 R16 91W um €47,15 (statt: €47,70) bei ReifenSuche.com
02.09.2014, 15:59 -0.65% Ovation Tires VI-388 195/50 R15 86V um €39,80 (statt: €40,06) bei ReifenSuche.com
02.09.2014, 15:59 -1.65% Ovation Tires VI-388 205/45 R17 88W um €48,38 (statt: €49,19) bei ReifenSuche.com
02.09.2014, 15:59 -0.69% Ovation Tires VI-388 205/45 R16 87W um €44,70 (statt: €45,01) bei ReifenSuche.com
02.09.2014, 15:59 -6.29% Ovation Tires VI-388 205/40 R17 84W um €44,70 (statt: €47,70) bei ReifenSuche.com
02.09.2014, 15:59 -8.63% Hifly HF201 185/60 R15 88H um €36,74 (statt: €40,21) bei ReifenSuche.com
02.09.2014, 15:59 -16.16% Nexen N8000 205/45 ZR16 87W XL um €55,50 (statt: €66,20) bei ReifenSuche.com
02.09.2014, 15:59 -1.04% Westlake SP06 225/60 R16 98H um €47,77 (statt: €48,27) bei ReifenSuche.com
02.09.2014, 15:59 -4.30% Westlake SP06 185/70 R14 88T um €33,40 (statt: €34,90) bei ReifenSuche.com
02.09.2014, 15:59 -0.73% Westlake SV308 235/55 R17 103W um €58,82 (statt: €59,25) bei ReifenSuche.com
02.09.2014, 15:59 -2.20% Westlake SU307 215/70 R16 100H um €52,38 (statt: €53,56) bei ReifenSuche.com
02.09.2014, 15:59 -1.59% Nokian WR G2 SUV 255/65 R17 114H XL um €155,20 (statt: €157,70) bei ReifenSuche.com
02.09.2014, 15:59 -2.42% Nokian i3 195/65 R15 91T um €43,98 (statt: €45,07) bei ReifenSuche.com
02.09.2014, 15:59 -0.56% Nokian i3 185/65 R14 86T um €39,15 (statt: €39,37) bei ReifenSuche.com
02.09.2014, 15:59 -1.78% Goodyear Eagle NCT5 205/55 R15 88V um €88,45 (statt: €90,05) bei ReifenSuche.com
02.09.2014, 15:59 -0.92% Wanli S-1200 205/65 R15 94V um €40,73 (statt: €41,11) bei ReifenSuche.com
02.09.2014, 15:59 -3.40% Minerva F105 245/45 R18 100W um €73,51 (statt: €76,10) bei ReifenSuche.com
02.09.2014, 15:59 -1.35% Minerva F109 175/60 R14 79H um €38,-- (statt: €38,52) bei ReifenSuche.com
02.09.2014, 15:59 -6.99% Infinity INF-040 205/60 R15 91V um €44,28 (statt: €47,61) bei ReifenSuche.com
02.09.2014, 15:59 -4.80% Infinity INF-200 265/70 R15 112H um €69,49 (statt: €72,99) bei ReifenSuche.com
02.09.2014, 15:59 -0.85% Infinity INF-100 225/75 R16 121/120R um €69,71 (statt: €70,31) bei ReifenSuche.com
02.09.2014, 15:59 -0.72% Infinity INF-100 215/75 R16 113/111R um €58,93 (statt: €59,36) bei ReifenSuche.com
02.09.2014, 15:59 -6.80% Infinity INF-040 205/55 R15 88V um €45,78 (statt: €49,12) bei ReifenSuche.com
02.09.2014, 15:59 -1.35% Infinity INF-100 195/65 R16 104/102R um €51,-- (statt: €51,70) bei ReifenSuche.com
02.09.2014, 15:59 -2.53% Infinity INF-040 195/60 R15 88V um €40,-- (statt: €41,04) bei ReifenSuche.com
02.09.2014, 15:59 -0.81% Toyo Snowprox S942 205/65 R15 99T XL um €62,08 (statt: €62,59) bei ReifenSuche.com
02.09.2014, 15:59 -2.44% Toyo Snowprox S942 175/70 R13 82T um €35,57 (statt: €36,46) bei ReifenSuche.com
02.09.2014, 15:59 -0.95% Toyo 350 165/65 R14 79T um €41,83 (statt: €42,23) bei ReifenSuche.com
02.09.2014, 15:59 -3.25% Maxxis Victra MA510N 175/70 R14 88T XL um €40,76 (statt: €42,13) bei ReifenSuche.com
02.09.2014, 15:59 -0.78% Maxxis Victra MA510N 175/55 R15 77T um €44,46 (statt: €44,81) bei ReifenSuche.com
02.09.2014, 15:59 -2.86% Maxxis Victra MA510N 145/60 R13 66T um €41,81 (statt: €43,04) bei ReifenSuche.com
02.09.2014, 15:59 -2.29% Maxxis Pro-R1 Victra 195/55 R15 85V um €52,08 (statt: €53,30) bei ReifenSuche.com
02.09.2014, 15:59 -1.67% Maxxis Pro-R1 Victra 195/60 R15 88V um €48,82 (statt: €49,65) bei ReifenSuche.com
02.09.2014, 15:59 -1.43% Maxxis Pro-R1 Victra 215/55 ZR17 98W um €74,65 (statt: €75,73) bei ReifenSuche.com
02.09.2014, 15:59 -2.40% Maxxis Pro-R1 Victra 245/40 ZR18 97W um €96,33 (statt: €98,70) bei ReifenSuche.com
02.09.2014, 15:59 -4.80% Maxxis M35 Victra Asymmet 225/55 ZR17 101W um €84,04 (statt: €88,28) bei ReifenSuche.com
02.09.2014, 15:59 -0.98% Maxxis MA-Z1 Victra 225/35 ZR18 87W um €102,58 (statt: €103,60) bei ReifenSuche.com
02.09.2014, 15:59 -1.88% Maxxis MA-S2 Marauder II 255/60 R17 110H um €103,81 (statt: €105,80) bei ReifenSuche.com
02.09.2014, 15:59 -2.12% Maxxis MA-PW Presa Snow 195/65 R15 91H um €45,32 (statt: €46,30) bei ReifenSuche.com
02.09.2014, 15:59 -2.06% Maxxis MA-Z1 Victra 255/45 ZR18 103W XL um €110,28 (statt: €112,60) bei ReifenSuche.com
02.09.2014, 15:59 -2.21% Maxxis UE-168 205/80 R14 109Q um €70,72 (statt: €72,32) bei ReifenSuche.com
02.09.2014, 15:59 -6.27% Nankang NS-20 165/40 R17 75V XL um €45,93 (statt: €49,--) bei ReifenSuche.com
02.09.2014, 15:59 -5.58% Nankang FT-7 275/65 R17 115S um €104,15 (statt: €110,30) bei ReifenSuche.com
02.09.2014, 15:59 -11.76% Nankang FT-7 235/70 R16 106S um €79,02 (statt: €89,55) bei ReifenSuche.com
02.09.2014, 15:59 -9.88% Nankang FT-7 255/70 R16 111S um €88,83 (statt: €98,57) bei ReifenSuche.com
02.09.2014, 15:59 -2.97% Nankang NS-20 275/35 R20 102Y XL um €107,07 (statt: €110,35) bei ReifenSuche.com
02.09.2014, 15:59 -2.29% Nankang NS-20 275/35 ZR19 96Y um €109,24 (statt: €111,80) bei ReifenSuche.com
02.09.2014, 15:59 -3.99% Nankang SP-7 275/55 R19 111V um €118,86 (statt: €123,80) bei ReifenSuche.com
02.09.2014, 15:59 -1.95% Nankang NS-20 265/35 R18 97Y XL um €92,50 (statt: €94,34) bei ReifenSuche.com
02.09.2014, 15:59 -11.35% Nankang FT-7 255/65 R16 109S um €91,28 (statt: €102,97) bei ReifenSuche.com
02.09.2014, 15:59 -13.00% Nankang FT-7 245/70 R16 111S um €85,76 (statt: €98,57) bei ReifenSuche.com
02.09.2014, 15:59 -0.92% Sonar SX-1 Evo 255/30 R19 91Y um €99,25 (statt: €100,17) bei ReifenSuche.com
02.09.2014, 15:59 -5.09% Federal 595EVO 255/45 R17 102Y um €70,97 (statt: €74,78) bei ReifenSuche.com
02.09.2014, 15:59 -1.37% Atturo AZ800 255/55 R19 111V XL um €97,53 (statt: €98,88) bei ReifenSuche.com
02.09.2014, 15:59 -2.52% Nankang AS-1 315/35 ZR20 110Y XL um €135,40 (statt: €138,90) bei ReifenSuche.com
02.09.2014, 15:59 -2.08% Nankang NS-20 255/35 ZR20 97Y XL um €95,57 (statt: €97,60) bei ReifenSuche.com
02.09.2014, 15:59 -2.54% Nankang NS-20 245/40 ZR20 95Y um €106,23 (statt: €109,--) bei ReifenSuche.com
02.09.2014, 15:59 -5.77% Nankang FT-7 195/80 R15 96S um €68,60 (statt: €72,80) bei ReifenSuche.com
02.09.2014, 15:59 -2.12% Sonar SX-608 165/55 R13 70H um €33,67 (statt: €34,40) bei ReifenSuche.com
02.09.2014, 15:59 -0.70% Nankang SP-7 305/50 R20 120H XL um €134,18 (statt: €135,12) bei ReifenSuche.com
02.09.2014, 15:59 -1.89% Nankang CW-20 205/70 R14 102/100P um €61,25 (statt: €62,43) bei ReifenSuche.com
02.09.2014, 15:59 -3.82% Nankang SP-7 225/50 R18 95V um €74,79 (statt: €77,76) bei ReifenSuche.com
02.09.2014, 15:59 -0.92% Sonar SX-608 185/55 R14 80H um €37,65 (statt: €38,--) bei ReifenSuche.com
02.09.2014, 15:59 -2.17% Sonar SX-608 155/70 R13 75T um €29,32 (statt: €29,97) bei ReifenSuche.com
02.09.2014, 15:59 -4.64% Nankang AS-1 205/65 R16 95H um €65,54 (statt: €68,73) bei ReifenSuche.com
02.09.2014, 15:59 -1.79% Nankang AS-1 225/60 R18 100H um €86,38 (statt: €87,95) bei ReifenSuche.com
02.09.2014, 15:59 -2.63% Nankang NS-20 205/40 ZR17 84W XL um €54,81 (statt: €56,29) bei ReifenSuche.com
02.09.2014, 15:59 -5.44% Nankang SP-5 285/45 R19 107V XL um €109,60 (statt: €115,90) bei ReifenSuche.com
02.09.2014, 15:59 -1.18% Nankang SP-5 255/50 R19 107V XL um €102,37 (statt: €103,59) bei ReifenSuche.com
02.09.2014, 15:59 -2.60% Sonar SX-608 205/60 R16 96V um €48,99 (statt: €50,30) bei ReifenSuche.com
02.09.2014, 15:59 -0.80% Nankang CX-668 165/70 R12 77T um €33,67 (statt: €33,94) bei ReifenSuche.com
02.09.2014, 15:59 -11.72% Nankang FT-7 265/70 R16 112S um €91,28 (statt: €103,40) bei ReifenSuche.com
02.09.2014, 15:59 -2.43% Nankang NS-20 265/30 R19 93Y um €99,42 (statt: €101,90) bei ReifenSuche.com
02.09.2014, 15:59 -2.12% Sonar SX-608 165/50 R15 72V um €38,27 (statt: €39,10) bei ReifenSuche.com
02.09.2014, 15:59 -1.16% Nankang AS-1 155/65 R14 75V um €37,65 (statt: €38,09) bei ReifenSuche.com
02.09.2014, 15:59 -0.55% Nankang NS-2 175/60 R13 77H um €36,12 (statt: €36,32) bei ReifenSuche.com
02.09.2014, 15:59 -1.17% Nankang N-605 195/75 R14 92H um €51,44 (statt: €52,05) bei ReifenSuche.com
02.09.2014, 15:59 -0.62% Nankang CW-20 175/75 R16 101/99R um €51,20 (statt: €51,52) bei ReifenSuche.com
02.09.2014, 15:59 -2.18% Sonar SX-608 165/65 R14 79H um €32,75 (statt: €33,48) bei ReifenSuche.com
02.09.2014, 15:59 -3.14% Sonar SX-608 215/65 R15 96H um €48,99 (statt: €50,58) bei ReifenSuche.com
02.09.2014, 15:59 -0.68% Sonar SX-608 185/65 R15 88H um €40,72 (statt: €41,--) bei ReifenSuche.com
02.09.2014, 15:59 -0.98% Nankang NS-20 215/55 R17 94V um €60,70 (statt: €61,30) bei ReifenSuche.com
02.09.2014, 15:59 -4.51% Nankang N-889 32x11.50 R15 113Q um €134,52 (statt: €140,88) bei ReifenSuche.com
02.09.2014, 15:59 -0.99% Nankang NS-2 205/40 R17 84V XL um €47,77 (statt: €48,25) bei ReifenSuche.com
02.09.2014, 15:59 -2.67% Sonar SX-608 205/60 R15 91V um €39,80 (statt: €40,89) bei ReifenSuche.com
02.09.2014, 15:59 -1.75% Nankang CX-668 205/70 R14 95H um €48,38 (statt: €49,24) bei ReifenSuche.com
02.09.2014, 15:59 -4.27% Nankang RX-615 175/70 R14 84H um €40,11 (statt: €41,90) bei ReifenSuche.com
02.09.2014, 15:59 -5.37% Nankang NS-2 235/40 R17 90V um €60,94 (statt: €64,40) bei ReifenSuche.com
02.09.2014, 15:59 -2.94% Sonar SX-2 225/55 R16 99V um €58,49 (statt: €60,26) bei ReifenSuche.com
02.09.2014, 15:59 -2.12% Nankang NS-2 245/45 R18 100H um €78,-- (statt: €79,69) bei ReifenSuche.com
02.09.2014, 15:59 -1.88% Nankang SP-5 255/55 R18 109V XL um €93,31 (statt: €95,10) bei ReifenSuche.com
02.09.2014, 15:59 -1.70% Nankang SP-5 225/55 R17 101V XL um €72,29 (statt: €73,54) bei ReifenSuche.com
02.09.2014, 15:59 -1.08% Sonar SX-608 225/60 R15 96V um €52,26 (statt: €52,83) bei ReifenSuche.com
02.09.2014, 15:59 -2.81% Sonar SX-608 195/55 R15 85V um €42,25 (statt: €43,47) bei ReifenSuche.com
02.09.2014, 15:59 -1.50% Nankang AS-1 215/40 R18 89H XL um €61,25 (statt: €62,18) bei ReifenSuche.com
02.09.2014, 15:59 -2.35% Nankang AS-1 235/50 ZR18 97W um €96,-- (statt: €98,31) bei ReifenSuche.com
02.09.2014, 15:59 -1.14% Nankang AS-1 215/50 R17 91V um €63,95 (statt: €64,69) bei ReifenSuche.com
02.09.2014, 15:59 -1.35% Falken Azenis FK453 275/45 ZR20 110W um €160,70 (statt: €162,90) bei ReifenSuche.com
02.09.2014, 15:59 -2.95% Falken Sincera SN831 155/65 R14 75S um €37,56 (statt: €38,70) bei ReifenSuche.com
02.09.2014, 15:59 -1.18% Falken Azenis FK453 275/40 ZR19 101Y um €126,09 (statt: €127,60) bei ReifenSuche.com
02.09.2014, 15:59 -1.77% Falken FK452 245/40 ZR17 95Y XL um €124,05 (statt: €126,29) bei ReifenSuche.com
02.09.2014, 15:59 -1.77% Matador MP 85 Hectorra 275/40 R20 106Y XL um €140,66 (statt: €143,20) bei ReifenSuche.com
02.09.2014, 15:59 -2.34% Matador MP 85 Hectorra 225/65 R17 102H um €89,12 (statt: €91,26) bei ReifenSuche.com
02.09.2014, 15:59 -0.73% Matador MPS 520 Nordicca Van 225/65 R16 112/110R um €96,23 (statt: €96,94) bei ReifenSuche.com
02.09.2014, 15:59 -1.94% Matador MP 58 M+S Silika 175/65 R14 90/88T um €64,62 (statt: €65,90) bei ReifenSuche.com
02.09.2014, 15:59 -2.21% Matador MP 59 Nordicca 235/45 R17 94H um €91,36 (statt: €93,42) bei ReifenSuche.com
02.09.2014, 15:59 -2.96% Matador MP 52 Nordicca Basic 175/70 R13 82T um €35,78 (statt: €36,87) bei ReifenSuche.com
02.09.2014, 15:59 -1.10% Matador MP 46 Hectorra 2 225/55 ZR17 101W XL um €85,97 (statt: €86,93) bei ReifenSuche.com
02.09.2014, 15:59 -0.63% Matador MP 46 Hectorra 2 215/55 R17 98W XL um €78,30 (statt: €78,80) bei ReifenSuche.com
02.09.2014, 15:59 -2.23% Matador MP 46 Hectorra 2 225/60 ZR16 98W um €84,77 (statt: €86,70) bei ReifenSuche.com
02.09.2014, 15:59 -2.52% Matador MP 16 Stella 2 165/70 R14 85T XL um €35,94 (statt: €36,87) bei ReifenSuche.com
02.09.2014, 15:59 -0.78% Dunlop D408F 140/75 R17 67V TL um €155,98 (statt: €157,20) bei ReifenSuche.com
02.09.2014, 15:59 -6.83% Dunlop SP Sport 01 195/50 R16 84V um €101,56 (statt: €109,--) bei ReifenSuche.com
02.09.2014, 15:59 -0.50% Heidenau K74 140/80 18 70R TT um €77,-- (statt: €77,39) bei ReifenSuche.com
02.09.2014, 15:59 -0.60% Heidenau K74 130/80 17 65T TT um €69,96 (statt: €70,38) bei ReifenSuche.com
02.09.2014, 15:59 -2.54% Heidenau K76 110/80 B19 59H TL um €70,95 (statt: €72,80) bei ReifenSuche.com
02.09.2014, 15:59 -1.26% Continental ContiWinterContact TS 850 205/45 R16 87H um €115,36 (statt: €116,83) bei ReifenSuche.com
02.09.2014, 15:59 -23.96% Continental ContiWinterContact TS 800 165/65 R14 79T um €48,44 (statt: €63,70) bei ReifenSuche.com
02.09.2014, 15:59 -6.65% Bridgestone Motocross M404 100/90 19 57M TT um €69,64 (statt: €74,60) bei ReifenSuche.com
02.09.2014, 15:59 -6.34% Bridgestone Motocross M403 80/100 21 51M TT um €62,-- (statt: €66,20) bei ReifenSuche.com
02.09.2014, 15:59 -5.64% Event Tyres GL697 195/65 R15 95H XL um €36,33 (statt: €38,50) bei ReifenSuche.com
02.09.2014, 15:59 -4.23% Event Tyres GL697 195/65 R15 91V um €45,01 (statt: €47,--) bei ReifenSuche.com
02.09.2014, 15:59 -2.91% Event Tyres GL697 185/65 R15 88H um €40,41 (statt: €41,62) bei ReifenSuche.com
02.09.2014, 15:59 -5.61% Event Tyres GL695 195/65 R15 91H um €36,34 (statt: €38,50) bei ReifenSuche.com
02.09.2014, 15:59 -3.37% Event Tyres MJ683 185/70 R13 86T um €36,43 (statt: €37,70) bei ReifenSuche.com
02.09.2014, 15:59 -3.30% Event Tyres MJ683 175/70 R13 82T um €33,36 (statt: €34,50) bei ReifenSuche.com
02.09.2014, 15:59 -3.16% Sunny SN3800 235/60 R16 100V um €49,57 (statt: €51,19) bei ReifenSuche.com
02.09.2014, 15:59 -1.01% Avon ZV5 225/50 R17 98Y XL um €93,15 (statt: €94,10) bei ReifenSuche.com
02.09.2014, 15:59 -3.55% Avon Cobra AV72 240/50 R16 84V TL um €170,94 (statt: €177,23) bei ReifenSuche.com
02.09.2014, 15:59 -2.82% Avon ZV5 225/55 R16 95W um €83,79 (statt: €86,22) bei ReifenSuche.com
02.09.2014, 15:59 -3.06% Avon Cobra AV72 280/40 R20 89V TL um €249,-- (statt: €256,85) bei ReifenSuche.com
02.09.2014, 15:59 -1.61% Avon ZZ3 275/35 R18 95W um €134,50 (statt: €136,70) bei ReifenSuche.com
02.09.2014, 15:59 -2.60% Avon ZZ3 225/35 R18 87Y XL um €109,48 (statt: €112,40) bei ReifenSuche.com
02.09.2014, 15:59 -22.85% Avon ZV3 185/55 R14 80H um €46,25 (statt: €59,95) bei ReifenSuche.com
02.09.2014, 15:59 -0.64% Avon ZZ3 235/40 R17 90Y um €88,83 (statt: €89,40) bei ReifenSuche.com
02.09.2014, 15:59 -5.55% Atturo AZ800 245/30 R22 96W um €84,66 (statt: €89,63) bei ReifenSuche.com
02.09.2014, 15:59 +4.28% GT-Radial Champiro ECO 205/65 R15 94H um €58,70 (statt: €56,29) bei Abgefahrn
02.09.2014, 15:59 +1.86% GT-Radial Champiro Winterpro HP 225/65 R17 102H um €103,50 (statt: €101,61) bei Abgefahrn
02.09.2014, 15:59 -3.40% Kumho Ecowing ES01 KH27 195/65 R15 91H um €42,95 (statt: €44,46) bei ReifenSuche.com
02.09.2014, 15:59 -5.10% Hankook Vantra LT RA18 205/65 R15 103/100T um €89,93 (statt: €94,76) bei ReifenSuche.com
02.09.2014, 15:59 -7.72% Marangoni 4 Winter 175/65 R15 88T XL um €35,25 (statt: €38,20) bei ReifenSuche.com
02.09.2014, 15:59 -3.07% GT-Radial Champiro VP1 165/70 R14 81T um €36,37 (statt: €37,52) bei ReifenSuche.com
02.09.2014, 15:59 +6.94% Dunlop Sportmax D212 GP Pro 190/55 R17 75W TL (verschiedene Gummimischungen) um €218,38 (statt: €204,20) bei Reifensuche
02.09.2014, 15:59 -2.48% Dunlop SP Street Response 185/65 R15 88T um €57,83 (statt: €59,30) bei ReifenSuche.com
02.09.2014, 15:59 +5.67% General Tire Grabber GT 255/55 R18 109Y um €105,-- (statt: €99,37) bei koenig-felgen.de
02.09.2014, 15:59 -2.33% General Tire Grabber AT 255/60 R18 112H um €133,08 (statt: €136,26) bei ReifenSuche.com
02.09.2014, 15:59 +0.52% Bridgestone Turanza T001 225/40 R18 92W XL um €116,10 (statt: €115,50) bei Abgefahrn
02.09.2014, 15:59 -0.59% Bridgestone Potenza RE050A 255/40 R17 94W RFT um €161,35 (statt: €162,31) bei ReifenSuche.com
02.09.2014, 15:59 -11.22% Bridgestone Turanza ER300 185/65 R15 88H um €58,16 (statt: €65,51) bei ReifenSuche.com
02.09.2014, 15:59 -2.03% Bridgestone Turanza ER300 205/60 R15 91H um €73,77 (statt: €75,30) bei ReifenSuche.com
02.09.2014, 15:59 -8.65% TechniSat DigitRadio mobil 90elf (0001/4956) um €44,46 (statt: €48,67) bei Boomstore.de
02.09.2014, 15:59 -0.96% TechniSat DigitRadio 50 um €45,46 (statt: €45,90) bei Boomstore.de
02.09.2014, 15:59 -4.14% Morphy Richards Glen Dimplex Arc (47910) um €44,96 (statt: €46,90) bei Boomstore.de
02.09.2014, 15:59 -4.52% Grundig HD6080 Ionic Haartrockner um €16,46 (statt: €17,24) bei Boomstore.de
02.09.2014, 15:59 -1.42% Venta Zitrusgarten Duftöl 150ml (3x 50ml) um €12,46 (statt: €12,64) bei Boomstore.de
02.09.2014, 15:59 -2.17% Sony CMT-SBT100B schwarz um €181,96 (statt: €186,--) bei Boomstore.de
02.09.2014, 15:59 -6.50% Philips SHL8800 um €14,96 (statt: €16,--) bei Boomstore.de
02.09.2014, 15:59 +12.72% Hama Guard Case für Apple iPhone 5c braun/natur (00127417) um €17,99 (statt: €15,96) bei notebooksbilliger.de
02.09.2014, 15:59 +56.98% Hama My Voice (108145) um €14,85 (statt: €9,46) bei abc-media24-
02.09.2014, 15:59 +18.52% Hama Mignon AA NiMH Akku 2100mAh, 4er-Pack (00074052) um €12,99 (statt: €10,96) bei €urosell
02.09.2014, 15:58 -1.32% Nikon SB-910 Blitzgerät (FSA04001) um €379,90 (statt: €384,99) bei Digitfoto
02.09.2014, 15:58 -3.68% Liebherr IG 1614 um €523,-- (statt: €543,--) bei Mybauer
02.09.2014, 15:58 -3.71% Liebherr ICUN 3314 um €883,-- (statt: €917,--) bei Mybauer
02.09.2014, 15:58 -1.68% Liebherr ICBP 3256 um €1227,-- (statt: €1248,--) bei Mybauer
02.09.2014, 15:58 -0.83% Liebherr IK 1910 um €479,-- (statt: €483,--) bei Mybauer
02.09.2014, 15:58 -5.03% Liebherr IKS 1610 um €378,-- (statt: €398,--) bei Mybauer
02.09.2014, 15:58 -1.77% Liebherr GP 4013 Comfort um €731,-- (statt: €744,20) bei Mybauer
02.09.2014, 15:58 -3.44% Uniroyal RainMax 2 185 R14 102/100Q um €58,72 (statt: €60,81) bei reifenchampion.de
02.09.2014, 15:58 -6.67% Kompatible Tintenpatrone zu Canon BCI-6C cyan um €0,70 (statt: €0,75) bei PrintSpeed
02.09.2014, 15:57 +13.33% iiyama ProLite XB2779QS silber, 27" (XB2779QS-S1) um €407,15 (statt: €359,25) bei ATELCO
02.09.2014, 15:57 -1.13% Leki Trekkingstöcke Carbonlite um €96,89 (statt: €98,--) bei Foto Erhardt
02.09.2014, 15:57 -4.50% Dörr Aufnahmebox LFPB-2 60x60cm (373383) um €42,-- (statt: €43,98) bei Foto Erhardt
02.09.2014, 15:57 -4.56% Theo Klein Bosch Cool Küche (9293) um €61,99 (statt: €64,95) bei Lidl Online-Shop
02.09.2014, 15:57 -12.58% Theo Klein Miele Gourmet Deluxe Küche (9097/9156) um €54,99 (statt: €62,90) bei Lidl Online-Shop
02.09.2014, 15:57 -2.94% Theo Klein Miele kompakt Küche (9044) um €32,99 (statt: €33,99) bei Lidl Online-Shop
02.09.2014, 15:57 +10.06% Singer SNG5.22 Dampfbügeleisen um €22,-- (statt: €19,99) bei Rakuten
02.09.2014, 15:57 +4.29% Soehnle Comfort Jazz XL Bi-Colour Heizdecke (68033) um €72,99 (statt: €69,99) bei Goodbuy656
02.09.2014, 15:57 +185.43% Sanitas SZA05 Ersatzbürste, 4er-Pack um €9,99 (statt: €3,50) bei Berlet.de
02.09.2014, 15:57 +2.06% Sony SRS-X5 schwarz um €152,99 (statt: €149,90) bei mp3-player.de
02.09.2014, 15:57 +11.01% Speedlink Medusa 5.1 Mobile Edition USB (SL-8795) um €49,90 (statt: €44,95) bei hardwarecamp24
02.09.2014, 15:57 -1.71% Rommelsbacher WA1005/R Waffeleisen um €54,-- (statt: €54,94) bei allego.de
02.09.2014, 15:57 -11.13% Philips QT4050 Bartschneider Akku-/Netzbetrieb um €39,99 (statt: €45,--) bei Marsmedia
02.09.2014, 15:57 -1.56% Fakir Clarris um €95,-- (statt: €96,51) bei notebooksbilliger.de
02.09.2014, 15:57 -1.01% Fakir S20 Eco Power um €197,-- (statt: €199,--) bei notebooksbilliger.de
02.09.2014, 15:57 -20.88% Pioneer VSX-828 silber um €197,-- (statt: €249,--) bei Berlet.de
02.09.2014, 15:57 -8.18% Denon RCD-M39DAB schwarz um €247,-- (statt: €269,--) bei Berlet.de
02.09.2014, 15:56 -2.75% TP-Link TL-SG3424, 24-Port, managed (TL-SG3424) um €136,14 (statt: €139,99) bei erstens-mertens.de
02.09.2014, 15:56 -8.45% Just Mobile GUM++ mobiles Ladegerät USB, gold (PP-268AGD) um €57,95 (statt: €63,30) bei PDA Max
02.09.2014, 15:56 +7.02% LG Electronics F14B8TDA Frontlader um €427,-- (statt: €399,--) bei sevenrabbits.de
02.09.2014, 15:56 -1.10% Siemens KG33VEW32 um €448,-- (statt: €453,--) bei PSI24.com
02.09.2014, 15:56 -10.23% Rapoo E6300 Ultraslim Keyboard für iPad weiß, USB (11098) um €35,-- (statt: €38,99) bei xxl-deals.de
02.09.2014, 15:56 -0.89% Jabra Stone schwarz um €44,50 (statt: €44,90) bei xxl-deals.de
02.09.2014, 15:55 -0.58% Zweibrüder Led Lenser P7.2 Taschenlampe (9407) um €44,39 (statt: €44,65) bei getgoods
02.09.2014, 15:55 -0.71% Siemens HB33GB550 um €418,95 (statt: €421,95) bei getgoods
02.09.2014, 15:55 -1.03% Siemens KG33VVL30 um €383,95 (statt: €387,95) bei getgoods
02.09.2014, 15:55 -1.34% Bosch HBG 78B750 um €814,95 (statt: €826,--) bei getgoods
02.09.2014, 15:55 -0.52% Bosch HBC 86K753 Backofen mit Mikrowelle um €758,95 (statt: €762,95) bei getgoods
02.09.2014, 15:55 -3.67% Bosch BSG 81000 um €162,80 (statt: €169,--) bei getgoods
02.09.2014, 15:55 -0.55% Bosch PIN 675N27E Induktionskochfeld um €537,95 (statt: €540,95) bei getgoods
02.09.2014, 15:55 -6.53% Samsung Shape M7 weiß (WAM751) um €299,-- (statt: €319,90) bei getgoods
02.09.2014, 15:55 -1.23% AEG Electrolux HK654250X-B Induktionskochfeld Autark um €399,95 (statt: €404,95) bei getgoods
02.09.2014, 15:55 -12.34% Sinuslive SL-W 265 um €79,95 (statt: €91,20) bei getgoods
02.09.2014, 15:55 +9.45% Corsair XMS3 Dominator Platinum DIMM Kit 32GB, DDR3-2400, CL10-12-12-31 (CMD32GX3M4A2400C10) um €513,58 (statt: €469,23) bei warehouse2
02.09.2014, 15:54 +4.10% Hama uRage High Sense (62894) um €13,46 (statt: €12,93) bei Boomstore.de
02.09.2014, 15:49 -2.59% Buffalo OP-HD4.0S-3Y 4TB um €259,99 (statt: €266,89) bei Klarsicht IT
02.09.2014, 15:49 -27.62% Neumärker Waffeleisen (12-40716DT) um €509,-- (statt: €703,20) bei allego.de
02.09.2014, 15:49 -18.49% Neumärker Waffeleisen (12-40713E) um €485,-- (statt: €595,--) bei allego.de
02.09.2014, 15:49 -0.67% SanDisk CompactFlash Card (CF) Ultra 4GB (SDCFHS-004G-G46) um €11,90 (statt: €11,98) bei Cyberport
02.09.2014, 15:49 -1.14% knomo Lederschutzhülle für MacBook Pro 15" Retina braun (14-081-DBR) um €78,-- (statt: €78,90) bei Cyberport
02.09.2014, 15:48 -2.47% Braun TexStyle 7-735TP Dampfbügeleisen um €59,99 (statt: €61,51) bei Marsmedia
02.09.2014, 15:48 +6.38% Philips 22PFK4209 um €184,03 (statt: €173,--) bei sysgotec.de
02.09.2014, 15:48 -7.89% HP C2J95AA um €2024,99 (statt: €2198,50) bei portwork.de
02.09.2014, 15:48 -1.28% HP 450GB 6G SAS 15K HDD (LU968AA) um €261,99 (statt: €265,40) bei portwork.de
02.09.2014, 15:48 -1.68% HP ProCurve X130, 10GBase-SR XFP Transceiver (JD117B) um €233,99 (statt: €238,--) bei portwork.de
02.09.2014, 15:48 -1.45% HP A5120-24G-PoE+ SI, 24-Port (JG091A) um €1479,99 (statt: €1501,74) bei portwork.de
02.09.2014, 15:47 -0.98% Dunlop SP LT 30 205/70 R15 106R um €70,52 (statt: €71,22) bei ReifenSuche.com
02.09.2014, 15:47 -1.24% Dunlop SP Sport 9000 225/35 ZR17 um €147,66 (statt: €149,51) bei ReifenSuche.com
02.09.2014, 15:47 -0.95% Toyo R610 185/55 R13 77H um €60,22 (statt: €60,80) bei ReifenSuche.com
02.09.2014, 15:47 -1.03% Pirelli PZero Rosso 295/35 ZR18 99Y um €319,22 (statt: €322,55) bei ReifenSuche.com
02.09.2014, 15:47 -0.65% Pirelli PZero System 255/40 ZR19 96Y um €184,43 (statt: €185,63) bei ReifenSuche.com
02.09.2014, 15:47 -6.73% Goodyear Cargo G91 205/75 R16 113/111Q um €92,20 (statt: €98,85) bei ReifenSuche.com
02.09.2014, 15:47 -2.13% Kumho Radial 857 205 R14 109Q um €66,76 (statt: €68,21) bei ReifenSuche.com
02.09.2014, 15:47 -0.76% Kumho Radial 857 175 R13 94P um €48,38 (statt: €48,75) bei ReifenSuche.com
02.09.2014, 15:47 -4.77% Kumho Radial 857 185 R14 102Q um €51,50 (statt: €54,08) bei ReifenSuche.com
02.09.2014, 15:47 -1.40% Marshal KR11 185/65 R15 88T um €41,43 (statt: €42,02) bei ReifenSuche.com
02.09.2014, 15:47 -4.78% Kumho Radial 856 175/75 R16 101R um €64,31 (statt: €67,54) bei ReifenSuche.com
02.09.2014, 15:47 -2.24% Goodyear DuraGrip GT-3 195/65 R15 91T um €48,55 (statt: €49,66) bei ReifenSuche.com
02.09.2014, 15:47 -4.34% Goodyear Eagle NCT5 175/60 R15 81V um €50,89 (statt: €53,20) bei ReifenSuche.com
02.09.2014, 15:47 -0.56% Bridgestone Expedia S01 225/40 R18 um €111,75 (statt: €112,38) bei ReifenSuche.com
02.09.2014, 15:47 -1.86% Dunlop SP LT 30 225/70 R15 112R um €96,08 (statt: €97,90) bei ReifenSuche.com
02.09.2014, 15:47 -3.39% Dunlop SP LT 30 195/65 R16 104R um €84,24 (statt: €87,20) bei ReifenSuche.com
02.09.2014, 15:47 -3.48% Dunlop SP Sport 9000 225/40 ZR16 um €100,83 (statt: €104,47) bei ReifenSuche.com
02.09.2014, 15:47 -4.91% LenovoEMC Home Network 320GB, USB 2.0/LAN (33815) um €340,99 (statt: €358,60) bei portwork.de
02.09.2014, 15:47 -5.48% IBM 85Y5864 um €517,99 (statt: €548,--) bei portwork.de
02.09.2014, 15:47 -2.00% IBM 43W8352, 1x Fibre Channel 4Gb/s, PCIe x4 um €195,99 (statt: €200,--) bei portwork.de
02.09.2014, 15:47 -9.99% 3Com Baseline Plus Switch 2928PWR, 28-Port (3CRBSG28PWR93) um €593,99 (statt: €659,90) bei portwork.de
02.09.2014, 15:47 -2.16% IBM System x3650 M4, Xeon E5-2650, 16GB RAM, 900GB (7915E5G) um €4891,-- (statt: €4998,75) bei portwork.de
02.09.2014, 15:47 -52.26% HP ProCurve A3600-48 EI, 52-Port, managed (JD333A) um €643,99 (statt: €1349,--) bei portwork.de
02.09.2014, 15:47 -5.86% Cisco 1841-SHDSL Modular Router um €290,99 (statt: €309,10) bei portwork.de
02.09.2014, 15:47 -0.71% Cisco 887VA (CISCO887VGW-GNE-K9) um €488,-- (statt: €491,49) bei portwork.de
02.09.2014, 15:47 -1.52% Cisco Aironet 1242AG (AIR-LAP1242AG-C-K9) um €272,99 (statt: €277,20) bei portwork.de
02.09.2014, 15:47 -4.25% Makita DUM168Z Akku-Grasschere solo um €72,77 (statt: €76,--) bei notebooksbilliger.de
02.09.2014, 15:47 +6.23% Canon EW-83G Gegenlichtblende (1244B001/9446A001) um €29,-- (statt: €27,30) bei Microglobe UK
02.09.2014, 15:47 +2.60% Nokia Lumia 1020 mit Branding um €318,-- (statt: €309,95) bei carbonphone.de
02.09.2014, 15:46 +6.09% HTC One Mini silber um €297,-- (statt: €279,95) bei Home of Hardware
02.09.2014, 15:46 -4.01% Alpine SXE-1750S um €45,-- (statt: €46,88) bei ACR - Bad Hersfeld
02.09.2014, 15:46 -25.95% Kompatibler Druckkopf mit Tinte zu Canon BCI-62/BCI-62e farbig photo um €9,99 (statt: €13,49) bei PrintSpeed
02.09.2014, 15:46 -3.23% Kompatible Tintenpatrone zu Canon BJI-201Y gelb (BJC 600/610/620) um €2,70 (statt: €2,79) bei PrintSpeed
02.09.2014, 15:46 -3.23% Kompatible Tintenpatrone zu Canon BJI-201M magenta (BJC 600/610/620) um €2,70 (statt: €2,79) bei PrintSpeed
02.09.2014, 15:46 -4.76% Gaggia RI8161/40 Classic um €199,99 (statt: €209,99) bei Gamingoase.de
02.09.2014, 15:46 -0.87% Dell C1765nfw, Farblaser (210-41120) um €227,-- (statt: €229,--) bei Gamingoase.de
02.09.2014, 15:46 -0.51% Dell C1765nf, Farblaser (210-41119) um €195,-- (statt: €196,--) bei Gamingoase.de
02.09.2014, 15:46 -1.26% Nintendo 3DS Grundgerät, Super Mario 3D Land Bundle, Ice White um €157,-- (statt: €159,--) bei Gamingoase.de
02.09.2014, 15:46 +7.14% Kompatible Tintenpatrone zu Canon BCI-6C cyan um €0,75 (statt: €0,70) bei Tonerboss.de
02.09.2014, 15:46 -28.00% Kompatible Tintenpatrone zu Canon BCI-15C farbig um €0,90 (statt: €1,25) bei PrintSpeed
02.09.2014, 15:41 -8.21% Technaxx MusicMan Docking Soundstation silber (TXX3549) um €17,90 (statt: €19,50) bei computeruniverse.net
02.09.2014, 15:41 -1.92% Ricoh 841457 Toner gelb um €71,50 (statt: €72,90) bei computeruniverse.net
02.09.2014, 15:41 +63.13% Olivetti B0483 Toner cyan um €48,53 (statt: €29,75) bei tonermacher.de
02.09.2014, 15:41 +62.45% Olivetti B0482 Toner magenta um €48,33 (statt: €29,75) bei x-toner
02.09.2014, 15:41 -10.05% Black&Decker GS2400 Elektro-Häcksler um €179,-- (statt: €199,--) bei computeruniverse.net
02.09.2014, 15:40 -5.36% TMNT - Teenage Mutant Ninja Turtles (deutsch) (3DS) um €36,90 (statt: €38,99) bei computeruniverse.net
02.09.2014, 15:40 -1.69% Microlab T1 weiß um €76,97 (statt: €78,29) bei anobo.de
02.09.2014, 15:40 +3.99% Agatha Christie - Das Haus an der Düne (deutsch) (PC) um €21,62 (statt: €20,79) bei hardwareversand.de
02.09.2014, 15:40 -0.95% Krusell Malmö Schutzhülle für Galaxy Tab 4 8.0 schwarz (71368) um €20,94 (statt: €21,14) bei anobo.de
02.09.2014, 15:40 -0.95% Krusell Malmö universal Schutzhülle L 8-10.1" schwarz (71362) um €16,77 (statt: €16,93) bei anobo.de
02.09.2014, 15:40 +5.32% Puzzler Collection (deutsch) (Wii) um €29,90 (statt: €28,39) bei anobo.de
02.09.2014, 15:40 -2.02% BitFenix Spectre Pro LED weiß/rot 230mm (BFF-WPRO-23030R-RP) um €17,46 (statt: €17,82) bei anobo.de
02.09.2014, 15:40 -10.09% ASUS Side Flip Cover für PadFone A86 blau (90XB00RA-BSL070) um €40,01 (statt: €44,50) bei anobo.de
02.09.2014, 15:40 -15.38% Coolink CHILLARAMIC, 10g Spritze um €5,83 (statt: €6,89) bei anobo.de
02.09.2014, 15:40 -1.16% LogiLink PC0043 7.1, PCI um €8,49 (statt: €8,59) bei anobo.de
02.09.2014, 15:40 -0.76% LogiLink UA0107A, 3.5", USB 3.0 um €13,10 (statt: €13,20) bei anobo.de
02.09.2014, 15:40 -2.40% LogiLink PC0064, IDE/2x SATA 6Gb/s, PCIe x1 um €24,04 (statt: €24,63) bei anobo.de
02.09.2014, 15:40 +2.89% Eisenbahn.exe 7 Pro (deutsch) (PC) um €21,39 (statt: €20,79) bei hardwareversand.de
02.09.2014, 15:40 +1.43% Microsoft Train Simulator - Pro Train 28: Durch den Berliner "Speckgürtel" (Add-on) (deutsch) (PC) um €19,16 (statt: €18,89) bei anobo.de
02.09.2014, 15:40 -0.99% Verbatim Store 'n' Go Executive II schwarz 500GB, USB 3.0 (53056) um €61,20 (statt: €61,81) bei anobo.de
02.09.2014, 15:40 -1.70% Kingston D12864G60 um €18,47 (statt: €18,79) bei anobo.de
02.09.2014, 15:40 -4.62% WESC Conga Purple Passion um €25,-- (statt: €26,21) bei anobo.de
02.09.2014, 15:40 -1.37% WESC Bongo schwarz um €35,95 (statt: €36,45) bei anobo.de
02.09.2014, 15:40 -2.44% Epson ELPAF40 Luftfilter Set (V13H134A40) um €22,81 (statt: €23,38) bei anobo.de
02.09.2014, 15:40 -2.79% Jamara Porsche Cayenne Turbo 1:14 27MHz schwarz (404320) um €30,70 (statt: €31,58) bei anobo.de
02.09.2014, 15:39 +4.77% VauDe Karakorum Gepäcktasche um €109,90 (statt: €104,90) bei bike24.net
02.09.2014, 15:39 -1.37% Epson Expression Home XP-415 weiß, Tinte (C11CC91301) um €71,90 (statt: €72,90) bei Alternate
02.09.2014, 15:39 -0.89% Epson WorkForce WF-2510WF, Tinte um €68,90 (statt: €69,52) bei Alternate
02.09.2014, 15:39 -1.64% Sony Xperia Z violett um €279,-- (statt: €283,66) bei Alternate
02.09.2014, 15:39 -0.79% Zotac ZBOX nano ID62 (ZBOXNANO-ID62-E) um €149,90 (statt: €151,10) bei Alternate
02.09.2014, 15:39 -5.01% Siemens WM14E425 Frontlader um €379,-- (statt: €399,--) bei Alternate
02.09.2014, 15:39 -11.55% Neumärker Waffeleisen (12-40715DT) um €599,-- (statt: €677,20) bei allego.de
02.09.2014, 15:39 -40.00% Mountain Equipment Tupilak Hose (Herren) um €239,95 (statt: €399,90) bei Globetrotter
02.09.2014, 15:39 -31.28% Arc'teryx Gamma SL Hybrid Hoody Jacke (Herren) um €109,95 (statt: €160,--) bei Globetrotter
02.09.2014, 15:39 -22.04% Edelrid Esculap Halbseil 8.3mm um €1,91 (statt: €2,45) bei Kletter- Spezial- Einheit
02.09.2014, 15:39 -12.50% Doro Primo 413 gold um €69,99 (statt: €79,99) bei Saturn.de
02.09.2014, 15:38 +9.20% Bosch TKA 60288 Private collection um €35,98 (statt: €32,95) bei sevenrabbits.de
02.09.2014, 15:38 -21.20% Marc Jacobs MBM3244 um €159,85 (statt: €202,85) bei Elektroshop Wagner
02.09.2014, 15:37 -2.89% Optoma EH415 (E1P1D0T1E021) um €1010,31 (statt: €1040,35) bei Foto Köster
02.09.2014, 15:37 -11.24% Vanguard Pampas II 6B Kameratasche (verschiedene Farben) um €7,90 (statt: €8,90) bei Foto Köster
02.09.2014, 15:36 -0.80% Kumho Ecsta LE Sport KU39 255/35 R18 94Y XL um €95,23 (statt: €96,--) bei promoreifen.de
02.09.2014, 15:36 -3.72% Blade mSR RTF (BLH3000) um €79,48 (statt: €82,55) bei D-Edition
02.09.2014, 15:36 -3.00% Asics Gel-Fujitrabuco Neutral 3 G-TX (Damen) (T4F5N) um €96,90 (statt: €99,90) bei sport-redler.de
02.09.2014, 15:35 -3.52% Nutcase Street Gen3 8 Ball Helm um €58,19 (statt: €60,31) bei centsation2012
02.09.2014, 15:33 -20.08% Tatonka Luggage Cover M (3101) um €19,90 (statt: €24,90) bei bike24.net
02.09.2014, 15:32 -5.70% Nutcase Street Gen3 Union Jack Helm um €59,38 (statt: €62,97) bei 123nurbeiuns
02.09.2014, 15:32 +8.19% Sieben Leben (Blu-ray) um €7,79 (statt: €7,20) bei nagiry DE
02.09.2014, 15:32 +18.58% Manfrotto MT055CXPRO4 um €382,89 (statt: €322,90) bei Foto Erhardt
02.09.2014, 15:32 -3.11% Nutcase Street Gen3 Urban Caution Helm um €61,02 (statt: €62,98) bei expert-shops
02.09.2014, 15:31 +7.27% Audio-Technica PRO 45 schwarz um €118,-- (statt: €110,--) bei Keepdrum /
02.09.2014, 15:30 -33.44% The Legend Of Goemon (Special Editions) um €5,99 (statt: €9,--) bei Hertie
02.09.2014, 15:29 +4.09% DeLOCK CF Typ I 16-Bit Cardreader, PCMCIA (91051) um €8,90 (statt: €8,55) bei ACom PC
02.09.2014, 15:29 -9.72% Stanno Fingerprotection JR + (480002) um €16,25 (statt: €18,--) bei eckball.de
02.09.2014, 15:28 -1.72% Acer Aspire Switch 10 HDD 32GB + KeyboardDock (NT.L48EG.001) um €379,-- (statt: €385,65) bei Mix-Computer
02.09.2014, 15:28 -0.57% Acer Aspire Switch 10, Atom Z3745, 64GB + KeyboardDock (NT.L47EG.001) um €379,-- (statt: €381,19) bei Mix-Computer
02.09.2014, 15:28 -1.63% PNY Quadro K5200, 8GB GDDR5, 2x DVI, 2x DisplayPort (VCQK5200-PB) um €1749,90 (statt: €1778,89) bei mediafrost
02.09.2014, 15:28 +2700.00% Paulmann Reflektor R63 40W E27 grün (23043) um €2,24 (statt: €0,08) bei DeTech.de
02.09.2014, 15:28 -8.29% Paulmann Deco Pipe 11W E27 warmweiß (89411) um €7,19 (statt: €7,84) bei DeTech.de
02.09.2014, 15:28 -2.61% Paulmann Reflektor AR111 40W G53 warmweiß (80037) um €7,84 (statt: €8,05) bei DeTech.de
02.09.2014, 15:28 -2.84% Liebherr IG 1614 um €543,-- (statt: €558,90) bei Mybauer
02.09.2014, 15:27 +11.91% Dr. Hauschka After Sun Lotion 100ml um €11,93 (statt: €10,66) bei Versandapotheke.de
02.09.2014, 15:27 +10.57% Hugo Boss Nuit Pour Femme Body Lotion 200ml um €22,50 (statt: €20,35) bei Point Rouge
02.09.2014, 15:27 +8.03% Loewe 7 Deodorant Spray 100ml um €25,01 (statt: €23,15) bei easyCOSMETIC
02.09.2014, 15:27 +5.26% MSI GP70-i740M287FD um €799,-- (statt: €759,05) bei notebooksbilliger.de
02.09.2014, 15:27 -0.56% Miele S8340 EcoLine um €178,-- (statt: €179,--) bei notebooksbilliger.de
02.09.2014, 15:27 -3.81% Bomann BS9000CB Nass-/Trockensauger um €48,-- (statt: €49,90) bei notebooksbilliger.de
02.09.2014, 15:27 -14.45% Bomann BS989CB um €29,90 (statt: €34,95) bei notebooksbilliger.de
02.09.2014, 15:27 -32.59% Bomann BS961CB um €39,77 (statt: €59,--) bei notebooksbilliger.de
02.09.2014, 15:27 -1.42% Miele S771 mangorot um €138,-- (statt: €139,99) bei notebooksbilliger.de
02.09.2014, 15:27 +17.64% Comptoir Sud Pacifique Coco Figue Eau de Toilette 30ml um €29,35 (statt: €24,95) bei Parfumdreams
02.09.2014, 15:27 +9.41% 4711 WunderWasser Women Eau de Cologne 50ml um €13,95 (statt: €12,75) bei Parfumdreams
02.09.2014, 15:27 +15.60% Ermenegildo Zegna Z Zegna Eau de Toilette 100ml um €58,90 (statt: €50,95) bei Onlinestore-John
02.09.2014, 15:27 +46.00% Givenchy Play for Her Eau de Parfum 50ml um €43,80 (statt: €30,--) bei Parfum-Zentrum.de
02.09.2014, 15:27 +10.51% OPI San Francisco Nagellack altar ego (NLS78) 15ml um €10,94 (statt: €9,90) bei Fashiontrend565eu
02.09.2014, 15:27 +15.19% Astor Shine Deluxe Lipgloss 004 Rare Amethyst um €7,43 (statt: €6,45) bei Parfumdreams
02.09.2014, 15:27 +5.68% Paul Mitchell flexiblestyle Hair Sculpting Lotion Stylingfluid 100ml um €8,-- (statt: €7,57) bei Beautyshop24 DE
02.09.2014, 15:27 +14.10% Paul Mitchell moisture Super-Charged Moisturizer Feuchtigkeitskur 200ml um €23,95 (statt: €20,99) bei hagelshop.de
02.09.2014, 15:27 +4.40% Paul Mitchell moisture Super-Charged Moisturizer Feuchtigkeitskur 100ml um €15,65 (statt: €14,99) bei hagelshop.de
02.09.2014, 15:27 +7.65% Paul Mitchell extrabody Sculpting Foam Haarschaum 59ml um €9,15 (statt: €8,50) bei Webhair.de
02.09.2014, 15:27 +10.50% Paul Mitchell extrabody Daily Rinse Pflegespülung 300ml um €24,-- (statt: €21,72) bei Beautyshop24 DE
02.09.2014, 15:27 +10.66% Paul Mitchell colorcare Color Protect Locking Spray Pflegespray 100ml um €13,50 (statt: €12,20) bei Beautyshop24 DE
02.09.2014, 15:27 +1.97% Salvatore Ferragamo Attimo Eau de Parfum 100ml um €52,20 (statt: €51,19) bei Duftwelt-Hamburg | MeinPaket
02.09.2014, 15:27 +6.29% Salvatore Ferragamo F By Ferragamo Black Pour Homme Eau de Toilette 30ml um €17,75 (statt: €16,70) bei Parfümerie Dömer
02.09.2014, 15:27 +19.43% Salvatore Ferragamo F By Ferragamo Pour Homme Eau de Toilette 50ml um €20,90 (statt: €17,50) bei Fairsandhaus
02.09.2014, 15:27 +40.10% Acqua di Parma Iris Nobile Eau de Parfum 100ml um €115,95 (statt: €82,76) bei Parfumdreams
02.09.2014, 15:27 +4.87% Etro Paisley Eau de Parfum 50ml um €87,-- (statt: €82,96) bei Seifen Fantasie DE
02.09.2014, 15:27 +7.29% DSquared2 Golden Light Wood Eau de Parfum 50ml um €30,90 (statt: €28,80) bei Rakuten
02.09.2014, 15:27 -2.48% Roberto Cavalli I Love Just Cavalli Him Eau de Toilette 30ml um €14,95 (statt: €15,33) bei Parfumdreams
02.09.2014, 15:27 -1.24% AMD FX-8350, 8x 4.00GHz, tray (FD8350FRW8KHK) um €154,90 (statt: €156,85) bei Caseking.de
02.09.2014, 15:27 +3.00% Versace Eros Eau de Toilette 30ml um €22,35 (statt: €21,70) bei ParfumGroup
02.09.2014, 15:27 +2.95% Rancé Le Roi Empereur Eau de Parfum 50ml um €67,95 (statt: €66,--) bei Parfumdreams
02.09.2014, 15:27 +0.54% Lalique Encre Noire Pour Elle Body Lotion 150ml um €25,95 (statt: €25,81) bei Parfumdreams
02.09.2014, 15:27 +44.09% Artdeco Ceramic Nail Lacquer Nagellack 2811.84 good night 6ml um €5,85 (statt: €4,06) bei Parfumdreams
02.09.2014, 15:27 +6.27% Lavera Trend sensitiv Intense Volumizing Mascara black 13ml um €6,95 (statt: €6,54) bei Parfumdreams
02.09.2014, 15:27 -48.24% Lavera Trend sensitiv Glossy Lips Lipgloss 01 Shining Star 6.5ml um €2,20 (statt: €4,25) bei H&G-Trade
02.09.2014, 15:27 +1.47% Wella Color Touch Relights Haartönung red /47 60ml um €6,90 (statt: €6,80) bei Big Usi
02.09.2014, 15:27 +6.05% Hugo Boss Baldessarini Private Affairs Eau de Toilette 50ml um €20,67 (statt: €19,49) bei Parfumlife
02.09.2014, 15:27 +20.45% New Yorker Women Soft Cream Shower 150ml um €5,95 (statt: €4,94) bei Parfumdreams
02.09.2014, 15:27 +1.84% Strellson Loaded Eau de Toilette 50ml um €30,45 (statt: €29,90) bei Parfümerie Tan
02.09.2014, 15:27 +7.35% Strellson No.1 Eau de Toilette 50ml um €36,50 (statt: €34,--) bei Parfümerie Dömer
02.09.2014, 15:27 +1.20% Jean-Charles Brosseau Ombre Rose Eau de Toilette 100ml um €37,14 (statt: €36,70) bei Ocean of Smells | MeinPaket
02.09.2014, 15:27 +2.14% Heidi Klum Shine Blue Eau de Toilette 15ml um €11,95 (statt: €11,70) bei Parfumdreams
02.09.2014, 15:27 +85.71% Astor 24h Perfect Stay Eye Shadow + Liner Lidschatten 100 Creamy Taupe 3g um €6,50 (statt: €3,50) bei Parfumdreams
02.09.2014, 15:27 +0.95% Calvin Klein CK free After Shave Balsam 150ml um €14,90 (statt: €14,76) bei Fairsandhaus
02.09.2014, 15:27 +0.50% Lancaster Sun for Kids Comfort Cream Wet Skin Sonnencreme LSF50 125ml um €20,10 (statt: €20,--) bei cosmeticexpress
02.09.2014, 15:27 +14.85% Astor Perfect Stay Gel Shine Nagellack 404 Purple Addiction 12ml um €5,57 (statt: €4,85) bei Parfumdreams
02.09.2014, 15:27 +14.85% Astor Perfect Stay Gel Shine Nagellack 302 Cheeky Chic 12ml um €5,57 (statt: €4,85) bei Parfumdreams
02.09.2014, 15:27 +12.53% Astor Perfect Stay Gel Shine Nagellack 103 Sugar Candy 12ml um €5,57 (statt: €4,95) bei Parfumdreams
02.09.2014, 15:27 +1.44% Astor Heidi Color Last VIP Lippenstift 002 Sweety um €4,92 (statt: €4,85) bei Parfumdreams
02.09.2014, 15:27 +1.07% Ralph Lauren Big Pony Collection No.4 Eau de Toilette 30ml um €24,50 (statt: €24,24) bei Amazon.de
02.09.2014, 15:27 +1.44% Astor Color Last VIP Lippenstift 125 Magnetic Mauve um €4,92 (statt: €4,85) bei Parfumdreams
02.09.2014, 15:27 +41.13% L'Oréal LuoColor Haarfarbe 7,34 mittelblond gold kupfer 50ml um €7,-- (statt: €4,96) bei Basic-Hairshop
02.09.2014, 15:27 +40.12% L'Oréal LuoColor Haarfarbe 6,4 dunkelblond kupfer 50ml um €6,95 (statt: €4,96) bei XXL-Friseurmarkt
02.09.2014, 15:27 +39.11% L'Oréal LuoColor Haarfarbe 9 sehr helles Blond 50ml um €6,90 (statt: €4,96) bei Big Usi
02.09.2014, 15:27 +41.13% L'Oréal LuoColor Haarfarbe 7 mittelblond 50ml um €7,-- (statt: €4,96) bei Basic-Hairshop
02.09.2014, 15:27 +41.13% L'Oréal LuoColor Haarfarbe 5 hellbraun 50ml um €7,-- (statt: €4,96) bei Basic-Hairshop
02.09.2014, 15:27 +17.86% adidas Team Force Aftershave Lotion 100ml um €4,95 (statt: €4,20) bei Parfum-Zentrum.de
02.09.2014, 15:27 +0.97% Lanvin Avant Garde pour Homme Eau de Toilette 50ml um €19,69 (statt: €19,50) bei Xergia Beautyspot | amazon.de
02.09.2014, 15:27 +11.59% Yves Saint Laurent La Nuit De L'Homme Frozen Cologne 100ml um €55,74 (statt: €49,95) bei ParfumGroup
02.09.2014, 15:27 +8.68% Christian Dior Escale à Pondichéry Eau de Toilette 125ml um €52,06 (statt: €47,90) bei RedZilla
02.09.2014, 15:27 +15.28% Guerlain Insolence Eau de Toilette 100ml um €67,90 (statt: €58,90) bei Parfüm für Dich
02.09.2014, 15:27 +2.53% Redken Clear Moisture Conditioner 250ml um €12,15 (statt: €11,85) bei Matuschka-Shop.de
02.09.2014, 15:27 +6.08% Redken Real Control Intense Renewal Haarmaske 250ml um €17,45 (statt: €16,45) bei Versandfriseur
02.09.2014, 15:27 +0.76% Redken Real Control Shampoo 300ml um €11,99 (statt: €11,90) bei hair-shop24
02.09.2014, 15:27 +48.51% Oscar de la Renta Esprit D'Oscar Eau de Parfum 50ml um €39,95 (statt: €26,90) bei Parfumdreams
02.09.2014, 15:27 -4.81% Lacoste Eau de Lacoste L.12.12 Noir Eau de Toilette 30ml um €24,95 (statt: €26,21) bei Parfumdreams
02.09.2014, 15:27 -13.97% Lacoste Eau de Lacoste L.12.12 Blanc Eau de Toilette 30ml um €24,95 (statt: €29,--) bei Parfumdreams
02.09.2014, 15:27 +26.78% Hugo Boss Orange Sunset Eau de Toilette 50ml um €32,90 (statt: €25,95) bei Fairsandhaus.com
02.09.2014, 15:26 -19.57% Serge Lutens Bas de Soie Eau de Parfum 50ml um €65,95 (statt: €82,--) bei Parfumdreams
02.09.2014, 15:26 -10.36% Donna Karan MYNY Shower Gel 150ml um €9,95 (statt: €11,10) bei Parfumdreams
02.09.2014, 15:26 -6.64% Donna Karan MYNY Body Lotion 150ml um €11,95 (statt: €12,80) bei Parfumdreams
02.09.2014, 15:26 -2.58% Donna Karan MYNY Eau de Parfum 50ml um €50,95 (statt: €52,30) bei Parfumdreams
02.09.2014, 15:26 -1.86% Plantronics Gamecom 780 (86051-05) um €47,-- (statt: €47,89) bei K&M Computer Shop
02.09.2014, 15:25 -32.13% Maxxis Ardent MTB Reifen (versch. Größen) um €16,90 (statt: €24,90) bei Action Sports
02.09.2014, 15:24 -1.73% Nikon Coolpix S2700 rot (VNA302E1) um €86,45 (statt: €87,97) bei Amazon.de
02.09.2014, 15:24 -0.70% Logitech G500s Gaming Mouse, USB (910-003604/910-003605/910-003607) um €63,78 (statt: €64,23) bei Amazon.de
02.09.2014, 15:24 +4.32% LG Electronics G3 S D722 weiß um €339,-- (statt: €324,95) bei handy-schotte.com
02.09.2014, 15:24 +13.08% Vornado 633 Bodenventilator um €59,90 (statt: €52,97) bei getgoods
02.09.2014, 15:24 -41.45% Inner Rage um €3,97 (statt: €6,78) bei eBay.de
02.09.2014, 15:24 +17.93% Vincenzo Bellini - Norma um €16,51 (statt: €14,--) bei marvelio-germany
02.09.2014, 15:23 -10.11% iXS Hack-Series Scheinbeinschoner Protektor um €34,95 (statt: €38,88) bei Amazon.de
02.09.2014, 15:23 -3.57% Olimp Argi Power 1500 Mega Kapseln, 120 Stück um €17,82 (statt: €18,48) bei Amazon.de
02.09.2014, 15:23 -2.52% Puma PU102941001 um €68,44 (statt: €70,21) bei Amazon.de
02.09.2014, 15:23 +1.20% Gigaset S820A um €79,95 (statt: €79,--) bei cw-mobile.de
02.09.2014, 15:23 +13.57% Speedlink Rhea Headset (SL-8712) um €7,95 (statt: €7,--) bei com.discount.kg
02.09.2014, 15:23 +30.93% Mamirobot KF7 titanium Reinigungsroboter + Handstaubsauger (KF-003) um €309,-- (statt: €236,--) bei getgoods
02.09.2014, 15:23 -9.70% Casio Edifice EFR-529D-1A9VUEF um €102,08 (statt: €113,05) bei Amazon.de
02.09.2014, 15:23 -1.90% Bosch Rotak 43LI Akku-Sichelmäher solo (06008A4508) um €324,81 (statt: €331,11) bei Amazon.de
02.09.2014, 15:23 +7.21% Burton AK 2L Cyclic Snowboardhose (Herren) um €149,99 (statt: €139,90) bei Rakuten
02.09.2014, 15:23 -12.46% Casio G-Shock GDF-100-1AER um €104,17 (statt: €119,--) bei Amazon.de
02.09.2014, 15:23 +17.26% Monty Roberts - Shy Boy um €18,41 (statt: €15,70) bei buecheroase_muenchen
02.09.2014, 15:23 -1.77% ABUS Security-Center FU8110, Funk-Bedienteil um €159,03 (statt: €161,90) bei Amazon.de
02.09.2014, 15:23 +20.02% VauDe Taurus II Kuppelzelt um €161,91 (statt: €134,90) bei Vertical Extreme
02.09.2014, 15:23 +17.84% Lexmark C7702KH Toner schwarz hohe Kapazität um €200,21 (statt: €169,90) bei Amazon.de
02.09.2014, 15:23 +21.03% Tristar SZ-2190 Bodenstaubsauger beutellos um €78,55 (statt: €64,90) bei Amazon.de
02.09.2014, 15:23 +8.76% Bodyguard (Special Editions) um €4,47 (statt: €4,11) bei zoreno-deutschland
02.09.2014, 15:23 -5.01% Olympus PRF-D40.5 Filter Schutz (N3605100) um €24,82 (statt: €26,13) bei Amazon.de
02.09.2014, 15:23 -1.13% VauDe Cyclone III Jacke (Herren) um €52,48 (statt: €53,08) bei Amazon.de
02.09.2014, 15:23 +18.29% Toshiba eXcite Write AT10PE-A-106 (PDA0EE-0060223GR) um €699,-- (statt: €590,91) bei Amazon.de
02.09.2014, 15:23 +57.04% Rush Hour 2 um €6,25 (statt: €3,98) bei eBay.de
02.09.2014, 15:23 +28.12% Bottoms Up (Blu-ray) um €8,84 (statt: €6,90) bei SchwanHM
02.09.2014, 15:23 -5.06% Krusell Screen Protector für Nokia Lumia 625 (20181) um €5,07 (statt: €5,34) bei Amazon.de
02.09.2014, 15:23 +45.80% Mr. Deeds (Special Editions) um €7,99 (statt: €5,48) bei computeruniverse.net
02.09.2014, 15:23 +26.47% Hulk (Special Editions) um €5,59 (statt: €4,42) bei media-dealer
02.09.2014, 15:23 -1.00% Festina F16673/3 um €133,80 (statt: €135,15) bei Amazon.de
02.09.2014, 15:23 +12.14% Samsung Galaxy Mega 6.3 LTE i9205 8GB schwarz um €369,99 (statt: €329,95) bei quelle.de
02.09.2014, 15:22 +0.50% Silver City um €5,99 (statt: €5,96) bei epixmedia
02.09.2014, 15:22 +130.64% Dyson Matratzendüse (908940-08) um €7,98 (statt: €3,46) bei Energeto
02.09.2014, 15:22 -1.02% Nike Filament Laufhose lang (Damen) um €20,30 (statt: €20,51) bei Amazon.de
02.09.2014, 15:22 +20.22% In einem Land vor unserer Zeit Vol. 10 (Folgen 19-20) um €5,59 (statt: €4,65) bei media-dealer
02.09.2014, 15:22 +4.88% Port Royale 3 & Patrizier IV - Gold Edition Bundle (deutsch) (PC) um €18,50 (statt: €17,64) bei computeruniverse.net
02.09.2014, 15:22 -4.82% StarTech ICUSB2322I USB 2.0 auf 2-port seriell Hub um €38,27 (statt: €40,21) bei Amazon.de
02.09.2014, 15:22 +5.85% D-Link D-View 6.0 Standard, Network Management Software (DV-600S) um €765,64 (statt: €723,35) bei LocalPC.de | Meinpaket
02.09.2014, 15:22 -5.04% Hama aha: Lenni für Google Nexus 7, orange (00101519) um €12,07 (statt: €12,71) bei Amazon.de
02.09.2014, 15:22 +96.65% The Cave um €9,99 (statt: €5,08) bei bol.de
02.09.2014, 15:22 +0.92% 18 Kartenspiele (deutsch) (DS) um €12,10 (statt: €11,99) bei Game World
02.09.2014, 15:22 -4.83% Carrera Edge Lady Helm (versch. Farben/Größen) um €49,31 (statt: €51,81) bei Amazon.de
02.09.2014, 15:22 -2.89% Eichhorn Hello Kitty Motorikschleife (100003136) um €16,46 (statt: €16,95) bei Amazon.de
02.09.2014, 15:22 +0.87% Mattel Fisher-Price Thomas & seine Freunde TrackMaster Thomas Bahn-Spielset (R9488) um €21,99 (statt: €21,80) bei Rakuten
02.09.2014, 15:22 +5.79% Diverse Schnittstellenkarten 4x seriell/1x parallel, PCI um €22,65 (statt: €21,41) bei ITmedia24.de
02.09.2014, 15:22 -0.92% Maier Sports Seefeld Jacke (Herren) um €129,53 (statt: €130,73) bei Amazon.de
02.09.2014, 15:22 -4.98% Carrera Hillborne Helm (versch. Farben/Größen) um €34,51 (statt: €36,32) bei Amazon.de
02.09.2014, 15:22 -62.51% Samsung Galaxy S Duos GT-S7562 weiß um €44,60 (statt: €118,95) bei Yakodo - Best Electronics
02.09.2014, 15:22 +1.45% Transmedia LED Leuchtstoffröhre T8/G13 13W 90cm tageslichtweiß (LR-2C) um €35,09 (statt: €34,59) bei Amazon.de
02.09.2014, 15:22 -1.00% Citizen FE1011-03B um €108,55 (statt: €109,65) bei Amazon.de
02.09.2014, 15:22 +14.58% Gigaset A415A Trio schwarz (L36852-H2525-B111) um €67,60 (statt: €59,--) bei notebooksbilliger.de
02.09.2014, 15:22 -5.00% HP t620 Flexible Thin Client, GX-415GA, 4GB RAM, 16GB Flash, IGP, WES 8 (G6F35AT) um €413,09 (statt: €434,83) bei Amazon.de
02.09.2014, 15:22 -4.60% Dicota Slim Cover für Sony Xperia S türkis (D30493) um €3,94 (statt: €4,13) bei Amazon.de
02.09.2014, 15:22 -7.73% JBL E40 BT rot um €91,35 (statt: €99,--) bei Amazon.de
02.09.2014, 15:22 +3.07% Canton CD 1020 Paar weiß um €152,55 (statt: €148,--) bei Amazon.de
02.09.2014, 15:22 +16.38% CamelBak eddy Insulated Fire 0.6l Trinkflasche um €18,90 (statt: €16,24) bei funktionelles.de
02.09.2014, 15:22 -4.50% Incubus - Look Alive (Blu-ray) um €10,41 (statt: €10,90) bei Amazon.de
02.09.2014, 15:22 +1.02% Quantum Theory (deutsch) (PS3) um €9,95 (statt: €9,85) bei games.empire DE
02.09.2014, 15:20 -2.24% Panasonic SC-PMX7 silber/schwarz um €199,-- (statt: €203,55) bei EURONICS
02.09.2014, 15:20 -2.09% VNR Verlag: Unternehmenssteuern und Rechnungswesen 2013 (deutsch) (PC) um €36,58 (statt: €37,36) bei Amazon.de
02.09.2014, 15:20 -1.96% Odys Pulse 4GB rot/schwarz (X700362) um €22,49 (statt: €22,94) bei DriveCity
02.09.2014, 15:19 -16.77% HP X1000 Mouse, USB (H2C21AA) um €4,02 (statt: €4,83) bei erstens-mertens.de
02.09.2014, 15:19 -18.10% Bosch MFQ 40304 Handmixer um €33,99 (statt: €41,50) bei Lapado
02.09.2014, 15:18 -1.51% Samsung MC-285TCTCSQ Mikrowelle mit Heißluft um €196,-- (statt: €199,--) bei notebooksbilliger.de
02.09.2014, 15:18 -3.74% Philips FC9184/01 Performer Pro Bodenstaubsauger um €123,15 (statt: €127,94) bei notebooksbilliger.de
02.09.2014, 15:18 -3.83% Philips Marathon FC9219/01 Bodenstaubsauger beutellos um €159,49 (statt: €165,84) bei notebooksbilliger.de
02.09.2014, 15:18 -4.90% Philips FC8071/01 Hepa 10 Abluftfilter um €9,50 (statt: €9,99) bei notebooksbilliger.de
02.09.2014, 15:18 -20.03% Philips FC8070/01 Hepa 10 Abluftfilter um €5,99 (statt: €7,49) bei notebooksbilliger.de
02.09.2014, 15:18 -8.10% Philips FC8038/01 Hepa 13 Abluftfilter um €15,99 (statt: €17,40) bei notebooksbilliger.de
02.09.2014, 15:18 -1.63% Makita BHP453RHEX Akku-Schlagbohrschrauber (versch. Ausführungen) um €229,-- (statt: €232,80) bei notebooksbilliger.de
02.09.2014, 15:18 -2.28% Samsung UE75F8090 um €4295,-- (statt: €4395,--) bei Kitchenland.de
02.09.2014, 15:17 -4.84% Nikon Coolpix P330 weiß (VNA241E1) um €275,-- (statt: €289,--) bei Pixxass e.K.
02.09.2014, 15:17 -16.76% Dakine Heli-Pro 20 um €49,90 (statt: €59,95) bei biker-boarder
02.09.2014, 15:17 -0.57% Vanguard The Heralder 28 Schultertasche schwarz um €68,50 (statt: €68,89) bei Foto Köster
02.09.2014, 15:17 -6.43% Vanguard BIIN 47 Kameratasche (verschiedene Farben) um €39,99 (statt: €42,74) bei Foto Köster
02.09.2014, 15:17 -1.35% Vanguard Up-Rise 46 Rucksack um €72,95 (statt: €73,95) bei Foto Köster
02.09.2014, 15:17 -9.26% Vanguard Up-Rise 18 Schultertasche um €25,-- (statt: €27,55) bei Foto Köster
02.09.2014, 15:17 -10.86% Vanguard Up-Rise 14Z Holstertasche um €24,95 (statt: €27,99) bei Foto Köster
02.09.2014, 15:17 +14.14% The Warrior and the Ninja um €3,39 (statt: €2,97) bei eBay.de
02.09.2014, 15:15 -34.50% Die schönsten Länder der Welt: Namibia um €3,55 (statt: €5,42) bei andoja
02.09.2014, 15:15 +139.20% Epson AcuLaser M4000N, S/W-Laser (C11CA10001BZ) um €299,-- (statt: €125,--) bei UK Surplus Central Ltd | amazon.de
02.09.2014, 15:15 -22.23% Bestron A2300E um €71,71 (statt: €92,21) bei Amazon.de
02.09.2014, 15:15 -8.61% Bestron DBB2300E um €66,16 (statt: €72,39) bei Amazon.de
02.09.2014, 15:15 -5.56% Philips FC6168/01 PowerProDuo Handstaub-/Akkusauger um €169,99 (statt: €179,99) bei Amazon.de
02.09.2014, 15:15 -5.75% Concord Wanderer Buggy (verschiedene Farben) um €333,67 (statt: €354,02) bei Amazon.de
02.09.2014, 15:15 -8.89% Jata PL438C Dampfbügeleisen um €29,71 (statt: €32,61) bei Amazon.de
02.09.2014, 15:15 +3.46% Burst Angel Vol. 4 (Folgen 13-16) um €12,26 (statt: €11,85) bei Amazon.de
02.09.2014, 15:15 +2.25% Indesit IWC61281 Eco Frontlader um €242,-- (statt: €236,68) bei redcoon.de
02.09.2014, 15:15 -3.17% Bialetti Moka Express 1 Tasse schwarz Espressokanne um €29,-- (statt: €29,95) bei Amazon.de
02.09.2014, 15:15 -3.94% Thule XG-12 Pro 245 um €142,02 (statt: €147,85) bei Amazon.de
02.09.2014, 15:15 -20.01% Chicco Soft & Sprint Schildkröte (67474) um €14,39 (statt: €17,99) bei Amazon.de
02.09.2014, 15:15 +1.39% One Piece - Strong World um €10,94 (statt: €10,79) bei ImLaden
02.09.2014, 15:15 +0.81% Der Sezierer um €4,99 (statt: €4,95) bei Multi-Media-Trade GmbH
02.09.2014, 15:15 -2.08% Dicota Flexi Case für Samsung Galaxy S3 rosa (D30559) um €13,68 (statt: €13,97) bei Amazon.de
02.09.2014, 15:15 +23.83% Constantine um €3,69 (statt: €2,98) bei chrisdvdshop
02.09.2014, 15:15 +32.11% Frost/Nixon um €6,50 (statt: €4,92) bei media-dealer
02.09.2014, 15:15 +91.33% Der Mann, der zuviel wusste/Cocktail für eine Leiche um €9,49 (statt: €4,96) bei computeruniverse.net
02.09.2014, 15:15 +86.96% Timecop 2 um €5,59 (statt: €2,99) bei media-dealer
02.09.2014, 15:15 +0.61% Duke Ellington - Love You Madly um €8,25 (statt: €8,20) bei zoreno-deutschland
02.09.2014, 15:15 +0.97% Eizo RadiForce MS230W, 23" (MS230W-BK) um €418,17 (statt: €414,15) bei hardwareversand.de
02.09.2014, 15:15 -5.31% Casio G-Shock G-8900-1ER um €71,87 (statt: €75,90) bei Amazon.de
02.09.2014, 15:15 -28.00% Casio Edifice EF-562D-1AVEF um €79,68 (statt: €110,67) bei Amazon.de
02.09.2014, 15:15 -0.95% Canon Mattscheibe EC-C IV (1890B001) um €23,87 (statt: €24,10) bei Amazon.de
02.09.2014, 15:15 -2.96% Edimax EK-PA2C, 2-fach um €15,74 (statt: €16,22) bei Amazon.de
02.09.2014, 15:15 +1.64% Spirit Trap - Die Geisterfalle um €4,35 (statt: €4,28) bei Kara-Handelshaus GmbH
02.09.2014, 15:15 +35.04% Pat Says Now Ghost Mouse, USB um €26,94 (statt: €19,95) bei Amazon.de
02.09.2014, 15:14 +15.66% Siemens TB46230 Slider S3 Secure Power Dampfbügeleisen um €48,-- (statt: €41,50) bei Elektro 2000
02.09.2014, 15:14 +171.76% Bosch PFP 3510 Heizkissen um €46,20 (statt: €17,--) bei sysgotec.de
02.09.2014, 15:14 +2.73% Gardena Pumpensteuerung 24V (1273) um €33,90 (statt: €33,--) bei EPSHOP
02.09.2014, 15:14 +7.54% Ecobulb 15W E27 Spiralen T2-Röhre um €4,99 (statt: €4,64) bei Grünspar.de
02.09.2014, 15:14 -5.00% Fujitsu S26361-F4482-L145 um €234,66 (statt: €247,01) bei Amazon.de
02.09.2014, 15:14 -3.16% Der letzte Zeuge Staffel 1 um €8,59 (statt: €8,87) bei Amazon.de
02.09.2014, 15:14 -6.13% Canon CG-300 Ladegerät (0784B003) um €29,99 (statt: €31,95) bei eBay.de
02.09.2014, 15:14 -4.64% Maier Sports Tajo Hose (Herren) um €59,15 (statt: €62,03) bei Amazon.de
02.09.2014, 15:14 -0.65% Fujitsu Prestige Case S65 Tragetasche (S26391-F119-L65) um €39,98 (statt: €40,24) bei Amazon.de
02.09.2014, 15:14 -3.75% Stargate Kommando SG1 Box (Season 1-10) um €76,99 (statt: €79,99) bei Amazon.de
02.09.2014, 15:14 -3.94% Lässig LMB1020244 Messenger Bag Indi olive Casual Wickeltasche um €57,59 (statt: €59,95) bei Amazon.de
02.09.2014, 15:14 +1.14% Behind The Mask - The Rise Of Leslie Vernon (Blu-ray) um €9,79 (statt: €9,68) bei futuresoundproduction
02.09.2014, 15:14 +9.85% Tim und Struppi: Tim und die blauen Orangen um €6,47 (statt: €5,89) bei zoreno-deutschland
02.09.2014, 15:14 -8.28% Cro Mag Rally (deutsch) (MAC) um €14,95 (statt: €16,30) bei Amazon.de
02.09.2014, 15:14 -2.64% Powerslide R2 (Modell 2014) um €204,31 (statt: €209,85) bei Amazon.de
02.09.2014, 15:14 -2.20% Powerslide Vi 84 (Modell 2014) um €102,92 (statt: €105,24) bei Amazon.de
02.09.2014, 15:14 -1.28% cdVet Fit Crock TCVM 2kg um €27,79 (statt: €28,15) bei Amazon.de
02.09.2014, 15:14 -5.00% V7 Videoseven USB-Stick 4GB, USB 2.0 (VU24GAR-BLK-2N) um €5,32 (statt: €5,60) bei Amazon.de
02.09.2014, 15:14 +80.71% Braid (deutsch) (PC) um €5,06 (statt: €2,80) bei Game World
02.09.2014, 15:14 -1.32% Recaro Monza Nova mocca um €154,99 (statt: €157,07) bei Amazon.de
02.09.2014, 15:14 +6.57% Almost Famous (Blu-ray) um €7,79 (statt: €7,31) bei nagiry DE
02.09.2014, 15:14 +8.19% Die Brücke am Kwai (Blu-ray) um €7,79 (statt: €7,20) bei nagiry DE
02.09.2014, 15:14 +73.51% Super Süß und Super Sexy um €6,42 (statt: €3,70) bei Multi-Media-Trade GmbH
02.09.2014, 15:14 +2.62% Honeywell HZ340E Keramikheizlüfter um €29,80 (statt: €29,04) bei Rheingauer
02.09.2014, 15:14 +80.71% Sacred 2: Fallen Angel (englisch) (PS3) um €68,49 (statt: €37,90) bei SchwanHM
02.09.2014, 15:14 +59.73% Dein Ex - Mein Albtraum um €5,99 (statt: €3,75) bei bol.de
02.09.2014, 15:14 +40.91% Avatar, der Herr der Elemente - Buch 1: Wasser Vol. 3 um €7,75 (statt: €5,50) bei eBay.de
02.09.2014, 15:14 +12.36% All You've Got um €7,82 (statt: €6,96) bei Multi-Media-Trade GmbH
02.09.2014, 15:14 -31.38% Indiana Jones IV - Das Königreich des Kristallschädels (Special Editions) um €6,56 (statt: €9,56) bei toppreis321
02.09.2014, 15:14 +77.13% Dodgeball - Voll auf die Nüsse um €6,66 (statt: €3,76) bei eBay.de
02.09.2014, 15:14 -0.57% Wolf-Garten Li-Ion Power 34 Akku-Rasenmäher (4919000) um €310,44 (statt: €312,23) bei Amazon.de
02.09.2014, 15:14 -1.63% Wolf-Garten Select 4200 Benzin-Rasenmäher (11A-LOJD650) um €167,96 (statt: €170,74) bei Amazon.de
02.09.2014, 15:14 -0.93% Wolf-Garten TT350S Spindelmäher, mechanisch (3622000) um €58,31 (statt: €58,86) bei Amazon.de
02.09.2014, 15:14 -1.42% Wolf-Garten BluePower 34E Elektro-Rasenmäher (18AW-F1X1-650) um €135,72 (statt: €137,68) bei Amazon.de
02.09.2014, 15:14 -0.53% Wolf-Garten Ambition 38E Elektro-Rasenmäher (18ACH4H2-650) um €127,32 (statt: €128,--) bei Amazon.de
02.09.2014, 15:14 -2.69% Carrera - Digital 124/132 Zubehör - Wireless+ Empfänger (10112) um €12,64 (statt: €12,99) bei Amazon.de
02.09.2014, 15:14 -5.00% Simba Toys ABC Baby Gym (104011784) um €15,20 (statt: €16,--) bei Amazon.de
02.09.2014, 15:14 -1.35% ABUS Ecolution Helm (versch. Farben/Größen) um €48,13 (statt: €48,79) bei Amazon.de
02.09.2014, 15:14 +14.30% Eichhorn Schneidebretter Set mit Gemüse (100003722) um €11,99 (statt: €10,49) bei simsalabim-toys
02.09.2014, 15:14 -11.78% Casio Sea-Pathfinder SPS-300C-2VER (Segleruhr) um €35,73 (statt: €40,50) bei Amazon.de
02.09.2014, 15:14 +0.80% BigBen Ladestation inkl. Akku für Nintendo 3DS (DS) um €13,90 (statt: €13,79) bei Eliware DE
02.09.2014, 15:14 -3.05% Nixon Wire 3-Button-Mic All Black um €33,36 (statt: €34,41) bei Amazon.de
02.09.2014, 15:14 +8.40% HP E2Q93AT um €77,85 (statt: €71,82) bei Jacob Elektronik | amazon.de
02.09.2014, 15:14 +3.37% Caillou Vol. 9: Spuren im Schnee und weitere Geschichten um €7,98 (statt: €7,72) bei eBay.de
02.09.2014, 15:14 -4.16% Columbia Bombs Aweigh Jacke (Herren) um €62,25 (statt: €64,95) bei Amazon.de
02.09.2014, 15:14 +3.47% HP 3TB 3G SATA 7.2K 3.5" Non-Hot Plug LFF MDL HDD (628065-B21) um €459,-- (statt: €443,60) bei etradeComputers | amazon.de
02.09.2014, 15:14 -0.75% Lenovo IBM 67Y1437 um €243,82 (statt: €245,66) bei Amazon.de
02.09.2014, 15:14 -0.75% HP SpacePilot Pro USB 3D, USB (WH343AA) um €477,29 (statt: €480,90) bei Amazon.de
02.09.2014, 15:14 -4.48% Lastolite ePhotomaker Small Kit (2484) um €50,77 (statt: €53,15) bei Amazon.de
02.09.2014, 15:14 +33.07% Snowboarder um €4,99 (statt: €3,75) bei kidoh.de
02.09.2014, 15:14 +19.10% Mattel Barbie Party Prinzessin 2 (X9440) um €14,90 (statt: €12,51) bei Rakuten
02.09.2014, 15:14 -4.99% Kingston KTD-PE316ES/2G um €22,26 (statt: €23,43) bei Amazon.de
02.09.2014, 15:14 +74.23% Lexmark C7702CH Toner cyan hohe Kapazität um €279,90 (statt: €160,65) bei Printer Profi Partner GbR
02.09.2014, 15:14 -4.99% Belkin Stylus Pen für Tablets weiß (F5L097BTWHT) um €8,76 (statt: €9,22) bei Amazon.de
02.09.2014, 15:14 -1.47% Belkin Fiber Channel Kabel Multimode Duplex 3m (F2F20297-03M) um €20,74 (statt: €21,05) bei Amazon.de
02.09.2014, 15:14 -5.00% SUGOi Helium Fahrradjacke (Herren) um €48,61 (statt: €51,17) bei Amazon.de
02.09.2014, 15:14 -4.99% SUGOi Evolution Shorty Fahrradhose kurz (Damen) um €41,69 (statt: €43,88) bei Amazon.de
02.09.2014, 15:14 +77.82% Ghost in the Shell - Stand Alone Complex 2nd GIG Vol. 5 um €8,50 (statt: €4,78) bei komplett-allesguenstig
02.09.2014, 15:14 -5.00% Intel ASR1500SASBP um €108,71 (statt: €114,43) bei Amazon.de
02.09.2014, 15:14 -5.02% V7 Videoseven Cityline Anti-Shock Sleeve für 10.1" Tablets schwarz (CSX10T-2E) um €12,29 (statt: €12,94) bei Amazon.de
02.09.2014, 15:14 +46.20% Pentax Objektiv Q 06 Telephoto Zoom 15-45mm 2.8 AL (22157) um €269,-- (statt: €184,--) bei Digitfoto
02.09.2014, 15:14 -6.25% Krups XN3008 Pixie Nespresso um €100,22 (statt: €106,90) bei Amazon.de
02.09.2014, 15:14 +33.11% Krups KP5000 Nescafe Dolce Gusto Circolo um €79,80 (statt: €59,95) bei notebooksbilliger.de
02.09.2014, 15:14 -5.83% Adobe: Photoshop Elements 12.0, ESD (deutsch) (PC/MAC) (65225064) um €49,90 (statt: €52,99) bei Amazon.de
02.09.2014, 15:14 -7.00% Die Sims 3 - Monte Vista (Download) (Add-on) (PC) um €16,73 (statt: €17,99) bei Amazon.de
02.09.2014, 15:13 -2.91% Mattel Monster High Zombie Shake Meowlody und Purrsephone (BJR16) um €36,69 (statt: €37,79) bei Amazon.de
02.09.2014, 15:13 -2.99% Pewag Servo SUV RSV 81A (37018) um €104,75 (statt: €107,98) bei Amazon.de
02.09.2014, 15:13 -2.45% Zalman SSD-F1 series 120GB, SATA 6Gb/s (SSD0120F1) um €142,82 (statt: €146,40) bei Amazon.de
02.09.2014, 15:13 -3.46% Samsung Lederarmband für Gear 2/Gear 2 Neo schwarz (ET-SR380LB) um €34,91 (statt: €36,16) bei Amazon.de
02.09.2014, 15:13 +10.66% Samsung Galaxy S4 Zoom C1010 schwarz um €260,-- (statt: €234,95) bei notebook.de
02.09.2014, 15:13 +51.61% Get a Clue - Lass Dir was einfallen um €7,99 (statt: €5,27) bei computeruniverse.net
02.09.2014, 15:13 +14.35% Ein Königreich für ein Lama 2 um €7,89 (statt: €6,90) bei mugge_etc
02.09.2014, 15:13 -0.65% Maxi-Cosi Fußsack für Citi CX (verschiedene Farben) um €53,57 (statt: €53,92) bei Amazon.de
02.09.2014, 15:13 +11.13% Bestron AVC1000R Handstaub-/Akkusauger um €66,82 (statt: €60,13) bei Amazon.de
02.09.2014, 15:13 -3.33% Rollerblade Spitfire Fitness-Skate (Kinder) (Modell 2010) um €44,08 (statt: €45,60) bei Amazon.de
02.09.2014, 15:13 -5.49% Manfrotto 393 Teleobjektiv-Halterung um €149,86 (statt: €158,56) bei Amazon.de
02.09.2014, 15:13 +50.06% Burst Angel Vol. 3 (Folgen 9-12) um €11,84 (statt: €7,89) bei Multi-Media-Trade GmbH
02.09.2014, 15:13 +72.68% Burst Angel Vol. 2 (Folgen 5-8) um €12,07 (statt: €6,99) bei Multi-Media-Trade GmbH
02.09.2014, 15:13 -5.01% TSG Substance 3.0 (versch. Farben/Größen) um €37,91 (statt: €39,91) bei Amazon.de
02.09.2014, 15:13 -1.78% Grès Cabotine Rose Eau de Toilette 50ml um €22,09 (statt: €22,49) bei Amazon.de
02.09.2014, 15:13 -0.95% Krusell Luna Nubuck L schwarz (95261) um €5,22 (statt: €5,27) bei Amazon.de
02.09.2014, 15:13 +10.21% Elvis Presley - Verschollen im Harem um €5,29 (statt: €4,80) bei Sellorado - Medien und Elektronik
02.09.2014, 15:13 +131.58% Batman Begins um €4,40 (statt: €1,90) bei eBay.de
02.09.2014, 15:13 +150.75% Final Destination 2 um €4,99 (statt: €1,99) bei Multi-Media-Trade GmbH
02.09.2014, 15:13 -1.24% Friendly Robotics MS1000 Robomow Akku-Rasenmähroboter um €1353,96 (statt: €1370,92) bei Amazon.de
02.09.2014, 15:13 -1.49% Sweet Protection Rooster Helm um €95,02 (statt: €96,46) bei Amazon.de
02.09.2014, 15:13 -1.23% Jou Jye Nu-4252 schwarz 400W ATX um €47,27 (statt: €47,86) bei Amazon.de
02.09.2014, 15:13 -5.01% Bestway Fast Set Pool 244x66cm um €12,71 (statt: €13,38) bei Amazon.de
02.09.2014, 15:13 +2.01% Sucker Punch um €4,07 (statt: €3,99) bei Drehscheibe24 | amazon.de
02.09.2014, 15:13 +1.84% Dr. House Season 2 um €9,98 (statt: €9,80) bei media-dealer
02.09.2014, 15:12 +27.95% Das schnelle Geld (Blu-ray) um €8,88 (statt: €6,94) bei media-dealer
02.09.2014, 15:12 +99.00% Tödliche Währung - Abgerechnet wird zum Schluss um €1,99 (statt: €1,--) bei eBay.de
02.09.2014, 15:12 +76.18% Van Helsing (Special Editions) um €5,99 (statt: €3,40) bei media-dealer
02.09.2014, 15:12 +8.79% Flipper um €5,32 (statt: €4,89) bei nagiry DE
02.09.2014, 15:12 +13.18% Sons Of Anarchy Season 2 (UK) um €16,06 (statt: €14,19) bei marvelio-germany
02.09.2014, 15:12 -5.00% Intel Core i7-4800MQ, 4x 2.70GHz, Sockel 947, boxed (BX80647I74800MQ) um €230,63 (statt: €242,77) bei Amazon.de
02.09.2014, 15:12 -7.09% Feeding Frenzy 2: Shipwreck Showdown (englisch) (PC) um €11,14 (statt: €11,99) bei Amazon.de
02.09.2014, 15:12 -0.98% Kensington KeyFolio Exact Schutzhülle mit Tastatur für iPad Air, Int. (K97006WW) um €48,66 (statt: €49,14) bei Amazon.de
02.09.2014, 15:12 -0.70% Buffalo WLE-KG-VPA Antennenhalterung um €37,15 (statt: €37,41) bei Amazon.de
02.09.2014, 15:12 -5.70% JVC HA-SR85S braun (HA-SR85S-T) um €114,88 (statt: €121,83) bei Amazon.de
02.09.2014, 15:12 -16.41% Casio G-Shock DW-6900E-1ER um €61,86 (statt: €74,--) bei Amazon.de
02.09.2014, 15:12 -0.90% Casio G-Shock GA-100-1A4ER um €72,53 (statt: €73,19) bei Amazon.de
02.09.2014, 15:12 +0.60% Silex SX-3TB, 1x 100Base-TX, USB 2.0 um €81,98 (statt: €81,49) bei büroshop24
02.09.2014, 15:12 -0.88% Velbon EX-530 (V30140) um €37,25 (statt: €37,58) bei Amazon.de
02.09.2014, 15:12 -5.00% Sapphire Pure Platinum A85XT (52046-01-40G) um €84,31 (statt: €88,75) bei Amazon.de
02.09.2014, 15:12 +16.26% Olympus E-System CS-8LS Taschen-Oberteil (verschiedene Farben) um €11,51 (statt: €9,90) bei Nordic-Hightech
02.09.2014, 15:12 -1.00% Elgato EyeTV Mobile 2013 DVB-T-Tuner (1MO101201002/1MO108501002) um €79,18 (statt: €79,98) bei Amazon.de
02.09.2014, 15:12 -5.02% Saustall - Kommissar Kluftinger schwierigster Fall um €17,02 (statt: €17,92) bei Amazon.de
02.09.2014, 15:12 +419.57% Ambiente: Waschmaschine um €4,78 (statt: €0,92) bei zoreno-deutschland
02.09.2014, 15:12 -8.31% Qi-Gong (verschiedene) um €5,52 (statt: €6,02) bei Amazon.de
02.09.2014, 15:12 +1.01% Black Light um €3,99 (statt: €3,95) bei hifi-max
02.09.2014, 15:12 -2.71% Artwizz SeeJacket Crystal für iPod touch 2G (5481-SJC-T2) um €12,56 (statt: €12,91) bei Amazon.de
02.09.2014, 15:12 -1.72% Mantona Dolomit 4000 (18646) um €694,98 (statt: €707,11) bei Amazon.de
02.09.2014, 15:12 -2.92% Salewa Fontainebleau Shorts Hose (Damen) um €62,13 (statt: €64,--) bei Amazon.de
02.09.2014, 15:12 -5.02% Fujitsu S26361-F3696-L515 um €92,11 (statt: €96,98) bei Amazon.de
02.09.2014, 15:12 -0.61% Salewa Aqua 2.0 Jacke (Herren) um €63,89 (statt: €64,28) bei Amazon.de
02.09.2014, 15:12 -0.81% Maier Sports Antholz Hose (Herren) um €87,78 (statt: €88,50) bei Amazon.de
02.09.2014, 15:12 +65.00% Three Burials - Die drei Begräbnisse des Melguiades Estrada um €6,93 (statt: €4,20) bei Multi-Media-Trade GmbH
02.09.2014, 15:12 +82.98% Hama Schutzhülle Catanzaro für Apple iPad 2/3 schwarz (00104628) um €7,85 (statt: €4,29) bei AWV International
02.09.2014, 15:12 -4.96% Xavax HO02P Staubsaugerbeutel (00110036) um €4,60 (statt: €4,84) bei Amazon.de
02.09.2014, 15:12 -2.10% Fujitsu S26391-F321-L400 Netzteil um €50,73 (statt: €51,82) bei Amazon.de
02.09.2014, 15:12 +1.22% Hierankl um €7,44 (statt: €7,35) bei nagiry DE
02.09.2014, 15:12 -1.16% Lässig LMB1050572 Messenger Bag Flock of Birds beige Casual Wickeltasche um €56,91 (statt: €57,58) bei Amazon.de
02.09.2014, 15:12 +2.27% Cold & Dark um €4,95 (statt: €4,84) bei Multi-Media-Trade GmbH
02.09.2014, 15:12 -1.25% Ednet 3in1 Charger Notebook-Netzteil (84264) um €109,38 (statt: €110,77) bei Amazon.de
02.09.2014, 15:12 -1.24% Powerslide Vi SPC 80 Pure (Modell 2014) um €80,21 (statt: €81,22) bei Amazon.de
02.09.2014, 15:12 -1.48% V7 Videoseven V7EL-43R92549C Li-Ionen-Akku um €64,41 (statt: €65,38) bei Amazon.de
02.09.2014, 15:12 -5.04% Intenso microSDHC 16GB, UHS-I/Class 10 (3423470) um €8,29 (statt: €8,73) bei Amazon.de
02.09.2014, 15:12 +6.71% Dr. Seltsam oder Wie ich lernte, die Bombe zu lieben (Blu-ray) um €7,79 (statt: €7,30) bei nagiry DE
02.09.2014, 15:12 +0.54% Unheimliche Begegnung der dritten Art (Blu-ray) um €7,41 (statt: €7,37) bei zoreno-deutschland
02.09.2014, 15:12 +6.71% Hautnah - Closer (Blu-ray) um €7,79 (statt: €7,30) bei nagiry DE
02.09.2014, 15:12 +8.19% Ritter aus Leidenschaft (Blu-ray) um €7,79 (statt: €7,20) bei nagiry DE
02.09.2014, 15:12 +45.39% Der Diamanten-Cop um €5,99 (statt: €4,12) bei bol.de
02.09.2014, 15:12 +3.29% Die Eule und das Kätzchen um €5,97 (statt: €5,78) bei zoreno-deutschland
02.09.2014, 15:12 -3.54% VauDe Homy Rainpants Fahrradhose lang (Damen) um €64,94 (statt: €67,32) bei Amazon.de
02.09.2014, 15:12 -5.95% VauDe Estero Jacke (Damen) um €92,17 (statt: €98,--) bei Amazon.de
02.09.2014, 15:12 -12.76% Dragon's Dogma (deutsch) (PS3) um €12,99 (statt: €14,89) bei Amazon.de
02.09.2014, 15:12 -3.36% Tepro Kingston (3137) um €261,62 (statt: €270,73) bei Amazon.de
02.09.2014, 15:12 -0.54% Ikra RTA2118Li Akku-Rasentrimmer um €80,95 (statt: €81,39) bei Amazon.de
02.09.2014, 15:12 +4.47% Kingdom Builder: Nomads (Erweiterung) um €15,90 (statt: €15,22) bei games_more
02.09.2014, 15:12 +26.59% Ausnahmesituation (Blu-ray) um €7,95 (statt: €6,28) bei eBay.de
02.09.2014, 15:12 -5.08% Revell F/A-18D Hornet Wild Weasel (04064) um €2,99 (statt: €3,15) bei Amazon.de
02.09.2014, 15:12 +4.22% Journey of a Roach (deutsch) (PC) um €9,39 (statt: €9,01) bei computeruniverse.net
02.09.2014, 15:12 +410.31% The King Maker um €4,95 (statt: €0,97) bei Multi-Media-Trade GmbH
02.09.2014, 15:12 -1.17% MTD 395PO Benzin-Rasenmäher um €131,78 (statt: €133,34) bei Amazon.de
02.09.2014, 15:12 -28.13% Hama 2in1 Halter-Kit UNI BIKE (00091365) um €9,99 (statt: €13,90) bei Amazon.de
02.09.2014, 15:12 +1.41% Hannas Entscheidung um €11,53 (statt: €11,37) bei nagiry DE
02.09.2014, 15:12 -3.93% Togu Balanza Kreisel Balancetrainer um €77,99 (statt: €81,18) bei Amazon.de
02.09.2014, 15:11 -1.53% ABUS Security-Center TVAC15000 um €127,02 (statt: €129,--) bei Amazon.de
02.09.2014, 15:11 +2.57% Belcando Adult Active 15kg um €43,90 (statt: €42,80) bei Zooblitz e.U.
02.09.2014, 15:11 -61.92% Zum Muttertag die besten Wünschen um €1,98 (statt: €5,20) bei andoja
02.09.2014, 15:11 +8.31% Heye Puzzle Bald Cypresses (29607) um €13,04 (statt: €12,04) bei Kontor Ackermann
02.09.2014, 15:11 -33.26% Noris Star Wars Episode 2/3 Puzzle Yoda (606031148) um €6,-- (statt: €8,99) bei Spiele Max
02.09.2014, 15:11 -1.00% Casio G-Shock DW-5600E-1VER Timecatcher um €84,07 (statt: €84,92) bei Amazon.de
02.09.2014, 15:11 -5.79% Terraillon BB3200 Mechanische Küchenwaage um €18,54 (statt: €19,68) bei Amazon.de
02.09.2014, 15:11 -1.90% Quiksilver Backwash um €39,14 (statt: €39,90) bei Amazon.de
02.09.2014, 15:11 -2.28% ProTec Knieschutz Street Knee Retro um €23,97 (statt: €24,53) bei Amazon.de
02.09.2014, 15:11 +10.31% LazyTown Vol. 13: Freunde für immer um €5,99 (statt: €5,43) bei Hertie
02.09.2014, 15:11 +7.25% CamelBak eddy Turquoise 0.75l Trinkflasche um €15,98 (statt: €14,90) bei Amazon.de
02.09.2014, 15:11 -5.01% K2 Helm Rant (Modell 2013/2014) um €59,95 (statt: €63,11) bei Amazon.de
02.09.2014, 15:11 -2.33% HP 647871-B21 um €75,09 (statt: €76,88) bei Amazon.de
02.09.2014, 15:11 -3.57% Hugo Boss 1512868 um €255,55 (statt: €265,--) bei Amazon.de
02.09.2014, 15:11 +47.08% IBM 44T1481 um €48,83 (statt: €33,20) bei Jacob Elektronik GmbH
02.09.2014, 15:11 -5.00% Cisco Aironet PowerSupply (AIR-PWR-A=) um €9,68 (statt: €10,19) bei Amazon.de
02.09.2014, 15:11 +1.55% Patton SmartNode SN4114/JS/EUI VoIP-Gateway um €268,10 (statt: €264,--) bei Jacob Elektronik direkt
02.09.2014, 15:11 -0.62% SixSixOne Sub Gear Long Sleeve Shirt Protektor um €54,45 (statt: €54,79) bei Amazon.de
02.09.2014, 15:11 -4.79% Nutcase Street Little Nutty Daisy Dream Helm um €39,91 (statt: €41,92) bei Amazon.de
02.09.2014, 15:11 +3.35% Patriot Signature Line DIMM 2GB, DDR3-1600, CL11 (PSD32G160081) um €26,26 (statt: €25,41) bei Amazon.de
02.09.2014, 15:11 -2.33% Allied Telesis AT-PC2002/POE, 1000Base-T auf 1000Base-SX um €185,66 (statt: €190,09) bei Amazon.de
02.09.2014, 15:11 -5.00% Transcend SSD 2.5", 64GB, SATA (TS64GSSD500) um €333,92 (statt: €351,50) bei Amazon.de
02.09.2014, 15:11 -4.99% Transcend TS1GT320S um €20,94 (statt: €22,04) bei Amazon.de
02.09.2014, 15:11 -4.03% Transcend TS2GT3513 um €20,25 (statt: €21,10) bei Amazon.de
02.09.2014, 15:11 -1.99% Cisco 3825 Rack Mount Kit (ACS-3825RM-19=) um €51,11 (statt: €52,15) bei Amazon.de
02.09.2014, 15:11 -2.99% Belkin Micra Folio-Schutzhülle für Galaxy Note 3 schwarz (F8M688B1C00) um €10,40 (statt: €10,72) bei Amazon.de
02.09.2014, 15:11 +8.64% Gucci by Gucci Pour Homme Duftset um €55,95 (statt: €51,50) bei Parfumdreams
02.09.2014, 15:11 +16.07% Gucci Flora by Gucci Duftset um €49,91 (statt: €43,--) bei Amazon.de
02.09.2014, 15:11 +15.94% Dolce & Gabbana Pour Femme Duftset um €39,42 (statt: €34,--) bei Lipmarg27 | MeinPaket
02.09.2014, 15:11 -2.71% APC Switched Rack PDU, hochkant, 0HE, 10A (AP7950) um €741,54 (statt: €762,17) bei Amazon.de
02.09.2014, 15:11 -5.00% SUGOi Evolution Fahrradhose 3/4 (Damen) um €45,94 (statt: €48,36) bei Amazon.de
02.09.2014, 15:11 -2.29% G-Technology G-RAID mini 5400rpm, 500GB, USB 2.0/FireWire 400/800 um €146,08 (statt: €149,51) bei Amazon.de
02.09.2014, 15:11 +50.25% Ghost in the Shell - Stand Alone Complex Vol. 5 um €9,09 (statt: €6,05) bei Multi-Media-Trade GmbH
02.09.2014, 15:11 -5.01% V7 Videoseven Edge Slim Toploader Umhängetasche 16.1" schwarz (CTD1A-BLK-9E) um €16,88 (statt: €17,77) bei Amazon.de
02.09.2014, 15:11 -1.17% Crucial DIMM 8GB, DDR3L-1333, CL9, reg ECC (CT8G3ERSLS41339) um €68,60 (statt: €69,41) bei Amazon.de
02.09.2014, 15:11 -4.50% Spy Optics Cutter (versch. Farben) um €60,89 (statt: €63,76) bei Amazon.de
02.09.2014, 15:11 -3.94% Mophie Juice Pack Pro für Apple iPhone 4 schwarz um €95,90 (statt: €99,83) bei Amazon.de
02.09.2014, 15:11 -2.29% Kyocera JS-420 Jobseperator (1203MK3EU0) um €156,33 (statt: €160,--) bei Amazon.de
02.09.2014, 15:11 +20.14% Dakine Heli-Pro 20 um €59,95 (statt: €49,90) bei DaKine Shop
02.09.2014, 15:11 -2.41% Hoya Filter Infrarot IR72 49mm (Y1IR72049) um €19,42 (statt: €19,90) bei Amazon.de
02.09.2014, 15:11 -5.00% Axion VIN700NBI um €388,52 (statt: €408,97) bei Amazon.de
02.09.2014, 15:11 -4.12% Bollé Ecrins um €49,58 (statt: €51,71) bei Amazon.de
02.09.2014, 15:11 +8.77% Minn Kota Endura 40 Elektromotor um €228,36 (statt: €209,95) bei Amazon.de
02.09.2014, 15:11 -11.85% Swans RM600R Stück um €1130,50 (statt: €1282,50) bei Spreeaudio HiFi-Technik
02.09.2014, 15:11 -1.70% Huawei Ascend G700 weiß um €196,50 (statt: €199,90) bei Alternate GmbH
02.09.2014, 15:11 -1.11% Chieftec Navitas GPM-1250C 1250W ATX 2.3 um €168,-- (statt: €169,88) bei Alternate GmbH
02.09.2014, 15:10 +8.20% Samsung Galaxy Mega 6.3 LTE i9205 8GB weiß um €356,99 (statt: €329,95) bei büroshop24
02.09.2014, 15:10 -0.55% Lenovo IBM 0C19496 um €246,46 (statt: €247,83) bei BUILT Direkt
02.09.2014, 15:10 -0.68% HP LaserJet Pro 100 MFP M125a, S/W-Laser (CZ172A) um €163,10 (statt: €164,21) bei BUILT Direkt
02.09.2014, 15:10 +5.69% Sony Xperia Z1 violett um €354,-- (statt: €334,95) bei ATELCO
02.09.2014, 15:10 -0.84% Lenovo ThinkCentre M32 Thin Client, Celeron 847, 2GB RAM, 1GB Flash (10BV000GGE) um €254,38 (statt: €256,54) bei BUILT Direkt
02.09.2014, 15:10 -0.55% Lexmark 35S0267 Papierzuführung um €116,15 (statt: €116,79) bei BUILT Direkt
02.09.2014, 15:10 -0.62% TallyGenicom T2265+ um €1660,32 (statt: €1670,60) bei BUILT Direkt
02.09.2014, 15:09 +15.73% Lymphdiaral Sensitiv Salbe, 100g um €20,08 (statt: €17,35) bei ipill.de
02.09.2014, 15:09 +2.50% ASUS N750JK-T4043H (90NB04N1-M00510) um €1229,-- (statt: €1199,--) bei hwh.de
02.09.2014, 15:09 -1.67% MS-Tech CI-70, 60W Flex-ATX, Mini-ITX um €56,09 (statt: €57,04) bei CSV-Direct.de
02.09.2014, 15:09 -1.23% Digitus DS-30104-1, PCIe x2 um €39,45 (statt: €39,94) bei CSV-Direct.de
02.09.2014, 15:09 -1.66% Canon LP1019 Objektivköcher (2788A001) um €17,73 (statt: €18,03) bei CSV-Direct.de
02.09.2014, 15:09 -1.83% Intenso Memory 2 Move schwarz 250GB, USB 3.0/LAN/WLAN (6025500) um €59,96 (statt: €61,08) bei CSV-Direct.de
02.09.2014, 15:09 -1.18% RaidSonic Icy Box IB-RD3620SU3, 3.5", USB 3.0/eSATA (20621) um €62,06 (statt: €62,80) bei CSV-Direct.de
02.09.2014, 15:09 -0.59% Sony CLM-V55 Zusatz-Display um €281,32 (statt: €282,98) bei CSV-Direct.de
02.09.2014, 15:09 -1.77% Polycom/Polyspan Soundstation IP 6000 ohne Netzteil (2200-15600-001) um €443,13 (statt: €451,12) bei notebooksbilliger.de
02.09.2014, 15:09 +3.95% Samsung Galaxy Gear gold (SM-V7000WDADBT) um €103,90 (statt: €99,95) bei price-guard
02.09.2014, 15:09 -2.55% Samsung SSD 840 EVO Desktop Upgrade Kit 250GB, SATA 6Gb/s (MZ-7TE250KW) um €125,19 (statt: €128,46) bei CSV-Direct.de
02.09.2014, 15:09 +59.92% Samsung B2710 rot um €79,88 (statt: €49,95) bei DastroMedia
02.09.2014, 15:09 -1.91% Inter-Tech JY-235 Weasel (88881100) um €18,48 (statt: €18,84) bei CSV-Direct.de
02.09.2014, 15:09 -5.17% SanDisk X110 128GB, mSATA 6Gb/s (SD6SF1M-128G) um €62,90 (statt: €66,33) bei ACom PC
02.09.2014, 15:09 -1.10% D-Link DIR-868L um €115,45 (statt: €116,73) bei CSV-Direct.de
02.09.2014, 15:09 -0.92% Corsair Force Series GS 128GB, SATA 6Gb/s (CSSD-F128GBGS-BK) um €81,45 (statt: €82,21) bei CSV-Direct.de
02.09.2014, 15:09 +5.61% Apple iPhone 5C 32GB rosa um €517,42 (statt: €489,95) bei Mindfactory
02.09.2014, 15:09 +7.81% Apple iPhone 5C 32GB grün um €539,-- (statt: €499,95) bei notebooksbilliger.de
02.09.2014, 15:09 +2.01% Apple iPhone 5C 32GB blau um €510,-- (statt: €499,95) bei Diamondteck
02.09.2014, 15:09 +1.64% Apple iPhone 5C 16GB grün um €498,-- (statt: €489,95) bei Handyshop_Cham
02.09.2014, 15:09 -11.11% Meindl Meran (Damen) um €151,95 (statt: €170,95) bei Skates for You Shop
02.09.2014, 15:09 -14.29% Meindl Maine Men Mid GTX (Herren) um €113,95 (statt: €132,95) bei Skates for You Shop
02.09.2014, 15:09 -1.58% Ricoh Aficio 405663 Resttonerbehälter um €29,81 (statt: €30,29) bei druckerpatronenexpress.de
02.09.2014, 15:09 +2.52% Samsung Galaxy S5 G900F 16GB blau um €485,-- (statt: €473,10) bei carbonphone.de
02.09.2014, 15:09 -0.62% SilverStone Milo ML04 schwarz (SST-ML04B) um €61,40 (statt: €61,78) bei CSV-Direct.de
02.09.2014, 15:09 -10.57% Vanguard PH-111V um €48,56 (statt: €54,30) bei CSV-Direct.de
02.09.2014, 15:09 -8.29% DeLOCK Adapterkabel Parallel Port (IEEE1284) auf USB 1.1 (82001) um €7,74 (statt: €8,44) bei CSV-Direct.de
02.09.2014, 15:09 -1.92% Gardena combisystem Gartensäge 300PP gebogen (8738) um €22,95 (statt: €23,40) bei Elektroshop Wagner
02.09.2014, 15:09 -7.42% Smoby KS Rutsche (310153/310218) um €41,65 (statt: €44,99) bei D-Edition e.K. | MeinPaket
02.09.2014, 15:09 -5.67% Blade Nano QX RTF (BLH7600) um €79,80 (statt: €84,60) bei D-Edition e.K. | MeinPaket
02.09.2014, 15:09 +3.00% Zotac ZBOX nano AQ01 Plus (ZBOX-AQ01-PLUS-BE) um €253,43 (statt: €246,05) bei Mix-Computer
02.09.2014, 15:09 -1.13% ATEN CS1758, 8-fach um €178,69 (statt: €180,74) bei Jacob Elektronik GmbH
02.09.2014, 15:09 -1.34% ATEN CS1754, 4-fach um €152,57 (statt: €154,64) bei Jacob Elektronik GmbH
02.09.2014, 15:09 +5.29% HTC One (M7) 32GB mit Branding um €379,-- (statt: €359,95) bei BOOKS HEAVEN
02.09.2014, 15:09 -5.93% AEG Electrolux AEO5430 Ergoeasy Bodenstaubsauger um €79,90 (statt: €84,94) bei notebooksbilliger.de
02.09.2014, 15:09 -0.58% Vogel's WALL 1345 schwarz um €128,25 (statt: €129,--) bei Monbeck GmbH & Co. KG | MeinPaket
02.09.2014, 15:09 -0.59% DeLOCK Lighting 2.4W MR11 12x SMD tageslichtweiß (46296) um €5,04 (statt: €5,07) bei CSV-Direct.de
02.09.2014, 15:09 +1.76% Cherry G85-23100EU-0 eVolution Stream XT Corded MultiMedia Keyboard, PS/2 & USB, US um €18,51 (statt: €18,19) bei Mix-Computer
02.09.2014, 15:09 -0.51% bintec elmeg W2003n um €365,89 (statt: €367,77) bei CSV-Direct.de
02.09.2014, 15:09 -0.54% BRIO Brückenfundament (33254) um €5,48 (statt: €5,51) bei Foto Köster
02.09.2014, 15:09 -0.53% Manfrotto Stile Nano VII Kameratasche (verschiedene Farben) um €7,56 (statt: €7,60) bei Foto Köster
02.09.2014, 15:09 -0.51% Sony LA-EA3 Objektivadapter um €125,82 (statt: €126,46) bei Foto Köster
02.09.2014, 15:09 -0.50% Vanguard Up-Rise 28 Umhängetasche um €63,27 (statt: €63,59) bei Foto Köster
02.09.2014, 15:09 -0.53% Hama Filter-Adapter-Ring Objektiv 67.0mm/Filter 72.0mm (16772) um €9,40 (statt: €9,45) bei Foto Köster
02.09.2014, 15:09 -0.50% Cullmann 40244 Magnesit MB4.4 um €139,91 (statt: €140,62) bei Foto Köster
02.09.2014, 15:09 -0.50% Crumpler Quick Escape 400 Kameratasche schwarz (QE400-001) um €29,56 (statt: €29,71) bei Foto Köster
02.09.2014, 15:09 -0.70% SIKU Super Sikuranger (0867) um €1,41 (statt: €1,42) bei Foto Köster
02.09.2014, 15:09 -0.68% Mimik Memo um €2,90 (statt: €2,92) bei Foto Köster
02.09.2014, 15:09 -0.55% Alle meine Schäfchen um €3,59 (statt: €3,61) bei Foto Köster
02.09.2014, 15:09 -0.50% Tamrac 0750 Photographer´s Daypack Rucksack (verschiedene Farben) um €202,71 (statt: €203,73) bei Foto Köster
02.09.2014, 15:09 -0.52% Tamrac N-5051 Kameragurt um €17,18 (statt: €17,27) bei Foto Köster
02.09.2014, 15:09 -0.51% Cullmann 42170 Flexx Support Set um €41,08 (statt: €41,29) bei Foto Köster
02.09.2014, 15:09 -0.50% Tamrac 0613 Super Pro 13 Kameratasche (verschiedene Farben) um €309,75 (statt: €311,31) bei Foto Köster
02.09.2014, 15:09 -0.60% Hama Fancy Neopren Circle 50C Kameratasche (verschiedene Farben) um €4,96 (statt: €4,99) bei Foto Köster
02.09.2014, 15:09 -0.50% Crumpler Jackpack 90 Fototasche petrol (JP90-003) um €11,89 (statt: €11,95) bei Foto Köster
02.09.2014, 15:09 -0.52% B+W Filter neutral grau ND4 (102) 58mm um €19,22 (statt: €19,32) bei Foto Köster
02.09.2014, 15:09 -1.69% Nikon Aculon T01 10x21 rot (BAA804SB) um €53,09 (statt: €54,--) bei optik-pro.de
02.09.2014, 15:09 -5.59% Swarovski DCB II Schwenkadapter für ATX/STX um €276,14 (statt: €292,50) bei optik-pro.de
02.09.2014, 15:09 -8.32% Swarovski TLS APO Kameraadapter für ATX/STX um €370,39 (statt: €404,--) bei optik-pro.de
02.09.2014, 15:09 -2.89% Swarovski ATX Okularmodul um €1649,-- (statt: €1698,--) bei optik-pro.de
02.09.2014, 15:09 -4.80% Swarovski PA-I5 iPhone-Adapter für ATX/STX um €111,-- (statt: €116,60) bei optik-pro.de
02.09.2014, 15:09 -8.72% Swarovski EL 10x32 WB Traveler um €1539,07 (statt: €1686,10) bei optik-pro.de
02.09.2014, 15:09 +30.28% Swarovski Pocket 10x25 B um €598,-- (statt: €459,--) bei Foki
02.09.2014, 15:09 -14.28% Celestron Skymaster 20-100x70 um €132,09 (statt: €154,10) bei optik-pro.de
02.09.2014, 15:09 -2.34% Bushnell H2O 10x26 (150126) um €65,52 (statt: €67,09) bei optik-pro.de
02.09.2014, 15:08 +7.75% Thera-Band Bodytrainer Tubing mit Griffen 1.4m um €13,90 (statt: €12,90) bei Sport-Tec
02.09.2014, 15:08 +0.94% Toshiba Satellite L50-B-1ET rot (PSKTUE-01R00YGR) um €398,04 (statt: €394,34) bei BUILT Direkt
02.09.2014, 15:08 +0.60% Toshiba Satellite L50t-B-13E weiß (PSKT8E-01F00PGR) um €694,50 (statt: €690,39) bei XITRA.de Online
02.09.2014, 15:08 +0.52% Toshiba Satellite L70-B-130 silber (PSKS8E-00V00FGR) um €842,18 (statt: €837,82) bei XITRA.de Online
02.09.2014, 15:08 +0.60% Toshiba Satellite L70-B-13E silber (PSKRQE-00V00UGR) um €694,50 (statt: €690,39) bei XITRA.de Online
02.09.2014, 15:08 +0.82% Toshiba Satellite C70D-B-110 (PSCLEE-00D00CGR) um €496,64 (statt: €492,62) bei XITRA.de Online
02.09.2014, 15:08 +1.74% Samsung Xpress M3375FD 33 S/min, 5 Jahre Garantie, S/W-Laser (SL-M3375FD/PLU) um €376,99 (statt: €370,54) bei Klarsicht IT
02.09.2014, 15:08 +0.84% Samsung Xpress M2885FW 14S/min, 5 Jahre Garantie, S/W-Laser (SL-M2885FW/PLU) um €269,04 (statt: €266,80) bei BUILT Direkt
02.09.2014, 15:08 +1.01% Samsung Xpress M2835DW 5 Jahre Garantie, S/W-Laser (SL-M2835DW/PLU) um €154,40 (statt: €152,85) bei BUILT Direkt
02.09.2014, 15:08 +1.06% Samsung Xpress M2825ND/SEE 5 Jahre Garantie, S/W-Laser (SL-M2825ND/PLU) um €116,23 (statt: €115,01) bei BUILT Direkt
02.09.2014, 15:08 +1.01% Samsung Xpress M2675FN 26S/min, 5 Jahre Garantie, S/W-Laser (SL-M2675FN/PLU) um €154,62 (statt: €153,08) bei BUILT Direkt
02.09.2014, 15:08 +1.15% Samsung Xpress M2625D/SEE 5 Jahre Garantie, S/W-Laser (SL-M2625D/PLU) um €106,70 (statt: €105,49) bei BUILT Direkt
02.09.2014, 15:08 -2.18% Samsung T24D310, 23.6" (LT24D310EW/EN) um €187,42 (statt: €191,60) bei BUILT Direkt
02.09.2014, 15:08 +0.75% Samsung CLX-4195N, 18 S/min, 5 Jahre Garantie, Farblaser (CLX-4195N/PLU) um €331,43 (statt: €328,95) bei BUILT Direkt
02.09.2014, 15:08 +1.68% Samsung CLX-4195FN, 18 S/min, 5 Jahre Garantie, Farblaser (CLX-4195FN/PLU) um €358,86 (statt: €352,93) bei BUILT Direkt
02.09.2014, 15:08 +2.00% Lenovo ThinkPad X240 Touch, Core i7-4600U, 8GB RAM, 256GB SSD (20AL0076GE) um €1657,-- (statt: €1624,46) bei notebooksandmore.de
02.09.2014, 15:08 -1.40% Lenovo IBM 0A65683 ThinkPad Mini Dock Series 3 90W Dockingstation um €146,60 (statt: €148,68) bei BUILT Direkt
02.09.2014, 15:08 +1.43% Fujitsu Primergy RX350 S8, Xeon E5-2620 v2, 8GB RAM (R3507SC020IN) um €2117,32 (statt: €2087,46) bei NOTEBOOKsektor
02.09.2014, 15:08 -1.94% Fractal Design Define R4 Black Pearl mit Sichtfenster, schallgedämmt (FD-CA-DEF-R4-BL-W) um €90,52 (statt: €92,31) bei CSV-Direct.de
02.09.2014, 15:08 -2.58% Edimax nMax EW-7415PDn um €41,18 (statt: €42,27) bei CSV-Direct.de
02.09.2014, 15:07 -4.12% Wacom Bamboo Fun Pen & Touch (LP-161E) um €30,49 (statt: €31,80) bei Future-X.de
02.09.2014, 15:07 -2.45% Just Mobile Xtand Go KFZ-Halterung für iPhone 4/4S schwarz um €23,89 (statt: €24,49) bei Future-X.de
02.09.2014, 15:07 -4.02% Just Mobile AluCup schwarz (ST-158BK) um €23,89 (statt: €24,89) bei Future-X.de
02.09.2014, 15:07 -2.50% Belkin Stylus Pen für Galaxy Tab schwarz (F5L131CWC00) um €12,89 (statt: €13,22) bei Future-X.de
02.09.2014, 15:07 -3.77% Philips 234E5QDAB, 23" (234E5QDAB/00) um €153,-- (statt: €159,--) bei mzehn.de
02.09.2014, 15:07 -1.62% Intel Server Board S5520HC um €364,-- (statt: €369,99) bei mzehn.de
02.09.2014, 15:07 +5.62% Samsung Galaxy S4 Mini i9195 La Fleur Edition um €264,-- (statt: €249,95) bei ATELCO
02.09.2014, 15:07 -8.79% Velbon EX-540 (V30136) um €38,49 (statt: €42,20) bei Future-X.de
02.09.2014, 15:07 -11.60% Hirschmann AUTA 91 TOP um €35,89 (statt: €40,60) bei Future-X.de
02.09.2014, 15:06 -2.23% Sponser Isotonic Citrus 1kg um €17,50 (statt: €17,90) bei tennistown.de
02.09.2014, 15:06 -7.89% Sponser Isotonic Pfirsich 1kg um €17,50 (statt: €19,--) bei tennistown.de
02.09.2014, 15:06 -10.54% Karlie Actionball Fussball um €8,49 (statt: €9,49) bei d-living.de
02.09.2014, 15:06 -4.91% Karlie Actionball Fussball um €9,49 (statt: €9,98) bei d-living.de
02.09.2014, 15:06 -8.38% Samsung Galaxy Tab S 8.4 T705N LTE 16GB bronze (SM-T705NTSA) um €383,88 (statt: €419,--) bei DastroMedia
02.09.2014, 15:06 -6.50% Sony Xperia Z schwarz um €259,-- (statt: €277,--) bei talk-point
02.09.2014, 15:04 -12.07% Farfalla Drei Rosen Körperöl 80ml um €14,86 (statt: €16,90) bei SellTwoBe Shop
02.09.2014, 15:04 -3.61% Brut Classic Eau de Cologne Spray 88ml um €15,24 (statt: €15,81) bei SellTwoBe Shop
02.09.2014, 15:04 +6.02% Samsung Galaxy Grand 2 LTE G7105 schwarz um €264,99 (statt: €249,95) bei cw-mobile.de
02.09.2014, 15:04 +3.64% Kingston KTA-MB1600LK2/16G um €165,82 (statt: €160,--) bei Electronis
02.09.2014, 15:04 -8.06% Exsys EX-16500E, 3x FireWire, PCIe x1 um €47,90 (statt: €52,10) bei Jacob Elektronik direkt
02.09.2014, 15:04 -14.91% Fossil FS4877 um €136,46 (statt: €160,37) bei Clessitrada GmbH Shop
02.09.2014, 15:04 -7.61% Fossil FS4872 um €104,16 (statt: €112,74) bei Clessitrada GmbH Shop
02.09.2014, 15:04 -19.25% Fossil ES3466 um €112,24 (statt: €139,--) bei Clessitrada GmbH Shop
02.09.2014, 15:04 -2.65% Michael Kors MK3252 um €184,91 (statt: €189,95) bei Clessitrada GmbH Shop
02.09.2014, 15:04 -6.16% Fossil CH2891 um €104,16 (statt: €111,--) bei Clessitrada GmbH Shop
02.09.2014, 15:04 -3.86% Fossil ES3347 um €96,09 (statt: €99,95) bei Clessitrada GmbH Shop
02.09.2014, 15:04 -11.69% Fossil ES3345 um €79,94 (statt: €90,52) bei Clessitrada GmbH Shop
02.09.2014, 15:04 -10.58% LEGO - Technic - Tieflader (8109) um €151,99 (statt: €169,98) bei Toys World Freizeitartikel und Spielwaren GmbH
02.09.2014, 15:04 -22.39% LEGO - Friends - Emmas Sonnenterrasse (3931) um €14,52 (statt: €18,71) bei Toys World Freizeitartikel und Spielwaren GmbH
02.09.2014, 15:04 -6.86% LEGO - Technic - Unimog U400 (8110) um €237,49 (statt: €254,99) bei Toys World Freizeitartikel und Spielwaren GmbH
02.09.2014, 15:04 -24.11% LEGO - Ninjago - Monster Truck (2506) um €41,74 (statt: €55,--) bei Toys World Freizeitartikel und Spielwaren GmbH
02.09.2014, 15:04 -16.06% LEGO - Atlantis - Große Haifestung (8078) um €70,24 (statt: €83,68) bei Toys World Freizeitartikel und Spielwaren GmbH
02.09.2014, 15:04 -44.11% LEGO - City Flughafen - Passagierflugzeug (3181) um €50,29 (statt: €89,98) bei Toys World Freizeitartikel und Spielwaren GmbH
02.09.2014, 15:04 -26.88% playmobil - Summer Fun - Fischkutter (5131) um €21,79 (statt: €29,80) bei Toys World Freizeitartikel und Spielwaren GmbH
02.09.2014, 15:04 -25.39% Carrera - GO!!! Set - Disney/Pixar Cars 2 Secret Mission (62239) um €79,74 (statt: €106,87) bei Toys World Freizeitartikel und Spielwaren GmbH
02.09.2014, 15:04 -22.81% Carrera - Digital 132 Set - Disney/Pixar Cars Porto Corsa Cup (30159) um €331,55 (statt: €429,52) bei Toys World Freizeitartikel und Spielwaren GmbH
02.09.2014, 15:04 -6.69% Carrera - Digital 132 Set - GT Action (30158) um €317,24 (statt: €339,99) bei Toys World Freizeitartikel und Spielwaren GmbH
02.09.2014, 15:04 +20.34% Farfalla feel great Men Body Lotion 150ml um €17,69 (statt: €14,70) bei SellTwoBe Shop
02.09.2014, 15:04 -2.10% VauDe Paul Fleece Jacke (Junior) um €48,90 (statt: €49,95) bei biker-boarder
02.09.2014, 15:04 -1.11% VauDe Paul Hose (Junior) um €88,90 (statt: €89,90) bei biker-boarder
02.09.2014, 15:03 +14.70% Nokia Lumia 625 orange um €172,-- (statt: €149,95) bei Cyberport
02.09.2014, 15:03 -5.02% Techsolo TC-G10 um €28,39 (statt: €29,89) bei anobo.de Deutschland GmbH Shop
02.09.2014, 15:03 -0.67% Nokia 225 Dual-SIM schwarz um €41,79 (statt: €42,07) bei anobo.de Deutschland GmbH Shop
02.09.2014, 15:03 -2.35% Nokia 206 schwarz um €46,54 (statt: €47,66) bei anobo.de Deutschland GmbH Shop
02.09.2014, 15:03 -0.87% 4Gamers Twin Charger (PS3) um €22,69 (statt: €22,89) bei anobo.de Deutschland GmbH Shop
02.09.2014, 15:03 -1.68% Samsung S24D300HL, 23.6" (LS24D300HL/EN) um €116,85 (statt: €118,85) bei e-systems
02.09.2014, 15:02 -15.18% Philips HD4665/20 um €56,20 (statt: €66,26) bei Jacob Elektronik direkt
02.09.2014, 15:02 -2.86% Razer Adaro DJ schwarz um €193,30 (statt: €198,99) bei Jacob Elektronik direkt
02.09.2014, 15:02 -27.89% Samsung SC-67J0 Concerto Mini Bodenstaubsauger beutellos um €68,50 (statt: €95,--) bei Jacob Elektronik direkt
02.09.2014, 15:02 -15.55% LG Electronics 22MT55D, 22" um €170,10 (statt: €201,42) bei Jacob Elektronik direkt
02.09.2014, 15:02 -11.80% Just Mobile ST-200 Xtand Pro um €39,70 (statt: €45,01) bei Jacob Elektronik direkt
02.09.2014, 15:02 -46.95% Sweex HM409 um €8,70 (statt: €16,40) bei Jacob Elektronik direkt
02.09.2014, 15:02 +25.11% Canon Legria HF R36 schwarz (5976B004) um €329,34 (statt: €263,24) bei Amazon.de
02.09.2014, 15:02 -14.43% Philips V-Line 220V4LSB, 22" um €124,60 (statt: €145,62) bei Jacob Elektronik direkt
02.09.2014, 15:02 -17.39% Beko CSM62320DW Elektroherd mit Gaskochfeld um €268,90 (statt: €325,51) bei Jacob Elektronik direkt
02.09.2014, 15:02 -15.63% Candy CBT6240X Flachschirm-Dunstabzugshaube um €82,60 (statt: €97,90) bei Jacob Elektronik direkt
02.09.2014, 15:02 -10.97% Krusell Avenyn 2XL rosa (95372) um €12,50 (statt: €14,04) bei Jacob Elektronik direkt
02.09.2014, 15:02 -3.29% Philips SHE7005 schwarz um €20,30 (statt: €20,99) bei Jacob Elektronik direkt
02.09.2014, 15:02 -14.11% Goodram Colour 32GB, USB 2.0 (PD32GH2GRCOMXR9) um €21,80 (statt: €25,38) bei Jacob Elektronik direkt
02.09.2014, 15:02 +5.40% Hedy 500W, ATX 2.0 um €30,67 (statt: €29,10) bei Tick's | amazon.de
02.09.2014, 15:02 +0.80% Zotac ZBOX nano ID62 (ZBOXNANO-ID62-E) um €151,10 (statt: €149,90) bei ITmedia24.de
02.09.2014, 15:02 -8.11% BenQ GP3 (9H.J8H77.39E) um €429,10 (statt: €466,96) bei Jacob Elektronik direkt
02.09.2014, 15:02 -8.86% A4Tech KD-126 LED Backlight Keyboard schwarz, USB um €21,10 (statt: €23,15) bei Jacob Elektronik direkt
02.09.2014, 15:02 -15.70% Cisco 1000Base-SX SFP Transceiver (GLC-SX-MMD) um €20,40 (statt: €24,20) bei Jacob Elektronik direkt
02.09.2014, 15:02 +256.76% InLine PS/2 Verlängerung Stecker auf Buchse 2m, PC99, schwarz/violett (13342W) um €6,60 (statt: €1,85) bei Jacob Elektronik direkt
02.09.2014, 15:02 -18.21% Microsoft: Project 2013, PKC (polnisch) (PC) (076-05114) um €706,30 (statt: €863,54) bei Jacob Elektronik direkt
02.09.2014, 15:02 -0.96% Cisco 500 Series SG500-52P, 52-Port, managed, stackable (SG500-52P-K9-G5) um €1351,-- (statt: €1364,11) bei Jacob Elektronik direkt
02.09.2014, 15:02 -13.16% Manhattan RightTrack Maus grün, USB (177726) um €13,40 (statt: €15,43) bei Jacob Elektronik direkt
02.09.2014, 15:02 -0.78% Belkin OmniView IP 5232K KVM Switch 32-fach (F1DP232A) um €1054,80 (statt: €1063,04) bei Jacob Elektronik direkt
02.09.2014, 15:02 -1.31% Intel X540-T2, 2x 10GBase-T, PCIe 2.1 x8, low profile, bulk (X540T2BLK) um €438,20 (statt: €444,--) bei Jacob Elektronik direkt
02.09.2014, 15:02 -12.58% Nikon Coolpix S3500 violett (VNA293E1) um €95,20 (statt: €108,90) bei Jacob Elektronik direkt
02.09.2014, 15:01 -3.99% Casio Edifice EFR-523BK-1AVEF um €170,90 (statt: €178,--) bei uhrcenter | Meinpaket
02.09.2014, 15:01 +19.32% Esprit Tallac Chrono White ES106921004 um €119,20 (statt: €99,90) bei Zeitlounge
02.09.2014, 15:01 +14.62% Esprit Marin Tortoise Rose Gold Brown ES106742004 um €135,20 (statt: €117,95) bei Zeitlounge
02.09.2014, 15:01 +20.69% Timex Expedition Field T49904 um €74,90 (statt: €62,06) bei Klausbua
02.09.2014, 15:01 -6.07% Airex Balance-Pad Elite Balancetrainer um €46,92 (statt: €49,95) bei Praximed Medizintechnik Vertriebs Shop
02.09.2014, 15:01 -1.85% Sony Xperia Z2 mit Branding um €439,95 (statt: €448,26) bei modeo.de
02.09.2014, 15:01 -10.64% Samsung Galaxy Young S6310 silber um €65,95 (statt: €73,80) bei modeo.de
02.09.2014, 15:01 -14.24% Samsung Galaxy Young S6310 blau um €65,95 (statt: €76,90) bei modeo.de
02.09.2014, 15:01 -2.64% Samsung Galaxy S3 Neo i9301i weiß um €199,-- (statt: €204,39) bei modeo.de
02.09.2014, 15:01 -2.83% Samsung Galaxy S3 Neo i9301i blau um €199,-- (statt: €204,79) bei modeo.de
02.09.2014, 15:01 -5.17% Samsung Galaxy Tab 3 7.0 Lite T111 3G 8GB weiß (SM-T111NDW) um €139,95 (statt: €147,58) bei modeo.de
02.09.2014, 15:01 -3.37% Samsung Galaxy Alpha SM-G850F weiß um €574,95 (statt: €594,99) bei modeo.de
02.09.2014, 15:01 -3.37% Samsung Galaxy Alpha SM-G850F silber um €574,95 (statt: €594,99) bei modeo.de
02.09.2014, 15:01 -4.02% Samsung Galaxy Alpha SM-G850F gold um €574,95 (statt: €599,--) bei modeo.de
02.09.2014, 15:01 -3.22% Samsung Galaxy Alpha SM-G850F schwarz um €574,95 (statt: €594,09) bei modeo.de
02.09.2014, 15:01 -1.49% Nokia Lumia 930 orange um €459,95 (statt: €466,90) bei modeo.de
02.09.2014, 15:01 -16.18% Nokia Lumia 625 mit Branding um €134,95 (statt: €161,--) bei modeo.de
02.09.2014, 15:01 -4.14% LG Electronics G3 S D722 gold um €324,95 (statt: €339,--) bei modeo.de
02.09.2014, 15:01 -1.84% LG Electronics G3 D855 16GB gold um €429,95 (statt: €438,--) bei modeo.de
02.09.2014, 15:01 -1.97% Huawei MediaPad 10 Link 3G (53011417) um €195,95 (statt: €199,89) bei modeo.de
02.09.2014, 15:01 -1.44% Huawei Ascend P7 weiß (51090285) um €309,95 (statt: €314,49) bei modeo.de
02.09.2014, 15:01 -2.63% Apple iPhone 5C 8GB gelb um €445,95 (statt: €458,--) bei modeo.de
02.09.2014, 15:01 -1.13% Apple iPhone 5C 8GB grün um €439,95 (statt: €445,--) bei modeo.de
02.09.2014, 15:01 -0.75% Grizzly EHS460T Elektro-Heckenschere um €59,95 (statt: €60,40) bei GartenXXL
02.09.2014, 15:00 -7.00% ASUS GT610-SL-1GD3L, GeForce GT 610 Silent, 1GB DDR3, VGA, DVI, HDMI (90-C1CSC1-L0UANAYZ) um €30,03 (statt: €32,29) bei get-it-quick
02.09.2014, 15:00 -30.68% Diverse Thermoplanen um €44,99 (statt: €64,90) bei Hellweg
02.09.2014, 14:59 -2.84% Jack Wolfskin Rain Hose (Junior) um €34,95 (statt: €35,97) bei Globetrotter
02.09.2014, 14:59 +2.19% Keen Whisper (Damen) um €49,-- (statt: €47,95) bei Insider Sport
02.09.2014, 14:59 -5.72% Revoltec Portable Cardreader 80in1, USB 2.0 (RZ053) um €5,11 (statt: €5,42) bei 1Deins.de
02.09.2014, 14:59 -3.66% Metz T58 Tasche um €7,11 (statt: €7,38) bei 1Deins.de
02.09.2014, 14:59 -8.88% Sony DVM60PR Premium MiniDV-Kassette, 5er-Pack um €8,11 (statt: €8,90) bei 1Deins.de
02.09.2014, 14:59 -7.07% Canon Digital Ixus 240 HS schwarz (6025B007) um €166,30 (statt: €178,95) bei Home of Hardware
02.09.2014, 14:59 -4.83% AVM FRITZ!Powerline 520E (20002524) um €44,68 (statt: €46,95) bei Mindfactory
02.09.2014, 14:58 -0.56% Joby Gorillapod Focus Schnellwechselplatte (JB00159-CEU) um €7,13 (statt: €7,17) bei Foto Köster
02.09.2014, 14:58 +8.55% Hama High Speed microSDHC + Adapter Foto 4GB, Class 6 (108020) um €7,49 (statt: €6,90) bei computeruniverse.net
02.09.2014, 14:58 -0.54% Schleich World of Smurfs - Die Schlümpfe: Film Schlümpfe - Beauty (20756) um €1,83 (statt: €1,84) bei Foto Köster
02.09.2014, 14:58 -0.50% Acme Made Skinny Sleeve MacBook Air 13" Schutzhülle violett (AM00919-PWW/H6276VC-A) um €25,79 (statt: €25,92) bei Foto Köster
02.09.2014, 14:58 -0.57% Acme Made Fillmore Hard Case Kameratasche schwarz/grün (AM00545) um €12,20 (statt: €12,27) bei Foto Köster
02.09.2014, 14:58 -0.53% LumiQuest Gold-/Silberfolien Set (LQ-901D) um €11,24 (statt: €11,30) bei Foto Köster
02.09.2014, 14:58 -0.52% Acme Made Bay Street Sleeve iPad 2/3/4 Schutzhülle schwarz (AM36482) um €15,41 (statt: €15,49) bei Foto Köster
02.09.2014, 14:58 -0.53% Lowepro Seville 20 Kameratasche rot (LP36248) um €5,60 (statt: €5,63) bei Foto Köster
02.09.2014, 14:58 -2.26% Kumho Ecsta KU19 245/45 R18 100W um €125,60 (statt: €128,50) bei ReifenSuche.com
02.09.2014, 14:58 -3.17% Achilles Winter 101 195/60 R16 89H um €50,16 (statt: €51,80) bei ReifenSuche.com
02.09.2014, 14:58 -3.02% Aeolus PrecisionAce AH01 215/55 R16 97V XL um €70,92 (statt: €73,13) bei ReifenSuche.com
02.09.2014, 14:58 -1.05% Toyo Snowprox S953 215/45 R17 91H XL um €85,15 (statt: €86,05) bei ReifenSuche.com
02.09.2014, 14:58 -0.79% Continental ContiPremiumContact 2 215/40 R17 87Y XL FR um €131,85 (statt: €132,90) bei ReifenSuche.com
02.09.2014, 14:58 -0.60% Riken Allstar 2 B2 165/65 R13 77T um €28,28 (statt: €28,45) bei ReifenSuche.com
02.09.2014, 14:58 -1.53% Riken Allstar 2 B2 185/70 R14 88T um €35,39 (statt: €35,94) bei ReifenSuche.com
02.09.2014, 14:58 -1.53% Riken Allstar 2 B2 175/70 R14 84T um €34,16 (statt: €34,69) bei ReifenSuche.com
02.09.2014, 14:58 -2.58% Riken Cargo 215/65 R16 109/107R um €60,39 (statt: €61,99) bei ReifenSuche.com
02.09.2014, 14:58 -3.81% Riken Maystorm 2 B2 195/45 R16 84V um €42,13 (statt: €43,80) bei ReifenSuche.com
02.09.2014, 14:58 -0.55% Bridgestone Blizzak LM-80 Evo 225/65 R17 102H um €127,35 (statt: €128,06) bei ReifenSuche.com
02.09.2014, 14:58 -1.79% Michelin Anakee 2 110/80 R19 59V TL/TT um €89,57 (statt: €91,20) bei ReifenSuche.com
02.09.2014, 14:58 -2.25% Cooper Discoverer A/T3 245/70 R16 118/115R XL um €106,85 (statt: €109,31) bei ReifenSuche.com
02.09.2014, 14:58 -3.68% General Tire Grabber GT 255/50 R19 107Y um €112,97 (statt: €117,29) bei ReifenSuche.com
02.09.2014, 14:58 -1.82% Firestone Firehawk SZ90µ 225/45 R17 94Y XL um €75,71 (statt: €77,11) bei ReifenSuche.com
02.09.2014, 14:58 -1.54% Vredestein Ultrac Cento 205/50 R17 93Y XL um €87,71 (statt: €89,08) bei ReifenSuche.com
02.09.2014, 14:58 -1.72% Vredestein Comtrac 205/75 R16 110R um €90,37 (statt: €91,95) bei ReifenSuche.com
02.09.2014, 14:58 -2.89% Vredestein Quatrac 3 195/65 R15 91V um €62,14 (statt: €63,99) bei ReifenSuche.com
02.09.2014, 14:58 -1.73% Pirelli Scorpion Verde 255/55 R18 105V um €127,56 (statt: €129,80) bei ReifenSuche.com
02.09.2014, 14:58 -4.41% GT-Radial Champiro VP1 195/60 R15 88H um €44,21 (statt: €46,25) bei ReifenSuche.com
02.09.2014, 14:58 -0.62% Nokian Line 185/65 R14 86H um €51,38 (statt: €51,70) bei ReifenSuche.com
02.09.2014, 14:58 -1.65% Toyo Open Country W/T 215/70 R15 98T um €82,70 (statt: €84,09) bei ReifenSuche.com
02.09.2014, 14:58 -1.47% Toyo Proxes R1-R 195/50 R15 82V um €64,99 (statt: €65,96) bei ReifenSuche.com
02.09.2014, 14:58 -2.79% Continental ContiPremiumContact 2 205/60 R16 92V ML MO um €95,77 (statt: €98,52) bei ReifenSuche.com
02.09.2014, 14:58 -1.08% Michelin Latitude Cross 235/65 R17 108H um €110,89 (statt: €112,10) bei ReifenSuche.com
02.09.2014, 14:58 -4.21% Michelin Primacy 3 225/50 R17 98V XL um €130,60 (statt: €136,34) bei ReifenSuche.com
02.09.2014, 14:58 -1.67% Michelin Primacy 3 215/50 R17 91W um €129,89 (statt: €132,10) bei ReifenSuche.com
02.09.2014, 14:58 -0.54% BFGoodrich g-Grip 235/45 R17 94Y um €86,20 (statt: €86,67) bei ReifenSuche.com
02.09.2014, 14:58 -1.01% Riken Maystorm 2 B2 205/65 R15 94V um €45,20 (statt: €45,66) bei ReifenSuche.com
02.09.2014, 14:58 -3.15% Michelin Latitude Alpin 255/55 R18 109V N1 um €149,90 (statt: €154,77) bei ReifenSuche.com
02.09.2014, 14:58 -2.10% Bridgestone Duravis R410 165/80 R13 87R um €57,45 (statt: €58,68) bei ReifenSuche.com
02.09.2014, 14:58 -2.07% Bridgestone Blizzak LM-80 Evo 215/70 R16 100T um €90,02 (statt: €91,92) bei ReifenSuche.com
02.09.2014, 14:58 -1.10% Firestone Firehawk SZ90µ RFT 205/45 R17 84V um €101,08 (statt: €102,20) bei ReifenSuche.com
02.09.2014, 14:58 -1.23% Cooper Discoverer A/T3 275/65 R18 123/120S um €189,68 (statt: €192,05) bei ReifenSuche.com
02.09.2014, 14:58 -1.07% Cooper Discoverer STT 225/75 R16 115/112Q um €112,56 (statt: €113,78) bei ReifenSuche.com
02.09.2014, 14:58 -1.66% Kumho Power Grip KC11 195/70 R15 104Q um €56,84 (statt: €57,80) bei ReifenSuche.com
02.09.2014, 14:58 -0.94% Kumho Solus Vier KH21 215/65 R16 109T um €80,37 (statt: €81,13) bei ReifenSuche.com
02.09.2014, 14:58 -3.23% Wanli S-1088 215/45 R17 91W XL um €43,76 (statt: €45,22) bei ReifenSuche.com
02.09.2014, 14:58 -1.09% Maxxis Pro-R1 Victra 205/60 R16 92V um €58,31 (statt: €58,95) bei ReifenSuche.com
02.09.2014, 14:58 -1.52% Dunlop SP LT 30 235/65 R16 115R um €126,84 (statt: €128,80) bei ReifenSuche.com
02.09.2014, 14:58 -0.85% Dunlop SP LT 30 215/75 R16 113R um €97,-- (statt: €97,83) bei ReifenSuche.com
02.09.2014, 14:58 -1.80% Bridgestone Battlax BT 45 100/80 17 52H TL um €67,25 (statt: €68,48) bei ReifenSuche.com
02.09.2014, 14:58 -0.76% Böker Plus 3000 Lightweight Klappmesser um €52,56 (statt: €52,96) bei BestQualityWarehouse.de
02.09.2014, 14:58 -13.24% Böker Plus Kwaiken Flipper Folder Klappmesser um €137,56 (statt: €158,56) bei BestQualityWarehouse.de
02.09.2014, 14:58 -0.80% Böker Plus Trance Klappmesser um €48,56 (statt: €48,95) bei BestQualityWarehouse.de
02.09.2014, 14:58 +7.33% Hill's Science Plan Adult Optimal Care Rabbit 10kg um €43,90 (statt: €40,90) bei Amazon.de
02.09.2014, 14:58 +1.82% cdVet Equival 1000ml Nahrungsergänzungsmittel um €27,39 (statt: €26,90) bei Bodfeld Apotheke
02.09.2014, 14:58 -7.95% WWE 2k14 (deutsch) (PS3) um €18,40 (statt: €19,99) bei Games-Konsolen-Shop
02.09.2014, 14:58 +2.00% Hama 5-Port USB-Hub V2 (PS3) (115430) um €10,19 (statt: €9,99) bei sevenrabbits.de
02.09.2014, 14:58 +40.71% Vivanco STS DSW2 1/2 DiSEqC Switch (20504) um €9,85 (statt: €7,--) bei sevenrabbits.de
02.09.2014, 14:58 +44.18% Vivanco 10/1010 SAT-Anschluss-Set 110dB, 10m um €14,98 (statt: €10,39) bei sevenrabbits.de
02.09.2014, 14:58 +25.91% Vivanco 10/41 SAT-Anschluss-Set 75dB, 30m (4443) um €13,85 (statt: €11,--) bei sevenrabbits.de
02.09.2014, 14:58 -5.03% cdVet Nager Fitness 40g um €7,55 (statt: €7,95) bei fuetternundfit.de
02.09.2014, 14:58 -4.04% Liebherr IKB 2750 um €1033,-- (statt: €1076,54) bei Mybauer
02.09.2014, 14:57 -0.78% Miele S192 Handstaubsauger um €127,99 (statt: €129,--) bei notebooksbilliger.de
02.09.2014, 14:57 -7.38% Hähnel HL-F60 Li-Ionen-Akku (1000 187.2) um €18,70 (statt: €20,19) bei redcoon.de
02.09.2014, 14:57 -80.33% Philips PD7005 schwarz um €79,99 (statt: €406,69) bei redcoon.de
02.09.2014, 14:57 -7.46% Braun Oral-B PRO 3000 (096603) um €83,75 (statt: €90,50) bei redcoon.de
02.09.2014, 14:57 -1.70% Beko WML15106NE Frontlader um €184,81 (statt: €188,--) bei redcoon.de
02.09.2014, 14:57 -1.03% Sony SRS-X2 schwarz um €77,02 (statt: €77,82) bei redcoon.de
02.09.2014, 14:57 -2.41% Philips HX6044/07 Sonicare for Kids Ersatzbürste, 4er-Pack um €19,80 (statt: €20,29) bei redcoon.de
02.09.2014, 14:57 -1.28% Exquisit KS102RVA+ um €120,65 (statt: €122,22) bei redcoon.de
02.09.2014, 14:57 -2.68% Silverline Tatu Flachschirm-Dunstabzugshaube (TTU653E) um €145,-- (statt: €149,--) bei redcoon.de
02.09.2014, 14:57 -3.25% Sony MDR-ZX610AP rot um €44,61 (statt: €46,11) bei redcoon.de
02.09.2014, 14:57 -9.40% Pioneer SE-MJ532 schwarz um €31,80 (statt: €35,10) bei redcoon.de
02.09.2014, 14:57 -0.67% Ices IBT-3 Roma um €88,01 (statt: €88,60) bei redcoon.de
02.09.2014, 14:57 -1.11% Ices IBT-3 London um €88,01 (statt: €89,--) bei redcoon.de
02.09.2014, 14:57 -0.67% Hähnel HL-F50 Li-Ionen-Akku (1000 186.9) um €11,82 (statt: €11,90) bei redcoon.de
02.09.2014, 14:57 -4.79% Pioneer TS-Q131C um €68,78 (statt: €72,24) bei redcoon.de
02.09.2014, 14:57 -2.97% Sony NWZ-E384 8GB blau um €69,56 (statt: €71,69) bei redcoon.de
02.09.2014, 14:57 -11.58% ASUS X200MA-KX130D schwarz (90NB04U2-M02220) um €229,-- (statt: €259,--) bei redcoon.de
02.09.2014, 14:57 -2.51% Medisana Manilux L Maniküre/Pediküre-Set um €55,07 (statt: €56,49) bei redcoon.de
02.09.2014, 14:57 -2.56% Hama LCD-Wandhalterung Fullmotion Ultraslim M (84470) um €48,66 (statt: €49,94) bei redcoon.de
02.09.2014, 14:57 -0.90% Muse M-1200 BT schwarz um €76,01 (statt: €76,70) bei redcoon.de
02.09.2014, 14:57 -0.75% Millenniata M-DISC 4.7GB, 50er Spindel printable (MIJ50CDE-ME/MIJ50C-ME) um €147,71 (statt: €148,82) bei redcoon.de
02.09.2014, 14:57 -2.61% Enermax Revolution X't 730W ATX 2.4 (ERX730AWT) um €99,90 (statt: €102,58) bei Alternate
02.09.2014, 14:57 -2.63% Enermax Revolution X't 630W ATX 2.4 (ERX630AWT) um €91,90 (statt: €94,38) bei Alternate
02.09.2014, 14:57 -1.79% Enermax Platimax 1500W ATX 2.4 (EPM1500EGT) um €274,-- (statt: €279,--) bei Alternate
02.09.2014, 14:57 -1.56% Enermax Platimax 1000W ATX 2.4 (EPM1000EWT) um €189,90 (statt: €192,90) bei Alternate
02.09.2014, 14:57 -4.64% Enermax Revolution87+ 1000W ATX 2.4 (ERV1000EWT-G) um €154,90 (statt: €162,44) bei Alternate
02.09.2014, 14:57 -5.53% Enermax Platimax 600W ATX 2.4 (EPM600AWT) um €117,90 (statt: €124,80) bei Alternate
02.09.2014, 14:57 -12.47% Enermax Platimax 750W ATX 2.4 (EPM750AWT) um €139,90 (statt: €159,84) bei Alternate
02.09.2014, 14:57 -13.16% Enermax Platimax 850W ATX 2.4 (EPM850EWT) um €164,90 (statt: €189,89) bei Alternate
02.09.2014, 14:57 -7.17% Enermax NAXN82+ ADV 650W ATX 2.3 (ETL650AWT) um €59,90 (statt: €64,53) bei Alternate
02.09.2014, 14:57 -9.29% WMF Skyline (61 3022 0105) um €90,70 (statt: €99,99) bei Top-und-Preiswert.de
02.09.2014, 14:57 -2.20% Sony DVM60PR Premium MiniDV-Kassette, 5er-Pack um €8,90 (statt: €9,10) bei SNOGARD
02.09.2014, 14:56 -12.57% PKM CF110 Aktivkohlefilter um €7,51 (statt: €8,59) bei redcoon.de
02.09.2014, 14:56 -2.86% Nintendo 3DS XL Grundgerät, rot/schwarz um €169,90 (statt: €174,90) bei redcoon.de
02.09.2014, 14:56 -37.71% Samsung PS43F4500 um €299,-- (statt: €479,99) bei redcoon.de
02.09.2014, 14:56 -30.33% Otterbox Preserver iPhone 5/5S glacier (77-36576) um €41,-- (statt: €58,85) bei redcoon.de
02.09.2014, 14:56 -14.35% Panasonic SC-BTT230 silber um €298,90 (statt: €348,99) bei redcoon.de
02.09.2014, 14:56 +1.42% Acer Liquid E700 Trio schwarz um €199,-- (statt: €196,22) bei TechnikDirekt
02.09.2014, 14:56 -1.28% Gigaset A630A Trio (L36852-H2223-B134) um €76,90 (statt: €77,90) bei redcoon.de
02.09.2014, 14:56 -2.06% Severin SM9685 Milchschäumer/Milchwärmer um €75,99 (statt: €77,59) bei redcoon.de
02.09.2014, 14:56 -2.13% GoPro ASDRK-301 BacPac Hintertür-Kit um €7,34 (statt: €7,50) bei redcoon.de
02.09.2014, 14:56 -8.40% Kingston DataTraveler 101 G2 schwarz 16GB, USB 2.0 (DT101G2/16GB) um €6,-- (statt: €6,55) bei redcoon.de
02.09.2014, 14:56 -3.34% V7 Videoseven Ultra Slim 3-fach Folio Case für iPad Air, grau (TA55-10-GRY-14E) um €15,62 (statt: €16,16) bei redcoon.de
02.09.2014, 14:56 -14.51% Otterbox Defender für HTC One Mini schwarz um €26,46 (statt: €30,95) bei redcoon.de
02.09.2014, 14:56 -11.37% Philips MCM2300 silber/schwarz um €62,84 (statt: €70,90) bei Lapado
02.09.2014, 14:56 -1.50% Paco Rabanne Invictus Pour Homme Eau de Toilette 150ml um €64,95 (statt: €65,94) bei ParfumGroup
02.09.2014, 14:56 -0.52% Neff MR1842N Glaskeramik-Kochfeld (M18R42N2) um €296,44 (statt: €298,--) bei elektrofachmarkt24.com
02.09.2014, 14:56 -4.76% Candy CFBC3150A um €475,19 (statt: €498,95) bei elektrofachmarkt24.com
02.09.2014, 14:56 -9.49% Neff MI9353N Induktionskochfeld Autark (M93I53N2MK) um €769,85 (statt: €850,55) bei elektrofachmarkt24.com
02.09.2014, 14:56 -51.12% Siemens HE20BD210 Elektroherd um €575,29 (statt: €1176,95) bei elektrofachmarkt24.com
02.09.2014, 14:56 -1.31% Bosch HBA 24T150 um €629,63 (statt: €638,--) bei elektrofachmarkt24.com
02.09.2014, 14:56 -9.15% devolo dLAN 500 AV Wireless+ Starter Kit (01825/01827) um €119,-- (statt: €130,99) bei ATELCO Computer AG | MeinPaket
02.09.2014, 14:55 -5.01% Walimex Pro Blitzschuhadapter (19743) um €23,70 (statt: €24,95) bei Foto Köster OHG
02.09.2014, 14:55 +8.49% Exquisit GS270NF um €312,45 (statt: €288,--) bei redcoon.de
02.09.2014, 14:55 +5.36% Carson HookUpz Objektiv für Apple iPhone 5 (versch. Modelle) um €15,73 (statt: €14,93) bei Amazon.de
02.09.2014, 14:55 +6.89% Telestar digiHD TC 2 (5310456) um €76,95 (statt: €71,99) bei shoppingfever.de
02.09.2014, 14:55 +6.82% Kryptonite Evolution Mini Bügelschloss, Schlüssel um €44,-- (statt: €41,19) bei engelhorn.de
02.09.2014, 14:55 -3.81% InLine Kabeltester mit LCD (79996C) um €94,37 (statt: €98,11) bei 1Deins Computer GmbH | MeinPaket
02.09.2014, 14:55 -16.48% Intel SSD 335 Series 180GB, SATA 6Gb/s (SSDSC2CT180A4K5) um €113,50 (statt: €135,90) bei 1Deins Computer GmbH | MeinPaket
02.09.2014, 14:54 -1.39% Sony Alpha 37 mit Objektiv AF 18-55mm 3.5-5.6 DT SAM (SLT-A37K) um €484,08 (statt: €490,90) bei easytronics.de
02.09.2014, 14:53 -1.38% VCM WF 100 Standfuß (17801) um €20,71 (statt: €21,--) bei easytronics.de
02.09.2014, 14:53 -24.41% Mammut Claw GTX (Damen) um €89,95 (statt: €119,--) bei Krähe Versand
02.09.2014, 14:53 -1.88% Komplettsystem Intel Core i5-2300, 2GB RAM, 19" LCD-Monitor um €347,70 (statt: €354,35) bei Rabo Networks Shop
02.09.2014, 14:52 -7.31% Braun Oral-B Aufsteckbürsten Precision Clean, 3x4er-Pack (027201) um €24,99 (statt: €26,96) bei digital-versand.de Online GmbH
02.09.2014, 14:51 +20.96% AEG Style 15 um €31,74 (statt: €26,24) bei Mindfactory
02.09.2014, 14:51 -1.09% GeIL EVO Veloce DIMM Kit 16GB, DDR3-1333, CL9-9-9-24 (GEV316GB1333C9DC) um €136,50 (statt: €138,--) bei ComStern.de
02.09.2014, 14:50 -1.53% ASRock P67 Extreme6 (B3) (90-MXGGR0-A0UAYZ) um €75,11 (statt: €76,28) bei Compuland
02.09.2014, 14:50 +8.94% Das verlorene Labyrinth (Blu-ray) um €9,99 (statt: €9,17) bei kidoh.de
02.09.2014, 14:50 +1.53% Cars 2 - The Video Game (deutsch) (3DS) um €16,59 (statt: €16,34) bei SPEICHERPUNKT
02.09.2014, 14:50 +14.05% IMAX: Legenden der Luftfahrt (3D) (Blu-ray) um €13,64 (statt: €11,96) bei mecodu
02.09.2014, 14:50 -27.39% Call of Juarez 2 - Bound in Blood (deutsch) (PS3) um €13,28 (statt: €18,29) bei Multi-Media-Trade GmbH
02.09.2014, 14:50 +54.81% Fairly Legal Season 1 um €14,97 (statt: €9,67) bei media-dealer
02.09.2014, 14:50 +9.58% WWE - Mick Foley's Greates Hits & Misses um €14,99 (statt: €13,68) bei muchmedia_wwe
02.09.2014, 14:50 -24.36% Amica KF17193 Aktivkohlefilter um €7,95 (statt: €10,51) bei shoppingfever.de
02.09.2014, 14:50 -9.42% Alcatel One Touch Pop S7 7045Y blau/schwarz um €202,90 (statt: €224,--) bei shoppingfever.de
02.09.2014, 14:50 -2.77% Triax-Hirschmann SPM 1200 HD Digitales Messgerät um €450,96 (statt: €463,80) bei shoppingfever.de
02.09.2014, 14:50 -33.52% CnMemory Spaceloop rot 4GB, USB 2.0 um €5,95 (statt: €8,95) bei shoppingfever.de
02.09.2014, 14:50 -8.61% WS-Spalluto WS-P-ClassicScreen Rolloleinwand 16:9 180x102cm (11111) um €143,95 (statt: €157,51) bei shoppingfever.de
02.09.2014, 14:50 -4.66% Krups KM8508 Duothek Plus Kombi-Kaffee-/Teemaschine um €122,98 (statt: €128,99) bei shoppingfever.de
02.09.2014, 14:50 -8.25% Samsung UE50H5070 um €522,96 (statt: €569,99) bei shoppingfever.de
02.09.2014, 14:50 -7.04% Maxell BD-R 25GB 4x, 1er-Pack (58704000) um €1,85 (statt: €1,99) bei shoppingfever.de
02.09.2014, 14:50 +8.08% Moulinex OX1301 Uno M Red Mini-Backofen mit Grill um €93,92 (statt: €86,90) bei shoppingfever.de
02.09.2014, 14:50 -1.35% Orion CLB32B700 um €185,96 (statt: €188,50) bei shoppingfever.de
02.09.2014, 14:50 -6.28% Wolf-Garten RS-S Comfort Gartenschere, mechanisch (7302000) um €14,92 (statt: €15,92) bei shoppingfever.de
02.09.2014, 14:50 -5.26% Rowenta CV6030 Eco Intelligence Haartrockner um €30,98 (statt: €32,70) bei shoppingfever.de
02.09.2014, 14:50 -3.66% V7 Videoseven Desktop Keyboard, PS/2, DE (KC0D2-5E2P) um €6,85 (statt: €7,11) bei shoppingfever.de
02.09.2014, 14:50 +10.00% Braun Oral-B Triumph 5500 mit SmartGuide (082811) um €86,90 (statt: €79,--) bei Alternate
02.09.2014, 14:50 -3.98% Stiebel Eltron 231583 Ultronic S Heizlüfter/Händetrockner um €482,98 (statt: €502,98) bei shoppingfever.de
02.09.2014, 14:50 +2.29% Bosch SPS 53M22EU um €401,99 (statt: €393,--) bei elektrofachmarkt24.com
02.09.2014, 14:49 -0.80% Zalman Z3 Plus schwarz mit Sichtfenster um €36,11 (statt: €36,40) bei VibuOnline
02.09.2014, 14:49 +5.86% Bomann CB594 um €56,88 (statt: €53,73) bei hardwareversand.de
02.09.2014, 14:49 -10.57% Tannhäuser - Operation Hinansho (Erweiterung) um €23,69 (statt: €26,49) bei Amazon.de
02.09.2014, 14:49 -6.53% Samsung DV150F weiß um €93,47 (statt: €100,--) bei Amazon.de
02.09.2014, 14:49 -31.42% Canon PowerShot A1400 schwarz (8115B011) um €54,86 (statt: €79,99) bei Amazon.de
02.09.2014, 14:49 -7.37% Lacoste 2000689 um €111,16 (statt: €120,--) bei Amazon.de
02.09.2014, 14:49 -17.29% Acer Iconia Tab A1-811 3G 16GB grau (NT.L2TEG.001) um €196,-- (statt: €236,96) bei Amazon.de
02.09.2014, 14:49 -1.58% Bosch TLB 4003 Trockenbügeleisen um €19,99 (statt: €20,31) bei Amazon.de
02.09.2014, 14:49 +2.15% Emporio Armani AR1743 um €255,60 (statt: €250,21) bei Amazon.de
02.09.2014, 14:49 -23.01% Guess W13582L2 um €123,61 (statt: €160,55) bei Amazon.de
02.09.2014, 14:49 -20.52% VauDe First Aid Kit Hike XT um €18,44 (statt: €23,20) bei Amazon.de
02.09.2014, 14:49 -2.05% Julius Zöllner Stillkissen Uni weiß um €42,02 (statt: €42,90) bei Amazon.de
02.09.2014, 14:49 +65.83% playmobil - Summer Fun - Enduro (5115) um €9,95 (statt: €6,--) bei spielwaren-schwarz
02.09.2014, 14:49 -1.86% MTD 46SPB Benzin-Rasenmäher um €214,01 (statt: €218,07) bei Amazon.de
02.09.2014, 14:49 -6.11% Joola Netzgarnitur Snapper um €13,99 (statt: €14,90) bei Amazon.de
02.09.2014, 14:49 -1.63% Michelin Alpin A4 175/65 R14 82T um €50,-- (statt: €50,83) bei Amazon.de
02.09.2014, 14:49 +48.45% Puma Sync Woman Eau de Toilette 40ml um €11,95 (statt: €8,05) bei Amazon.de
02.09.2014, 14:49 -5.59% Puma Sync Woman Eau de Toilette 20ml um €8,45 (statt: €8,95) bei Amazon.de
02.09.2014, 14:49 -6.16% Mexx Energizing Woman Eau de Toilette 15ml um €12,95 (statt: €13,80) bei Amazon.de
02.09.2014, 14:49 -4.84% Crucial SO-DIMM 4GB, DDR3L-1333, CL11 (CT4G3S1339MCEU) um €34,98 (statt: €36,76) bei Amazon.de
02.09.2014, 14:49 -16.61% LEGO - Ninjago - Garmatron (70504) um €22,95 (statt: €27,52) bei real,- Onlineshop
02.09.2014, 14:49 -31.15% Orion CLB40B900 um €222,-- (statt: €322,43) bei real,- Onlineshop
02.09.2014, 14:49 -13.10% AEG SLS 4712 schwarz um €59,95 (statt: €68,99) bei real,- Onlineshop
02.09.2014, 14:49 +9.68% Makita 8281DWAE Akku-Schlagbohrschrauber im Koffer um €169,89 (statt: €154,90) bei hardwareversand.de
02.09.2014, 14:49 -28.42% Canon Digital Ixus 240 HS schwarz (6025B007) um €178,95 (statt: €249,99) bei shoppingfever.de
02.09.2014, 14:49 -2.65% Roadstar HRA-1320US/BK schwarz um €34,95 (statt: €35,90) bei shoppingfever.de
02.09.2014, 14:49 -6.46% Logitech X300 violett (984-000414) um €64,85 (statt: €69,33) bei shoppingfever.de
02.09.2014, 14:49 -15.61% Vantage VT-Quad Quad-LNB (10108) um €15,95 (statt: €18,90) bei shoppingfever.de
02.09.2014, 14:49 -15.63% Hama Booklet Look für Samsung Galaxy S4 Mini schwarz (00124626) um €16,95 (statt: €20,09) bei shoppingfever.de
02.09.2014, 14:49 -3.88% Spaun VBE 3 PD Verteiler 3-fach (842226) um €5,95 (statt: €6,19) bei shoppingfever.de
02.09.2014, 14:49 -12.92% Hama 100S SCART Switch 3-fach (42945) um €19,95 (statt: €22,91) bei shoppingfever.de
02.09.2014, 14:49 -12.15% Bomann EK5022CB weiß Eierkocher um €7,95 (statt: €9,05) bei shoppingfever.de
02.09.2014, 14:49 -4.85% Bomann FW447CB Fleischwolf um €41,94 (statt: €44,08) bei shoppingfever.de
02.09.2014, 14:49 -2.61% Hirschmann HIT AUTA 770 B um €14,90 (statt: €15,30) bei shoppingfever.de
02.09.2014, 14:49 -6.42% Pioneer SE-MX9 Kupfer um €233,95 (statt: €250,--) bei shoppingfever.de
02.09.2014, 14:48 -0.93% Uniroyal RainMax 2 185 R14 102/100Q um €60,81 (statt: €61,38) bei AutoteileStore.com
02.09.2014, 14:48 -2.05% DeLOCK externes 3.5"-Gehäuse, USB 3.0 (42505) um €24,84 (statt: €25,36) bei K+K Computer GmbH
02.09.2014, 14:48 -9.17% Panasonic Silver SDHC 8GB, Class 4 (RP-SDP08GE1K) um €9,90 (statt: €10,90) bei Cyberport
02.09.2014, 14:48 -0.90% Panasonic Blue SDHC 16GB, Class 4 (RP-SDLB16GAK) um €9,90 (statt: €9,99) bei Cyberport
02.09.2014, 14:48 -6.98% Thierry Mugler Alien Aqua 2013 Chic Eau de Toilette 60ml um €39,95 (statt: €42,95) bei RedZilla.de
02.09.2014, 14:47 +1.99% Vredestein Wintrac Xtreme 265/35 R18 97W XL um €179,80 (statt: €176,30) bei reifendiscount.de
02.09.2014, 14:47 +3.69% Vredestein Wintrac Xtreme 255/40 R17 98W XL um €154,70 (statt: €149,20) bei reifendiscount.de
02.09.2014, 14:47 +3.52% Kumho Ecowing ES01 KH27 195/65 R15 91H um €44,46 (statt: €42,95) bei Giga-Reifen.de
02.09.2014, 14:47 -0.60% Vredestein Wintrac Xtreme 235/35 R19 91W XL um €158,65 (statt: €159,60) bei reifendiscount.de
02.09.2014, 14:47 -0.78% Bridgestone Blizzak W810 215/75 R16 116/114R XL um €121,40 (statt: €122,35) bei reifendiscount.de
02.09.2014, 14:47 +3.07% Bridgestone Hoop B03 Pro 120/70 14 55S TL um €50,99 (statt: €49,47) bei Tirendo
02.09.2014, 14:47 +1.38% Bridgestone Hoop B01 100/80 10 53J TL um €33,70 (statt: €33,24) bei Giga-Reifen.de
02.09.2014, 14:47 +2.27% Vredestein Wintrac 4 Xtreme 255/65 R16 109H um €113,21 (statt: €110,70) bei ReifenSuche.com
02.09.2014, 14:47 -0.71% Kumho Ecsta SPT KU31 205/55 R16 91V um €55,90 (statt: €56,30) bei reifendiscount.de
02.09.2014, 14:47 -0.65% Kumho Road Venture AT KL78 325/60 R15 106S um €129,95 (statt: €130,80) bei reifendiscount.de
02.09.2014, 14:47 +71.64% Vredestein Ultrac Sessanta 295/35 R18 103Y XL um €208,20 (statt: €121,30) bei reifendiscount.de
02.09.2014, 14:47 +10.37% Metzeler ME 880 Marathon 150/70 B18 76H TL XL um €145,03 (statt: €131,40) bei ReifenSuche.com
02.09.2014, 14:47 +1.32% Metzeler Roadtec Z6 110/80 ZR18 58W TL um €88,15 (statt: €87,--) bei reifendiscount.de
02.09.2014, 14:47 -1.00% Metzeler ME 880 Marathon 200/70 B15 82H TL um €139,20 (statt: €140,60) bei reifendiscount.de
02.09.2014, 14:47 +1.14% Metzeler ME 880 Marathon 120/70 R17 58V TL um €109,53 (statt: €108,30) bei ReifenSuche.com
02.09.2014, 14:47 -0.76% Yokohama W.drive V902A 195/50 R16 88H RF M+S um €85,05 (statt: €85,70) bei reifendiscount.de
02.09.2014, 14:47 -3.33% Dunlop Geomax MX52 70/100 19 42M TT um €52,30 (statt: €54,10) bei reifendiscount.de
02.09.2014, 14:47 -1.31% Samsung Galaxy NotePRO 12.2 32GB schwarz (SM-P9000ZKA) um €449,-- (statt: €454,95) bei notebook.de
02.09.2014, 14:47 +1.00% Zweibrüder Led Lenser X21R.2 Taschenlampe um €363,57 (statt: €359,97) bei techstar24
02.09.2014, 14:43 -3.04% Fossil ME1122 um €159,99 (statt: €165,--) bei Traumstücke
02.09.2014, 14:43 -14.15% Diablo 3: Reaper of Souls (Add-on) (deutsch) (PC/MAC) um €14,99 (statt: €17,46) bei Thalia.de
02.09.2014, 14:43 -2.19% Microsoft: Office 2007 Small Business DSP/SB, MLK, 1er-Pack (englisch) (PC) (9QA-00443) um €132,05 (statt: €135,--) bei We Office You | MeinPaket
02.09.2014, 14:42 -5.01% Platypus Big-Zip LP 2l Trinkblase um €23,70 (statt: €24,95) bei dein-klettershop.de
02.09.2014, 14:42 -5.00% TSL 302 Freeze um €52,20 (statt: €54,95) bei dein-klettershop.de
02.09.2014, 14:42 -4.01% KMC X10EL Kette silber um €24,90 (statt: €25,94) bei Action Sports
02.09.2014, 14:40 -7.76% Lassa Wintus 195/70 R15 104/102R um €63,55 (statt: €68,90) bei Autoteilemann
02.09.2014, 14:40 -3.43% Lassa Snoways Era 195/50 R15 82H um €46,77 (statt: €48,43) bei Autoteilemann
02.09.2014, 14:40 -3.74% Lassa Snoways Era 225/55 R17 101V um €73,54 (statt: €76,40) bei Autoteilemann
02.09.2014, 14:40 -15.45% Lassa Snoways Era 225/40 R18 92V um €70,33 (statt: €83,18) bei Autoteilemann
02.09.2014, 14:40 -7.88% Lassa Snoways Era 235/60 R16 100H um €70,81 (statt: €76,87) bei Autoteilemann
02.09.2014, 14:40 -5.65% Lassa Snoways Era 225/55 R16 95H um €65,57 (statt: €69,50) bei Autoteilemann
02.09.2014, 14:40 -3.56% Lassa Snoways Era 215/60 R16 95H um €61,29 (statt: €63,55) bei Autoteilemann
02.09.2014, 14:40 -7.86% Lassa Snoways Era 215/65 R15 96H um €57,24 (statt: €62,12) bei Autoteilemann
02.09.2014, 14:40 -18.93% Lassa Competus Winter 215/60 R17 100H um €68,19 (statt: €84,11) bei Autoteilemann
02.09.2014, 14:40 +2.72% Varta Black Dynamic C15 (556401048) um €73,96 (statt: €72,--) bei Autoteilemann
02.09.2014, 14:40 -19.26% Lassa Snoways 2C 195/60 R16 99/97T um €57,36 (statt: €71,04) bei Autoteilemann
02.09.2014, 14:40 -11.70% Lassa Competus Winter 235/65 R17 108H um €83,18 (statt: €94,20) bei Autoteilemann
02.09.2014, 14:40 -11.48% Lassa Snoways 2 Plus 165/65 R14 79T um €33,92 (statt: €38,32) bei Autoteilemann
02.09.2014, 14:40 -11.59% Lassa Snoways 2 Plus 175/70 R14 84T um €36,30 (statt: €41,06) bei Autoteilemann
02.09.2014, 14:40 -8.77% Lassa Snoways 2 Plus 175/80 R14 88T um €39,63 (statt: €43,44) bei Autoteilemann
02.09.2014, 14:40 -12.26% Lassa Snoways 2 Plus 175/65 R13 80T um €33,92 (statt: €38,66) bei Autoteilemann
02.09.2014, 14:40 -8.48% Lassa Competus Winter 255/55 R18 109H um €95,91 (statt: €104,80) bei Autoteilemann
02.09.2014, 14:40 -16.84% Lassa Competus Winter 245/65 R17 107H um €87,58 (statt: €105,32) bei Autoteilemann
02.09.2014, 14:40 -10.51% Lassa Snoways 2 Plus 185/70 R14 88T um €41,53 (statt: €46,41) bei Autoteilemann
02.09.2014, 14:40 -8.36% Lassa Snoways Era 175/65 R14 86T XL um €37,84 (statt: €41,29) bei Autoteilemann
02.09.2014, 14:40 -15.67% Lassa Competus Winter 215/70 R16 100T um €69,14 (statt: €81,99) bei Autoteilemann
02.09.2014, 14:40 -5.31% Lassa Competus Winter 245/70 R16 107T um €84,49 (statt: €89,23) bei Autoteilemann
02.09.2014, 14:40 -12.55% Lassa Competus Winter 215/65 R16 98H um €64,62 (statt: €73,89) bei Autoteilemann
02.09.2014, 14:40 -4.52% Lassa Snoways Era+ 185/60 R14 82T um €37,84 (statt: €39,63) bei Autoteilemann
02.09.2014, 14:40 -18.27% Lassa Snoways 2C 205/65 R16 107/105R um €62,24 (statt: €76,15) bei Autoteilemann
02.09.2014, 14:40 -16.61% Lassa Competus Winter 225/65 R17 106H um €74,73 (statt: €89,61) bei Autoteilemann
02.09.2014, 14:40 -13.11% Lassa Wintus 205/65 R15 102/100R um €67,83 (statt: €78,06) bei Autoteilemann
02.09.2014, 14:40 -11.80% Lassa Wintus 215/75 R16 113/111Q um €78,18 (statt: €88,64) bei Autoteilemann
02.09.2014, 14:40 -17.40% Lassa Snoways 2C 195/65 R16 104/102R um €59,86 (statt: €72,47) bei Autoteilemann
02.09.2014, 14:40 -5.40% Lassa Wintus 205/75 R16 110/108Q um €76,87 (statt: €81,26) bei Autoteilemann
02.09.2014, 14:40 -12.47% Lassa Wintus 225/70 R15 112/110R um €70,21 (statt: €80,21) bei Autoteilemann
02.09.2014, 14:40 -2.30% Lassa Wintus 195/75 R16 107/105Q um €68,31 (statt: €69,92) bei Autoteilemann
02.09.2014, 14:40 -3.45% Lassa Wintus 195 R14 106/104Q um €59,26 (statt: €61,38) bei Autoteilemann
02.09.2014, 14:40 -7.69% Lassa Competus Winter 235/70 R16 106T um €82,94 (statt: €89,85) bei Autoteilemann
02.09.2014, 14:40 -3.68% Lassa Snoways Era 215/65 R16 98H um €62,24 (statt: €64,62) bei Autoteilemann
02.09.2014, 14:40 -14.02% Lassa Snoways Era 195/45 R16 84V XL um €51,77 (statt: €60,21) bei Autoteilemann
02.09.2014, 14:40 -10.73% Lassa Snoways 2 Plus 185/55 R15 82T um €44,51 (statt: €49,86) bei Autoteilemann
02.09.2014, 14:40 -7.60% Lassa Snoways Era 245/45 R17 99V um €75,21 (statt: €81,40) bei Autoteilemann
02.09.2014, 14:40 -5.91% Lassa Snoways Era 215/55 R17 94V um €70,09 (statt: €74,49) bei Autoteilemann
02.09.2014, 14:40 -8.40% Lassa Snoways 2 Plus 165/70 R14 81T um €34,99 (statt: €38,20) bei Autoteilemann
02.09.2014, 14:40 -10.37% Lassa Snoways 2 Plus 155/65 R14 75T um €31,89 (statt: €35,58) bei Autoteilemann
02.09.2014, 14:40 -8.48% Lassa Snoways 2 Plus 175/70 R13 82T um €34,63 (statt: €37,84) bei Autoteilemann
02.09.2014, 14:40 -2.64% Lassa Snoways 2 Plus 165/80 R13 83T um €35,34 (statt: €36,30) bei Autoteilemann
02.09.2014, 14:40 -13.34% Lassa Snoways 2 Plus 165/65 R13 77T um €31,06 (statt: €35,84) bei Autoteilemann
02.09.2014, 14:40 -4.45% Lassa Snoways 2 Plus 155/80 R13 79T um €30,70 (statt: €32,13) bei Autoteilemann
02.09.2014, 14:40 -8.86% Lassa Snoways 2 Plus 145/80 R13 75T um €28,20 (statt: €30,94) bei Autoteilemann
02.09.2014, 14:40 -8.77% Lassa Wintus 185/75 R16 104/102R um €65,33 (statt: €71,61) bei Autoteilemann
02.09.2014, 14:40 -3.21% Lassa Wintus 185 R14 102/100Q um €53,91 (statt: €55,70) bei Autoteilemann
02.09.2014, 14:40 -6.27% Lassa Snoways 2 Plus 165/70 R13 79T um €32,01 (statt: €34,15) bei Autoteilemann
02.09.2014, 14:40 -13.59% Lassa Competus Winter 265/65 R17 116H um €97,58 (statt: €112,93) bei Autoteilemann
02.09.2014, 14:40 -11.89% Lassa Wintus 175/75 R16 101/99Q um €64,38 (statt: €73,07) bei Autoteilemann
02.09.2014, 14:40 -16.40% Philips X-tremeVision H1 55W, 1er-Pack (12258XVB1) um €7,95 (statt: €9,51) bei Autoteilemann
02.09.2014, 14:40 -6.69% Philips X-tremeVision H1 55W, 2er-Pack (12258XVB1) um €13,95 (statt: €14,95) bei Autoteilemann
02.09.2014, 14:40 -7.44% Philips X-tremeVision H7 55W, 1er-Pack (12972XVB1) um €9,95 (statt: €10,75) bei Autoteilemann
02.09.2014, 14:40 -20.02% Philips X-tremeVision H4 55W, 1er-Pack (12342XVB1) um €7,95 (statt: €9,94) bei Autoteilemann
02.09.2014, 14:40 -1.66% Wheelworld WH11 7.5x17 (verschiedene Farben/Modelle) um €85,56 (statt: €87,--) bei Autoteilemann
02.09.2014, 14:40 -14.39% Philips X-tremeVision H7 55W, 2er-Pack (12972XVB1) um €16,95 (statt: €19,80) bei Autoteilemann
02.09.2014, 14:40 -2.28% Falken Eurowinter HS439 235/40 R18 95V XL um €104,60 (statt: €107,04) bei Autoteilemann
02.09.2014, 14:40 -0.81% Autec Baltic 6.5x15 (verschiedene Modelle) um €72,-- (statt: €72,59) bei Autoteilemann
02.09.2014, 14:40 +9.34% Osram Diadem PY21W 21W, 2er-Pack (7507LDR) um €9,95 (statt: €9,10) bei Autoteilemann
02.09.2014, 14:40 -3.24% Hapro Traxer 4.6 (verschiedene Farben) um €299,-- (statt: €309,--) bei Autoteilemann
02.09.2014, 14:40 -14.10% Maggi Trak Sport 217 um €199,-- (statt: €231,67) bei Autoteilemann
02.09.2014, 14:40 -12.64% Maggi Trak Sport 214 um €199,-- (statt: €227,80) bei Autoteilemann
02.09.2014, 14:40 -13.99% Maggi Trak Sport 212 um €199,-- (statt: €231,38) bei Autoteilemann
02.09.2014, 14:40 -39.51% Maggi Trak 4x4-SUV LT44 um €199,-- (statt: €329,--) bei Autoteilemann
02.09.2014, 14:40 -15.09% Varta Professional Dual Purpose AGM LA60 (840060068) um €142,50 (statt: €167,83) bei Autoteilemann
02.09.2014, 14:40 -1.92% Thule Dynamic 900 titan (6129T) um €715,-- (statt: €728,99) bei Autoteilemann
02.09.2014, 14:40 -0.95% Thule Dynamic 800 titan (6128T) um €624,-- (statt: €629,99) bei Autoteilemann
02.09.2014, 14:40 -20.95% Exide Bike YB9L-A2 (509016008) um €28,30 (statt: €35,80) bei Autoteilemann
02.09.2014, 14:40 -29.24% Exide Bike YB5L-B (505012003) um €17,62 (statt: €24,90) bei Autoteilemann
02.09.2014, 14:40 -4.26% Samsung Galaxy Tab 3 7.0 T2100 8GB schwarz (SM-T2100MKA) um €123,50 (statt: €128,99) bei Billig.de
02.09.2014, 14:39 -22.29% Urbanears Plattan Coral um €46,55 (statt: €59,90) bei Urban-Tech
02.09.2014, 14:39 -3.85% Nokia Lumia 1320 schwarz um €199,99 (statt: €208,--) bei Utopiashop
02.09.2014, 14:39 -11.17% X-Lite X-802R Carbon (versch. Farben/Größen) um €349,-- (statt: €392,90) bei Louis Motorradzubehör
02.09.2014, 14:39 -9.74% VauDe Deluxe um €76,63 (statt: €84,90) bei MAX Trader GmbH | Meinpaket
02.09.2014, 14:39 +11.93% Gardena ComfortCut 450 Turbotrimmer Elektro-Rasentrimmer (8847) um €66,04 (statt: €59,--) bei Rakuten
02.09.2014, 14:39 -0.82% Allnet ALL1682511 (99301) um €36,34 (statt: €36,64) bei notebooksbilliger.de
02.09.2014, 14:39 -1.00% AKG K323XS A schwarz um €41,67 (statt: €42,09) bei notebooksbilliger.de
02.09.2014, 14:39 -3.74% AKG K845 BT schwarz um €239,60 (statt: €248,90) bei notebooksbilliger.de
02.09.2014, 14:38 -13.39% Skandika Home 500 Vibrationsplatte um €216,51 (statt: €249,99) bei MAX Trader GmbH | Meinpaket
02.09.2014, 14:38 +28.80% Carven Vetiver Eau de Toilette 100ml um €53,45 (statt: €41,50) bei Rakuten
02.09.2014, 14:38 +2.55% Courreges Eau de Courreges Eau de Toilette 100ml um €43,-- (statt: €41,93) bei Perfume Emporium | amazon.de
02.09.2014, 14:38 -3.29% Demeter Jelly Belly Blueberry Muffin Eau de Cologne 120ml um €32,01 (statt: €33,10) bei Ocean of Smells | MeinPaket
02.09.2014, 14:38 -4.84% Level One FVT-0103TXFC, 100Base-TX auf 100Base-FX um €79,46 (statt: €83,50) bei LocalPC.de | Meinpaket
02.09.2014, 14:38 -4.95% ROCC 300 (versch. Farben/Größen) um €66,49 (statt: €69,95) bei Roller Scholz | MeinPaket
02.09.2014, 14:38 -5.46% Piaggio Copter (versch. Farben/Größen) um €130,14 (statt: €137,65) bei Roller Scholz | MeinPaket
02.09.2014, 14:38 -1.05% Kingston ValueRAM DIMM 4GB, DDR3L-1600, CL11 (KVR16LN11/4) um €36,74 (statt: €37,13) bei erstens-mertens.de
02.09.2014, 14:38 -1.10% HP NC375T, 4x 1000Base-T, PCIe x4 (538696-B21) um €226,48 (statt: €229,--) bei erstens-mertens.de
02.09.2014, 14:38 -11.00% Corsair Flash Voyager Mini 64GB, USB 3.0 (CMFMINI3-64GB) um €29,28 (statt: €32,90) bei erstens-mertens.de
02.09.2014, 14:38 -26.57% Manhattan Hi-Speed USB 2.0 Hub Raupe, 4-Port (161558) um €5,14 (statt: €7,--) bei erstens-mertens.de
02.09.2014, 14:38 -4.75% Manhattan Lyric Solo (161534) um €26,04 (statt: €27,34) bei erstens-mertens.de
02.09.2014, 14:38 -1.28% Thrustmaster Ferrari 458 Italia (Xbox 360/PC) (4460094) um €67,65 (statt: €68,53) bei erstens-mertens.de
02.09.2014, 14:38 -1.60% Thrustmaster Ferrari 458 Italia (Xbox 360/PC) (4460094) um €66,57 (statt: €67,65) bei Mindfactory
02.09.2014, 14:38 -1.11% VauDe Matilda Padded Jacke (Junior) um €88,90 (statt: €89,90) bei biker-boarder
02.09.2014, 14:38 -2.31% VauDe Vezzana Hose (Herren) um €128,90 (statt: €131,95) bei biker-boarder
02.09.2014, 14:38 -17.38% Tristar SZ-2190 Bodenstaubsauger beutellos um €64,90 (statt: €78,55) bei notebooksbilliger.de
02.09.2014, 14:38 -24.33% Tristar SZ-2173 Bodenstaubsauger beutellos um €32,99 (statt: €43,60) bei notebooksbilliger.de
02.09.2014, 14:38 -2.11% Tristar SZ-1916 Handstaub-/Akkusauger um €58,90 (statt: €60,17) bei notebooksbilliger.de
02.09.2014, 14:38 -0.59% Samsung Galaxy S3 Mini VE i8200 schwarz um €134,90 (statt: €135,70) bei Warsteiner-Fotoversand
02.09.2014, 14:38 -2.35% Hama 35in1 Cardreader, USB 2.0 (55348) um €4,99 (statt: €5,11) bei Foto Köster
02.09.2014, 14:37 -10.58% Panasonic Lumix DMC-TZ56 schwarz um €169,-- (statt: €189,--) bei Marsmedia
02.09.2014, 14:37 -2.49% Panasonic Lumix DMC-FT25 rot um €117,-- (statt: €119,99) bei Marsmedia
02.09.2014, 14:37 -3.55% Michelin Pilot Street 100/80 R14 48P TL/TT um €51,60 (statt: €53,50) bei ReifenDirekt.de
02.09.2014, 14:37 -1.43% BFGoodrich All Terrain T/A KO 265/65 R17 120S um €179,47 (statt: €182,07) bei promoreifen.de
02.09.2014, 14:37 -5.01% Michelin Latitude Tour HP 215/65 R16 102H XL um €101,54 (statt: €106,90) bei promoreifen.de
02.09.2014, 14:37 -0.73% BFGoodrich All Terrain T/A KO 265/70 R16 117/114S um €140,83 (statt: €141,87) bei promoreifen.de
02.09.2014, 14:37 -1.76% Kumho Radial 857 175/65 R14 90T um €48,61 (statt: €49,48) bei promoreifen.de
02.09.2014, 14:37 -1.80% Kleber Dynaxer HP3 215/55 R16 93W um €90,-- (statt: €91,65) bei promoreifen.de
02.09.2014, 14:37 -2.55% Kumho Radial 857 165/70 R14 89R um €46,71 (statt: €47,93) bei promoreifen.de
02.09.2014, 14:37 -4.99% Nexen N1000 245/35 ZR19 93Y XL um €75,72 (statt: €79,70) bei promoreifen.de
02.09.2014, 14:37 -2.40% Nokian All Weather + 195/65 R15 91T um €61,31 (statt: €62,82) bei ReifenSuche.com
02.09.2014, 14:37 -0.51% Marshal Matrac XM-KH35 175/60 R15 81H um €46,54 (statt: €46,78) bei ReifenSuche.com
02.09.2014, 14:37 -1.23% Nexen N'Fera SU1 215/35 R18 84Y um €85,24 (statt: €86,30) bei ReifenSuche.com
02.09.2014, 14:37 -0.75% Fulda Tramp 4x4 Yukon 255/65 R16 109T um €105,13 (statt: €105,92) bei ReifenSuche.com
02.09.2014, 14:37 -1.25% Goodyear EfficientGrip Compact 175/70 R14 88T XL um €54,43 (statt: €55,12) bei ReifenSuche.com
02.09.2014, 14:37 -1.99% Wanli S-1063 275/45 R19 108W XL um €84,23 (statt: €85,94) bei ReifenSuche.com
02.09.2014, 14:37 -2.48% Matador MP 92 Sibir Snow 205/55 R16 94V XL um €71,67 (statt: €73,49) bei ReifenSuche.com
02.09.2014, 14:37 -1.91% Semperit Van-Life 235/65 R16 115/113R um €108,41 (statt: €110,52) bei ReifenSuche.com
02.09.2014, 14:37 -1.27% Nokian Hakka C Cargo 225/65 R16 112/110T um €101,83 (statt: €103,14) bei ReifenSuche.com
02.09.2014, 14:37 -1.39% Nokian WR G2 SUV 245/50 R18 104V XL um €154,70 (statt: €156,88) bei ReifenSuche.com
02.09.2014, 14:37 -0.58% Bridgestone Turanza T001 215/45 R17 87W um €96,06 (statt: €96,62) bei ReifenSuche.com
02.09.2014, 14:37 -1.25% Kumho Ecsta LE Sport KU39 255/45 R18 103Y XL um €116,57 (statt: €118,05) bei ReifenSuche.com
02.09.2014, 14:37 -1.26% Michelin Pilot Sport PS2 245/40 ZR19 94Y K2 um €187,63 (statt: €190,03) bei ReifenSuche.com
02.09.2014, 14:37 -5.44% Michelin Energy Saver 215/60 R16 95V um €80,86 (statt: €85,51) bei ReifenSuche.com
02.09.2014, 14:37 -0.74% Nexen CP661 205/65 R15 94T um €49,85 (statt: €50,22) bei ReifenSuche.com
02.09.2014, 14:37 -2.10% Nexen Euro-Win 550 225/55 R16 99H XL um €64,42 (statt: €65,80) bei ReifenSuche.com
02.09.2014, 14:37 -2.31% Michelin Energy Saver 185/60 R14 82H um €85,97 (statt: €88,--) bei ReifenSuche.com
02.09.2014, 14:37 -1.51% Federal 595EVO 275/30 R19 96Y um €93,78 (statt: €95,22) bei ReifenSuche.com
02.09.2014, 14:37 -2.89% Wanli S-1063 265/30 R19 93W XL um €64,62 (statt: €66,54) bei ReifenSuche.com
02.09.2014, 14:37 -5.05% Wanli S-1063 235/45 R17 97W XL um €49,61 (statt: €52,25) bei ReifenSuche.com
02.09.2014, 14:37 -1.90% Wanli S-1015 175/70 R13 82T um €31,53 (statt: €32,14) bei ReifenSuche.com
02.09.2014, 14:37 -1.67% Nokian Rotiiva AT 275/65 R18 123/120S um €180,14 (statt: €183,20) bei ReifenSuche.com
02.09.2014, 14:37 -2.49% Fulda EcoControl HP 215/60 R16 99H XL um €89,93 (statt: €92,23) bei ReifenSuche.com
02.09.2014, 14:37 -3.25% GT-Radial Maxmiler CX 205/80 R14 109/107R um €63,64 (statt: €65,78) bei ReifenSuche.com
02.09.2014, 14:37 -2.99% Apollo Alnac 4G 185/55 R15 82H um €48,66 (statt: €50,16) bei ReifenSuche.com
02.09.2014, 14:37 -2.29% Apollo Amazer 3G Maxx 155/65 R14 75T um €31,10 (statt: €31,83) bei ReifenSuche.com
02.09.2014, 14:37 -2.98% Apollo Acelere 205/60 R16 92V um €66,15 (statt: €68,18) bei ReifenSuche.com
02.09.2014, 14:37 -0.93% Nexen NPriz 4S 195/65 R15 91T um €38,52 (statt: €38,88) bei ReifenSuche.com
02.09.2014, 14:37 -0.86% Nexen Winguard Snow G (WH1) 175/65 R15 84T um €37,96 (statt: €38,29) bei ReifenSuche.com
02.09.2014, 14:37 -2.92% Vredestein Quatrac 3 SUV 245/70 R16 107H um €113,46 (statt: €116,87) bei ReifenSuche.com
02.09.2014, 14:37 -0.53% Vredestein Ultrac SUV Sessanta 275/40 R20 106Y XL um €175,37 (statt: €176,30) bei ReifenSuche.com
02.09.2014, 14:37 -0.92% Vredestein Ultrac Sessanta 295/30 R19 100Y XL um €168,26 (statt: €169,82) bei ReifenSuche.com
02.09.2014, 14:37 -2.04% Pirelli Cinturato P6 195/55 R16 87V um €75,96 (statt: €77,54) bei ReifenSuche.com
02.09.2014, 14:37 -1.75% Pirelli PZero 295/35 ZR20 105Y XL um €253,07 (statt: €257,57) bei ReifenSuche.com
02.09.2014, 14:37 -1.12% Pirelli PZero Rosso 255/45 R18 99Y um €136,63 (statt: €138,18) bei ReifenSuche.com
02.09.2014, 14:37 -0.51% Goodyear EfficientGrip 185/65 R14 86H um €53,16 (statt: €53,43) bei ReifenSuche.com
02.09.2014, 14:37 -2.11% Goodyear Eagle F1 Supercar 245/45 R20 99Y um €194,85 (statt: €199,04) bei ReifenSuche.com
02.09.2014, 14:37 -3.23% Goodyear Excellence 215/60 R16 99V um €95,57 (statt: €98,76) bei ReifenSuche.com
02.09.2014, 14:37 -2.12% Fulda EcoControl 165/65 R13 77T um €31,84 (statt: €32,53) bei ReifenSuche.com
02.09.2014, 14:37 -2.60% Dunlop SP Street Response 195/65 R15 91T um €53,17 (statt: €54,59) bei ReifenSuche.com
02.09.2014, 14:37 -1.42% Semperit Van-Life 205/65 R16 107/105T um €85,96 (statt: €87,20) bei ReifenSuche.com
02.09.2014, 14:37 -0.86% Continental Vanco Contact 2 175/70 R14 95/93T um €78,43 (statt: €79,11) bei ReifenSuche.com
02.09.2014, 14:37 -10.23% Michelin Pilot Alpin PA4 245/45 R18 100V um €158,08 (statt: €176,10) bei ReifenSuche.com
02.09.2014, 14:37 -0.72% Riken Maystorm 2 B2 215/55 R16 93W um €57,57 (statt: €57,99) bei ReifenSuche.com
02.09.2014, 14:37 -1.35% Kleber Krisalp HP2 225/50 R17 98H um €99,25 (statt: €100,61) bei ReifenSuche.com
02.09.2014, 14:37 -1.50% Michelin Latitude Tour HP 255/55 R19 111V XL um €158,19 (statt: €160,60) bei ReifenSuche.com
02.09.2014, 14:37 -1.12% Bridgestone Potenza RE050A 205/40 R18 82W RFT um €155,95 (statt: €157,72) bei ReifenSuche.com
02.09.2014, 14:37 -1.99% Firestone Winterhawk 2 EVO 195/65 R15 91T um €40,29 (statt: €41,11) bei ReifenSuche.com
02.09.2014, 14:37 -0.94% Firestone Winterhawk C 215/65 R16 106T um €94,70 (statt: €95,60) bei ReifenSuche.com
02.09.2014, 14:37 -0.57% Firestone Multihawk 185/65 R15 88T um €43,95 (statt: €44,20) bei ReifenSuche.com
02.09.2014, 14:37 -0.79% Kumho Radial 857 235/65 R16 115R um €84,-- (statt: €84,67) bei ReifenSuche.com
02.09.2014, 14:37 -2.17% Kumho I`ZEN KW23 175/65 R14 82T um €35,23 (statt: €36,01) bei ReifenSuche.com
02.09.2014, 14:37 -1.20% Nexen N6000 225/55 ZR17 101W XL um €64,93 (statt: €65,72) bei ReifenSuche.com
02.09.2014, 14:37 -1.68% Pirelli Cinturato P7 215/50 R17 91W um €104,46 (statt: €106,24) bei ReifenSuche.com
02.09.2014, 14:37 -2.28% Westlake SP06 165/70 R14 81T um €30,90 (statt: €31,62) bei ReifenSuche.com
02.09.2014, 14:37 -1.98% Nankang SL-6 195/80 R14 106/104N um €61,24 (statt: €62,48) bei ReifenSuche.com
02.09.2014, 14:37 -1.93% Nankang NS-2 225/30 R20 85W XL um €97,41 (statt: €99,33) bei ReifenSuche.com
02.09.2014, 14:37 -1.55% Bridgestone Dueler H/T 689 205/82 R16 110R um €101,55 (statt: €103,15) bei ReifenSuche.com
02.09.2014, 14:37 -1.45% Bridgestone Duravis R630 225/70 R15 112/110S um €89,24 (statt: €90,55) bei ReifenSuche.com
02.09.2014, 14:37 -13.69% GoldenTyre GT 216 Enduro 140/80 19 71R TL um €72,50 (statt: €84,--) bei ReifenDirekt.de
02.09.2014, 14:37 -8.74% Sony SRS-BTS50 weiß um €70,69 (statt: €77,46) bei Easytronics
02.09.2014, 14:37 -3.85% Sony SRS-BTS50 schwarz um €69,90 (statt: €72,70) bei Easytronics
02.09.2014, 14:36 -0.85% Continental ContiSportContact 3 225/50 R17 94Y FR AO um €133,80 (statt: €134,95) bei e-tyre
02.09.2014, 14:36 -4.08% Delfin DK5000 215/55 R16 97W XL um €44,70 (statt: €46,60) bei e-tyre
02.09.2014, 14:36 -3.29% Bibi Blocksberg: Das große Hexenbesenrennen 2 (deutsch) (3DS) um €24,08 (statt: €24,90) bei Leiselsbach | MeinPaket
02.09.2014, 14:36 -3.47% Mattel Fisher-Price Smart Phone (X6355) um €14,47 (statt: €14,99) bei Leiselsbach | MeinPaket
02.09.2014, 14:36 -1.31% Samsung Galaxy S3 Mini i8190 8GB La Fleur um €150,88 (statt: €152,88) bei DastroMedia
02.09.2014, 14:33 -25.53% Million Dollar Crocodile (3D) (Blu-ray) um €7,44 (statt: €9,99) bei eBay.de
02.09.2014, 14:31 +3.94% Pommes Essen um €8,71 (statt: €8,38) bei derdvdler
02.09.2014, 14:30 +17.65% Kyocera TK-830K Toner schwarz (370AA000) um €70,-- (statt: €59,50) bei BV Leupoldsdorf
02.09.2014, 14:30 +1.01% playmobil - Circus (deutsch) (Wii) um €9,99 (statt: €9,89) bei RetailService
02.09.2014, 14:30 +3.99% Epson Perfection V600 Photo (B11B198032) um €275,90 (statt: €265,31) bei Foto Koch
02.09.2014, 14:30 +110.08% Canon 1422A002 Toner schwarz um €27,50 (statt: €13,09) bei Baseline Toner
02.09.2014, 14:30 +4.01% Sony SRS-BTS50 schwarz um €72,70 (statt: €69,90) bei voelkner.de
02.09.2014, 14:30 +4.16% Konica Minolta 1710400-002 Trommel um €49,58 (statt: €47,60) bei tonermacher.de
02.09.2014, 14:30 -1.88% LogiLink Schutzhülle mit Standfunktion für iPad 2/3 (NB0043) um €11,50 (statt: €11,72) bei anobo.de
02.09.2014, 14:30 +0.81% Chicago 1930 (deutsch) (PC) um €4,99 (statt: €4,95) bei poweronlineshop
02.09.2014, 14:30 -7.12% Fantec PS21BT rot (PS21BT-RD) um €20,99 (statt: €22,60) bei anobo.de
02.09.2014, 14:30 -7.12% Fantec PS21BT gold (PS21BT-GD) um €20,99 (statt: €22,60) bei anobo.de
02.09.2014, 14:30 -7.12% Fantec PS21BT pink (PS21BT-PK) um €20,99 (statt: €22,60) bei anobo.de
02.09.2014, 14:30 -7.12% Fantec PS21BT grün (PS21BT-GN) um €20,99 (statt: €22,60) bei anobo.de
02.09.2014, 14:30 +52.61% Intenso Twister Line schwarz 32GB, USB 2.0 (3522480) um €9,08 (statt: €5,95) bei Mix-Computer
02.09.2014, 14:30 +100.92% Die Suche nach Amelia Earhart (deutsch) (PC) um €8,74 (statt: €4,35) bei hardwareversand.de Abholshop
02.09.2014, 14:30 +4.48% Best of Windows 8 Games (deutsch) (PC) um €3,50 (statt: €3,35) bei anobo.de
02.09.2014, 14:30 +24.92% Assassin's Creed: Brotherhood (deutsch) (PS3) um €14,99 (statt: €12,--) bei outpost-cologne
02.09.2014, 14:30 +42.30% HP Q6463A Toner magenta um €154,96 (statt: €108,90) bei Simpatico Network srl
02.09.2014, 14:30 +72.38% Lexmark E450H80G Return Toner schwarz um €164,11 (statt: €95,20) bei NOTEBOOKsektor
02.09.2014, 14:30 +1102.62% Lexmark 12A6735 Toner schwarz hohe Kapazität um €372,09 (statt: €30,94) bei NOTEBOOKsektor
02.09.2014, 14:30 +18.27% Lexmark 12A6869 Return Etiketten Toner schwarz hohe Kapazität um €367,33 (statt: €310,59) bei NOTEBOOKsektor
02.09.2014, 14:30 +3.06% Lexmark C500H2KG Toner schwarz um €87,60 (statt: €85,--) bei Quincy-Media
02.09.2014, 14:30 +8.73% Xerox 106R00669 Toner magenta um €77,63 (statt: €71,40) bei Tonerzilla.de
02.09.2014, 14:30 +1.79% Xerox 113R00628 Toner schwarz hohe Kapazität um €133,95 (statt: €131,60) bei tonermacher.de
02.09.2014, 14:30 +10.04% Xerox 101R203 Trommel um €168,93 (statt: €153,51) bei x-toner
02.09.2014, 14:30 +573.22% Epson S051056 Trommel mit Toner (C13S051056) um €120,17 (statt: €17,85) bei grubster.de
02.09.2014, 14:30 +35.59% Epson Toner S050157 cyan (C13S050157) um €35,70 (statt: €26,33) bei Baseline Toner
02.09.2014, 14:30 +19.88% Dexter Season 7 (Blu-ray) um €29,97 (statt: €25,--) bei eBay.de
02.09.2014, 14:30 +6.00% Brother DCP-9270CDN, Farblaser (DCP9270CDNG1) um €670,20 (statt: €632,28) bei Cleverboxes Limited DE
02.09.2014, 14:30 +14.07% Hama CC 614L (50176) um €36,49 (statt: €31,99) bei anobo.de
02.09.2014, 14:30 +26.92% Kyocera PM-650A Wartungskit 220V (1702FB0U10) um €347,38 (statt: €273,70) bei NOTEBOOKsektor
02.09.2014, 14:30 +12.48% Apple Mac mini Server, Core i7-3720QM, 4GB RAM, 256GB SSD [Late 2012] um €1236,15 (statt: €1099,--) bei XITRA.de Online
02.09.2014, 14:30 +1.02% Odys Pedi Plus (X610051) um €64,65 (statt: €64,--) bei Amazon.de
02.09.2014, 14:30 +4.92% Emporia Essence Plus RL2 mit Branding um €64,-- (statt: €61,--) bei ATELCO
02.09.2014, 14:30 +38.02% Olympus CLA-10 Adapter (N2923500) um €26,90 (statt: €19,49) bei Vienna Camera DE
02.09.2014, 14:30 -1.43% HGST CinemaStar 5K1000 500GB, SATA 3Gb/s (HCS5C1050CLA382) um €68,70 (statt: €69,70) bei anobo.de
02.09.2014, 14:30 -0.65% Blaupunkt BD-320 schwarz um €35,25 (statt: €35,48) bei anobo.de
02.09.2014, 14:30 -2.25% Nokia DT-901 drahtloses Ladekissen blau (02733X5) um €46,54 (statt: €47,61) bei anobo.de
02.09.2014, 14:30 -5.29% iiyama VESA-Halterung für Mini-PCs (MD BRPCV02) um €20,23 (statt: €21,36) bei anobo.de
02.09.2014, 14:29 -10.19% Digittrade LS138-17 17.3" Schutzhülle um €14,28 (statt: €15,90) bei anobo.de
02.09.2014, 14:29 -13.80% Digittrade LS140 15.4" Schutzhülle um €13,74 (statt: €15,94) bei anobo.de
02.09.2014, 14:29 -9.61% Digittrade LS138 15.4" Schutzhülle um €13,74 (statt: €15,20) bei anobo.de
02.09.2014, 14:29 -0.77% Crumpler The New Gimp with Moses Effect 15"W Schutzhülle, schwarz (TG15W-021) um €25,90 (statt: €26,10) bei anobo.de
02.09.2014, 14:29 -0.87% Kenwood KSC-W1200B um €80,10 (statt: €80,80) bei anobo.de
02.09.2014, 14:29 +6.82% Emporia Talk Comfort (V20MB001) um €29,90 (statt: €27,99) bei Foto-Palme
02.09.2014, 14:29 +0.59% Samsung Galaxy S3 Mini VE i8200 schwarz um €135,70 (statt: €134,90) bei megapreis-shop
02.09.2014, 14:29 +5.89% Samsung Galaxy S3 i9300 16GB rosa um €254,-- (statt: €239,88) bei ATELCO
02.09.2014, 14:29 +16.55% Samsung Galaxy Y S5360 weiß um €57,11 (statt: €49,--) bei 1Deins.de
02.09.2014, 14:29 +6.00% DeLOCK WLAN N Stick mit externer Antenne, USB 2.0 (88538) um €15,90 (statt: €15,--) bei HardwareRogge
02.09.2014, 14:29 -1.37% Techsolo TC-85 silber, 430W ATX um €29,49 (statt: €29,90) bei anobo.de
02.09.2014, 14:29 +8.37% ASUS VE278H, 27" (90LMB5101T010O1C) um €212,41 (statt: €196,--) bei hardwareversand.de
02.09.2014, 14:29 -4.10% Reflecta Buggy Green (92722) um €21,77 (statt: €22,70) bei anobo.de
02.09.2014, 14:29 -4.10% Reflecta Buggy Red (92721) um €21,77 (statt: €22,70) bei anobo.de
02.09.2014, 14:29 +1.44% MadCatz Battery Pack für Wiimote (Wii) (5732) um €2,11 (statt: €2,08) bei SellFix GmbH
02.09.2014, 14:29 -1.50% Easypix DVC5227 pink um €36,83 (statt: €37,39) bei anobo.de
02.09.2014, 14:28 +14.76% Vredestein Wintrac 4 Xtreme 255/50 R20 V XL um €237,66 (statt: €207,10) bei ReifenSuche.com
02.09.2014, 14:28 +6.29% Pippi Langstrumpf TV-Serie Box um €23,31 (statt: €21,93) bei anobo.de
02.09.2014, 14:27 -0.95% Western Digital My Book Essential 3TB, USB 3.0 (WDBACW0030HBK) um €109,95 (statt: €111,--) bei Onyx-Computer
02.09.2014, 14:27 -0.54% Bosch HND 72PS50 Einbauherd-Set um €732,-- (statt: €735,99) bei Wermuth.de
02.09.2014, 14:27 -3.03% Bosch SMU 63M85EU um €512,-- (statt: €528,--) bei Wermuth.de
02.09.2014, 14:27 -1.55% LG Electronics 22MB35PU-B schwarz, 21.5" um €115,95 (statt: €117,78) bei Reichelt
02.09.2014, 14:27 -0.79% ASUS DRW-24F1ST schwarz, SATA, retail (90DD01G0-B20010) um €15,15 (statt: €15,27) bei Reichelt
02.09.2014, 14:27 +38.37% MAG-LITE Mini Maglite AA blau Taschenlampe (M2A11H) um €11,90 (statt: €8,60) bei Rakuten
02.09.2014, 14:27 -25.00% Cuba Red Eau de Toilette 35ml um €4,95 (statt: €6,60) bei Parfum-Zentrum.de
02.09.2014, 14:27 -16.14% Giorgio Armani Acqua di Gio Homme Duftset um €51,95 (statt: €61,95) bei Parfum-Zentrum.de
02.09.2014, 14:27 -0.89% ASUS H87-Pro (C2) (90MB0E90-M0EAY5) um €89,-- (statt: €89,80) bei Bora Computer
02.09.2014, 14:27 -5.77% Samsung microSDHC EVO 8GB Kit, UHS-I/Class 10 (MB-MP08DA/EU) um €8,-- (statt: €8,49) bei Reichelt
02.09.2014, 14:27 -28.83% Philips Fidelio L2BO schwarz um €191,44 (statt: €269,--) bei Lapado
02.09.2014, 14:26 -5.29% LEGO - The Movie - Emmets Roboter (70814) um €43,49 (statt: €45,92) bei besserePreise.com
02.09.2014, 14:26 -5.28% LEGO - The Movie - Burg Kavallerie (70806) um €22,26 (statt: €23,50) bei besserePreise.com
02.09.2014, 14:26 -8.29% LEGO - Ninjago - Donner-Räuber (70723) um €23,34 (statt: €25,45) bei besserePreise.com
02.09.2014, 14:26 -3.17% LEGO - City Arktis - Arktis-Truck (60035) um €30,52 (statt: €31,52) bei besserePreise.com
02.09.2014, 14:26 -4.61% LEGO - City Polizei - Ausbruch aus der Polizeistation (60047) um €77,26 (statt: €80,99) bei besserePreise.com
02.09.2014, 14:26 -4.57% LEGO - Star Wars Clone Wars - Corporate Alliance Tank Droid (75015) um €18,99 (statt: €19,90) bei besserePreise.com
02.09.2014, 14:26 -2.92% LEGO - Star Wars Episoden I-VI - Republic Gunship (75021) um €96,98 (statt: €99,90) bei besserePreise.com
02.09.2014, 14:26 -6.11% LEGO - City Bergbau - Bergwerk (4204) um €59,98 (statt: €63,88) bei besserePreise.com
02.09.2014, 14:26 +17.22% Leonard Eau Fraiche Eau de Toilette 90ml um €42,95 (statt: €36,64) bei Parfumdreams
02.09.2014, 14:25 -5.37% Under Armour Combine (Herren) um €59,95 (statt: €63,35) bei OUTFITTER
02.09.2014, 14:18 -5.81% Enermax Platimax 1500W ATX 2.4 (EPM1500EGT) um €279,-- (statt: €296,20) bei Alternate
02.09.2014, 14:18 -12.05% Enermax Platimax 1000W ATX 2.4 (EPM1000EWT) um €192,90 (statt: €219,34) bei Alternate
02.09.2014, 14:18 -1.34% Siemens SN55N539EU um €439,-- (statt: €444,98) bei Alternate
02.09.2014, 14:18 -1.07% Gorenje W6222P Frontlader um €269,-- (statt: €271,90) bei Alternate
02.09.2014, 14:18 +2.05% Gorenje WA50105S Frontlader um €198,95 (statt: €194,95) bei allego.de
02.09.2014, 14:18 -19.52% Acqua di Parma Blu Mediterraneo Ginepro di Sardegna Eau de Toilette 150ml um €74,81 (statt: €92,95) bei Parfumlife
02.09.2014, 14:18 -4.35% Nokia Lumia 930 mit Branding um €419,90 (statt: €439,--) bei Home of Hardware
02.09.2014, 14:18 -6.20% Topfield SBP-2001 CI+ silber um €72,90 (statt: €77,72) bei Alternate
02.09.2014, 14:18 +17.27% Mammut Transformer Einfachseil 9.8mm um €129,-- (statt: €110,--) bei Sport Praxenthaler
02.09.2014, 14:18 -0.53% Bridgestone Blizzak DM-V1 235/75 R15 108R XL um €93,10 (statt: €93,60) bei koenig-felgen.de
02.09.2014, 14:18 -1.35% Michelin Energy Saver 185/60 R14 82H um €88,-- (statt: €89,20) bei koenig-felgen.de
02.09.2014, 14:18 -4.54% Nexen Winguard SUV 255/55 R18 109V XL um €84,80 (statt: €88,83) bei koenig-felgen.de
02.09.2014, 14:18 -3.38% Avon ZZ3 245/40 R17 91Y um €91,60 (statt: €94,80) bei koenig-felgen.de
02.09.2014, 14:18 -0.91% Avon ZV5 215/45 R17 87W um €76,40 (statt: €77,10) bei koenig-felgen.de
02.09.2014, 14:18 -1.59% Michelin Pilot Sport Cup+ 325/30 ZR19 101Y N2 um €372,20 (statt: €378,20) bei koenig-felgen.de
02.09.2014, 14:18 +0.77% Bridgestone Potenza S001 255/30 R19 91Y XL um €195,46 (statt: €193,97) bei ReifenSuche.com
02.09.2014, 14:18 -1.74% Continental ContiSportContact 3 235/35 ZR19 FR MO um €186,50 (statt: €189,80) bei koenig-felgen.de
02.09.2014, 14:17 -2.81% Sigma Objektiv Contemporary AF 17-70mm 2.8-4.0 DC Makro OS HSM für Canon (884954) um €380,-- (statt: €390,99) bei electronic4you.de
02.09.2014, 14:17 -22.11% Real Ishod Wair Deck um €54,99 (statt: €70,60) bei skatedeluxe
02.09.2014, 14:17 -1.12% Samsung Galaxy S4 i9505 16GB schwarz um €362,90 (statt: €367,--) bei mobilebomber.de
02.09.2014, 14:17 -0.62% ZyXEL NWA5160N (91-005-355001B) um €257,75 (statt: €259,35) bei notebooksbilliger.de
02.09.2014, 14:16 +13.13% Siemens SX65M042EU um €643,61 (statt: €568,90) bei Elektrogeräteshop
02.09.2014, 14:16 -1.99% Onkyo CS-245 rot um €155,83 (statt: €159,--) bei Lapado
02.09.2014, 14:10 +12.53% Logitech Speaker-Stand for iPad 2 (980-000596) um €44,90 (statt: €39,90) bei computeruniverse.net
02.09.2014, 14:10 +12.90% Ryobi EID750RS Schlagbohrmaschine um €66,50 (statt: €58,90) bei computeruniverse.net
02.09.2014, 14:10 -0.64% VCM TDH3 Maxi Double Deckenhalterung 118-220cm (17814) um €239,-- (statt: €240,55) bei Mediamarkt.de
02.09.2014, 14:10 +2.94% Severin MW7875 Mikrowelle mit Grill um €69,99 (statt: €67,99) bei Amazon.de
02.09.2014, 14:10 -1.33% Canon EOS 100D schwarz mit Objektiv EF-S 18-55mm 3.5-5.6 (8576B029) um €444,-- (statt: €449,99) bei Mediamarkt.de
02.09.2014, 14:10 -7.17% Skylanders: Trap Team - Starter Pack - Dark Edition (deutsch) (WiiU) um €91,90 (statt: €99,--) bei computeruniverse.net
02.09.2014, 14:10 -7.17% Skylanders: Trap Team - Starter Pack - Dark Edition (deutsch) (Xbox 360) um €91,90 (statt: €99,--) bei computeruniverse.net
02.09.2014, 14:10 -7.17% Skylanders: Trap Team - Starter Pack - Dark Edition (deutsch) (PS4) um €91,90 (statt: €99,--) bei computeruniverse.net
02.09.2014, 14:10 -0.61% BigBen CD52 weiß/pink um €34,29 (statt: €34,50) bei Comtech
02.09.2014, 14:09 +3.61% Happy Dog NaturCroq Balance 15kg um €29,-- (statt: €27,99) bei Petmeds.de
02.09.2014, 14:09 -16.35% Pearl Izumi Select Barrier Fahrradjacke (Herren) um €49,90 (statt: €59,65) bei Action Sports
02.09.2014, 14:08 +17.59% Osprey Manta 20 Trinkrucksack um €79,90 (statt: €67,95) bei Rucksack.de
02.09.2014, 14:08 -7.32% Tamron Objektiv AF 70-300mm 4.0-5.6 Di LD Makro 1:2 für Pentax (A17P) um €99,99 (statt: €107,89) bei Foto Koch
02.09.2014, 14:08 -1.53% Walimex Pro Objektiv T-S 24mm 3.5 für Pentax/Samsung (18897) um €899,-- (statt: €912,99) bei Foto Koch
02.09.2014, 14:08 -1.16% Walimex Pro Objektiv T-S 24mm 3.5 für Nikon (18894) um €849,-- (statt: €859,--) bei Foto Koch
02.09.2014, 14:08 -9.86% Lensbaby LB-3U2P Composer Pro mit Sweet 35 für Pentax um €289,-- (statt: €320,61) bei Foto Koch
02.09.2014, 14:08 -1.19% Lensbaby LB-3U2C Composer Pro mit Sweet 35 für Canon um €289,-- (statt: €292,48) bei Foto Koch
02.09.2014, 14:08 -4.82% AEG Electrolux Favorit 66702IM0P um €494,01 (statt: €519,--) bei redcoon.de
02.09.2014, 14:08 -3.25% Canon PowerShot SX510 HS schwarz (8409B011) um €153,01 (statt: €158,15) bei redcoon.de
02.09.2014, 14:08 -6.69% Audiovox RVC1 Rückfahrkamera um €23,71 (statt: €25,41) bei redcoon.de
02.09.2014, 14:08 -11.04% Philips HD9321/20 um €31,50 (statt: €35,41) bei redcoon.de
02.09.2014, 14:08 -10.44% Canon NB-1LH Li-Ionen-Akku (7649A001) um €38,51 (statt: €43,--) bei redcoon.de
02.09.2014, 14:08 -4.85% Sony XA-MC10 Freisprechmikrofon um €27,49 (statt: €28,89) bei redcoon.de
02.09.2014, 14:08 -0.50% Sony Cyber-shot DSC-RX1 schwarz um €1989,-- (statt: €1999,--) bei redcoon.de
02.09.2014, 14:08 -6.26% Oranier Salzburg Stahl grau (8223-29) Kaminofen um €749,-- (statt: €799,--) bei redcoon.de
02.09.2014, 14:08 -0.89% Runtastic Bluetooth Smart Combo Brustgurt um €49,02 (statt: €49,46) bei redcoon.de
02.09.2014, 14:08 -1.80% Pioneer DEH-1600UBG um €54,-- (statt: €54,99) bei redcoon.de
02.09.2014, 14:08 -1.10% Hifonics Triton IV um €183,01 (statt: €185,04) bei redcoon.de
02.09.2014, 14:08 -2.55% Velbon C-400 um €33,61 (statt: €34,49) bei redcoon.de
02.09.2014, 14:08 -20.04% Snakebyte Cam Clip für Microsoft Kinect (Xbox 360) um €7,98 (statt: €9,98) bei redcoon.de
02.09.2014, 14:08 -12.66% Turtle Beach Ear Force X42 Wireless Gaming Headset (Xbox 360) (XBO32414) um €69,-- (statt: €79,--) bei redcoon.de
02.09.2014, 14:08 -10.06% Samsung RB-29FERNBSA um €599,-- (statt: €666,--) bei redcoon.de
02.09.2014, 14:08 -2.96% AEG MC 4421 um €48,93 (statt: €50,42) bei redcoon.de
02.09.2014, 14:08 -5.48% Beko TSE1283 Tisch-Kühlschrank mit Gefrierfach um €169,-- (statt: €178,79) bei redcoon.de
02.09.2014, 14:08 -1.18% PKM EB-DCF2 Elektro-Kochfeld Domino Autark um €83,01 (statt: €84,--) bei redcoon.de
02.09.2014, 14:08 -6.99% Carrera - Digital 124/132 Zubehör - Startlight (30354) um €33,-- (statt: €35,48) bei redcoon.de
02.09.2014, 14:08 -4.75% Philips Fidelio M1 orange um €119,99 (statt: €125,98) bei redcoon.de
02.09.2014, 14:08 -7.71% Samsung WF-70F5E2Q4W Frontlader um €359,-- (statt: €389,--) bei redcoon.de
02.09.2014, 14:08 -14.97% IK Multimedia iRig Voice (verschiedene Farben) um €25,50 (statt: €29,99) bei redcoon.de
02.09.2014, 14:08 +2.19% AEG Electrolux EPMX 331321 Einbauherd-Set um €653,-- (statt: €639,--) bei teures-billiger.de
02.09.2014, 14:08 -1.83% Exquisit GS71-7 um €146,27 (statt: €149,--) bei redcoon.de
02.09.2014, 14:08 -2.22% Gorenje RBI4092AW um €223,91 (statt: €229,--) bei redcoon.de
02.09.2014, 14:08 -4.86% Bauknecht KVI 1399/A um €293,01 (statt: €307,99) bei redcoon.de
02.09.2014, 14:08 -10.93% Gardena Schlauchwagen (2691) um €35,62 (statt: €39,99) bei redcoon.de
02.09.2014, 14:08 -7.99% Cullmann Darwin Maxima 320 Schultertasche beige (98411) um €69,01 (statt: €75,--) bei redcoon.de
02.09.2014, 14:08 -3.68% Soundmaster IR4000 weiß um €129,57 (statt: €134,52) bei redcoon.de
02.09.2014, 14:08 -9.98% Technaxx LED Power Bank TX-15 weiß (4222) um €19,21 (statt: €21,34) bei redcoon.de
02.09.2014, 14:08 -1.28% Technaxx LED Power Bank TX-15 schwarz (4221) um €19,21 (statt: €19,46) bei redcoon.de
02.09.2014, 14:08 -3.81% Caliber BC108US um €125,04 (statt: €129,99) bei redcoon.de
02.09.2014, 14:08 -0.55% Onkyo TX-NR535 silber um €335,90 (statt: €337,77) bei redcoon.de
02.09.2014, 14:08 -5.75% Panasonic NN-GD361M Mikrowelle mit Grill um €131,01 (statt: €139,--) bei redcoon.de
02.09.2014, 14:08 -3.36% Spaun VT 3 P Verteiler 3-fach (842215) um €33,98 (statt: €35,16) bei redcoon.de
02.09.2014, 14:08 -7.98% Sony XS-MP1621.U um €57,06 (statt: €62,01) bei redcoon.de
02.09.2014, 14:08 -3.75% Schwaiger DTA 3000 (DTA3000011) um €26,47 (statt: €27,50) bei redcoon.de
02.09.2014, 14:08 -8.39% Samsung EA-CC3UWB2N Kameratasche braun um €6,22 (statt: €6,79) bei redcoon.de
02.09.2014, 14:08 -14.50% One For All SV 9450 um €26,47 (statt: €30,96) bei redcoon.de
02.09.2014, 14:08 -12.30% Lenco SCD-89 CD blau um €30,67 (statt: €34,97) bei redcoon.de
02.09.2014, 14:08 -9.85% Lenco SCD-89 CD rot um €30,49 (statt: €33,82) bei redcoon.de
02.09.2014, 14:08 -6.58% Panasonic RF-2400 schwarz um €21,02 (statt: €22,50) bei redcoon.de
02.09.2014, 14:08 -1.37% Onkyo T-4070 silber um €575,13 (statt: €583,12) bei redcoon.de
02.09.2014, 14:08 -1.37% Onkyo T-4070 schwarz um €575,08 (statt: €583,07) bei redcoon.de
02.09.2014, 14:08 -3.91% Velbon Videomate 538 (V36022) um €47,19 (statt: €49,11) bei redcoon.de
02.09.2014, 14:08 -1.90% Sony XM-N502 um €51,24 (statt: €52,23) bei redcoon.de
02.09.2014, 14:08 -2.87% Sony XSGT1738F um €30,10 (statt: €30,99) bei redcoon.de
02.09.2014, 14:08 -0.93% Sangean WFR-28D um €126,06 (statt: €127,24) bei redcoon.de
02.09.2014, 14:08 -1.76% Siemens LZ54051 Aktivkohlefilter für Dunstabzugshauben um €32,42 (statt: €33,--) bei redcoon.de
02.09.2014, 14:08 -0.86% Bosch DHZ3350 Griffleiste für Flachschirmhauben um €27,53 (statt: €27,77) bei redcoon.de
02.09.2014, 14:08 +10.96% Hama TV-Wandhalterung Fullmotion Ultraslim 3 Sterne L 1 Arm schwarz (00108748) um €77,66 (statt: €69,99) bei Amazon.de
02.09.2014, 14:08 -4.62% B&W International Outdoor Case Typ 55 Koffer schwarz mit variabler Facheinteilung (1.4630/B/RPD) um €164,83 (statt: €172,82) bei redcoon.de
02.09.2014, 14:08 -3.41% TechniSat Skytenne (Mehr-Teilnehmer-Empfangssystem), grau (6385/1544) um €226,01 (statt: €234,--) bei redcoon.de
02.09.2014, 14:08 -1.87% TechniSat DigitRadio 200 (0000/4953) um €53,93 (statt: €54,96) bei redcoon.de
02.09.2014, 14:08 -8.89% AEG ETV MRC 4132 BT schwarz um €20,50 (statt: €22,50) bei redcoon.de
02.09.2014, 14:08 -11.93% AEG ETV SR 4352 um €30,12 (statt: €34,20) bei redcoon.de
02.09.2014, 14:08 -2.38% AEG MC 4459 BT um €55,83 (statt: €57,19) bei redcoon.de
02.09.2014, 14:08 -2.94% Grundig RCD 1445 USB gelb/schwarz um €51,44 (statt: €53,--) bei redcoon.de
02.09.2014, 14:08 -8.59% Grundig Bluebeat GSB 120 schwarz/orange um €53,-- (statt: €57,98) bei redcoon.de
02.09.2014, 14:08 -7.29% Cullmann Lagos Compact 150 Kameratasche schwarz (95702) um €8,52 (statt: €9,19) bei redcoon.de
02.09.2014, 14:08 -1.08% Cullmann Granada Compact 70 Kameratasche schwarz (92200) um €9,12 (statt: €9,22) bei redcoon.de
02.09.2014, 14:08 -2.41% Soundmaster MCD 4500 USB um €119,56 (statt: €122,51) bei redcoon.de
02.09.2014, 14:08 -10.14% Soundmaster SCD 3850 blau um €38,91 (statt: €43,30) bei redcoon.de
02.09.2014, 14:08 -5.63% Braun DigiFrame 80 (21163) um €43,40 (statt: €45,99) bei redcoon.de
02.09.2014, 14:08 -6.98% Parrot ZIK gelbgold um €249,-- (statt: €267,67) bei redcoon.de
02.09.2014, 14:08 -3.40% Pioneer TS-W310D4 um €58,51 (statt: €60,57) bei redcoon.de
02.09.2014, 14:08 -0.62% Hoya Filter Pol Circular 49mm (Y1POLC049) um €12,92 (statt: €13,--) bei redcoon.de
02.09.2014, 14:08 -9.09% Mattel Barbie Collector - Birthday Wishes 2014 (BCP64) um €29,99 (statt: €32,99) bei redcoon.de
02.09.2014, 14:08 -15.05% Mattel Monster High Create-A-Monster Designkammer (BCC47) um €16,99 (statt: €20,--) bei redcoon.de
02.09.2014, 14:08 -0.84% Kenwood KFC-W112S um €28,50 (statt: €28,74) bei redcoon.de
02.09.2014, 14:08 -5.72% Nikon WP-O1000 O-Ring (VHY00107) um €16,49 (statt: €17,49) bei redcoon.de
02.09.2014, 14:08 -15.37% LG Electronics 55LN5758 um €649,99 (statt: €768,--) bei redcoon.de
02.09.2014, 14:08 -11.66% Hoover DYSM6123D Toplader um €379,-- (statt: €429,--) bei redcoon.de
02.09.2014, 14:08 -0.76% Dell Inspiron 15, Core i7-4500U, 8GB RAM, 1TB (7537-1395) um €892,21 (statt: €899,--) bei redcoon.de
02.09.2014, 14:08 -12.19% Toshiba Satellite Pro L70-A-13Z (PSKNFE-003009GR) um €699,-- (statt: €796,--) bei redcoon.de
02.09.2014, 14:08 -7.99% Einhell RT-HP1545 Hochdruckreiniger um €99,-- (statt: €107,60) bei redcoon.de
02.09.2014, 14:08 -14.76% HP ProLiant ML310e G8 v2, Xeon E3-1220 v3, 4GB RAM, 1TB HDD (724160-425) um €463,96 (statt: €544,31) bei redcoon.de
02.09.2014, 14:08 -1.28% Saitek Pro Flight Multi Panel, USB (PC) (110724) um €98,62 (statt: €99,90) bei redcoon.de
02.09.2014, 14:08 -3.77% Canon EOS 600D mit Objektiv EF-S 18-55mm 3.5-5.6 IS II (5170B024) um €460,94 (statt: €479,--) bei redcoon.de
02.09.2014, 14:08 -4.99% Weber Grillzange Edelstahl schwarz (6610) um €17,90 (statt: €18,84) bei OnlineDeal24
02.09.2014, 14:08 -10.98% Samsung ATIV Book 9 2014 Edition - 930X5J, Core i5-4200U, 8GB RAM, 128GB SSD, schwarz (NP930X5J-K02DE) um €1094,84 (statt: €1229,94) bei CSV-Direct.de
02.09.2014, 14:08 -2.87% Otterbox Clearly Protected Schutzfolie Vibrant für iPhone 4/4s (77-27085) um €12,52 (statt: €12,89) bei CSV-Direct.de
02.09.2014, 14:08 -1.17% Intel SSD 530 Series 480GB, SATA 6Gb/s (SSDSC2BW480A401) um €224,33 (statt: €226,99) bei CSV-Direct.de
02.09.2014, 14:08 -1.00% APC Smart-UPS 1000VA RM 2U LCD, USB/seriell (SMT1000RMI2U) um €441,24 (statt: €445,69) bei CSV-Direct.de
02.09.2014, 14:08 +3.57% Technaxx FMT100 um €11,90 (statt: €11,49) bei TechnikDirekt
02.09.2014, 14:08 -9.27% Panasonic RP-HS47 blau um €9,79 (statt: €10,79) bei CSV-Direct.de
02.09.2014, 14:08 +7.95% Lowepro Nova 140 AW Schultertasche braun (LP35246) um €32,33 (statt: €29,95) bei Zadabra GmbH
02.09.2014, 14:07 -1.35% Intel SSD DC S3500 Series 240GB, SATA 6Gb/s (SSDSC1NB240G401) um €191,28 (statt: €193,90) bei CSV-Direct.de
02.09.2014, 14:07 -0.50% Lenovo ThinkStation E32 Tower, Xeon E3-1245 v3, 8GB RAM, 1TB HDD, IGP, Windows 8 (30A1002CGE) um €891,34 (statt: €895,85) bei CSV-Direct.de
02.09.2014, 14:07 +0.61% Axis P3354 6mm (0465-001) um €509,-- (statt: €505,93) bei mzehn.de
02.09.2014, 14:07 -2.32% Thermaltake Chaser A31 mit Sichtfenster (VP300A1W2N) um €59,45 (statt: €60,86) bei CSV-Direct.de
02.09.2014, 14:07 -2.92% Pretec microSDHC 8GB Kit, Class 10 (STS08G-SA) um €8,63 (statt: €8,89) bei CSV-Direct.de
02.09.2014, 14:07 -0.98% MS-Tech MC-80BL schwarz, 120W extern, Mini-ITX um €98,44 (statt: €99,41) bei CSV-Direct.de
02.09.2014, 14:07 -0.61% Kinetronics ASG-M Antistatik-Handschuhe medium (750002) um €18,07 (statt: €18,18) bei CSV-Direct.de
02.09.2014, 14:07 -1.71% beats by dr.dre studio 2.0 White um €229,90 (statt: €233,89) bei notebooksbilliger.de
02.09.2014, 14:07 -2.22% beats by dr.dre studio 2.0 Black um €219,90 (statt: €224,89) bei notebooksbilliger.de
02.09.2014, 14:07 -1.41% beats by dr.dre pill rot um €164,90 (statt: €167,25) bei notebooksbilliger.de
02.09.2014, 14:07 -2.94% beats by dr.dre pill weiß um €164,90 (statt: €169,90) bei notebooksbilliger.de
02.09.2014, 14:07 -2.94% beats by dr.dre pill silber (900-00160-03) um €164,90 (statt: €169,90) bei notebooksbilliger.de
02.09.2014, 14:07 -1.12% Freecom Hard Drive Quattro 3.0 3TB, USB 3.0/eSATA/FireWire 400/800 (56068) um €159,97 (statt: €161,79) bei CSV-Direct.de
02.09.2014, 14:07 +1.36% Fantec SHS-221BT-BU blau (1660) um €25,34 (statt: €25,--) bei hardwareversand.de Abholshop
02.09.2014, 14:07 -0.52% DeLOCK 89302, low profile, PCIe 2.0 x1 um €34,21 (statt: €34,39) bei CSV-Direct.de
02.09.2014, 14:07 +95.40% DeLOCK Einbaurahmen 3.5" auf 5.25" weiß (18044) um €1,70 (statt: €0,87) bei Rakuten
02.09.2014, 14:07 -2.28% Corsair Obsidian Series 350D mit Sichtfenster (CC-9011029-WW) um €84,46 (statt: €86,43) bei CSV-Direct.de
02.09.2014, 14:07 +1.44% Apple iPad Air LTE 32GB schwarz/grau (MD792FD/A) um €618,80 (statt: €610,--) bei fernseher-guenstiger
02.09.2014, 14:07 +7.65% Epson S015077 Farbband farbig um €19,99 (statt: €18,57) bei MetaComp
02.09.2014, 14:07 -1.54% Panasonic DMW-LMC52E Filter Schutz um €22,38 (statt: €22,73) bei CSV-Direct.de
02.09.2014, 14:07 -0.98% DeLOCK 95232, 2x seriell/1x parallel, PCIe Mini Card um €23,32 (statt: €23,55) bei CSV-Direct.de
02.09.2014, 14:07 +16.39% DeLOCK HDMI Adapter, Stecker/Stecker, gewinkelt links (65080) um €2,13 (statt: €1,83) bei bIT-Service
02.09.2014, 14:07 +1.80% Polycom/Polyspan Soundstation IP 6000 ohne Netzteil (2200-15600-001) um €451,12 (statt: €443,13) bei Innet GmbH
02.09.2014, 14:07 +313.17% Brother TN-02M Toner magenta um €59,-- (statt: €14,28) bei WSV-Computer
02.09.2014, 14:07 +2.04% TeamGroup DIMM 8GB, DDR3-1333, CL9 (TMDR38192M1333C9) um €61,12 (statt: €59,90) bei warehouse2
02.09.2014, 14:07 +6.94% Plextor M5M 128GB, mSATA 6Gb/s (PX-128M5M) um €76,89 (statt: €71,90) bei anobo.de
02.09.2014, 14:07 -6.05% Enermax ETS-T40-W um €35,70 (statt: €38,--) bei Mix-Computer
02.09.2014, 14:07 -0.67% Enermax ETS-T40-BK um €35,70 (statt: €35,94) bei Mix-Computer
02.09.2014, 14:07 -1.58% Enermax Revolution X't 630W ATX 2.4 (ERX630AWT) um €94,38 (statt: €95,90) bei Mix-Computer
02.09.2014, 14:07 -6.72% Enermax ETS-N30-TAA um €19,17 (statt: €20,55) bei Mix-Computer
02.09.2014, 14:07 -4.67% Enermax Revolution X't 730W ATX 2.4 (ERX730AWT) um €102,58 (statt: €107,61) bei Mix-Computer
02.09.2014, 14:07 -3.51% Enermax Platimax 1350W ATX 2.4 (EPM1350EWT) um €249,90 (statt: €259,--) bei Mix-Computer
02.09.2014, 14:07 -10.31% Sony MDR-ZX600R rot um €40,26 (statt: €44,89) bei CSV-Direct.de
02.09.2014, 14:05 -5.90% Jack Wolfskin Iceguard Mantel (Damen) um €84,64 (statt: €89,95) bei Amazon.de
02.09.2014, 14:05 -29.96% Tritton Gears of War 3 Performance Stereo Headset (Xbox 360) um €41,99 (statt: €59,95) bei Amazon.de
02.09.2014, 14:05 +19.08% Berghaus Verden 45+8 um €134,-- (statt: €112,53) bei Taschen Paradies
02.09.2014, 14:05 +11.41% Teenage Mutant Ninja Turtles - Kraang Invasion um €7,52 (statt: €6,75) bei nagiry DE
02.09.2014, 14:05 -3.68% Frau Ella um €6,55 (statt: €6,80) bei Amazon.de
02.09.2014, 14:05 -1.46% Nikon CS-S15 Ledertasche braun (VAECSS15) um €11,46 (statt: €11,63) bei Amazon.de
02.09.2014, 14:05 -5.00% Canyon CNR-WCAM713G, USB 2.0 um €14,83 (statt: €15,61) bei Amazon.de
02.09.2014, 14:05 +12.22% Call of Juarez 2 - Bound in Blood (deutsch) (Xbox 360) um €10,65 (statt: €9,49) bei komplett-allesguenstig
02.09.2014, 14:05 +9.86% CamelBak FlashFlo Trinktasche um €37,90 (statt: €34,50) bei funktionelles.de
02.09.2014, 14:05 -1.53% Diverse Schutzhüllen für iPod nano 5G um €5,80 (statt: €5,89) bei Amazon.de
02.09.2014, 14:05 -1.57% Simba Toys ABC Activitywürfel (104012553) um €9,42 (statt: €9,57) bei Amazon.de
02.09.2014, 14:05 +3.35% iStorage diskGenie AES 128-Bit 500GB, USB 2.0 (IS-DG-128-500) um €190,83 (statt: €184,64) bei Cleverboxes Limited DE
02.09.2014, 14:05 -1.11% Tenda TEG1016G, 16-Port um €46,30 (statt: €46,82) bei Amazon.de
02.09.2014, 14:05 -4.40% Casio Collection A159WGEA-5EF um €33,46 (statt: €35,--) bei Amazon.de
02.09.2014, 14:05 +55.25% Red Cliff um €8,43 (statt: €5,43) bei Multi-Media-Trade GmbH
02.09.2014, 14:05 +12.29% Warum Männer nicht zuhören und Frauen schlecht einparken um €5,94 (statt: €5,29) bei eBay.de
02.09.2014, 14:05 -2.90% Delsey ODC 25 Kameratasche schwarz um €74,56 (statt: €76,79) bei Amazon.de
02.09.2014, 14:05 +254.44% Lexmark 12L0250 Toner schwarz um €127,60 (statt: €36,--) bei x-toner
02.09.2014, 14:05 +43.96% Auf Messers Schneide - Rivalen am Abgrund um €7,99 (statt: €5,55) bei buch.de
02.09.2014, 14:05 +8.71% Skagen 355SMM1 um €137,68 (statt: €126,65) bei Il Passatempo
02.09.2014, 14:05 +2.14% Bosch GBH 2-28DFV Bohrhammer inkl. L-Boxx (0611267201) um €221,64 (statt: €217,--) bei werkzeugalarm
02.09.2014, 14:05 -3.78% Europet Bernina Höhle mit Baum Aquariendekoration um €14,77 (statt: €15,35) bei Amazon.de
02.09.2014, 14:05 +3.39% Calvin Klein Obsession for Women Eau de Parfum 100ml um €22,90 (statt: €22,15) bei Parfüm für Dich
02.09.2014, 14:04 +1.20% Pocahontas (Disney) (Blu-ray) um €10,95 (statt: €10,82) bei Empor
02.09.2014, 14:04 -0.97% Wolf-Garten Ambition 34E Elektro-Rasenmäher (18ACG4J2-650) um €106,14 (statt: €107,18) bei Amazon.de
02.09.2014, 14:04 +22.92% The 51st State um €7,99 (statt: €6,50) bei bol.de
02.09.2014, 14:04 -5.00% Lindy DVI-D Premium Gold Dual Link DVI-D Kabel 10m (37044) um €62,69 (statt: €65,99) bei Amazon.de
02.09.2014, 14:04 +5.42% Trelock LS 882 Frontlicht um €38,90 (statt: €36,90) bei Amazon.de
02.09.2014, 14:04 -0.80% Maier Sports Ettal Hose (Herren) um €87,78 (statt: €88,49) bei Amazon.de
02.09.2014, 14:04 +1.01% No Exit um €5,-- (statt: €4,95) bei Eliware DE
02.09.2014, 14:04 +2.65% Inventum MX400 Stabmixer um €41,05 (statt: €39,99) bei atlantis-shop24: Jubelpreise - 33 Jahre Atlantis
02.09.2014, 14:04 +3.41% Trelock LS 885 Frontlicht um €40,30 (statt: €38,97) bei R2G Onlineshop
02.09.2014, 14:04 +0.72% Casio Edifice EFR-529D-1A9VUEF um €113,05 (statt: €112,24) bei uhrcenter | Meinpaket
02.09.2014, 14:04 +11.75% VauDe Sesvenna Jacke (Damen) um €114,99 (statt: €102,90) bei campz.de
02.09.2014, 14:04 -4.99% Toshiba T-FC28E-K Toner schwarz (6AK00000081/6AJ00000047) um €37,47 (statt: €39,44) bei Amazon.de
02.09.2014, 14:04 -5.00% Pinewood Himalaya Hose (Herren) um €51,14 (statt: €53,83) bei Amazon.de
02.09.2014, 14:04 +14.55% Kopfüber in die Nacht um €5,59 (statt: €4,88) bei media-dealer
02.09.2014, 14:04 +0.85% Samsung Galaxy Tab 4 10.1 T530N 16GB weiß (SM-T530NZWA) um €248,-- (statt: €245,90) bei carbonphone.de
02.09.2014, 14:04 +5.34% Schneller als der Tod um €4,93 (statt: €4,68) bei zoreno-deutschland
02.09.2014, 14:04 +31.74% Osram Cool Blue Intense HB3 60W, 2er-Pack (9005CBI) um €17,39 (statt: €13,20) bei raceland
02.09.2014, 14:04 -5.58% Veho VSS-747-360BT M4 weiß um €40,41 (statt: €42,80) bei Amazon.de
02.09.2014, 14:04 +67.72% The Forbidden Kingdom (Special Editions) um €7,43 (statt: €4,43) bei Multi-Media-Trade GmbH
02.09.2014, 14:04 -1.97% HighPoint Rocket EJ220 um €73,66 (statt: €75,14) bei Amazon.de
02.09.2014, 14:04 -1.69% Samsung Galaxy Tab 8.9 Keyboard und Schutzhülle (BKC-1C9GBBGXEU) um €61,64 (statt: €62,70) bei Amazon.de
02.09.2014, 14:04 +13.42% ADATA Superior S102 Pro blau 32GB, USB 3.0 (AS102P-32G-RBL) um €16,90 (statt: €14,90) bei HiQ24
02.09.2014, 14:04 -5.00% AlpenTab TB7AB 4GB schwarz um €69,12 (statt: €72,76) bei Amazon.de
02.09.2014, 14:04 -5.00% Lenco CARTAB-920 um €104,15 (statt: €109,63) bei Amazon.de
02.09.2014, 14:04 -1.28% Logitech F710 Wireless Gamepad, USB (PC) (940-000121/940-000118) um €39,35 (statt: €39,86) bei Amazon.de
02.09.2014, 14:04 -4.99% Targus Vustyle iPad Air Case schwarz (THZ342EU) um €21,88 (statt: €23,03) bei Amazon.de
02.09.2014, 14:04 -4.97% Xerox 097N01524 Papierzuführung um €220,68 (statt: €232,23) bei Amazon.de
02.09.2014, 14:04 -0.75% Hähnel HL-C819 Li-Ionen-Akku (1000 175.6) um €56,55 (statt: €56,98) bei Amazon.de
02.09.2014, 14:04 +15.13% Karate Kid 2 - Entscheidung in Okinawa (Blu-ray) um €7,99 (statt: €6,94) bei media-dealer
02.09.2014, 14:04 -2.97% Ice-Watch Ice-Pure Red Small (PU.RD.S.P.12) um €43,17 (statt: €44,49) bei Amazon.de
02.09.2014, 14:04 +3.02% Philips HD7854/60 Senseo Latte Select Kaffeepadmaschine um €132,90 (statt: €129,--) bei redcoon.de
02.09.2014, 14:04 -5.00% LSI SAS 9300-4i Kit, low profile, PCIe 3.0 x8 (LSI00347) um €171,89 (statt: €180,94) bei Amazon.de
02.09.2014, 14:04 +88.18% Hans Theessink - Live in Concert/A Blues & Roots um €17,99 (statt: €9,56) bei Amazon.de
02.09.2014, 14:04 -5.00% Ultrasone PRO 900 um €327,50 (statt: €344,74) bei Amazon.de
02.09.2014, 14:04 +49.88% Staatsfeind Nr. 1 (Special Editions) um €6,49 (statt: €4,33) bei Multi-Media-Trade GmbH
02.09.2014, 14:04 -0.93% Emporio Armani AR0459 um €126,61 (statt: €127,80) bei Amazon.de





Copyright © 1997-2014 Preisvergleich Internet Services AG